﻿<?xml version="1.0" encoding="utf-8"?><gpx creator="Garmin Desktop App" version="1.1" xsi:schemaLocation="http://www.topografix.com/GPX/1/1 http://www.topografix.com/GPX/1/1/gpx.xsd http://www.garmin.com/xmlschemas/WaypointExtension/v1 http://www8.garmin.com/xmlschemas/WaypointExtensionv1.xsd http://www.garmin.com/xmlschemas/TrackPointExtension/v1 http://www.garmin.com/xmlschemas/TrackPointExtensionv1.xsd http://www.garmin.com/xmlschemas/GpxExtensions/v3 http://www8.garmin.com/xmlschemas/GpxExtensionsv3.xsd http://www.garmin.com/xmlschemas/ActivityExtension/v1 http://www8.garmin.com/xmlschemas/ActivityExtensionv1.xsd http://www.garmin.com/xmlschemas/AdventuresExtensions/v1 http://www8.garmin.com/xmlschemas/AdventuresExtensionv1.xsd http://www.garmin.com/xmlschemas/PressureExtension/v1 http://www.garmin.com/xmlschemas/PressureExtensionv1.xsd http://www.garmin.com/xmlschemas/TripExtensions/v1 http://www.garmin.com/xmlschemas/TripExtensionsv1.xsd http://www.garmin.com/xmlschemas/TripMetaDataExtensions/v1 http://www.garmin.com/xmlschemas/TripMetaDataExtensionsv1.xsd http://www.garmin.com/xmlschemas/ViaPointTransportationModeExtensions/v1 http://www.garmin.com/xmlschemas/ViaPointTransportationModeExtensionsv1.xsd http://www.garmin.com/xmlschemas/CreationTimeExtension/v1 http://www.garmin.com/xmlschemas/CreationTimeExtensionsv1.xsd http://www.garmin.com/xmlschemas/AccelerationExtension/v1 http://www.garmin.com/xmlschemas/AccelerationExtensionv1.xsd http://www.garmin.com/xmlschemas/PowerExtension/v1 http://www.garmin.com/xmlschemas/PowerExtensionv1.xsd http://www.garmin.com/xmlschemas/VideoExtension/v1 http://www.garmin.com/xmlschemas/VideoExtensionv1.xsd" xmlns="http://www.topografix.com/GPX/1/1" xmlns:xsi="http://www.w3.org/2001/XMLSchema-instance" xmlns:wptx1="http://www.garmin.com/xmlschemas/WaypointExtension/v1" xmlns:gpxtrx="http://www.garmin.com/xmlschemas/GpxExtensions/v3" xmlns:gpxtpx="http://www.garmin.com/xmlschemas/TrackPointExtension/v1" xmlns:gpxx="http://www.garmin.com/xmlschemas/GpxExtensions/v3" xmlns:trp="http://www.garmin.com/xmlschemas/TripExtensions/v1" xmlns:adv="http://www.garmin.com/xmlschemas/AdventuresExtensions/v1" xmlns:prs="http://www.garmin.com/xmlschemas/PressureExtension/v1" xmlns:tmd="http://www.garmin.com/xmlschemas/TripMetaDataExtensions/v1" xmlns:vptm="http://www.garmin.com/xmlschemas/ViaPointTransportationModeExtensions/v1" xmlns:ctx="http://www.garmin.com/xmlschemas/CreationTimeExtension/v1" xmlns:gpxacc="http://www.garmin.com/xmlschemas/AccelerationExtension/v1" xmlns:gpxpx="http://www.garmin.com/xmlschemas/PowerExtension/v1" xmlns:vidx1="http://www.garmin.com/xmlschemas/VideoExtension/v1">

  <metadata>
    <link href="http://www.garmin.com">
      <text>Garmin International</text>
    </link>
    <time>2023-09-04T18:58:18Z</time>
    <bounds maxlat="51.193199995905161" maxlon="8.478251975029707" minlat="50.054591037333012" minlon="1.865444015711546" />
  </metadata>

  <trk>
    <name>Track 230904</name>
    <extensions>
      <gpxx:TrackExtension>
        <gpxx:DisplayColor>DarkGray</gpxx:DisplayColor>
      </gpxx:TrackExtension>
    </extensions>
    <trkseg>
      <trkpt lat="50.943118035793304" lon="1.866738013923168">
        <ele>9.75</ele>
        <time>2023-09-04T06:25:12Z</time>
      </trkpt>
      <trkpt lat="50.943119963631034" lon="1.866738013923168">
        <ele>8.789999999999999</ele>
        <time>2023-09-04T06:25:48Z</time>
      </trkpt>
      <trkpt lat="50.943123986944556" lon="1.866709012538195">
        <ele>8.789999999999999</ele>
        <time>2023-09-04T06:25:50Z</time>
      </trkpt>
      <trkpt lat="50.943139996379614" lon="1.866683028638363">
        <ele>8.789999999999999</ele>
        <time>2023-09-04T06:25:51Z</time>
      </trkpt>
      <trkpt lat="50.943154999986291" lon="1.866659978404641">
        <ele>8.310000000000001</ele>
        <time>2023-09-04T06:25:52Z</time>
      </trkpt>
      <trkpt lat="50.943167991936207" lon="1.866639023646712">
        <ele>8.310000000000001</ele>
        <time>2023-09-04T06:25:53Z</time>
      </trkpt>
      <trkpt lat="50.943218031898141" lon="1.866559982299805">
        <ele>7.35</ele>
        <time>2023-09-04T06:25:56Z</time>
      </trkpt>
      <trkpt lat="50.943266982212663" lon="1.86652896925807">
        <ele>7.35</ele>
        <time>2023-09-04T06:25:57Z</time>
      </trkpt>
      <trkpt lat="50.943318028002977" lon="1.866496028378606">
        <ele>6.87</ele>
        <time>2023-09-04T06:25:58Z</time>
      </trkpt>
      <trkpt lat="50.944014983251691" lon="1.866050027310848">
        <ele>4.46</ele>
        <time>2023-09-04T06:26:09Z</time>
      </trkpt>
      <trkpt lat="50.94407700933516" lon="1.866009961813688">
        <ele>4.94</ele>
        <time>2023-09-04T06:26:10Z</time>
      </trkpt>
      <trkpt lat="50.94414196908474" lon="1.865967968478799">
        <ele>5.42</ele>
        <time>2023-09-04T06:26:11Z</time>
      </trkpt>
      <trkpt lat="50.944565003737807" lon="1.865719025954604">
        <ele>7.83</ele>
        <time>2023-09-04T06:26:18Z</time>
      </trkpt>
      <trkpt lat="50.944690983742476" lon="1.865648031234741">
        <ele>9.75</ele>
        <time>2023-09-04T06:26:26Z</time>
      </trkpt>
      <trkpt lat="50.944715039804578" lon="1.865634033456445">
        <ele>9.75</ele>
        <time>2023-09-04T06:26:27Z</time>
      </trkpt>
      <trkpt lat="50.944953002035618" lon="1.865500006824732">
        <ele>11.67</ele>
        <time>2023-09-04T06:26:33Z</time>
      </trkpt>
      <trkpt lat="50.945004969835281" lon="1.865471005439758">
        <ele>11.67</ele>
        <time>2023-09-04T06:26:34Z</time>
      </trkpt>
      <trkpt lat="50.945052998140454" lon="1.865444015711546">
        <ele>12.15</ele>
        <time>2023-09-04T06:26:35Z</time>
      </trkpt>
      <trkpt lat="50.94515098258853" lon="1.86547301709652">
        <ele>12.15</ele>
        <time>2023-09-04T06:26:36Z</time>
      </trkpt>
      <trkpt lat="50.94517101533711" lon="1.865530014038086">
        <ele>12.15</ele>
        <time>2023-09-04T06:26:37Z</time>
      </trkpt>
      <trkpt lat="50.945187024772167" lon="1.865644007921219">
        <ele>12.630000000000001</ele>
        <time>2023-09-04T06:26:38Z</time>
      </trkpt>
      <trkpt lat="50.945204962044954" lon="1.865733023732901">
        <ele>12.630000000000001</ele>
        <time>2023-09-04T06:26:39Z</time>
      </trkpt>
      <trkpt lat="50.945252990350127" lon="1.865898985415697">
        <ele>12.630000000000001</ele>
        <time>2023-09-04T06:26:41Z</time>
      </trkpt>
      <trkpt lat="50.945417024195194" lon="1.866515977308154">
        <ele>11.67</ele>
        <time>2023-09-04T06:26:51Z</time>
      </trkpt>
      <trkpt lat="50.94543001614511" lon="1.866585966199637">
        <ele>11.19</ele>
        <time>2023-09-04T06:26:52Z</time>
      </trkpt>
      <trkpt lat="50.945460023358464" lon="1.866756035014987">
        <ele>10.23</ele>
        <time>2023-09-04T06:26:54Z</time>
      </trkpt>
      <trkpt lat="50.94547200948" lon="1.866825018078089">
        <ele>9.75</ele>
        <time>2023-09-04T06:26:55Z</time>
      </trkpt>
      <trkpt lat="50.945483995601535" lon="1.866894001141191">
        <ele>8.789999999999999</ele>
        <time>2023-09-04T06:26:56Z</time>
      </trkpt>
      <trkpt lat="50.945299006998539" lon="1.867268001660705">
        <ele>6.87</ele>
        <time>2023-09-04T06:26:58Z</time>
      </trkpt>
      <trkpt lat="50.944903967902064" lon="1.868120022118092">
        <ele>2.54</ele>
        <time>2023-09-04T06:27:08Z</time>
      </trkpt>
      <trkpt lat="50.944405999034643" lon="1.869164993986487">
        <ele>1.1</ele>
        <time>2023-09-04T06:27:19Z</time>
      </trkpt>
      <trkpt lat="50.943770986050367" lon="1.870490005239844">
        <ele>0.14</ele>
        <time>2023-09-04T06:27:31Z</time>
      </trkpt>
      <trkpt lat="50.94328299164772" lon="1.871475968509913">
        <ele>-0.34</ele>
        <time>2023-09-04T06:27:40Z</time>
      </trkpt>
      <trkpt lat="50.943230018019676" lon="1.871587028726935">
        <ele>-0.34</ele>
        <time>2023-09-04T06:27:41Z</time>
      </trkpt>
      <trkpt lat="50.9431769605726" lon="1.871700016781688">
        <ele>-0.34</ele>
        <time>2023-09-04T06:27:42Z</time>
      </trkpt>
      <trkpt lat="50.943013010546565" lon="1.872060019522905">
        <ele>-0.82</ele>
        <time>2023-09-04T06:27:45Z</time>
      </trkpt>
      <trkpt lat="50.942957019433379" lon="1.872184993699193">
        <ele>-1.3</ele>
        <time>2023-09-04T06:27:46Z</time>
      </trkpt>
      <trkpt lat="50.942898010835052" lon="1.8723089620471">
        <ele>-1.3</ele>
        <time>2023-09-04T06:27:47Z</time>
      </trkpt>
      <trkpt lat="50.942840008065104" lon="1.872429996728897">
        <ele>-1.3</ele>
        <time>2023-09-04T06:27:48Z</time>
      </trkpt>
      <trkpt lat="50.942782005295157" lon="1.872549019753933">
        <ele>-1.3</ele>
        <time>2023-09-04T06:27:49Z</time>
      </trkpt>
      <trkpt lat="50.942728025838733" lon="1.872661001980305">
        <ele>-1.3</ele>
        <time>2023-09-04T06:27:50Z</time>
      </trkpt>
      <trkpt lat="50.942457960918546" lon="1.873208004981279">
        <ele>1.58</ele>
        <time>2023-09-04T06:27:58Z</time>
      </trkpt>
      <trkpt lat="50.942457960918546" lon="1.873208004981279">
        <ele>2.06</ele>
        <time>2023-09-04T06:28:09Z</time>
      </trkpt>
      <trkpt lat="50.94229401089251" lon="1.873535988852382">
        <ele>4.46</ele>
        <time>2023-09-04T06:28:30Z</time>
      </trkpt>
      <trkpt lat="50.941806016489863" lon="1.874612979590893">
        <ele>4.46</ele>
        <time>2023-09-04T06:28:40Z</time>
      </trkpt>
      <trkpt lat="50.941619016230106" lon="1.875010030344129">
        <ele>4.46</ele>
        <time>2023-09-04T06:28:48Z</time>
      </trkpt>
      <trkpt lat="50.94132699072361" lon="1.875620987266302">
        <ele>3.98</ele>
        <time>2023-09-04T06:28:55Z</time>
      </trkpt>
      <trkpt lat="50.940713016316295" lon="1.876849019899964">
        <ele>4.94</ele>
        <time>2023-09-04T06:29:06Z</time>
      </trkpt>
      <trkpt lat="50.940650990232825" lon="1.876971982419491">
        <ele>4.46</ele>
        <time>2023-09-04T06:29:07Z</time>
      </trkpt>
      <trkpt lat="50.940584018826485" lon="1.877107014879584">
        <ele>4.46</ele>
        <time>2023-09-04T06:29:08Z</time>
      </trkpt>
      <trkpt lat="50.940502965822816" lon="1.877230983227491">
        <ele>4.46</ele>
        <time>2023-09-04T06:29:09Z</time>
      </trkpt>
      <trkpt lat="50.940417973324656" lon="1.877340031787753">
        <ele>4.46</ele>
        <time>2023-09-04T06:29:10Z</time>
      </trkpt>
      <trkpt lat="50.940347984433174" lon="1.877430975437164">
        <ele>4.46</ele>
        <time>2023-09-04T06:29:11Z</time>
      </trkpt>
      <trkpt lat="50.940299034118652" lon="1.877503981813788">
        <ele>4.46</ele>
        <time>2023-09-04T06:29:12Z</time>
      </trkpt>
      <trkpt lat="50.940257040783763" lon="1.877567013725638">
        <ele>4.94</ele>
        <time>2023-09-04T06:29:13Z</time>
      </trkpt>
      <trkpt lat="50.940151009708643" lon="1.877576988190413">
        <ele>4.94</ele>
        <time>2023-09-04T06:29:14Z</time>
      </trkpt>
      <trkpt lat="50.940013965591788" lon="1.877534994855523">
        <ele>5.42</ele>
        <time>2023-09-04T06:29:16Z</time>
      </trkpt>
      <trkpt lat="50.939931990578771" lon="1.877571037039161">
        <ele>5.91</ele>
        <time>2023-09-04T06:29:17Z</time>
      </trkpt>
      <trkpt lat="50.939870970323682" lon="1.877630967646837">
        <ele>5.91</ele>
        <time>2023-09-04T06:29:18Z</time>
      </trkpt>
      <trkpt lat="50.939833000302315" lon="1.877745967358351">
        <ele>5.91</ele>
        <time>2023-09-04T06:29:19Z</time>
      </trkpt>
      <trkpt lat="50.939810033887625" lon="1.877861972898245">
        <ele>6.39</ele>
        <time>2023-09-04T06:29:20Z</time>
      </trkpt>
      <trkpt lat="50.939823025837541" lon="1.877974960952997">
        <ele>6.39</ele>
        <time>2023-09-04T06:29:21Z</time>
      </trkpt>
      <trkpt lat="50.939827971160412" lon="1.878017960116267">
        <ele>6.39</ele>
        <time>2023-09-04T06:29:22Z</time>
      </trkpt>
      <trkpt lat="50.939910029992461" lon="1.878141006454825">
        <ele>6.39</ele>
        <time>2023-09-04T06:29:23Z</time>
      </trkpt>
      <trkpt lat="50.939925033599138" lon="1.87836597673595">
        <ele>6.39</ele>
        <time>2023-09-04T06:29:24Z</time>
      </trkpt>
      <trkpt lat="50.939897038042545" lon="1.878490028902888">
        <ele>5.91</ele>
        <time>2023-09-04T06:29:25Z</time>
      </trkpt>
      <trkpt lat="50.939859990030527" lon="1.87862103804946">
        <ele>5.91</ele>
        <time>2023-09-04T06:29:26Z</time>
      </trkpt>
      <trkpt lat="50.939383981749415" lon="1.879679001867771">
        <ele>4.46</ele>
        <time>2023-09-04T06:29:36Z</time>
      </trkpt>
      <trkpt lat="50.938678979873657" lon="1.881134016439319">
        <ele>5.42</ele>
        <time>2023-09-04T06:29:48Z</time>
      </trkpt>
      <trkpt lat="50.93812401406467" lon="1.882300022989512">
        <ele>5.42</ele>
        <time>2023-09-04T06:29:58Z</time>
      </trkpt>
      <trkpt lat="50.937515990808606" lon="1.88354498706758">
        <ele>5.42</ele>
        <time>2023-09-04T06:30:07Z</time>
      </trkpt>
      <trkpt lat="50.936852982267737" lon="1.884946022182703">
        <ele>6.39</ele>
        <time>2023-09-04T06:30:17Z</time>
      </trkpt>
      <trkpt lat="50.936732031404972" lon="1.885209968313575">
        <ele>6.87</ele>
        <time>2023-09-04T06:30:19Z</time>
      </trkpt>
      <trkpt lat="50.9366649761796" lon="1.885355981066823">
        <ele>6.87</ele>
        <time>2023-09-04T06:30:20Z</time>
      </trkpt>
      <trkpt lat="50.935971038416028" lon="1.886818958446384">
        <ele>6.87</ele>
        <time>2023-09-04T06:30:30Z</time>
      </trkpt>
      <trkpt lat="50.935488995164633" lon="1.887813974171877">
        <ele>6.39</ele>
        <time>2023-09-04T06:30:39Z</time>
      </trkpt>
      <trkpt lat="50.935305012390018" lon="1.888191998004913">
        <ele>6.39</ele>
        <time>2023-09-04T06:30:46Z</time>
      </trkpt>
      <trkpt lat="50.935305012390018" lon="1.888191998004913">
        <ele>6.39</ele>
        <time>2023-09-04T06:30:57Z</time>
      </trkpt>
      <trkpt lat="50.935166962444782" lon="1.888481006026268">
        <ele>7.83</ele>
        <time>2023-09-04T06:31:19Z</time>
      </trkpt>
      <trkpt lat="50.935021033510566" lon="1.888789962977171">
        <ele>8.789999999999999</ele>
        <time>2023-09-04T06:31:22Z</time>
      </trkpt>
      <trkpt lat="50.934975016862154" lon="1.888889959082007">
        <ele>8.789999999999999</ele>
        <time>2023-09-04T06:31:23Z</time>
      </trkpt>
      <trkpt lat="50.934481993317604" lon="1.889844993129373">
        <ele>7.83</ele>
        <time>2023-09-04T06:31:34Z</time>
      </trkpt>
      <trkpt lat="50.934418961405754" lon="1.88992403447628">
        <ele>7.35</ele>
        <time>2023-09-04T06:31:46Z</time>
      </trkpt>
      <trkpt lat="50.934313014149666" lon="1.8900559656322">
        <ele>6.39</ele>
        <time>2023-09-04T06:32:00Z</time>
      </trkpt>
      <trkpt lat="50.934228021651506" lon="1.890102988108993">
        <ele>5.91</ele>
        <time>2023-09-04T06:32:02Z</time>
      </trkpt>
      <trkpt lat="50.93417395837605" lon="1.890132995322347">
        <ele>5.91</ele>
        <time>2023-09-04T06:32:03Z</time>
      </trkpt>
      <trkpt lat="50.934119978919625" lon="1.890163002535701">
        <ele>5.42</ele>
        <time>2023-09-04T06:32:04Z</time>
      </trkpt>
      <trkpt lat="50.934033980593085" lon="1.890121009200811">
        <ele>4.94</ele>
        <time>2023-09-04T06:32:05Z</time>
      </trkpt>
      <trkpt lat="50.933949993923306" lon="1.890121009200811">
        <ele>4.46</ele>
        <time>2023-09-04T06:32:06Z</time>
      </trkpt>
      <trkpt lat="50.933860978111625" lon="1.890121009200811">
        <ele>4.46</ele>
        <time>2023-09-04T06:32:07Z</time>
      </trkpt>
      <trkpt lat="50.933841029182076" lon="1.890121009200811">
        <ele>4.46</ele>
        <time>2023-09-04T06:32:08Z</time>
      </trkpt>
      <trkpt lat="50.933690993115306" lon="1.89018496312201">
        <ele>3.98</ele>
        <time>2023-09-04T06:32:09Z</time>
      </trkpt>
      <trkpt lat="50.933595020323992" lon="1.890280013903976">
        <ele>3.98</ele>
        <time>2023-09-04T06:32:10Z</time>
      </trkpt>
      <trkpt lat="50.93350600451231" lon="1.89039601944387">
        <ele>3.5</ele>
        <time>2023-09-04T06:32:11Z</time>
      </trkpt>
      <trkpt lat="50.933453030884266" lon="1.890555024147034">
        <ele>3.02</ele>
        <time>2023-09-04T06:32:12Z</time>
      </trkpt>
      <trkpt lat="50.933409025892615" lon="1.890732971951366">
        <ele>2.54</ele>
        <time>2023-09-04T06:32:13Z</time>
      </trkpt>
      <trkpt lat="50.933398967608809" lon="1.89091301523149">
        <ele>2.54</ele>
        <time>2023-09-04T06:32:14Z</time>
      </trkpt>
      <trkpt lat="50.933392010629177" lon="1.891098003834486">
        <ele>2.06</ele>
        <time>2023-09-04T06:32:15Z</time>
      </trkpt>
      <trkpt lat="50.933430986478925" lon="1.891292966902256">
        <ele>2.06</ele>
        <time>2023-09-04T06:32:16Z</time>
      </trkpt>
      <trkpt lat="50.933500975370407" lon="1.891418024897575">
        <ele>2.06</ele>
        <time>2023-09-04T06:32:17Z</time>
      </trkpt>
      <trkpt lat="50.933572975918651" lon="1.891547022387385">
        <ele>2.06</ele>
        <time>2023-09-04T06:32:18Z</time>
      </trkpt>
      <trkpt lat="50.933626033365726" lon="1.89164400100708">
        <ele>2.06</ele>
        <time>2023-09-04T06:32:19Z</time>
      </trkpt>
      <trkpt lat="50.933727035298944" lon="1.891821026802063">
        <ele>2.06</ele>
        <time>2023-09-04T06:32:20Z</time>
      </trkpt>
      <trkpt lat="50.933755030855536" lon="1.892002997919917">
        <ele>2.06</ele>
        <time>2023-09-04T06:32:21Z</time>
      </trkpt>
      <trkpt lat="50.933787971735001" lon="1.892199972644448">
        <ele>2.54</ele>
        <time>2023-09-04T06:32:22Z</time>
      </trkpt>
      <trkpt lat="50.933923004195094" lon="1.892841020599008">
        <ele>2.54</ele>
        <time>2023-09-04T06:32:25Z</time>
      </trkpt>
      <trkpt lat="50.933989975601435" lon="1.893052998930216">
        <ele>2.54</ele>
        <time>2023-09-04T06:32:26Z</time>
      </trkpt>
      <trkpt lat="50.934606967493892" lon="1.895014028996229">
        <ele>3.02</ele>
        <time>2023-09-04T06:32:34Z</time>
      </trkpt>
      <trkpt lat="50.93513703905046" lon="1.89808901399374">
        <ele>3.02</ele>
        <time>2023-09-04T06:32:43Z</time>
      </trkpt>
      <trkpt lat="50.935537023469806" lon="1.900950009003282">
        <ele>3.98</ele>
        <time>2023-09-04T06:32:52Z</time>
      </trkpt>
      <trkpt lat="50.935843968763947" lon="1.905023027211428">
        <ele>5.42</ele>
        <time>2023-09-04T06:33:06Z</time>
      </trkpt>
      <trkpt lat="50.935973972082138" lon="1.908375034108758">
        <ele>3.98</ele>
        <time>2023-09-04T06:33:17Z</time>
      </trkpt>
      <trkpt lat="50.936167007312179" lon="1.912760026752949">
        <ele>4.46</ele>
        <time>2023-09-04T06:33:31Z</time>
      </trkpt>
      <trkpt lat="50.93640798702836" lon="1.917460011318326">
        <ele>5.42</ele>
        <time>2023-09-04T06:33:46Z</time>
      </trkpt>
      <trkpt lat="50.936655001714826" lon="1.9212949834764">
        <ele>4.46</ele>
        <time>2023-09-04T06:33:57Z</time>
      </trkpt>
      <trkpt lat="50.937025984749198" lon="1.92694203928113">
        <ele>4.94</ele>
        <time>2023-09-04T06:34:12Z</time>
      </trkpt>
      <trkpt lat="50.937348017469049" lon="1.932081989943981">
        <ele>5.42</ele>
        <time>2023-09-04T06:34:25Z</time>
      </trkpt>
      <trkpt lat="50.937532000243664" lon="1.938378978520632">
        <ele>6.39</ele>
        <time>2023-09-04T06:34:40Z</time>
      </trkpt>
      <trkpt lat="50.937572987750173" lon="1.944427024573088">
        <ele>4.94</ele>
        <time>2023-09-04T06:34:54Z</time>
      </trkpt>
      <trkpt lat="50.937427980825305" lon="1.948319999501109">
        <ele>3.98</ele>
        <time>2023-09-04T06:35:02Z</time>
      </trkpt>
      <trkpt lat="50.937184989452362" lon="1.951918015256524">
        <ele>4.46</ele>
        <time>2023-09-04T06:35:10Z</time>
      </trkpt>
      <trkpt lat="50.936737982556224" lon="1.957719968631864">
        <ele>5.42</ele>
        <time>2023-09-04T06:35:23Z</time>
      </trkpt>
      <trkpt lat="50.936355013400316" lon="1.96269404143095">
        <ele>4.46</ele>
        <time>2023-09-04T06:35:34Z</time>
      </trkpt>
      <trkpt lat="50.936087965965271" lon="1.967833992093802">
        <ele>4.94</ele>
        <time>2023-09-04T06:35:46Z</time>
      </trkpt>
      <trkpt lat="50.935846986249089" lon="1.972531965002418">
        <ele>4.94</ele>
        <time>2023-09-04T06:35:57Z</time>
      </trkpt>
      <trkpt lat="50.9353750012815" lon="1.977574015036225">
        <ele>4.94</ele>
        <time>2023-09-04T06:36:08Z</time>
      </trkpt>
      <trkpt lat="50.934680979698896" lon="1.984476009383798">
        <ele>5.42</ele>
        <time>2023-09-04T06:36:22Z</time>
      </trkpt>
      <trkpt lat="50.934221986681223" lon="1.989068035036326">
        <ele>5.42</ele>
        <time>2023-09-04T06:36:32Z</time>
      </trkpt>
      <trkpt lat="50.933694010600448" lon="1.994209997355938">
        <ele>6.39</ele>
        <time>2023-09-04T06:36:43Z</time>
      </trkpt>
      <trkpt lat="50.933137033134699" lon="1.999770971015096">
        <ele>5.42</ele>
        <time>2023-09-04T06:36:55Z</time>
      </trkpt>
      <trkpt lat="50.932526998221874" lon="2.005884982645512">
        <ele>6.39</ele>
        <time>2023-09-04T06:37:09Z</time>
      </trkpt>
      <trkpt lat="50.932127013802528" lon="2.010477008298039">
        <ele>4.94</ele>
        <time>2023-09-04T06:37:19Z</time>
      </trkpt>
      <trkpt lat="50.93187103047967" lon="2.016196986660361">
        <ele>3.98</ele>
        <time>2023-09-04T06:37:32Z</time>
      </trkpt>
      <trkpt lat="50.931817973032594" lon="2.02087702229619">
        <ele>4.46</ele>
        <time>2023-09-04T06:37:42Z</time>
      </trkpt>
      <trkpt lat="50.932047972455621" lon="2.027553040534258">
        <ele>4.94</ele>
        <time>2023-09-04T06:37:56Z</time>
      </trkpt>
      <trkpt lat="50.932446029037237" lon="2.033047964796424">
        <ele>7.83</ele>
        <time>2023-09-04T06:38:08Z</time>
      </trkpt>
      <trkpt lat="50.933323027566075" lon="2.040670970454812">
        <ele>6.39</ele>
        <time>2023-09-04T06:38:25Z</time>
      </trkpt>
      <trkpt lat="50.934112016111612" lon="2.04723902978003">
        <ele>7.83</ele>
        <time>2023-09-04T06:38:39Z</time>
      </trkpt>
      <trkpt lat="50.934720961377025" lon="2.052040016278625">
        <ele>13.119999999999999</ele>
        <time>2023-09-04T06:38:49Z</time>
      </trkpt>
      <trkpt lat="50.93531297519803" lon="2.057198993861675">
        <ele>9.27</ele>
        <time>2023-09-04T06:39:00Z</time>
      </trkpt>
      <trkpt lat="50.935880010947585" lon="2.062210030853748">
        <ele>7.35</ele>
        <time>2023-09-04T06:39:11Z</time>
      </trkpt>
      <trkpt lat="50.936791962012649" lon="2.068999959155917">
        <ele>6.87</ele>
        <time>2023-09-04T06:39:26Z</time>
      </trkpt>
      <trkpt lat="50.937904994934797" lon="2.075140038505197">
        <ele>6.87</ele>
        <time>2023-09-04T06:39:40Z</time>
      </trkpt>
      <trkpt lat="50.938828010112047" lon="2.079138960689306">
        <ele>8.310000000000001</ele>
        <time>2023-09-04T06:39:49Z</time>
      </trkpt>
      <trkpt lat="50.939970966428518" lon="2.083531999960542">
        <ele>9.27</ele>
        <time>2023-09-04T06:39:59Z</time>
      </trkpt>
      <trkpt lat="50.941105959936976" lon="2.087382981553674">
        <ele>11.19</ele>
        <time>2023-09-04T06:40:08Z</time>
      </trkpt>
      <trkpt lat="50.94212201423943" lon="2.090785028412938">
        <ele>12.630000000000001</ele>
        <time>2023-09-04T06:40:16Z</time>
      </trkpt>
      <trkpt lat="50.943396985530853" lon="2.095070024952292">
        <ele>12.630000000000001</ele>
        <time>2023-09-04T06:40:26Z</time>
      </trkpt>
      <trkpt lat="50.944524016231298" lon="2.098854035139084">
        <ele>13.6</ele>
        <time>2023-09-04T06:40:35Z</time>
      </trkpt>
      <trkpt lat="50.945843998342752" lon="2.102469988167286">
        <ele>17.920000000000002</ele>
        <time>2023-09-04T06:40:44Z</time>
      </trkpt>
      <trkpt lat="50.94753404147923" lon="2.106276964768767">
        <ele>18.399999999999999</ele>
        <time>2023-09-04T06:40:54Z</time>
      </trkpt>
      <trkpt lat="50.94931997358799" lon="2.110558021813631">
        <ele>17.440000000000001</ele>
        <time>2023-09-04T06:41:05Z</time>
      </trkpt>
      <trkpt lat="50.950584970414639" lon="2.11479096673429">
        <ele>16</ele>
        <time>2023-09-04T06:41:15Z</time>
      </trkpt>
      <trkpt lat="50.951400026679039" lon="2.119289031252265">
        <ele>13.6</ele>
        <time>2023-09-04T06:41:25Z</time>
      </trkpt>
      <trkpt lat="50.951650980859995" lon="2.123474031686783">
        <ele>12.15</ele>
        <time>2023-09-04T06:41:34Z</time>
      </trkpt>
      <trkpt lat="50.951692974194884" lon="2.129103988409042">
        <ele>11.67</ele>
        <time>2023-09-04T06:41:46Z</time>
      </trkpt>
      <trkpt lat="50.952101005241275" lon="2.132800994440913">
        <ele>14.08</ele>
        <time>2023-09-04T06:41:54Z</time>
      </trkpt>
      <trkpt lat="50.953014967963099" lon="2.136751972138882">
        <ele>15.52</ele>
        <time>2023-09-04T06:42:03Z</time>
      </trkpt>
      <trkpt lat="50.954628987237811" lon="2.141263028606772">
        <ele>12.630000000000001</ele>
        <time>2023-09-04T06:42:14Z</time>
      </trkpt>
      <trkpt lat="50.956289023160934" lon="2.146229976788163">
        <ele>12.630000000000001</ele>
        <time>2023-09-04T06:42:26Z</time>
      </trkpt>
      <trkpt lat="50.957381017506123" lon="2.150511033833027">
        <ele>11.67</ele>
        <time>2023-09-04T06:42:36Z</time>
      </trkpt>
      <trkpt lat="50.958232032135129" lon="2.15569700114429">
        <ele>10.710000000000001</ele>
        <time>2023-09-04T06:42:48Z</time>
      </trkpt>
      <trkpt lat="50.95870703458786" lon="2.161499038338661">
        <ele>10.23</ele>
        <time>2023-09-04T06:43:01Z</time>
      </trkpt>
      <trkpt lat="50.958782974630594" lon="2.168228030204773">
        <ele>10.23</ele>
        <time>2023-09-04T06:43:16Z</time>
      </trkpt>
      <trkpt lat="50.958817005157471" lon="2.174992980435491">
        <ele>14.56</ele>
        <time>2023-09-04T06:43:31Z</time>
      </trkpt>
      <trkpt lat="50.958852041512728" lon="2.182653034105897">
        <ele>7.35</ele>
        <time>2023-09-04T06:43:48Z</time>
      </trkpt>
      <trkpt lat="50.958977015689015" lon="2.188503015786409">
        <ele>7.35</ele>
        <time>2023-09-04T06:44:01Z</time>
      </trkpt>
      <trkpt lat="50.959216989576817" lon="2.19333996064961">
        <ele>6.39</ele>
        <time>2023-09-04T06:44:11Z</time>
      </trkpt>
      <trkpt lat="50.95958998426795" lon="2.200285037979484">
        <ele>5.91</ele>
        <time>2023-09-04T06:44:25Z</time>
      </trkpt>
      <trkpt lat="50.959948981180787" lon="2.205708967521787">
        <ele>6.39</ele>
        <time>2023-09-04T06:44:36Z</time>
      </trkpt>
      <trkpt lat="50.96066202968359" lon="2.209393987432122">
        <ele>8.310000000000001</ele>
        <time>2023-09-04T06:44:44Z</time>
      </trkpt>
      <trkpt lat="50.961757963523269" lon="2.212672987952828">
        <ele>8.789999999999999</ele>
        <time>2023-09-04T06:44:52Z</time>
      </trkpt>
      <trkpt lat="50.963163021951914" lon="2.215396016836166">
        <ele>11.67</ele>
        <time>2023-09-04T06:45:00Z</time>
      </trkpt>
      <trkpt lat="50.96502497792244" lon="2.217771029099822">
        <ele>12.15</ele>
        <time>2023-09-04T06:45:09Z</time>
      </trkpt>
      <trkpt lat="50.967148030176759" lon="2.219503987580538">
        <ele>11.67</ele>
        <time>2023-09-04T06:45:18Z</time>
      </trkpt>
      <trkpt lat="50.969962002709508" lon="2.220846014097333">
        <ele>11.19</ele>
        <time>2023-09-04T06:45:29Z</time>
      </trkpt>
      <trkpt lat="50.973541997373104" lon="2.222496997565031">
        <ele>6.87</ele>
        <time>2023-09-04T06:45:43Z</time>
      </trkpt>
      <trkpt lat="50.976908002048731" lon="2.223930973559618">
        <ele>5.91</ele>
        <time>2023-09-04T06:45:56Z</time>
      </trkpt>
      <trkpt lat="50.980469975620508" lon="2.225710032507777">
        <ele>4.94</ele>
        <time>2023-09-04T06:46:10Z</time>
      </trkpt>
      <trkpt lat="50.982843982055783" lon="2.227658992633224">
        <ele>5.91</ele>
        <time>2023-09-04T06:46:20Z</time>
      </trkpt>
      <trkpt lat="50.985175995156169" lon="2.230449998751283">
        <ele>3.5</ele>
        <time>2023-09-04T06:46:31Z</time>
      </trkpt>
      <trkpt lat="50.987012973055243" lon="2.233520960435271">
        <ele>3.98</ele>
        <time>2023-09-04T06:46:41Z</time>
      </trkpt>
      <trkpt lat="50.988709973171353" lon="2.23727798089385">
        <ele>5.42</ele>
        <time>2023-09-04T06:46:52Z</time>
      </trkpt>
      <trkpt lat="50.989870028570294" lon="2.241062996909022">
        <ele>6.87</ele>
        <time>2023-09-04T06:47:02Z</time>
      </trkpt>
      <trkpt lat="50.990649964660406" lon="2.245563995093107">
        <ele>9.75</ele>
        <time>2023-09-04T06:47:13Z</time>
      </trkpt>
      <trkpt lat="50.991061013191938" lon="2.250621970742941">
        <ele>5.42</ele>
        <time>2023-09-04T06:47:25Z</time>
      </trkpt>
      <trkpt lat="50.991261005401611" lon="2.253784965723753">
        <ele>4.94</ele>
        <time>2023-09-04T06:47:32Z</time>
      </trkpt>
      <trkpt lat="50.991383967921138" lon="2.258290993049741">
        <ele>4.94</ele>
        <time>2023-09-04T06:47:43Z</time>
      </trkpt>
      <trkpt lat="50.991147011518478" lon="2.260978985577822">
        <ele>4.94</ele>
        <time>2023-09-04T06:47:51Z</time>
      </trkpt>
      <trkpt lat="50.99106403067708" lon="2.26404600776732">
        <ele>6.87</ele>
        <time>2023-09-04T06:48:00Z</time>
      </trkpt>
      <trkpt lat="50.991554958745837" lon="2.267006998881698">
        <ele>11.19</ele>
        <time>2023-09-04T06:48:09Z</time>
      </trkpt>
      <trkpt lat="50.992607977241278" lon="2.271145982667804">
        <ele>19.359999999999999</ele>
        <time>2023-09-04T06:48:22Z</time>
      </trkpt>
      <trkpt lat="50.99403097294271" lon="2.274997970089316">
        <ele>17.920000000000002</ele>
        <time>2023-09-04T06:48:35Z</time>
      </trkpt>
      <trkpt lat="50.994729017838836" lon="2.277769027277827">
        <ele>12.15</ele>
        <time>2023-09-04T06:48:44Z</time>
      </trkpt>
      <trkpt lat="50.99568597972393" lon="2.281165039166808">
        <ele>8.310000000000001</ele>
        <time>2023-09-04T06:48:55Z</time>
      </trkpt>
      <trkpt lat="50.997022977098823" lon="2.284618970006704">
        <ele>7.35</ele>
        <time>2023-09-04T06:49:07Z</time>
      </trkpt>
      <trkpt lat="50.998317981138825" lon="2.288138028234243">
        <ele>12.15</ele>
        <time>2023-09-04T06:49:19Z</time>
      </trkpt>
      <trkpt lat="50.999976005405188" lon="2.292943960055709">
        <ele>10.23</ele>
        <time>2023-09-04T06:49:35Z</time>
      </trkpt>
      <trkpt lat="51.00139900110662" lon="2.297124015167356">
        <ele>5.42</ele>
        <time>2023-09-04T06:49:49Z</time>
      </trkpt>
      <trkpt lat="51.002846974879503" lon="2.301674969494343">
        <ele>4.94</ele>
        <time>2023-09-04T06:50:04Z</time>
      </trkpt>
      <trkpt lat="51.003532027825713" lon="2.304900996387005">
        <ele>7.35</ele>
        <time>2023-09-04T06:50:14Z</time>
      </trkpt>
      <trkpt lat="51.004270976409316" lon="2.310223001986742">
        <ele>11.67</ele>
        <time>2023-09-04T06:50:30Z</time>
      </trkpt>
      <trkpt lat="51.00498603656888" lon="2.315115015953779">
        <ele>12.15</ele>
        <time>2023-09-04T06:50:45Z</time>
      </trkpt>
      <trkpt lat="51.005919026210904" lon="2.319161966443062">
        <ele>6.39</ele>
        <time>2023-09-04T06:50:58Z</time>
      </trkpt>
      <trkpt lat="51.006925022229552" lon="2.322447001934052">
        <ele>4.46</ele>
        <time>2023-09-04T06:51:09Z</time>
      </trkpt>
      <trkpt lat="51.007883995771408" lon="2.325050001963973">
        <ele>3.98</ele>
        <time>2023-09-04T06:51:18Z</time>
      </trkpt>
      <trkpt lat="51.008002012968063" lon="2.325346972793341">
        <ele>3.02</ele>
        <time>2023-09-04T06:51:19Z</time>
      </trkpt>
      <trkpt lat="51.009483011439443" lon="2.329305997118354">
        <ele>4.46</ele>
        <time>2023-09-04T06:51:33Z</time>
      </trkpt>
      <trkpt lat="51.010468974709511" lon="2.332965033128858">
        <ele>10.710000000000001</ele>
        <time>2023-09-04T06:51:45Z</time>
      </trkpt>
      <trkpt lat="51.011057971045375" lon="2.336531030014157">
        <ele>10.710000000000001</ele>
        <time>2023-09-04T06:51:56Z</time>
      </trkpt>
      <trkpt lat="51.011513024568558" lon="2.340468009933829">
        <ele>7.35</ele>
        <time>2023-09-04T06:52:08Z</time>
      </trkpt>
      <trkpt lat="51.012128004804254" lon="2.346026971936226">
        <ele>7.35</ele>
        <time>2023-09-04T06:52:25Z</time>
      </trkpt>
      <trkpt lat="51.012364039197564" lon="2.349094999954104">
        <ele>7.83</ele>
        <time>2023-09-04T06:52:35Z</time>
      </trkpt>
      <trkpt lat="51.012247027829289" lon="2.350587984547019">
        <ele>6.87</ele>
        <time>2023-09-04T06:52:42Z</time>
      </trkpt>
      <trkpt lat="51.01160497404635" lon="2.352306023240089">
        <ele>8.789999999999999</ele>
        <time>2023-09-04T06:52:52Z</time>
      </trkpt>
      <trkpt lat="51.011314038187265" lon="2.353057963773608">
        <ele>10.710000000000001</ele>
        <time>2023-09-04T06:52:57Z</time>
      </trkpt>
      <trkpt lat="51.011294005438685" lon="2.35314697958529">
        <ele>11.19</ele>
        <time>2023-09-04T06:52:58Z</time>
      </trkpt>
      <trkpt lat="51.01128201931715" lon="2.353199031203985">
        <ele>11.19</ele>
        <time>2023-09-04T06:52:59Z</time>
      </trkpt>
      <trkpt lat="51.01128201931715" lon="2.353221997618675">
        <ele>11.67</ele>
        <time>2023-09-04T06:53:00Z</time>
      </trkpt>
      <trkpt lat="51.01128201931715" lon="2.353221997618675">
        <ele>11.67</ele>
        <time>2023-09-04T06:53:12Z</time>
      </trkpt>
      <trkpt lat="51.01128201931715" lon="2.353315036743879">
        <ele>11.67</ele>
        <time>2023-09-04T06:53:52Z</time>
      </trkpt>
      <trkpt lat="51.011316971853375" lon="2.353440010920167">
        <ele>11.67</ele>
        <time>2023-09-04T06:53:53Z</time>
      </trkpt>
      <trkpt lat="51.011377992108464" lon="2.353448979556561">
        <ele>11.67</ele>
        <time>2023-09-04T06:53:54Z</time>
      </trkpt>
      <trkpt lat="51.011452004313469" lon="2.353459959849715">
        <ele>11.67</ele>
        <time>2023-09-04T06:53:55Z</time>
      </trkpt>
      <trkpt lat="51.011541020125151" lon="2.353473035618663">
        <ele>11.67</ele>
        <time>2023-09-04T06:53:56Z</time>
      </trkpt>
      <trkpt lat="51.011642022058368" lon="2.35348803922534">
        <ele>11.67</ele>
        <time>2023-09-04T06:53:57Z</time>
      </trkpt>
      <trkpt lat="51.011747969314456" lon="2.353503964841366">
        <ele>11.67</ele>
        <time>2023-09-04T06:53:58Z</time>
      </trkpt>
      <trkpt lat="51.012843986973166" lon="2.353659030050039">
        <ele>11.67</ele>
        <time>2023-09-04T06:54:07Z</time>
      </trkpt>
      <trkpt lat="51.014175033196807" lon="2.353923982009292">
        <ele>6.39</ele>
        <time>2023-09-04T06:54:19Z</time>
      </trkpt>
      <trkpt lat="51.014609970152378" lon="2.354064965620637">
        <ele>5.42</ele>
        <time>2023-09-04T06:54:24Z</time>
      </trkpt>
      <trkpt lat="51.014714995399117" lon="2.354100001975894">
        <ele>4.94</ele>
        <time>2023-09-04T06:54:25Z</time>
      </trkpt>
      <trkpt lat="51.014889003708959" lon="2.354325978085399">
        <ele>4.94</ele>
        <time>2023-09-04T06:54:28Z</time>
      </trkpt>
      <trkpt lat="51.01497701369226" lon="2.354369983077049">
        <ele>4.94</ele>
        <time>2023-09-04T06:54:29Z</time>
      </trkpt>
      <trkpt lat="51.015067035332322" lon="2.354393033310771">
        <ele>4.94</ele>
        <time>2023-09-04T06:54:30Z</time>
      </trkpt>
      <trkpt lat="51.015154961496592" lon="2.35437098890543">
        <ele>4.94</ele>
        <time>2023-09-04T06:54:31Z</time>
      </trkpt>
      <trkpt lat="51.015208018943667" lon="2.354356991127133">
        <ele>4.94</ele>
        <time>2023-09-04T06:54:32Z</time>
      </trkpt>
      <trkpt lat="51.015425026416779" lon="2.354289013892412">
        <ele>5.42</ele>
        <time>2023-09-04T06:54:34Z</time>
      </trkpt>
      <trkpt lat="51.015522005036473" lon="2.354322960600257">
        <ele>5.42</ele>
        <time>2023-09-04T06:54:35Z</time>
      </trkpt>
      <trkpt lat="51.015624012798071" lon="2.354363026097417">
        <ele>5.42</ele>
        <time>2023-09-04T06:54:36Z</time>
      </trkpt>
      <trkpt lat="51.016681976616383" lon="2.355242958292365">
        <ele>4.94</ele>
        <time>2023-09-04T06:54:46Z</time>
      </trkpt>
      <trkpt lat="51.016765041276813" lon="2.355374973267317">
        <ele>4.94</ele>
        <time>2023-09-04T06:54:47Z</time>
      </trkpt>
      <trkpt lat="51.016849027946591" lon="2.35551000572741">
        <ele>4.94</ele>
        <time>2023-09-04T06:54:48Z</time>
      </trkpt>
      <trkpt lat="51.01777296513319" lon="2.357254028320313">
        <ele>3.5</ele>
        <time>2023-09-04T06:55:00Z</time>
      </trkpt>
      <trkpt lat="51.018002964556217" lon="2.357673961669207">
        <ele>2.54</ele>
        <time>2023-09-04T06:55:03Z</time>
      </trkpt>
      <trkpt lat="51.018079994246364" lon="2.357799019664526">
        <ele>2.06</ele>
        <time>2023-09-04T06:55:04Z</time>
      </trkpt>
      <trkpt lat="51.018603025004268" lon="2.358472002670169">
        <ele>0.62</ele>
        <time>2023-09-04T06:55:10Z</time>
      </trkpt>
      <trkpt lat="51.018691034987569" lon="2.358563030138612">
        <ele>0.62</ele>
        <time>2023-09-04T06:55:11Z</time>
      </trkpt>
      <trkpt lat="51.019199984148145" lon="2.358938958495855">
        <ele>1.1</ele>
        <time>2023-09-04T06:55:16Z</time>
      </trkpt>
      <trkpt lat="51.019307021051645" lon="2.358997967094183">
        <ele>1.1</ele>
        <time>2023-09-04T06:55:17Z</time>
      </trkpt>
      <trkpt lat="51.020767986774445" lon="2.359448997303844">
        <ele>2.54</ele>
        <time>2023-09-04T06:55:30Z</time>
      </trkpt>
      <trkpt lat="51.021898034960032" lon="2.359789973124862">
        <ele>3.98</ele>
        <time>2023-09-04T06:55:40Z</time>
      </trkpt>
      <trkpt lat="51.023596040904522" lon="2.360280985012651">
        <ele>6.39</ele>
        <time>2023-09-04T06:55:55Z</time>
      </trkpt>
      <trkpt lat="51.024081017822027" lon="2.360449964180589">
        <ele>6.87</ele>
        <time>2023-09-04T06:56:00Z</time>
      </trkpt>
      <trkpt lat="51.024143965914845" lon="2.360478965565562">
        <ele>6.87</ele>
        <time>2023-09-04T06:56:01Z</time>
      </trkpt>
      <trkpt lat="51.024196017533541" lon="2.360531017184258">
        <ele>7.35</ele>
        <time>2023-09-04T06:56:02Z</time>
      </trkpt>
      <trkpt lat="51.024338006973267" lon="2.360547026619315">
        <ele>7.35</ele>
        <time>2023-09-04T06:56:04Z</time>
      </trkpt>
      <trkpt lat="51.024387963116169" lon="2.360597988590598">
        <ele>7.83</ele>
        <time>2023-09-04T06:56:05Z</time>
      </trkpt>
      <trkpt lat="51.024422999471426" lon="2.360634030774236">
        <ele>7.83</ele>
        <time>2023-09-04T06:56:06Z</time>
      </trkpt>
      <trkpt lat="51.024358039721847" lon="2.360742995515466">
        <ele>7.83</ele>
        <time>2023-09-04T06:56:07Z</time>
      </trkpt>
      <trkpt lat="51.024355022236705" lon="2.360792029649019">
        <ele>7.83</ele>
        <time>2023-09-04T06:56:08Z</time>
      </trkpt>
      <trkpt lat="51.024350998923182" lon="2.36083997413516">
        <ele>7.83</ele>
        <time>2023-09-04T06:56:09Z</time>
      </trkpt>
      <trkpt lat="51.024347981438041" lon="2.36088003963232">
        <ele>7.83</ele>
        <time>2023-09-04T06:56:10Z</time>
      </trkpt>
      <trkpt lat="51.024332977831364" lon="2.361069973558188">
        <ele>7.83</ele>
        <time>2023-09-04T06:56:15Z</time>
      </trkpt>
      <trkpt lat="51.024330966174603" lon="2.36109503544867">
        <ele>7.83</ele>
        <time>2023-09-04T06:56:16Z</time>
      </trkpt>
      <trkpt lat="51.024330966174603" lon="2.36109503544867">
        <ele>7.83</ele>
        <time>2023-09-04T06:56:17Z</time>
      </trkpt>
      <trkpt lat="51.024441020563245" lon="2.361191008239985">
        <ele>8.310000000000001</ele>
        <time>2023-09-04T06:56:31Z</time>
      </trkpt>
      <trkpt lat="51.024441020563245" lon="2.361191008239985">
        <ele>8.310000000000001</ele>
        <time>2023-09-04T06:56:32Z</time>
      </trkpt>
      <trkpt lat="51.024526013061404" lon="2.361283963546157">
        <ele>8.310000000000001</ele>
        <time>2023-09-04T06:56:37Z</time>
      </trkpt>
      <trkpt lat="51.024626009166241" lon="2.361316988244653">
        <ele>7.35</ele>
        <time>2023-09-04T06:56:39Z</time>
      </trkpt>
      <trkpt lat="51.024640006944537" lon="2.361287986859679">
        <ele>6.87</ele>
        <time>2023-09-04T06:56:40Z</time>
      </trkpt>
      <trkpt lat="51.024648975580931" lon="2.36126895993948">
        <ele>6.39</ele>
        <time>2023-09-04T06:56:41Z</time>
      </trkpt>
      <trkpt lat="51.024648975580931" lon="2.36126895993948">
        <ele>5.91</ele>
        <time>2023-09-04T06:56:42Z</time>
      </trkpt>
      <trkpt lat="51.024664985015988" lon="2.360889008268714">
        <ele>5.42</ele>
        <time>2023-09-04T06:56:43Z</time>
      </trkpt>
      <trkpt lat="51.02464796975255" lon="2.360870987176895">
        <ele>4.94</ele>
        <time>2023-09-04T06:56:44Z</time>
      </trkpt>
      <trkpt lat="51.024540010839701" lon="2.360756993293762">
        <ele>3.5</ele>
        <time>2023-09-04T06:56:55Z</time>
      </trkpt>
      <trkpt lat="51.024358039721847" lon="2.361155971884728">
        <ele>2.54</ele>
        <time>2023-09-04T06:57:13Z</time>
      </trkpt>
      <trkpt lat="51.024348987266421" lon="2.361166030168533">
        <ele>2.54</ele>
        <time>2023-09-04T06:57:52Z</time>
      </trkpt>
      <trkpt lat="51.024348987266421" lon="2.361163012683392">
        <ele>2.06</ele>
        <time>2023-09-04T06:58:45Z</time>
      </trkpt>
      <trkpt lat="51.024348987266421" lon="2.361163012683392">
        <ele>2.06</ele>
        <time>2023-09-04T06:58:46Z</time>
      </trkpt>
      <trkpt lat="51.024412019178271" lon="2.361205006018281">
        <ele>2.54</ele>
        <time>2023-09-04T06:58:48Z</time>
      </trkpt>
      <trkpt lat="51.024649981409311" lon="2.36126703210175">
        <ele>2.54</ele>
        <time>2023-09-04T06:58:50Z</time>
      </trkpt>
      <trkpt lat="51.024649981409311" lon="2.36126703210175">
        <ele>2.06</ele>
        <time>2023-09-04T06:58:51Z</time>
      </trkpt>
      <trkpt lat="51.024652998894453" lon="2.361263008788228">
        <ele>2.06</ele>
        <time>2023-09-04T06:58:52Z</time>
      </trkpt>
      <trkpt lat="51.024677976965904" lon="2.361231995746493">
        <ele>1.58</ele>
        <time>2023-09-04T06:58:53Z</time>
      </trkpt>
      <trkpt lat="51.024693986400962" lon="2.361211962997913">
        <ele>1.58</ele>
        <time>2023-09-04T06:58:54Z</time>
      </trkpt>
      <trkpt lat="51.024693986400962" lon="2.361211962997913">
        <ele>1.1</ele>
        <time>2023-09-04T06:58:55Z</time>
      </trkpt>
      <trkpt lat="51.024717958644032" lon="2.361182039603591">
        <ele>1.1</ele>
        <time>2023-09-04T06:58:56Z</time>
      </trkpt>
      <trkpt lat="51.02473296225071" lon="2.361163012683392">
        <ele>0.62</ele>
        <time>2023-09-04T06:58:57Z</time>
      </trkpt>
      <trkpt lat="51.024750983342528" lon="2.36113996244967">
        <ele>0.62</ele>
        <time>2023-09-04T06:58:58Z</time>
      </trkpt>
      <trkpt lat="51.024835975840688" lon="2.361072991043329">
        <ele>0.14</ele>
        <time>2023-09-04T06:58:59Z</time>
      </trkpt>
      <trkpt lat="51.024875035509467" lon="2.361133005470038">
        <ele>0.62</ele>
        <time>2023-09-04T06:59:00Z</time>
      </trkpt>
      <trkpt lat="51.024906970560551" lon="2.361287986859679">
        <ele>0.62</ele>
        <time>2023-09-04T06:59:01Z</time>
      </trkpt>
      <trkpt lat="51.024920968338847" lon="2.361315982416272">
        <ele>0.62</ele>
        <time>2023-09-04T06:59:02Z</time>
      </trkpt>
      <trkpt lat="51.024976959452033" lon="2.36131195910275">
        <ele>0.62</ele>
        <time>2023-09-04T06:59:03Z</time>
      </trkpt>
      <trkpt lat="51.025015013292432" lon="2.36118103377521">
        <ele>0.14</ele>
        <time>2023-09-04T06:59:04Z</time>
      </trkpt>
      <trkpt lat="51.025034040212631" lon="2.361152032390237">
        <ele>0.14</ele>
        <time>2023-09-04T06:59:05Z</time>
      </trkpt>
      <trkpt lat="51.025100005790591" lon="2.3610520362854">
        <ele>-0.34</ele>
        <time>2023-09-04T06:59:06Z</time>
      </trkpt>
      <trkpt lat="51.025136969983578" lon="2.360983975231648">
        <ele>-0.82</ele>
        <time>2023-09-04T06:59:07Z</time>
      </trkpt>
      <trkpt lat="51.025192961096764" lon="2.360880961641669">
        <ele>-1.3</ele>
        <time>2023-09-04T06:59:08Z</time>
      </trkpt>
      <trkpt lat="51.025307960808277" lon="2.360656997188926">
        <ele>-2.27</ele>
        <time>2023-09-04T06:59:10Z</time>
      </trkpt>
      <trkpt lat="51.025358000770211" lon="2.36055901274085">
        <ele>-2.27</ele>
        <time>2023-09-04T06:59:11Z</time>
      </trkpt>
      <trkpt lat="51.025449028238654" lon="2.360459016636014">
        <ele>-2.75</ele>
        <time>2023-09-04T06:59:12Z</time>
      </trkpt>
      <trkpt lat="51.025536032393575" lon="2.360362960025668">
        <ele>-2.75</ele>
        <time>2023-09-04T06:59:13Z</time>
      </trkpt>
      <trkpt lat="51.02563401684165" lon="2.360292971134186">
        <ele>-3.23</ele>
        <time>2023-09-04T06:59:14Z</time>
      </trkpt>
      <trkpt lat="51.025851024314761" lon="2.360188029706478">
        <ele>-3.23</ele>
        <time>2023-09-04T06:59:16Z</time>
      </trkpt>
      <trkpt lat="51.026277998462319" lon="2.359984014183283">
        <ele>-5.63</ele>
        <time>2023-09-04T06:59:22Z</time>
      </trkpt>
      <trkpt lat="51.026416970416903" lon="2.359918970614672">
        <ele>-6.59</ele>
        <time>2023-09-04T06:59:30Z</time>
      </trkpt>
      <trkpt lat="51.026550997048616" lon="2.359850993379951">
        <ele>-6.11</ele>
        <time>2023-09-04T06:59:59Z</time>
      </trkpt>
      <trkpt lat="51.026605982333422" lon="2.359820986166596">
        <ele>-5.63</ele>
        <time>2023-09-04T07:00:00Z</time>
      </trkpt>
      <trkpt lat="51.026734979823232" lon="2.359884018078446">
        <ele>-5.15</ele>
        <time>2023-09-04T07:00:01Z</time>
      </trkpt>
      <trkpt lat="51.026748977601528" lon="2.359954006969929">
        <ele>-5.15</ele>
        <time>2023-09-04T07:00:02Z</time>
      </trkpt>
      <trkpt lat="51.026766998693347" lon="2.360037993639708">
        <ele>-4.67</ele>
        <time>2023-09-04T07:00:03Z</time>
      </trkpt>
      <trkpt lat="51.026788037270308" lon="2.360138995572925">
        <ele>-4.67</ele>
        <time>2023-09-04T07:00:04Z</time>
      </trkpt>
      <trkpt lat="51.027064975351095" lon="2.361365016549826">
        <ele>-5.63</ele>
        <time>2023-09-04T07:00:12Z</time>
      </trkpt>
      <trkpt lat="51.027221968397498" lon="2.362014027312398">
        <ele>-6.59</ele>
        <time>2023-09-04T07:00:16Z</time>
      </trkpt>
      <trkpt lat="51.027669981122017" lon="2.36375997774303">
        <ele>-6.11</ele>
        <time>2023-09-04T07:00:26Z</time>
      </trkpt>
      <trkpt lat="51.027781963348389" lon="2.364144958555698">
        <ele>-6.11</ele>
        <time>2023-09-04T07:00:31Z</time>
      </trkpt>
      <trkpt lat="51.027781963348389" lon="2.364144958555698">
        <ele>-6.11</ele>
        <time>2023-09-04T07:00:48Z</time>
      </trkpt>
      <trkpt lat="51.02789101190865" lon="2.364580985158682">
        <ele>-5.63</ele>
        <time>2023-09-04T07:00:59Z</time>
      </trkpt>
      <trkpt lat="51.02793300524354" lon="2.364829005673528">
        <ele>-5.15</ele>
        <time>2023-09-04T07:01:01Z</time>
      </trkpt>
      <trkpt lat="51.027945997193456" lon="2.364927995949984">
        <ele>-4.67</ele>
        <time>2023-09-04T07:01:02Z</time>
      </trkpt>
      <trkpt lat="51.028092009946704" lon="2.366238003596664">
        <ele>-5.63</ele>
        <time>2023-09-04T07:01:11Z</time>
      </trkpt>
      <trkpt lat="51.028112964704633" lon="2.366463979706168">
        <ele>-6.11</ele>
        <time>2023-09-04T07:01:17Z</time>
      </trkpt>
      <trkpt lat="51.028130985796452" lon="2.366710994392633">
        <ele>-6.59</ele>
        <time>2023-09-04T07:01:39Z</time>
      </trkpt>
      <trkpt lat="51.028332989662886" lon="2.36792997457087">
        <ele>-7.07</ele>
        <time>2023-09-04T07:01:48Z</time>
      </trkpt>
      <trkpt lat="51.028697015717626" lon="2.369283987209201">
        <ele>-7.55</ele>
        <time>2023-09-04T07:01:56Z</time>
      </trkpt>
      <trkpt lat="51.028798017650843" lon="2.369661005213857">
        <ele>-7.55</ele>
        <time>2023-09-04T07:01:58Z</time>
      </trkpt>
      <trkpt lat="51.028993986546993" lon="2.370400037616491">
        <ele>-6.59</ele>
        <time>2023-09-04T07:02:02Z</time>
      </trkpt>
      <trkpt lat="51.029089037328959" lon="2.37069801427424">
        <ele>-5.63</ele>
        <time>2023-09-04T07:02:04Z</time>
      </trkpt>
      <trkpt lat="51.029118960723281" lon="2.370804967358708">
        <ele>-5.63</ele>
        <time>2023-09-04T07:02:05Z</time>
      </trkpt>
      <trkpt lat="51.029133964329958" lon="2.370884008705616">
        <ele>-5.63</ele>
        <time>2023-09-04T07:02:06Z</time>
      </trkpt>
      <trkpt lat="51.029142010957003" lon="2.370926002040505">
        <ele>-5.63</ele>
        <time>2023-09-04T07:02:07Z</time>
      </trkpt>
      <trkpt lat="51.029146034270525" lon="2.370946034789085">
        <ele>-5.15</ele>
        <time>2023-09-04T07:02:08Z</time>
      </trkpt>
      <trkpt lat="51.029146034270525" lon="2.370946034789085">
        <ele>-5.15</ele>
        <time>2023-09-04T07:02:09Z</time>
      </trkpt>
      <trkpt lat="51.029146034270525" lon="2.370946034789085">
        <ele>-5.15</ele>
        <time>2023-09-04T07:02:24Z</time>
      </trkpt>
      <trkpt lat="51.029155002906919" lon="2.370990961790085">
        <ele>-4.67</ele>
        <time>2023-09-04T07:02:31Z</time>
      </trkpt>
      <trkpt lat="51.029164977371693" lon="2.371047958731651">
        <ele>-4.67</ele>
        <time>2023-09-04T07:02:32Z</time>
      </trkpt>
      <trkpt lat="51.029276959598064" lon="2.371942978352308">
        <ele>2.06</ele>
        <time>2023-09-04T07:02:41Z</time>
      </trkpt>
      <trkpt lat="51.029282994568348" lon="2.3720090277493">
        <ele>2.54</ele>
        <time>2023-09-04T07:02:42Z</time>
      </trkpt>
      <trkpt lat="51.029289029538631" lon="2.372068958356977">
        <ele>2.54</ele>
        <time>2023-09-04T07:02:43Z</time>
      </trkpt>
      <trkpt lat="51.029296992346644" lon="2.372165014967322">
        <ele>3.98</ele>
        <time>2023-09-04T07:02:51Z</time>
      </trkpt>
      <trkpt lat="51.029333034530282" lon="2.372562987729907">
        <ele>3.98</ele>
        <time>2023-09-04T07:03:06Z</time>
      </trkpt>
      <trkpt lat="51.029342003166676" lon="2.372640017420054">
        <ele>3.98</ele>
        <time>2023-09-04T07:03:07Z</time>
      </trkpt>
      <trkpt lat="51.029430013149977" lon="2.372679999098182">
        <ele>3.5</ele>
        <time>2023-09-04T07:03:08Z</time>
      </trkpt>
      <trkpt lat="51.02947804145515" lon="2.372667007148266">
        <ele>3.5</ele>
        <time>2023-09-04T07:03:09Z</time>
      </trkpt>
      <trkpt lat="51.029533026739955" lon="2.372645968571305">
        <ele>3.5</ele>
        <time>2023-09-04T07:03:10Z</time>
      </trkpt>
      <trkpt lat="51.029596980661154" lon="2.372618978843093">
        <ele>3.5</ele>
        <time>2023-09-04T07:03:11Z</time>
      </trkpt>
      <trkpt lat="51.0296740103513" lon="2.372588971629739">
        <ele>3.5</ele>
        <time>2023-09-04T07:03:12Z</time>
      </trkpt>
      <trkpt lat="51.030523013323545" lon="2.372313039377332">
        <ele>3.02</ele>
        <time>2023-09-04T07:03:20Z</time>
      </trkpt>
      <trkpt lat="51.031333962455392" lon="2.372089996933937">
        <ele>2.06</ele>
        <time>2023-09-04T07:03:28Z</time>
      </trkpt>
      <trkpt lat="51.031427001580596" lon="2.372073987498879">
        <ele>1.58</ele>
        <time>2023-09-04T07:03:29Z</time>
      </trkpt>
      <trkpt lat="51.031666975468397" lon="2.372024031355977">
        <ele>-1.3</ele>
        <time>2023-09-04T07:03:35Z</time>
      </trkpt>
      <trkpt lat="51.031666975468397" lon="2.372024031355977">
        <ele>-1.3</ele>
        <time>2023-09-04T07:03:53Z</time>
      </trkpt>
      <trkpt lat="51.031687008216977" lon="2.372019002214074">
        <ele>-1.3</ele>
        <time>2023-09-04T07:04:00Z</time>
      </trkpt>
      <trkpt lat="51.031707962974906" lon="2.372012967243791">
        <ele>-2.27</ele>
        <time>2023-09-04T07:04:01Z</time>
      </trkpt>
      <trkpt lat="51.031824974343181" lon="2.371980026364327">
        <ele>-4.19</ele>
        <time>2023-09-04T07:04:04Z</time>
      </trkpt>
      <trkpt lat="51.031879959627986" lon="2.371965022757649">
        <ele>-4.19</ele>
        <time>2023-09-04T07:04:05Z</time>
      </trkpt>
      <trkpt lat="51.031923964619637" lon="2.371953036636114">
        <ele>-3.71</ele>
        <time>2023-09-04T07:04:06Z</time>
      </trkpt>
      <trkpt lat="51.031985990703106" lon="2.372034005820751">
        <ele>-2.75</ele>
        <time>2023-09-04T07:04:07Z</time>
      </trkpt>
      <trkpt lat="51.032000994309783" lon="2.372111035510898">
        <ele>-1.3</ele>
        <time>2023-09-04T07:04:08Z</time>
      </trkpt>
      <trkpt lat="51.032021027058363" lon="2.372214971110225">
        <ele>-0.82</ele>
        <time>2023-09-04T07:04:09Z</time>
      </trkpt>
      <trkpt lat="51.032040975987911" lon="2.372321002185345">
        <ele>-1.3</ele>
        <time>2023-09-04T07:04:10Z</time>
      </trkpt>
      <trkpt lat="51.032408019527793" lon="2.373742992058396">
        <ele>-2.27</ele>
        <time>2023-09-04T07:04:21Z</time>
      </trkpt>
      <trkpt lat="51.032529976218939" lon="2.374096037819982">
        <ele>-2.27</ele>
        <time>2023-09-04T07:04:24Z</time>
      </trkpt>
      <trkpt lat="51.032567024230957" lon="2.374192010611296">
        <ele>-2.27</ele>
        <time>2023-09-04T07:04:25Z</time>
      </trkpt>
      <trkpt lat="51.032602982595563" lon="2.374284965917468">
        <ele>-1.79</ele>
        <time>2023-09-04T07:04:26Z</time>
      </trkpt>
      <trkpt lat="51.032675988972187" lon="2.374469032511115">
        <ele>-1.79</ele>
        <time>2023-09-04T07:04:28Z</time>
      </trkpt>
      <trkpt lat="51.032931972295046" lon="2.375128017738462">
        <ele>-0.34</ele>
        <time>2023-09-04T07:04:36Z</time>
      </trkpt>
      <trkpt lat="51.033021993935108" lon="2.375292973592877">
        <ele>0.14</ele>
        <time>2023-09-04T07:04:39Z</time>
      </trkpt>
      <trkpt lat="51.033060969784856" lon="2.375364974141121">
        <ele>0.62</ele>
        <time>2023-09-04T07:04:41Z</time>
      </trkpt>
      <trkpt lat="51.033089971169829" lon="2.375332033261657">
        <ele>1.1</ele>
        <time>2023-09-04T07:04:42Z</time>
      </trkpt>
      <trkpt lat="51.033120984211564" lon="2.375295991078019">
        <ele>1.58</ele>
        <time>2023-09-04T07:04:43Z</time>
      </trkpt>
      <trkpt lat="51.033225003629923" lon="2.375176968052983">
        <ele>1.58</ele>
        <time>2023-09-04T07:04:46Z</time>
      </trkpt>
      <trkpt lat="51.033255010843277" lon="2.375143021345139">
        <ele>1.58</ele>
        <time>2023-09-04T07:04:47Z</time>
      </trkpt>
      <trkpt lat="51.033613001927733" lon="2.375020980834961">
        <ele>1.1</ele>
        <time>2023-09-04T07:04:58Z</time>
      </trkpt>
      <trkpt lat="51.033666981384158" lon="2.375020980834961">
        <ele>1.58</ele>
        <time>2023-09-04T07:05:08Z</time>
      </trkpt>
      <trkpt lat="51.033666981384158" lon="2.375020980834961">
        <ele>1.58</ele>
        <time>2023-09-04T07:05:54Z</time>
      </trkpt>
      <trkpt lat="51.033666981384158" lon="2.375020980834961">
        <ele>1.58</ele>
        <time>2023-09-04T07:06:17Z</time>
      </trkpt>
      <trkpt lat="51.033666981384158" lon="2.375020980834961">
        <ele>2.06</ele>
        <time>2023-09-04T07:07:00Z</time>
      </trkpt>
      <trkpt lat="51.033666981384158" lon="2.375020980834961">
        <ele>3.02</ele>
        <time>2023-09-04T07:07:40Z</time>
      </trkpt>
      <trkpt lat="51.033818023279309" lon="2.375020980834961">
        <ele>8.310000000000001</ele>
        <time>2023-09-04T07:07:59Z</time>
      </trkpt>
      <trkpt lat="51.034041987732053" lon="2.37542700022459">
        <ele>11.19</ele>
        <time>2023-09-04T07:08:09Z</time>
      </trkpt>
      <trkpt lat="51.034316997975111" lon="2.375610982999206">
        <ele>10.23</ele>
        <time>2023-09-04T07:08:16Z</time>
      </trkpt>
      <trkpt lat="51.034355973824859" lon="2.37561902962625">
        <ele>10.23</ele>
        <time>2023-09-04T07:08:17Z</time>
      </trkpt>
      <trkpt lat="51.034397967159748" lon="2.375617017969489">
        <ele>9.75</ele>
        <time>2023-09-04T07:08:18Z</time>
      </trkpt>
      <trkpt lat="51.034439960494637" lon="2.375609977170825">
        <ele>9.75</ele>
        <time>2023-09-04T07:08:19Z</time>
      </trkpt>
      <trkpt lat="51.034478014335036" lon="2.375604026019573">
        <ele>9.75</ele>
        <time>2023-09-04T07:08:20Z</time>
      </trkpt>
      <trkpt lat="51.034714970737696" lon="2.375206975266337">
        <ele>6.87</ele>
        <time>2023-09-04T07:08:29Z</time>
      </trkpt>
      <trkpt lat="51.034731986001134" lon="2.375141009688377">
        <ele>6.39</ele>
        <time>2023-09-04T07:08:30Z</time>
      </trkpt>
      <trkpt lat="51.034752018749714" lon="2.37505903467536">
        <ele>5.91</ele>
        <time>2023-09-04T07:08:32Z</time>
      </trkpt>
      <trkpt lat="51.034784959629178" lon="2.375041013583541">
        <ele>5.42</ele>
        <time>2023-09-04T07:08:33Z</time>
      </trkpt>
      <trkpt lat="51.034818990156054" lon="2.37503900192678">
        <ele>4.94</ele>
        <time>2023-09-04T07:08:34Z</time>
      </trkpt>
      <trkpt lat="51.034859977662563" lon="2.375036990270019">
        <ele>4.46</ele>
        <time>2023-09-04T07:08:35Z</time>
      </trkpt>
      <trkpt lat="51.034899959340692" lon="2.375033972784877">
        <ele>4.46</ele>
        <time>2023-09-04T07:08:36Z</time>
      </trkpt>
      <trkpt lat="51.0353899654001" lon="2.375004971399903">
        <ele>2.06</ele>
        <time>2023-09-04T07:08:50Z</time>
      </trkpt>
      <trkpt lat="51.035486022010446" lon="2.37491000443697">
        <ele>1.58</ele>
        <time>2023-09-04T07:08:51Z</time>
      </trkpt>
      <trkpt lat="51.035486022010446" lon="2.374844960868359">
        <ele>1.1</ele>
        <time>2023-09-04T07:08:52Z</time>
      </trkpt>
      <trkpt lat="51.035486022010446" lon="2.374762985855341">
        <ele>1.1</ele>
        <time>2023-09-04T07:08:53Z</time>
      </trkpt>
      <trkpt lat="51.035486022010446" lon="2.374677993357182">
        <ele>0.62</ele>
        <time>2023-09-04T07:08:54Z</time>
      </trkpt>
      <trkpt lat="51.035486022010446" lon="2.374344980344176">
        <ele>-0.34</ele>
        <time>2023-09-04T07:08:58Z</time>
      </trkpt>
      <trkpt lat="51.035486022010446" lon="2.37428898923099">
        <ele>-0.82</ele>
        <time>2023-09-04T07:08:59Z</time>
      </trkpt>
      <trkpt lat="51.035486022010446" lon="2.374249007552862">
        <ele>-1.3</ele>
        <time>2023-09-04T07:09:00Z</time>
      </trkpt>
      <trkpt lat="51.035506976768374" lon="2.374248001724482">
        <ele>-1.79</ele>
        <time>2023-09-04T07:09:01Z</time>
      </trkpt>
      <trkpt lat="51.035543018952012" lon="2.37424599006772">
        <ele>-1.79</ele>
        <time>2023-09-04T07:09:02Z</time>
      </trkpt>
      <trkpt lat="51.035589035600424" lon="2.374243978410959">
        <ele>-1.79</ele>
        <time>2023-09-04T07:09:03Z</time>
      </trkpt>
      <trkpt lat="51.035644020885229" lon="2.374241966754198">
        <ele>-1.79</ele>
        <time>2023-09-04T07:09:04Z</time>
      </trkpt>
      <trkpt lat="51.03569196537137" lon="2.374240038916469">
        <ele>-1.79</ele>
        <time>2023-09-04T07:09:05Z</time>
      </trkpt>
      <trkpt lat="51.035736976191401" lon="2.374238027259708">
        <ele>-1.79</ele>
        <time>2023-09-04T07:09:06Z</time>
      </trkpt>
      <trkpt lat="51.035791961476207" lon="2.374235009774566">
        <ele>-1.79</ele>
        <time>2023-09-04T07:09:07Z</time>
      </trkpt>
      <trkpt lat="51.035848036408424" lon="2.374232998117805">
        <ele>-1.79</ele>
        <time>2023-09-04T07:09:08Z</time>
      </trkpt>
      <trkpt lat="51.035943003371358" lon="2.374228974804282">
        <ele>-1.79</ele>
        <time>2023-09-04T07:09:10Z</time>
      </trkpt>
      <trkpt lat="51.036010980606079" lon="2.374274991452694">
        <ele>-1.79</ele>
        <time>2023-09-04T07:09:12Z</time>
      </trkpt>
      <trkpt lat="51.036023972555995" lon="2.374356966465712">
        <ele>-1.79</ele>
        <time>2023-09-04T07:09:13Z</time>
      </trkpt>
      <trkpt lat="51.036051968112588" lon="2.375381989404559">
        <ele>-2.75</ele>
        <time>2023-09-04T07:09:22Z</time>
      </trkpt>
      <trkpt lat="51.036074012517929" lon="2.376064024865627">
        <ele>-2.75</ele>
        <time>2023-09-04T07:09:28Z</time>
      </trkpt>
      <trkpt lat="51.036078035831451" lon="2.376166032627225">
        <ele>-2.75</ele>
        <time>2023-09-04T07:09:29Z</time>
      </trkpt>
      <trkpt lat="51.036080969497561" lon="2.376267034560442">
        <ele>-2.75</ele>
        <time>2023-09-04T07:09:30Z</time>
      </trkpt>
      <trkpt lat="51.036083986982703" lon="2.376343980431557">
        <ele>-2.27</ele>
        <time>2023-09-04T07:09:31Z</time>
      </trkpt>
      <trkpt lat="51.036087004467845" lon="2.376437019556761">
        <ele>-2.27</ele>
        <time>2023-09-04T07:09:32Z</time>
      </trkpt>
      <trkpt lat="51.036080969497561" lon="2.376465015113354">
        <ele>-1.79</ele>
        <time>2023-09-04T07:09:33Z</time>
      </trkpt>
      <trkpt lat="51.036041993647814" lon="2.37654397264123">
        <ele>-1.3</ele>
        <time>2023-09-04T07:09:34Z</time>
      </trkpt>
      <trkpt lat="51.035998994484544" lon="2.376541960984469">
        <ele>-0.82</ele>
        <time>2023-09-04T07:09:35Z</time>
      </trkpt>
      <trkpt lat="51.0359460208565" lon="2.376540033146739">
        <ele>-0.82</ele>
        <time>2023-09-04T07:09:36Z</time>
      </trkpt>
      <trkpt lat="51.03543397039175" lon="2.376527041196823">
        <ele>0.14</ele>
        <time>2023-09-04T07:09:45Z</time>
      </trkpt>
      <trkpt lat="51.035312013700604" lon="2.376600969582796">
        <ele>0.14</ele>
        <time>2023-09-04T07:09:50Z</time>
      </trkpt>
      <trkpt lat="51.035310002043843" lon="2.37663097679615">
        <ele>0.14</ele>
        <time>2023-09-04T07:09:51Z</time>
      </trkpt>
      <trkpt lat="51.035307990387082" lon="2.37667297013104">
        <ele>0.14</ele>
        <time>2023-09-04T07:09:52Z</time>
      </trkpt>
      <trkpt lat="51.035298015922308" lon="2.376902969554067">
        <ele>-0.34</ele>
        <time>2023-09-04T07:09:55Z</time>
      </trkpt>
      <trkpt lat="51.035249987617135" lon="2.37796101719141">
        <ele>-3.23</ele>
        <time>2023-09-04T07:10:04Z</time>
      </trkpt>
      <trkpt lat="51.035199025645852" lon="2.379494989290834">
        <ele>-9</ele>
        <time>2023-09-04T07:10:19Z</time>
      </trkpt>
      <trkpt lat="51.035150997340679" lon="2.380678011104465">
        <ele>-8.51</ele>
        <time>2023-09-04T07:10:33Z</time>
      </trkpt>
      <trkpt lat="51.03517304174602" lon="2.381095010787249">
        <ele>-6.59</ele>
        <time>2023-09-04T07:10:38Z</time>
      </trkpt>
      <trkpt lat="51.035164995118976" lon="2.381762964650989">
        <ele>-5.15</ele>
        <time>2023-09-04T07:10:46Z</time>
      </trkpt>
      <trkpt lat="51.035157032310963" lon="2.381992964074016">
        <ele>-3.23</ele>
        <time>2023-09-04T07:10:56Z</time>
      </trkpt>
      <trkpt lat="51.035133982077241" lon="2.382840039208531">
        <ele>-2.75</ele>
        <time>2023-09-04T07:11:08Z</time>
      </trkpt>
      <trkpt lat="51.03512903675437" lon="2.383056962862611">
        <ele>-3.71</ele>
        <time>2023-09-04T07:11:11Z</time>
      </trkpt>
      <trkpt lat="51.035124007612467" lon="2.383341025561094">
        <ele>-4.19</ele>
        <time>2023-09-04T07:11:21Z</time>
      </trkpt>
      <trkpt lat="51.035086959600449" lon="2.383660962805152">
        <ele>-5.63</ele>
        <time>2023-09-04T07:11:30Z</time>
      </trkpt>
      <trkpt lat="51.035057036206126" lon="2.383841006085277">
        <ele>-6.59</ele>
        <time>2023-09-04T07:11:41Z</time>
      </trkpt>
      <trkpt lat="51.035054018720984" lon="2.383858021348715">
        <ele>-6.59</ele>
        <time>2023-09-04T07:12:17Z</time>
      </trkpt>
      <trkpt lat="51.035015964880586" lon="2.384086009114981">
        <ele>-5.63</ele>
        <time>2023-09-04T07:12:26Z</time>
      </trkpt>
      <trkpt lat="51.035004984587431" lon="2.38414803519845">
        <ele>-5.63</ele>
        <time>2023-09-04T07:12:28Z</time>
      </trkpt>
      <trkpt lat="51.03500003926456" lon="2.384177036583424">
        <ele>-5.63</ele>
        <time>2023-09-04T07:12:29Z</time>
      </trkpt>
      <trkpt lat="51.03500003926456" lon="2.384177036583424">
        <ele>-5.15</ele>
        <time>2023-09-04T07:12:41Z</time>
      </trkpt>
      <trkpt lat="51.034995010122657" lon="2.384208971634507">
        <ele>-5.63</ele>
        <time>2023-09-04T07:13:34Z</time>
      </trkpt>
      <trkpt lat="51.034782025963068" lon="2.384475013241172">
        <ele>-7.07</ele>
        <time>2023-09-04T07:13:40Z</time>
      </trkpt>
      <trkpt lat="51.034712959080935" lon="2.384483981877565">
        <ele>-7.07</ele>
        <time>2023-09-04T07:13:41Z</time>
      </trkpt>
      <trkpt lat="51.034712959080935" lon="2.384483981877565">
        <ele>-7.55</ele>
        <time>2023-09-04T07:13:42Z</time>
      </trkpt>
      <trkpt lat="51.034712959080935" lon="2.384483981877565">
        <ele>-8.029999999999999</ele>
        <time>2023-09-04T07:13:43Z</time>
      </trkpt>
      <trkpt lat="51.034717988222837" lon="2.384553970769048">
        <ele>-8.51</ele>
        <time>2023-09-04T07:13:44Z</time>
      </trkpt>
      <trkpt lat="51.034724023193121" lon="2.384641980752349">
        <ele>-9</ele>
        <time>2023-09-04T07:13:45Z</time>
      </trkpt>
      <trkpt lat="51.034729974344373" lon="2.384736025705934">
        <ele>-9.48</ele>
        <time>2023-09-04T07:13:46Z</time>
      </trkpt>
      <trkpt lat="51.034736009314656" lon="2.38483501598239">
        <ele>-9.48</ele>
        <time>2023-09-04T07:13:47Z</time>
      </trkpt>
      <trkpt lat="51.034750007092953" lon="2.385392999276519">
        <ele>-11.4</ele>
        <time>2023-09-04T07:13:57Z</time>
      </trkpt>
      <trkpt lat="51.034752018749714" lon="2.385464999824762">
        <ele>-12.359999999999999</ele>
        <time>2023-09-04T07:14:08Z</time>
      </trkpt>
      <trkpt lat="51.03468001820147" lon="2.38646999001503">
        <ele>-10.44</ele>
        <time>2023-09-04T07:14:16Z</time>
      </trkpt>
      <trkpt lat="51.034541968256235" lon="2.387638008221984">
        <ele>-7.55</ele>
        <time>2023-09-04T07:14:25Z</time>
      </trkpt>
      <trkpt lat="51.034329989925027" lon="2.389268036931753">
        <ele>-9.48</ele>
        <time>2023-09-04T07:14:35Z</time>
      </trkpt>
      <trkpt lat="51.034390004351735" lon="2.389770029112697">
        <ele>-9.960000000000001</ele>
        <time>2023-09-04T07:14:39Z</time>
      </trkpt>
      <trkpt lat="51.034479020163417" lon="2.3900789860636">
        <ele>-9.960000000000001</ele>
        <time>2023-09-04T07:14:42Z</time>
      </trkpt>
      <trkpt lat="51.034503998234868" lon="2.39016498439014">
        <ele>-9.960000000000001</ele>
        <time>2023-09-04T07:14:43Z</time>
      </trkpt>
      <trkpt lat="51.034526964649558" lon="2.390242014080286">
        <ele>-9.960000000000001</ele>
        <time>2023-09-04T07:14:44Z</time>
      </trkpt>
      <trkpt lat="51.034549009054899" lon="2.390316026285291">
        <ele>-9.960000000000001</ele>
        <time>2023-09-04T07:14:45Z</time>
      </trkpt>
      <trkpt lat="51.034577004611492" lon="2.390395989641547">
        <ele>-9.48</ele>
        <time>2023-09-04T07:14:46Z</time>
      </trkpt>
      <trkpt lat="51.034743972122669" lon="2.390764961019158">
        <ele>-9.48</ele>
        <time>2023-09-04T07:14:50Z</time>
      </trkpt>
      <trkpt lat="51.034989980980754" lon="2.391330990940332">
        <ele>-8.51</ele>
        <time>2023-09-04T07:14:56Z</time>
      </trkpt>
      <trkpt lat="51.035013031214476" lon="2.391385976225138">
        <ele>-8.51</ele>
        <time>2023-09-04T07:14:57Z</time>
      </trkpt>
      <trkpt lat="51.03502300567925" lon="2.391408020630479">
        <ele>-8.51</ele>
        <time>2023-09-04T07:14:58Z</time>
      </trkpt>
      <trkpt lat="51.035068016499281" lon="2.391223032027483">
        <ele>-6.11</ele>
        <time>2023-09-04T07:15:04Z</time>
      </trkpt>
      <trkpt lat="51.035068016499281" lon="2.391223032027483">
        <ele>-6.11</ele>
        <time>2023-09-04T07:15:23Z</time>
      </trkpt>
      <trkpt lat="51.034807004034519" lon="2.390908962115645">
        <ele>-4.19</ele>
        <time>2023-09-04T07:15:32Z</time>
      </trkpt>
      <trkpt lat="51.034478014335036" lon="2.390076974406838">
        <ele>-3.71</ele>
        <time>2023-09-04T07:15:39Z</time>
      </trkpt>
      <trkpt lat="51.034436021000147" lon="2.389933979138732">
        <ele>-2.75</ele>
        <time>2023-09-04T07:15:45Z</time>
      </trkpt>
      <trkpt lat="51.034361002966762" lon="2.389550004154444">
        <ele>-1.79</ele>
        <time>2023-09-04T07:15:55Z</time>
      </trkpt>
      <trkpt lat="51.034353040158749" lon="2.389489989727736">
        <ele>-1.3</ele>
        <time>2023-09-04T07:15:56Z</time>
      </trkpt>
      <trkpt lat="51.034345999360085" lon="2.389432992786169">
        <ele>-1.3</ele>
        <time>2023-09-04T07:15:57Z</time>
      </trkpt>
      <trkpt lat="51.034286990761757" lon="2.389340037479997">
        <ele>-0.82</ele>
        <time>2023-09-04T07:15:58Z</time>
      </trkpt>
      <trkpt lat="51.034339964389801" lon="2.389385970309377">
        <ele>-0.34</ele>
        <time>2023-09-04T07:15:59Z</time>
      </trkpt>
      <trkpt lat="51.034243991598487" lon="2.389395022764802">
        <ele>0.62</ele>
        <time>2023-09-04T07:16:04Z</time>
      </trkpt>
      <trkpt lat="51.034209039062262" lon="2.389458976686001">
        <ele>1.1</ele>
        <time>2023-09-04T07:16:05Z</time>
      </trkpt>
      <trkpt lat="51.034167967736721" lon="2.389538018032908">
        <ele>0.62</ele>
        <time>2023-09-04T07:16:06Z</time>
      </trkpt>
      <trkpt lat="51.03412002325058" lon="2.38962896168232">
        <ele>0.14</ele>
        <time>2023-09-04T07:16:07Z</time>
      </trkpt>
      <trkpt lat="51.034066965803504" lon="2.389730969443917">
        <ele>-0.34</ele>
        <time>2023-09-04T07:16:08Z</time>
      </trkpt>
      <trkpt lat="51.034009968861938" lon="2.389839012175798">
        <ele>-0.82</ele>
        <time>2023-09-04T07:16:09Z</time>
      </trkpt>
      <trkpt lat="51.033993037417531" lon="2.389957029372454">
        <ele>-1.3</ele>
        <time>2023-09-04T07:16:10Z</time>
      </trkpt>
      <trkpt lat="51.033977027982473" lon="2.39010295830667">
        <ele>-1.79</ele>
        <time>2023-09-04T07:16:11Z</time>
      </trkpt>
      <trkpt lat="51.033960012719035" lon="2.390256011858583">
        <ele>-2.27</ele>
        <time>2023-09-04T07:16:12Z</time>
      </trkpt>
      <trkpt lat="51.033942997455597" lon="2.390413004904985">
        <ele>-2.75</ele>
        <time>2023-09-04T07:16:13Z</time>
      </trkpt>
      <trkpt lat="51.033923970535398" lon="2.390578966587782">
        <ele>-3.23</ele>
        <time>2023-09-04T07:16:14Z</time>
      </trkpt>
      <trkpt lat="51.033697994425893" lon="2.392075974494219">
        <ele>-2.27</ele>
        <time>2023-09-04T07:16:23Z</time>
      </trkpt>
      <trkpt lat="51.033572014421225" lon="2.392438994720578">
        <ele>-2.75</ele>
        <time>2023-09-04T07:16:26Z</time>
      </trkpt>
      <trkpt lat="51.033422984182835" lon="2.392708975821734">
        <ele>-4.19</ele>
        <time>2023-09-04T07:16:30Z</time>
      </trkpt>
      <trkpt lat="51.033324999734759" lon="2.392838979139924">
        <ele>-4.67</ele>
        <time>2023-09-04T07:16:32Z</time>
      </trkpt>
      <trkpt lat="51.033288035541773" lon="2.392964959144592">
        <ele>-5.15</ele>
        <time>2023-09-04T07:16:33Z</time>
      </trkpt>
      <trkpt lat="51.033275965601206" lon="2.393088005483151">
        <ele>-5.63</ele>
        <time>2023-09-04T07:16:34Z</time>
      </trkpt>
      <trkpt lat="51.033241013064981" lon="2.393209962174296">
        <ele>-6.11</ele>
        <time>2023-09-04T07:16:35Z</time>
      </trkpt>
      <trkpt lat="51.033199019730091" lon="2.393356980755925">
        <ele>-6.59</ele>
        <time>2023-09-04T07:16:36Z</time>
      </trkpt>
      <trkpt lat="51.033140011131763" lon="2.393501987680793">
        <ele>-6.59</ele>
        <time>2023-09-04T07:16:37Z</time>
      </trkpt>
      <trkpt lat="51.033078990876675" lon="2.393641965463758">
        <ele>-7.07</ele>
        <time>2023-09-04T07:16:38Z</time>
      </trkpt>
      <trkpt lat="51.033007996156812" lon="2.393770962953568">
        <ele>-7.07</ele>
        <time>2023-09-04T07:16:39Z</time>
      </trkpt>
      <trkpt lat="51.032930966466665" lon="2.393866013735533">
        <ele>-7.07</ele>
        <time>2023-09-04T07:16:40Z</time>
      </trkpt>
      <trkpt lat="51.032859971746802" lon="2.393954023718834">
        <ele>-6.59</ele>
        <time>2023-09-04T07:16:41Z</time>
      </trkpt>
      <trkpt lat="51.032741032540798" lon="2.394100958481431">
        <ele>-6.11</ele>
        <time>2023-09-04T07:16:43Z</time>
      </trkpt>
      <trkpt lat="51.032556965947151" lon="2.394300028681755">
        <ele>-5.63</ele>
        <time>2023-09-04T07:16:50Z</time>
      </trkpt>
      <trkpt lat="51.032556965947151" lon="2.394300028681755">
        <ele>-5.15</ele>
        <time>2023-09-04T07:17:33Z</time>
      </trkpt>
      <trkpt lat="51.032377006486058" lon="2.394571015611291">
        <ele>-2.27</ele>
        <time>2023-09-04T07:17:41Z</time>
      </trkpt>
      <trkpt lat="51.03188700042665" lon="2.39508499391377">
        <ele>-0.34</ele>
        <time>2023-09-04T07:17:49Z</time>
      </trkpt>
      <trkpt lat="51.031188033521175" lon="2.396489968523383">
        <ele>-0.82</ele>
        <time>2023-09-04T07:17:58Z</time>
      </trkpt>
      <trkpt lat="51.030550003051758" lon="2.398156961426139">
        <ele>0.62</ele>
        <time>2023-09-04T07:18:05Z</time>
      </trkpt>
      <trkpt lat="51.029166989028454" lon="2.401152988895774">
        <ele>2.06</ele>
        <time>2023-09-04T07:18:17Z</time>
      </trkpt>
      <trkpt lat="51.027650032192469" lon="2.404240965843201">
        <ele>2.06</ele>
        <time>2023-09-04T07:18:30Z</time>
      </trkpt>
      <trkpt lat="51.026229970157146" lon="2.406770959496498">
        <ele>1.1</ele>
        <time>2023-09-04T07:18:41Z</time>
      </trkpt>
      <trkpt lat="51.024448983371258" lon="2.409164998680353">
        <ele>-1.79</ele>
        <time>2023-09-04T07:18:52Z</time>
      </trkpt>
      <trkpt lat="51.022828007116914" lon="2.41085596382618">
        <ele>-0.34</ele>
        <time>2023-09-04T07:19:01Z</time>
      </trkpt>
      <trkpt lat="51.022172961384058" lon="2.411027038469911">
        <ele>1.1</ele>
        <time>2023-09-04T07:19:04Z</time>
      </trkpt>
      <trkpt lat="51.021956037729979" lon="2.411013962700963">
        <ele>1.58</ele>
        <time>2023-09-04T07:19:05Z</time>
      </trkpt>
      <trkpt lat="51.021736012771726" lon="2.410998037084937">
        <ele>2.06</ele>
        <time>2023-09-04T07:19:06Z</time>
      </trkpt>
      <trkpt lat="51.020163986831903" lon="2.41057500243187">
        <ele>4.94</ele>
        <time>2023-09-04T07:19:14Z</time>
      </trkpt>
      <trkpt lat="51.019845977425575" lon="2.410292029380798">
        <ele>4.94</ele>
        <time>2023-09-04T07:19:16Z</time>
      </trkpt>
      <trkpt lat="51.019707005470991" lon="2.410129001364112">
        <ele>4.94</ele>
        <time>2023-09-04T07:19:17Z</time>
      </trkpt>
      <trkpt lat="51.01957599632442" lon="2.409975025802851">
        <ele>4.94</ele>
        <time>2023-09-04T07:19:18Z</time>
      </trkpt>
      <trkpt lat="51.019470971077681" lon="2.409770004451275">
        <ele>4.46</ele>
        <time>2023-09-04T07:19:19Z</time>
      </trkpt>
      <trkpt lat="51.019402993842959" lon="2.409557020291686">
        <ele>4.46</ele>
        <time>2023-09-04T07:19:20Z</time>
      </trkpt>
      <trkpt lat="51.019358988851309" lon="2.409348981454969">
        <ele>3.98</ele>
        <time>2023-09-04T07:19:21Z</time>
      </trkpt>
      <trkpt lat="51.019327975809574" lon="2.409163992851973">
        <ele>3.5</ele>
        <time>2023-09-04T07:19:22Z</time>
      </trkpt>
      <trkpt lat="51.019327975809574" lon="2.408989984542131">
        <ele>3.5</ele>
        <time>2023-09-04T07:19:23Z</time>
      </trkpt>
      <trkpt lat="51.019357983022928" lon="2.408842965960503">
        <ele>3.5</ele>
        <time>2023-09-04T07:19:24Z</time>
      </trkpt>
      <trkpt lat="51.019399976357818" lon="2.408701982349157">
        <ele>3.5</ele>
        <time>2023-09-04T07:19:25Z</time>
      </trkpt>
      <trkpt lat="51.019436018541455" lon="2.408581031486392">
        <ele>3.5</ele>
        <time>2023-09-04T07:19:26Z</time>
      </trkpt>
      <trkpt lat="51.019485974684358" lon="2.408525962382555">
        <ele>3.5</ele>
        <time>2023-09-04T07:19:27Z</time>
      </trkpt>
      <trkpt lat="51.019548000767827" lon="2.408457985147834">
        <ele>3.5</ele>
        <time>2023-09-04T07:19:28Z</time>
      </trkpt>
      <trkpt lat="51.019607009366155" lon="2.408394031226635">
        <ele>3.02</ele>
        <time>2023-09-04T07:19:29Z</time>
      </trkpt>
      <trkpt lat="51.019671969115734" lon="2.408323036506772">
        <ele>3.02</ele>
        <time>2023-09-04T07:19:30Z</time>
      </trkpt>
      <trkpt lat="51.019717985764146" lon="2.408308032900095">
        <ele>3.02</ele>
        <time>2023-09-04T07:19:31Z</time>
      </trkpt>
      <trkpt lat="51.019785962998867" lon="2.408284982666373">
        <ele>2.54</ele>
        <time>2023-09-04T07:19:32Z</time>
      </trkpt>
      <trkpt lat="51.019856035709381" lon="2.408291017636657">
        <ele>2.06</ele>
        <time>2023-09-04T07:19:33Z</time>
      </trkpt>
      <trkpt lat="51.019929964095354" lon="2.408306021243334">
        <ele>1.58</ele>
        <time>2023-09-04T07:19:34Z</time>
      </trkpt>
      <trkpt lat="51.020015040412545" lon="2.408323036506772">
        <ele>1.58</ele>
        <time>2023-09-04T07:19:35Z</time>
      </trkpt>
      <trkpt lat="51.020087040960789" lon="2.408386990427971">
        <ele>1.1</ele>
        <time>2023-09-04T07:19:36Z</time>
      </trkpt>
      <trkpt lat="51.020187037065625" lon="2.408473994582892">
        <ele>1.1</ele>
        <time>2023-09-04T07:19:37Z</time>
      </trkpt>
      <trkpt lat="51.020253002643585" lon="2.408590000122786">
        <ele>1.1</ele>
        <time>2023-09-04T07:19:38Z</time>
      </trkpt>
      <trkpt lat="51.020329026505351" lon="2.408723020926118">
        <ele>1.1</ele>
        <time>2023-09-04T07:19:39Z</time>
      </trkpt>
      <trkpt lat="51.020412007346749" lon="2.408867022022605">
        <ele>0.62</ele>
        <time>2023-09-04T07:19:40Z</time>
      </trkpt>
      <trkpt lat="51.021089013665915" lon="2.410642979666591">
        <ele>0.14</ele>
        <time>2023-09-04T07:19:48Z</time>
      </trkpt>
      <trkpt lat="51.021803990006447" lon="2.412481969222426">
        <ele>-0.82</ele>
        <time>2023-09-04T07:19:55Z</time>
      </trkpt>
      <trkpt lat="51.023380039259791" lon="2.416145028546453">
        <ele>-0.82</ele>
        <time>2023-09-04T07:20:09Z</time>
      </trkpt>
      <trkpt lat="51.024879980832338" lon="2.419507009908557">
        <ele>0.14</ele>
        <time>2023-09-04T07:20:22Z</time>
      </trkpt>
      <trkpt lat="51.026066020131111" lon="2.422128031030297">
        <ele>0.62</ele>
        <time>2023-09-04T07:20:31Z</time>
      </trkpt>
      <trkpt lat="51.027695965021849" lon="2.425733003765345">
        <ele>-0.34</ele>
        <time>2023-09-04T07:20:42Z</time>
      </trkpt>
      <trkpt lat="51.028438014909625" lon="2.427423968911171">
        <ele>-0.82</ele>
        <time>2023-09-04T07:20:47Z</time>
      </trkpt>
      <trkpt lat="51.028590984642506" lon="2.427759999409318">
        <ele>-0.82</ele>
        <time>2023-09-04T07:20:48Z</time>
      </trkpt>
      <trkpt lat="51.029649032279849" lon="2.430122019723058">
        <ele>-3.23</ele>
        <time>2023-09-04T07:20:55Z</time>
      </trkpt>
      <trkpt lat="51.031750962138176" lon="2.434776993468404">
        <ele>-4.19</ele>
        <time>2023-09-04T07:21:09Z</time>
      </trkpt>
      <trkpt lat="51.032950999215245" lon="2.437451994046569">
        <ele>-3.71</ele>
        <time>2023-09-04T07:21:17Z</time>
      </trkpt>
      <trkpt lat="51.034296965226531" lon="2.440456990152597">
        <ele>1.58</ele>
        <time>2023-09-04T07:21:26Z</time>
      </trkpt>
      <trkpt lat="51.036403002217412" lon="2.445148006081581">
        <ele>4.94</ele>
        <time>2023-09-04T07:21:40Z</time>
      </trkpt>
      <trkpt lat="51.0376659873873" lon="2.448187032714486">
        <ele>-3.23</ele>
        <time>2023-09-04T07:21:49Z</time>
      </trkpt>
      <trkpt lat="51.038582967594266" lon="2.451168978586793">
        <ele>-2.27</ele>
        <time>2023-09-04T07:21:57Z</time>
      </trkpt>
      <trkpt lat="51.039367010816932" lon="2.454666998237371">
        <ele>-0.82</ele>
        <time>2023-09-04T07:22:06Z</time>
      </trkpt>
      <trkpt lat="51.04024501517415" lon="2.458950988948345">
        <ele>3.02</ele>
        <time>2023-09-04T07:22:17Z</time>
      </trkpt>
      <trkpt lat="51.041271965950727" lon="2.463999995961785">
        <ele>3.5</ele>
        <time>2023-09-04T07:22:30Z</time>
      </trkpt>
      <trkpt lat="51.042691022157669" lon="2.471041968092322">
        <ele>6.87</ele>
        <time>2023-09-04T07:22:48Z</time>
      </trkpt>
      <trkpt lat="51.043571960180998" lon="2.476184014230967">
        <ele>6.39</ele>
        <time>2023-09-04T07:23:01Z</time>
      </trkpt>
      <trkpt lat="51.044086022302508" lon="2.481452040374279">
        <ele>7.35</ele>
        <time>2023-09-04T07:23:14Z</time>
      </trkpt>
      <trkpt lat="51.044143019244075" lon="2.487204037606716">
        <ele>6.87</ele>
        <time>2023-09-04T07:23:28Z</time>
      </trkpt>
      <trkpt lat="51.043906984850764" lon="2.491314020007849">
        <ele>5.42</ele>
        <time>2023-09-04T07:23:38Z</time>
      </trkpt>
      <trkpt lat="51.043416978791356" lon="2.496564025059342">
        <ele>3.98</ele>
        <time>2023-09-04T07:23:51Z</time>
      </trkpt>
      <trkpt lat="51.042683981359005" lon="2.504287026822567">
        <ele>4.94</ele>
        <time>2023-09-04T07:24:10Z</time>
      </trkpt>
      <trkpt lat="51.042168997228146" lon="2.510772021487355">
        <ele>3.98</ele>
        <time>2023-09-04T07:24:26Z</time>
      </trkpt>
      <trkpt lat="51.042206967249513" lon="2.515281988307834">
        <ele>3.5</ele>
        <time>2023-09-04T07:24:37Z</time>
      </trkpt>
      <trkpt lat="51.042691022157669" lon="2.519305972382426">
        <ele>3.5</ele>
        <time>2023-09-04T07:24:47Z</time>
      </trkpt>
      <trkpt lat="51.04366198182106" lon="2.523547969758511">
        <ele>2.54</ele>
        <time>2023-09-04T07:24:58Z</time>
      </trkpt>
      <trkpt lat="51.044853972271085" lon="2.527644038200378">
        <ele>1.1</ele>
        <time>2023-09-04T07:25:09Z</time>
      </trkpt>
      <trkpt lat="51.046404959633946" lon="2.532373024150729">
        <ele>1.1</ele>
        <time>2023-09-04T07:25:22Z</time>
      </trkpt>
      <trkpt lat="51.048272028565407" lon="2.536799004301429">
        <ele>0.62</ele>
        <time>2023-09-04T07:25:35Z</time>
      </trkpt>
      <trkpt lat="51.049858974292874" lon="2.54023902118206">
        <ele>-3.23</ele>
        <time>2023-09-04T07:25:46Z</time>
      </trkpt>
      <trkpt lat="51.052128961309791" lon="2.54513799212873">
        <ele>-4.19</ele>
        <time>2023-09-04T07:26:02Z</time>
      </trkpt>
      <trkpt lat="51.053323969244957" lon="2.547984989359975">
        <ele>-4.19</ele>
        <time>2023-09-04T07:26:11Z</time>
      </trkpt>
      <trkpt lat="51.054419986903667" lon="2.551195006817579">
        <ele>-3.23</ele>
        <time>2023-09-04T07:26:20Z</time>
      </trkpt>
      <trkpt lat="51.055318024009466" lon="2.554428996518254">
        <ele>-1.3</ele>
        <time>2023-09-04T07:26:28Z</time>
      </trkpt>
      <trkpt lat="51.05633600614965" lon="2.559091011062264">
        <ele>-0.82</ele>
        <time>2023-09-04T07:26:41Z</time>
      </trkpt>
      <trkpt lat="51.057556997984648" lon="2.564881984144449">
        <ele>1.58</ele>
        <time>2023-09-04T07:26:57Z</time>
      </trkpt>
      <trkpt lat="51.059011006727815" lon="2.571324985474348">
        <ele>0.14</ele>
        <time>2023-09-04T07:27:15Z</time>
      </trkpt>
      <trkpt lat="51.060369964689016" lon="2.575764041393995">
        <ele>-0.34</ele>
        <time>2023-09-04T07:27:28Z</time>
      </trkpt>
      <trkpt lat="51.062531992793083" lon="2.581239016726613">
        <ele>-0.82</ele>
        <time>2023-09-04T07:27:45Z</time>
      </trkpt>
      <trkpt lat="51.064261011779308" lon="2.58561797440052">
        <ele>-3.23</ele>
        <time>2023-09-04T07:27:59Z</time>
      </trkpt>
      <trkpt lat="51.065105991438031" lon="2.587928026914597">
        <ele>-2.27</ele>
        <time>2023-09-04T07:28:07Z</time>
      </trkpt>
      <trkpt lat="51.066402001306415" lon="2.592585012316704">
        <ele>-1.79</ele>
        <time>2023-09-04T07:28:22Z</time>
      </trkpt>
      <trkpt lat="51.067469017580152" lon="2.597677018493414">
        <ele>-0.82</ele>
        <time>2023-09-04T07:28:38Z</time>
      </trkpt>
      <trkpt lat="51.067616958171129" lon="2.600734988227487">
        <ele>0.62</ele>
        <time>2023-09-04T07:28:48Z</time>
      </trkpt>
      <trkpt lat="51.067656017839909" lon="2.603347962722182">
        <ele>3.02</ele>
        <time>2023-09-04T07:28:58Z</time>
      </trkpt>
      <trkpt lat="51.067668003961444" lon="2.604186991229653">
        <ele>4.94</ele>
        <time>2023-09-04T07:29:04Z</time>
      </trkpt>
      <trkpt lat="51.067671021446586" lon="2.604357982054353">
        <ele>6.39</ele>
        <time>2023-09-04T07:29:12Z</time>
      </trkpt>
      <trkpt lat="51.067672027274966" lon="2.604468036442995">
        <ele>6.39</ele>
        <time>2023-09-04T07:29:13Z</time>
      </trkpt>
      <trkpt lat="51.067735981196165" lon="2.604446997866035">
        <ele>6.39</ele>
        <time>2023-09-04T07:29:14Z</time>
      </trkpt>
      <trkpt lat="51.06776800006628" lon="2.60443601757288">
        <ele>6.39</ele>
        <time>2023-09-04T07:29:15Z</time>
      </trkpt>
      <trkpt lat="51.067820973694324" lon="2.604419002309442">
        <ele>6.39</ele>
        <time>2023-09-04T07:29:16Z</time>
      </trkpt>
      <trkpt lat="51.067891968414187" lon="2.604395030066371">
        <ele>6.39</ele>
        <time>2023-09-04T07:29:17Z</time>
      </trkpt>
      <trkpt lat="51.067976960912347" lon="2.604366028681397">
        <ele>6.87</ele>
        <time>2023-09-04T07:29:18Z</time>
      </trkpt>
      <trkpt lat="51.068059019744396" lon="2.604339038953185">
        <ele>6.87</ele>
        <time>2023-09-04T07:29:19Z</time>
      </trkpt>
      <trkpt lat="51.069082031026483" lon="2.603860013186932">
        <ele>5.42</ele>
        <time>2023-09-04T07:29:27Z</time>
      </trkpt>
      <trkpt lat="51.07068800367415" lon="2.603199016302824">
        <ele>3.98</ele>
        <time>2023-09-04T07:29:38Z</time>
      </trkpt>
      <trkpt lat="51.071323016658425" lon="2.602987959980965">
        <ele>3.98</ele>
        <time>2023-09-04T07:29:43Z</time>
      </trkpt>
      <trkpt lat="51.071408009156585" lon="2.60299701243639">
        <ele>3.98</ele>
        <time>2023-09-04T07:29:44Z</time>
      </trkpt>
      <trkpt lat="51.071513034403324" lon="2.603245032951236">
        <ele>4.46</ele>
        <time>2023-09-04T07:29:45Z</time>
      </trkpt>
      <trkpt lat="51.071513034403324" lon="2.603245032951236">
        <ele>4.46</ele>
        <time>2023-09-04T07:29:46Z</time>
      </trkpt>
      <trkpt lat="51.071563996374607" lon="2.603335976600647">
        <ele>4.46</ele>
        <time>2023-09-04T07:29:47Z</time>
      </trkpt>
      <trkpt lat="51.071648988872766" lon="2.603441001847386">
        <ele>4.46</ele>
        <time>2023-09-04T07:29:48Z</time>
      </trkpt>
      <trkpt lat="51.071731969714165" lon="2.603448964655399">
        <ele>4.94</ele>
        <time>2023-09-04T07:29:49Z</time>
      </trkpt>
      <trkpt lat="51.071817968040705" lon="2.603457011282444">
        <ele>4.94</ele>
        <time>2023-09-04T07:29:50Z</time>
      </trkpt>
      <trkpt lat="51.071834983304143" lon="2.603459022939205">
        <ele>5.42</ele>
        <time>2023-09-04T07:29:51Z</time>
      </trkpt>
      <trkpt lat="51.072023995220661" lon="2.603287026286125">
        <ele>5.42</ele>
        <time>2023-09-04T07:29:52Z</time>
      </trkpt>
      <trkpt lat="51.072098007425666" lon="2.603337988257408">
        <ele>5.42</ele>
        <time>2023-09-04T07:29:53Z</time>
      </trkpt>
      <trkpt lat="51.072172019630671" lon="2.603390039876103">
        <ele>4.94</ele>
        <time>2023-09-04T07:29:54Z</time>
      </trkpt>
      <trkpt lat="51.072661019861698" lon="2.603655997663736">
        <ele>4.46</ele>
        <time>2023-09-04T07:29:59Z</time>
      </trkpt>
      <trkpt lat="51.072779959067702" lon="2.603668989613652">
        <ele>4.46</ele>
        <time>2023-09-04T07:30:00Z</time>
      </trkpt>
      <trkpt lat="51.072906022891402" lon="2.603660020977259">
        <ele>3.98</ele>
        <time>2023-09-04T07:30:01Z</time>
      </trkpt>
      <trkpt lat="51.073034014552832" lon="2.603649962693453">
        <ele>3.98</ele>
        <time>2023-09-04T07:30:02Z</time>
      </trkpt>
      <trkpt lat="51.07316100038588" lon="2.603640994057059">
        <ele>3.5</ele>
        <time>2023-09-04T07:30:03Z</time>
      </trkpt>
      <trkpt lat="51.074280990287662" lon="2.603502022102475">
        <ele>1.58</ele>
        <time>2023-09-04T07:30:13Z</time>
      </trkpt>
      <trkpt lat="51.074367994442582" lon="2.603491963818669">
        <ele>1.1</ele>
        <time>2023-09-04T07:30:14Z</time>
      </trkpt>
      <trkpt lat="51.074457010254264" lon="2.603480983525515">
        <ele>0.62</ele>
        <time>2023-09-04T07:30:15Z</time>
      </trkpt>
      <trkpt lat="51.075069978833199" lon="2.603404959663749">
        <ele>-1.79</ele>
        <time>2023-09-04T07:30:24Z</time>
      </trkpt>
      <trkpt lat="51.075837006792426" lon="2.603321978822351">
        <ele>-3.23</ele>
        <time>2023-09-04T07:30:35Z</time>
      </trkpt>
      <trkpt lat="51.075918981805444" lon="2.603313010185957">
        <ele>-3.71</ele>
        <time>2023-09-04T07:30:36Z</time>
      </trkpt>
      <trkpt lat="51.076956996694207" lon="2.603177977725864">
        <ele>-8.029999999999999</ele>
        <time>2023-09-04T07:30:49Z</time>
      </trkpt>
      <trkpt lat="51.077498970553279" lon="2.603088961914182">
        <ele>-9</ele>
        <time>2023-09-04T07:30:56Z</time>
      </trkpt>
      <trkpt lat="51.077578011900187" lon="2.603070018813014">
        <ele>-8.51</ele>
        <time>2023-09-04T07:30:57Z</time>
      </trkpt>
      <trkpt lat="51.078609991818666" lon="2.602827027440071">
        <ele>-5.63</ele>
        <time>2023-09-04T07:31:10Z</time>
      </trkpt>
      <trkpt lat="51.079439967870712" lon="2.602608008310199">
        <ele>-3.71</ele>
        <time>2023-09-04T07:31:23Z</time>
      </trkpt>
      <trkpt lat="51.080494998022914" lon="2.602336015552282">
        <ele>-1.79</ele>
        <time>2023-09-04T07:31:36Z</time>
      </trkpt>
      <trkpt lat="51.081464029848576" lon="2.602081960067153">
        <ele>-1.3</ele>
        <time>2023-09-04T07:31:48Z</time>
      </trkpt>
      <trkpt lat="51.08235795982182" lon="2.601851038634777">
        <ele>-1.3</ele>
        <time>2023-09-04T07:31:58Z</time>
      </trkpt>
      <trkpt lat="51.08349597081542" lon="2.601550966501236">
        <ele>-2.27</ele>
        <time>2023-09-04T07:32:10Z</time>
      </trkpt>
      <trkpt lat="51.084585031494498" lon="2.601260030642152">
        <ele>-2.27</ele>
        <time>2023-09-04T07:32:22Z</time>
      </trkpt>
      <trkpt lat="51.084981998428702" lon="2.601142013445497">
        <ele>-2.27</ele>
        <time>2023-09-04T07:32:30Z</time>
      </trkpt>
      <trkpt lat="51.085343006998301" lon="2.601045034825802">
        <ele>-2.27</ele>
        <time>2023-09-04T07:32:40Z</time>
      </trkpt>
      <trkpt lat="51.085375025868416" lon="2.601034976541996">
        <ele>-2.27</ele>
        <time>2023-09-04T07:32:42Z</time>
      </trkpt>
      <trkpt lat="51.085375025868416" lon="2.601034976541996">
        <ele>-1.79</ele>
        <time>2023-09-04T07:32:43Z</time>
      </trkpt>
      <trkpt lat="51.085530007258058" lon="2.600557962432504">
        <ele>-2.27</ele>
        <time>2023-09-04T07:32:54Z</time>
      </trkpt>
      <trkpt lat="51.085510980337858" lon="2.60048596188426">
        <ele>-2.75</ele>
        <time>2023-09-04T07:33:07Z</time>
      </trkpt>
      <trkpt lat="51.085581975057721" lon="2.600424019619823">
        <ele>5.42</ele>
        <time>2023-09-04T07:36:43Z</time>
      </trkpt>
      <trkpt lat="51.085631009191275" lon="2.600320000201464">
        <ele>22.73</ele>
        <time>2023-09-04T07:37:05Z</time>
      </trkpt>
      <trkpt lat="51.085480973124504" lon="2.60035696439445">
        <ele>18.399999999999999</ele>
        <time>2023-09-04T07:37:38Z</time>
      </trkpt>
      <trkpt lat="51.085495976731181" lon="2.600341960787773">
        <ele>28.02</ele>
        <time>2023-09-04T07:38:14Z</time>
      </trkpt>
      <trkpt lat="51.085492037236691" lon="2.600301979109645">
        <ele>30.420000000000002</ele>
        <time>2023-09-04T07:38:53Z</time>
      </trkpt>
      <trkpt lat="51.08549396507442" lon="2.600306002423167">
        <ele>30.420000000000002</ele>
        <time>2023-09-04T07:39:20Z</time>
      </trkpt>
      <trkpt lat="51.085522966459394" lon="2.600264009088278">
        <ele>29.940000000000001</ele>
        <time>2023-09-04T07:39:24Z</time>
      </trkpt>
      <trkpt lat="51.085521038621664" lon="2.600302984938026">
        <ele>25.609999999999999</ele>
        <time>2023-09-04T07:39:29Z</time>
      </trkpt>
      <trkpt lat="51.085492037236691" lon="2.600408010184765">
        <ele>22.73</ele>
        <time>2023-09-04T07:39:32Z</time>
      </trkpt>
      <trkpt lat="51.085509974509478" lon="2.600480010733008">
        <ele>21.289999999999999</ele>
        <time>2023-09-04T07:39:33Z</time>
      </trkpt>
      <trkpt lat="51.085529001429677" lon="2.600556034594774">
        <ele>20.32</ele>
        <time>2023-09-04T07:39:34Z</time>
      </trkpt>
      <trkpt lat="51.085481978952885" lon="2.600799025967717">
        <ele>19.359999999999999</ele>
        <time>2023-09-04T07:39:35Z</time>
      </trkpt>
      <trkpt lat="51.085481978952885" lon="2.600799025967717">
        <ele>18.879999999999999</ele>
        <time>2023-09-04T07:39:36Z</time>
      </trkpt>
      <trkpt lat="51.085481978952885" lon="2.600819980725646">
        <ele>17.920000000000002</ele>
        <time>2023-09-04T07:39:37Z</time>
      </trkpt>
      <trkpt lat="51.085481978952885" lon="2.600904973223805">
        <ele>17.440000000000001</ele>
        <time>2023-09-04T07:39:38Z</time>
      </trkpt>
      <trkpt lat="51.085540987551212" lon="2.600989965721965">
        <ele>16.48</ele>
        <time>2023-09-04T07:39:39Z</time>
      </trkpt>
      <trkpt lat="51.085593039169908" lon="2.601006980985403">
        <ele>15.52</ele>
        <time>2023-09-04T07:39:40Z</time>
      </trkpt>
      <trkpt lat="51.085654981434345" lon="2.600842025130987">
        <ele>14.56</ele>
        <time>2023-09-04T07:39:41Z</time>
      </trkpt>
      <trkpt lat="51.085713990032673" lon="2.600842025130987">
        <ele>13.6</ele>
        <time>2023-09-04T07:39:42Z</time>
      </trkpt>
      <trkpt lat="51.085769981145859" lon="2.600839007645845">
        <ele>13.119999999999999</ele>
        <time>2023-09-04T07:39:43Z</time>
      </trkpt>
      <trkpt lat="51.086255041882396" lon="2.600627029314637">
        <ele>11.19</ele>
        <time>2023-09-04T07:39:49Z</time>
      </trkpt>
      <trkpt lat="51.086350008845329" lon="2.600543964654207">
        <ele>11.19</ele>
        <time>2023-09-04T07:39:50Z</time>
      </trkpt>
      <trkpt lat="51.086700037121773" lon="2.600183039903641">
        <ele>11.19</ele>
        <time>2023-09-04T07:39:54Z</time>
      </trkpt>
      <trkpt lat="51.087587010115385" lon="2.598854005336762">
        <ele>7.83</ele>
        <time>2023-09-04T07:40:04Z</time>
      </trkpt>
      <trkpt lat="51.088755028322339" lon="2.596863973885775">
        <ele>6.39</ele>
        <time>2023-09-04T07:40:16Z</time>
      </trkpt>
      <trkpt lat="51.08905702829361" lon="2.596349995583296">
        <ele>5.42</ele>
        <time>2023-09-04T07:40:19Z</time>
      </trkpt>
      <trkpt lat="51.089951964095235" lon="2.594830021262169">
        <ele>4.46</ele>
        <time>2023-09-04T07:40:28Z</time>
      </trkpt>
      <trkpt lat="51.090045003220439" lon="2.594667999073863">
        <ele>4.94</ele>
        <time>2023-09-04T07:40:29Z</time>
      </trkpt>
      <trkpt lat="51.090136030688882" lon="2.594507988542318">
        <ele>5.42</ele>
        <time>2023-09-04T07:40:30Z</time>
      </trkpt>
      <trkpt lat="51.091256020590663" lon="2.59253597818315">
        <ele>4.94</ele>
        <time>2023-09-04T07:40:43Z</time>
      </trkpt>
      <trkpt lat="51.092134024947882" lon="2.591313980519772">
        <ele>3.98</ele>
        <time>2023-09-04T07:40:53Z</time>
      </trkpt>
      <trkpt lat="51.092785969376564" lon="2.590223997831345">
        <ele>3.98</ele>
        <time>2023-09-04T07:41:01Z</time>
      </trkpt>
      <trkpt lat="51.092858975753188" lon="2.590101035311818">
        <ele>3.98</ele>
        <time>2023-09-04T07:41:02Z</time>
      </trkpt>
      <trkpt lat="51.09299199655652" lon="2.589880004525185">
        <ele>3.98</ele>
        <time>2023-09-04T07:41:04Z</time>
      </trkpt>
      <trkpt lat="51.093047987669706" lon="2.589785037562251">
        <ele>3.98</ele>
        <time>2023-09-04T07:41:05Z</time>
      </trkpt>
      <trkpt lat="51.093301037326455" lon="2.589357979595661">
        <ele>3.5</ele>
        <time>2023-09-04T07:41:10Z</time>
      </trkpt>
      <trkpt lat="51.093386029824615" lon="2.589153964072466">
        <ele>3.5</ele>
        <time>2023-09-04T07:41:12Z</time>
      </trkpt>
      <trkpt lat="51.093425005674362" lon="2.589044999331236">
        <ele>3.5</ele>
        <time>2023-09-04T07:41:13Z</time>
      </trkpt>
      <trkpt lat="51.09346398152411" lon="2.588933017104864">
        <ele>3.5</ele>
        <time>2023-09-04T07:41:14Z</time>
      </trkpt>
      <trkpt lat="51.093490971252322" lon="2.58881701156497">
        <ele>3.02</ele>
        <time>2023-09-04T07:41:15Z</time>
      </trkpt>
      <trkpt lat="51.093518966808915" lon="2.588696982711554">
        <ele>3.02</ele>
        <time>2023-09-04T07:41:16Z</time>
      </trkpt>
      <trkpt lat="51.093536987900734" lon="2.588571002706885">
        <ele>3.02</ele>
        <time>2023-09-04T07:41:17Z</time>
      </trkpt>
      <trkpt lat="51.093563977628946" lon="2.588305966928601">
        <ele>3.02</ele>
        <time>2023-09-04T07:41:19Z</time>
      </trkpt>
      <trkpt lat="51.093723988160491" lon="2.586548030376434">
        <ele>4.94</ele>
        <time>2023-09-04T07:41:31Z</time>
      </trkpt>
      <trkpt lat="51.09372197650373" lon="2.584741981700063">
        <ele>10.710000000000001</ele>
        <time>2023-09-04T07:41:42Z</time>
      </trkpt>
      <trkpt lat="51.093805963173509" lon="2.583334995433688">
        <ele>13.119999999999999</ele>
        <time>2023-09-04T07:41:50Z</time>
      </trkpt>
      <trkpt lat="51.093902019783854" lon="2.583022015169263">
        <ele>13.6</ele>
        <time>2023-09-04T07:41:52Z</time>
      </trkpt>
      <trkpt lat="51.093954993411899" lon="2.582857981324196">
        <ele>13.6</ele>
        <time>2023-09-04T07:41:53Z</time>
      </trkpt>
      <trkpt lat="51.094006039202213" lon="2.582698976621032">
        <ele>13.119999999999999</ele>
        <time>2023-09-04T07:41:54Z</time>
      </trkpt>
      <trkpt lat="51.094270991161466" lon="2.582147028297186">
        <ele>13.119999999999999</ele>
        <time>2023-09-04T07:41:58Z</time>
      </trkpt>
      <trkpt lat="51.09453996643424" lon="2.581870006397367">
        <ele>13.6</ele>
        <time>2023-09-04T07:42:01Z</time>
      </trkpt>
      <trkpt lat="51.094628982245922" lon="2.581797000020742">
        <ele>14.08</ele>
        <time>2023-09-04T07:42:02Z</time>
      </trkpt>
      <trkpt lat="51.094725038856268" lon="2.581721981987357">
        <ele>13.6</ele>
        <time>2023-09-04T07:42:03Z</time>
      </trkpt>
      <trkpt lat="51.094825034961104" lon="2.581675965338945">
        <ele>14.08</ele>
        <time>2023-09-04T07:42:04Z</time>
      </trkpt>
      <trkpt lat="51.094927964732051" lon="2.58164000697434">
        <ele>14.08</ele>
        <time>2023-09-04T07:42:05Z</time>
      </trkpt>
      <trkpt lat="51.09503298997879" lon="2.581602958962321">
        <ele>14.08</ele>
        <time>2023-09-04T07:42:06Z</time>
      </trkpt>
      <trkpt lat="51.095903031527996" lon="2.581569012254477">
        <ele>9.75</ele>
        <time>2023-09-04T07:42:14Z</time>
      </trkpt>
      <trkpt lat="51.096677016466856" lon="2.581931026652455">
        <ele>7.35</ele>
        <time>2023-09-04T07:42:22Z</time>
      </trkpt>
      <trkpt lat="51.096970969811082" lon="2.582299998030067">
        <ele>5.91</ele>
        <time>2023-09-04T07:42:27Z</time>
      </trkpt>
      <trkpt lat="51.096994020044804" lon="2.582382978871465">
        <ele>5.91</ele>
        <time>2023-09-04T07:42:28Z</time>
      </trkpt>
      <trkpt lat="51.097015980631113" lon="2.582460008561611">
        <ele>5.42</ele>
        <time>2023-09-04T07:42:29Z</time>
      </trkpt>
      <trkpt lat="51.097028972581029" lon="2.582527985796332">
        <ele>5.42</ele>
        <time>2023-09-04T07:42:30Z</time>
      </trkpt>
      <trkpt lat="51.097035007551312" lon="2.582617001608014">
        <ele>5.42</ele>
        <time>2023-09-04T07:42:31Z</time>
      </trkpt>
      <trkpt lat="51.097041964530945" lon="2.582714986056089">
        <ele>4.94</ele>
        <time>2023-09-04T07:42:32Z</time>
      </trkpt>
      <trkpt lat="51.097066020593047" lon="2.582827974110842">
        <ele>4.94</ele>
        <time>2023-09-04T07:42:33Z</time>
      </trkpt>
      <trkpt lat="51.097103990614414" lon="2.582897040992975">
        <ele>4.94</ele>
        <time>2023-09-04T07:42:34Z</time>
      </trkpt>
      <trkpt lat="51.097141038626432" lon="2.582964012399316">
        <ele>4.46</ele>
        <time>2023-09-04T07:42:35Z</time>
      </trkpt>
      <trkpt lat="51.097198035567999" lon="2.583002988249064">
        <ele>4.46</ele>
        <time>2023-09-04T07:42:36Z</time>
      </trkpt>
      <trkpt lat="51.097219996154308" lon="2.583010029047728">
        <ele>4.46</ele>
        <time>2023-09-04T07:42:37Z</time>
      </trkpt>
      <trkpt lat="51.097284033894539" lon="2.583010029047728">
        <ele>3.98</ele>
        <time>2023-09-04T07:42:38Z</time>
      </trkpt>
      <trkpt lat="51.097317980602384" lon="2.583010029047728">
        <ele>3.98</ele>
        <time>2023-09-04T07:42:39Z</time>
      </trkpt>
      <trkpt lat="51.097327033057809" lon="2.583010029047728">
        <ele>3.5</ele>
        <time>2023-09-04T07:42:40Z</time>
      </trkpt>
      <trkpt lat="51.097454018890858" lon="2.583036012947559">
        <ele>2.54</ele>
        <time>2023-09-04T07:42:43Z</time>
      </trkpt>
      <trkpt lat="51.097495006397367" lon="2.583066020160914">
        <ele>2.06</ele>
        <time>2023-09-04T07:42:44Z</time>
      </trkpt>
      <trkpt lat="51.098282989114523" lon="2.583386963233352">
        <ele>-0.34</ele>
        <time>2023-09-04T07:42:57Z</time>
      </trkpt>
      <trkpt lat="51.098355995491147" lon="2.583413030952215">
        <ele>-0.34</ele>
        <time>2023-09-04T07:42:58Z</time>
      </trkpt>
      <trkpt lat="51.09842699021101" lon="2.583438009023666">
        <ele>-0.34</ele>
        <time>2023-09-04T07:42:59Z</time>
      </trkpt>
      <trkpt lat="51.098503014072776" lon="2.583464998751879">
        <ele>-0.34</ele>
        <time>2023-09-04T07:43:00Z</time>
      </trkpt>
      <trkpt lat="51.099181026220322" lon="2.583753000944853">
        <ele>-0.34</ele>
        <time>2023-09-04T07:43:10Z</time>
      </trkpt>
      <trkpt lat="51.099820984527469" lon="2.584279971197248">
        <ele>1.1</ele>
        <time>2023-09-04T07:43:20Z</time>
      </trkpt>
      <trkpt lat="51.100325994193554" lon="2.584774000570178">
        <ele>3.02</ele>
        <time>2023-09-04T07:43:30Z</time>
      </trkpt>
      <trkpt lat="51.100805019959807" lon="2.585463998839259">
        <ele>4.46</ele>
        <time>2023-09-04T07:43:40Z</time>
      </trkpt>
      <trkpt lat="51.100903004407883" lon="2.585689974948764">
        <ele>4.94</ele>
        <time>2023-09-04T07:43:44Z</time>
      </trkpt>
      <trkpt lat="51.101125041022897" lon="2.586231026798487">
        <ele>5.91</ele>
        <time>2023-09-04T07:43:50Z</time>
      </trkpt>
      <trkpt lat="51.101421006023884" lon="2.587000988423824">
        <ele>7.35</ele>
        <time>2023-09-04T07:43:59Z</time>
      </trkpt>
      <trkpt lat="51.101560983806849" lon="2.587352022528648">
        <ele>7.83</ele>
        <time>2023-09-04T07:44:03Z</time>
      </trkpt>
      <trkpt lat="51.101593002676964" lon="2.587431985884905">
        <ele>7.35</ele>
        <time>2023-09-04T07:44:04Z</time>
      </trkpt>
      <trkpt lat="51.10162602737546" lon="2.587518990039825">
        <ele>7.35</ele>
        <time>2023-09-04T07:44:05Z</time>
      </trkpt>
      <trkpt lat="51.101828031241894" lon="2.588039003312588">
        <ele>5.91</ele>
        <time>2023-09-04T07:44:11Z</time>
      </trkpt>
      <trkpt lat="51.102144028991461" lon="2.588835032656789">
        <ele>3.5</ele>
        <time>2023-09-04T07:44:21Z</time>
      </trkpt>
      <trkpt lat="51.102171018719673" lon="2.58890300989151">
        <ele>3.5</ele>
        <time>2023-09-04T07:44:22Z</time>
      </trkpt>
      <trkpt lat="51.102202031761408" lon="2.588978027924895">
        <ele>3.98</ele>
        <time>2023-09-04T07:44:23Z</time>
      </trkpt>
      <trkpt lat="51.102404035627842" lon="2.589498041197658">
        <ele>3.98</ele>
        <time>2023-09-04T07:44:30Z</time>
      </trkpt>
      <trkpt lat="51.102459020912647" lon="2.589630978181958">
        <ele>3.98</ele>
        <time>2023-09-04T07:44:32Z</time>
      </trkpt>
      <trkpt lat="51.102485004812479" lon="2.589694010093808">
        <ele>3.98</ele>
        <time>2023-09-04T07:44:33Z</time>
      </trkpt>
      <trkpt lat="51.102697988972068" lon="2.590214023366571">
        <ele>3.02</ele>
        <time>2023-09-04T07:44:44Z</time>
      </trkpt>
      <trkpt lat="51.102922037243843" lon="2.590781981125474">
        <ele>4.46</ele>
        <time>2023-09-04T07:44:55Z</time>
      </trkpt>
      <trkpt lat="51.10317500308156" lon="2.591468961909413">
        <ele>3.98</ele>
        <time>2023-09-04T07:45:04Z</time>
      </trkpt>
      <trkpt lat="51.103469962254167" lon="2.592253005132079">
        <ele>5.42</ele>
        <time>2023-09-04T07:45:14Z</time>
      </trkpt>
      <trkpt lat="51.103857038542628" lon="2.593228993937373">
        <ele>6.87</ele>
        <time>2023-09-04T07:45:26Z</time>
      </trkpt>
      <trkpt lat="51.104200026020408" lon="2.594104986637831">
        <ele>7.83</ele>
        <time>2023-09-04T07:45:37Z</time>
      </trkpt>
      <trkpt lat="51.104505965486169" lon="2.594890035688877">
        <ele>11.67</ele>
        <time>2023-09-04T07:45:49Z</time>
      </trkpt>
      <trkpt lat="51.104877032339573" lon="2.595880022272468">
        <ele>12.630000000000001</ele>
        <time>2023-09-04T07:46:00Z</time>
      </trkpt>
      <trkpt lat="51.105100996792316" lon="2.596579995006323">
        <ele>11.67</ele>
        <time>2023-09-04T07:46:07Z</time>
      </trkpt>
      <trkpt lat="51.105168974027038" lon="2.596920970827341">
        <ele>11.67</ele>
        <time>2023-09-04T07:46:10Z</time>
      </trkpt>
      <trkpt lat="51.105225970968604" lon="2.597272004932165">
        <ele>11.19</ele>
        <time>2023-09-04T07:46:13Z</time>
      </trkpt>
      <trkpt lat="51.105242986232042" lon="2.597393961623311">
        <ele>10.710000000000001</ele>
        <time>2023-09-04T07:46:14Z</time>
      </trkpt>
      <trkpt lat="51.105240974575281" lon="2.597505021840334">
        <ele>11.19</ele>
        <time>2023-09-04T07:46:15Z</time>
      </trkpt>
      <trkpt lat="51.105235023424029" lon="2.597623039036989">
        <ele>11.19</ele>
        <time>2023-09-04T07:46:16Z</time>
      </trkpt>
      <trkpt lat="51.105229994282126" lon="2.597744995728135">
        <ele>11.67</ele>
        <time>2023-09-04T07:46:17Z</time>
      </trkpt>
      <trkpt lat="51.105219013988972" lon="2.597997961565852">
        <ele>12.15</ele>
        <time>2023-09-04T07:46:19Z</time>
      </trkpt>
      <trkpt lat="51.105201998725533" lon="2.598395012319088">
        <ele>14.08</ele>
        <time>2023-09-04T07:46:22Z</time>
      </trkpt>
      <trkpt lat="51.105190012603998" lon="2.598520992323756">
        <ele>15.039999999999999</ele>
        <time>2023-09-04T07:46:23Z</time>
      </trkpt>
      <trkpt lat="51.105180038139224" lon="2.598676979541779">
        <ele>16</ele>
        <time>2023-09-04T07:46:24Z</time>
      </trkpt>
      <trkpt lat="51.105178026482463" lon="2.598961964249611">
        <ele>16.960000000000001</ele>
        <time>2023-09-04T07:46:26Z</time>
      </trkpt>
      <trkpt lat="51.105166040360928" lon="2.599119963124394">
        <ele>16.48</ele>
        <time>2023-09-04T07:46:27Z</time>
      </trkpt>
      <trkpt lat="51.105164028704166" lon="2.599291959777474">
        <ele>16</ele>
        <time>2023-09-04T07:46:28Z</time>
      </trkpt>
      <trkpt lat="51.105176014825702" lon="2.599463034421206">
        <ele>15.52</ele>
        <time>2023-09-04T07:46:29Z</time>
      </trkpt>
      <trkpt lat="51.105186995118856" lon="2.599636036902666">
        <ele>15.52</ele>
        <time>2023-09-04T07:46:30Z</time>
      </trkpt>
      <trkpt lat="51.105198981240392" lon="2.599807027727366">
        <ele>15.52</ele>
        <time>2023-09-04T07:46:31Z</time>
      </trkpt>
      <trkpt lat="51.10523896291852" lon="2.59996603243053">
        <ele>15.52</ele>
        <time>2023-09-04T07:46:32Z</time>
      </trkpt>
      <trkpt lat="51.105292020365596" lon="2.600125037133694">
        <ele>15.52</ele>
        <time>2023-09-04T07:46:33Z</time>
      </trkpt>
      <trkpt lat="51.105348011478782" lon="2.600292004644871">
        <ele>15.039999999999999</ele>
        <time>2023-09-04T07:46:34Z</time>
      </trkpt>
      <trkpt lat="51.105404002591968" lon="2.600460983812809">
        <ele>15.039999999999999</ele>
        <time>2023-09-04T07:46:35Z</time>
      </trkpt>
      <trkpt lat="51.105458987876773" lon="2.600627029314637">
        <ele>14.56</ele>
        <time>2023-09-04T07:46:36Z</time>
      </trkpt>
      <trkpt lat="51.106407986953855" lon="2.602860974147916">
        <ele>8.789999999999999</ele>
        <time>2023-09-04T07:46:49Z</time>
      </trkpt>
      <trkpt lat="51.107580028474331" lon="2.60508100502193">
        <ele>6.87</ele>
        <time>2023-09-04T07:47:01Z</time>
      </trkpt>
      <trkpt lat="51.107950005680323" lon="2.605805033817887">
        <ele>5.91</ele>
        <time>2023-09-04T07:47:05Z</time>
      </trkpt>
      <trkpt lat="51.108011025935411" lon="2.605999996885657">
        <ele>5.91</ele>
        <time>2023-09-04T07:47:06Z</time>
      </trkpt>
      <trkpt lat="51.108355019241571" lon="2.607554001733661">
        <ele>5.42</ele>
        <time>2023-09-04T07:47:15Z</time>
      </trkpt>
      <trkpt lat="51.108791967853904" lon="2.609253013506532">
        <ele>4.94</ele>
        <time>2023-09-04T07:47:26Z</time>
      </trkpt>
      <trkpt lat="51.109284991398454" lon="2.610210981220007">
        <ele>4.94</ele>
        <time>2023-09-04T07:47:35Z</time>
      </trkpt>
      <trkpt lat="51.109707020223141" lon="2.610740968957543">
        <ele>4.94</ele>
        <time>2023-09-04T07:47:44Z</time>
      </trkpt>
      <trkpt lat="51.1097920127213" lon="2.610807018354535">
        <ele>5.42</ele>
        <time>2023-09-04T07:47:48Z</time>
      </trkpt>
      <trkpt lat="51.110279001295567" lon="2.611318985000253">
        <ele>5.91</ele>
        <time>2023-09-04T07:47:58Z</time>
      </trkpt>
      <trkpt lat="51.110314037650824" lon="2.611356033012271">
        <ele>5.91</ele>
        <time>2023-09-04T07:47:59Z</time>
      </trkpt>
      <trkpt lat="51.110402969643474" lon="2.611449994146824">
        <ele>6.87</ele>
        <time>2023-09-04T07:48:08Z</time>
      </trkpt>
      <trkpt lat="51.110419984906912" lon="2.611467009410262">
        <ele>7.35</ele>
        <time>2023-09-04T07:48:38Z</time>
      </trkpt>
      <trkpt lat="51.110312025994062" lon="2.611770015209913">
        <ele>10.710000000000001</ele>
        <time>2023-09-04T07:48:49Z</time>
      </trkpt>
      <trkpt lat="51.11026399768889" lon="2.611815026029944">
        <ele>12.15</ele>
        <time>2023-09-04T07:49:03Z</time>
      </trkpt>
      <trkpt lat="51.110205994918942" lon="2.612003032118082">
        <ele>24.170000000000002</ele>
        <time>2023-09-04T08:20:10Z</time>
      </trkpt>
      <trkpt lat="51.110181016847491" lon="2.612025998532772">
        <ele>29.460000000000001</ele>
        <time>2023-09-04T08:20:49Z</time>
      </trkpt>
      <trkpt lat="51.11017799936235" lon="2.612066986039281">
        <ele>30.420000000000002</ele>
        <time>2023-09-04T08:21:34Z</time>
      </trkpt>
      <trkpt lat="51.110180011019111" lon="2.612059023231268">
        <ele>29.940000000000001</ele>
        <time>2023-09-04T08:22:15Z</time>
      </trkpt>
      <trkpt lat="51.110180011019111" lon="2.612050976604223">
        <ele>29.940000000000001</ele>
        <time>2023-09-04T08:23:02Z</time>
      </trkpt>
      <trkpt lat="51.11017900519073" lon="2.612061034888029">
        <ele>29.460000000000001</ele>
        <time>2023-09-04T08:23:41Z</time>
      </trkpt>
      <trkpt lat="51.110176993533969" lon="2.612063968554139">
        <ele>28.98</ele>
        <time>2023-09-04T08:24:30Z</time>
      </trkpt>
      <trkpt lat="51.110084960237145" lon="2.611981993541122">
        <ele>27.050000000000001</ele>
        <time>2023-09-04T08:24:51Z</time>
      </trkpt>
      <trkpt lat="51.109816990792751" lon="2.612231019884348">
        <ele>23.690000000000001</ele>
        <time>2023-09-04T08:24:57Z</time>
      </trkpt>
      <trkpt lat="51.109782960265875" lon="2.612263960763812">
        <ele>22.73</ele>
        <time>2023-09-04T08:24:58Z</time>
      </trkpt>
      <trkpt lat="51.109714983031154" lon="2.612329004332423">
        <ele>21.289999999999999</ele>
        <time>2023-09-04T08:25:00Z</time>
      </trkpt>
      <trkpt lat="51.109679024666548" lon="2.612364962697029">
        <ele>20.809999999999999</ele>
        <time>2023-09-04T08:25:01Z</time>
      </trkpt>
      <trkpt lat="51.109158005565405" lon="2.61285899206996">
        <ele>16.960000000000001</ele>
        <time>2023-09-04T08:25:11Z</time>
      </trkpt>
      <trkpt lat="51.108709992840886" lon="2.613269034773111">
        <ele>14.08</ele>
        <time>2023-09-04T08:25:18Z</time>
      </trkpt>
      <trkpt lat="51.108424002304673" lon="2.613542033359408">
        <ele>13.6</ele>
        <time>2023-09-04T08:25:22Z</time>
      </trkpt>
      <trkpt lat="51.108355019241571" lon="2.613602969795466">
        <ele>13.6</ele>
        <time>2023-09-04T08:25:23Z</time>
      </trkpt>
      <trkpt lat="51.108287964016199" lon="2.613658038899303">
        <ele>13.6</ele>
        <time>2023-09-04T08:25:24Z</time>
      </trkpt>
      <trkpt lat="51.107630990445614" lon="2.614272013306618">
        <ele>14.08</ele>
        <time>2023-09-04T08:25:33Z</time>
      </trkpt>
      <trkpt lat="51.107433009892702" lon="2.614466976374388">
        <ele>14.08</ele>
        <time>2023-09-04T08:25:36Z</time>
      </trkpt>
      <trkpt lat="51.10736302100122" lon="2.61453696526587">
        <ele>14.56</ele>
        <time>2023-09-04T08:25:37Z</time>
      </trkpt>
      <trkpt lat="51.106490967795253" lon="2.615366019308567">
        <ele>13.6</ele>
        <time>2023-09-04T08:25:49Z</time>
      </trkpt>
      <trkpt lat="51.105657974258065" lon="2.616146039217711">
        <ele>11.67</ele>
        <time>2023-09-04T08:25:59Z</time>
      </trkpt>
      <trkpt lat="51.104295998811722" lon="2.617411036044359">
        <ele>9.27</ele>
        <time>2023-09-04T08:26:15Z</time>
      </trkpt>
      <trkpt lat="51.103699039667845" lon="2.61801796965301">
        <ele>8.789999999999999</ele>
        <time>2023-09-04T08:26:22Z</time>
      </trkpt>
      <trkpt lat="51.103623015806079" lon="2.618125006556511">
        <ele>8.789999999999999</ele>
        <time>2023-09-04T08:26:23Z</time>
      </trkpt>
      <trkpt lat="51.103546991944313" lon="2.618233971297741">
        <ele>8.310000000000001</ele>
        <time>2023-09-04T08:26:24Z</time>
      </trkpt>
      <trkpt lat="51.103470968082547" lon="2.618341008201242">
        <ele>8.310000000000001</ele>
        <time>2023-09-04T08:26:25Z</time>
      </trkpt>
      <trkpt lat="51.103426963090897" lon="2.61848702095449">
        <ele>8.310000000000001</ele>
        <time>2023-09-04T08:26:26Z</time>
      </trkpt>
      <trkpt lat="51.103385975584388" lon="2.618636973202229">
        <ele>8.310000000000001</ele>
        <time>2023-09-04T08:26:27Z</time>
      </trkpt>
      <trkpt lat="51.103344988077879" lon="2.618786003440619">
        <ele>8.310000000000001</ele>
        <time>2023-09-04T08:26:28Z</time>
      </trkpt>
      <trkpt lat="51.10332403331995" lon="2.618933022022247">
        <ele>8.310000000000001</ele>
        <time>2023-09-04T08:26:29Z</time>
      </trkpt>
      <trkpt lat="51.103086993098259" lon="2.621361007913947">
        <ele>5.91</ele>
        <time>2023-09-04T08:26:44Z</time>
      </trkpt>
      <trkpt lat="51.102888006716967" lon="2.623332012444735">
        <ele>5.42</ele>
        <time>2023-09-04T08:26:55Z</time>
      </trkpt>
      <trkpt lat="51.1025529820472" lon="2.626644037663937">
        <ele>6.39</ele>
        <time>2023-09-04T08:27:13Z</time>
      </trkpt>
      <trkpt lat="51.10240001231432" lon="2.627738965675235">
        <ele>6.87</ele>
        <time>2023-09-04T08:27:19Z</time>
      </trkpt>
      <trkpt lat="51.102342009544373" lon="2.627901993691921">
        <ele>6.87</ele>
        <time>2023-09-04T08:27:20Z</time>
      </trkpt>
      <trkpt lat="51.102270008996129" lon="2.628065021708608">
        <ele>6.39</ele>
        <time>2023-09-04T08:27:21Z</time>
      </trkpt>
      <trkpt lat="51.102189039811492" lon="2.628227965906262">
        <ele>5.91</ele>
        <time>2023-09-04T08:27:22Z</time>
      </trkpt>
      <trkpt lat="51.102096000686288" lon="2.628380013629794">
        <ele>5.91</ele>
        <time>2023-09-04T08:27:23Z</time>
      </trkpt>
      <trkpt lat="51.100775012746453" lon="2.630410026758909">
        <ele>3.5</ele>
        <time>2023-09-04T08:27:37Z</time>
      </trkpt>
      <trkpt lat="51.100350972265005" lon="2.631040010601282">
        <ele>3.5</ele>
        <time>2023-09-04T08:27:43Z</time>
      </trkpt>
      <trkpt lat="51.100051989778876" lon="2.631476037204266">
        <ele>2.54</ele>
        <time>2023-09-04T08:27:47Z</time>
      </trkpt>
      <trkpt lat="51.099879993125796" lon="2.631688015535474">
        <ele>2.54</ele>
        <time>2023-09-04T08:27:53Z</time>
      </trkpt>
      <trkpt lat="51.099826013669372" lon="2.631738977506757">
        <ele>2.54</ele>
        <time>2023-09-04T08:28:02Z</time>
      </trkpt>
      <trkpt lat="51.099790977314115" lon="2.631733026355505">
        <ele>2.54</ele>
        <time>2023-09-04T08:28:03Z</time>
      </trkpt>
      <trkpt lat="51.099744960665703" lon="2.63172497972846">
        <ele>2.54</ele>
        <time>2023-09-04T08:28:04Z</time>
      </trkpt>
      <trkpt lat="51.099688969552517" lon="2.631752975285053">
        <ele>2.54</ele>
        <time>2023-09-04T08:28:05Z</time>
      </trkpt>
      <trkpt lat="51.099643958732486" lon="2.631825981661677">
        <ele>2.54</ele>
        <time>2023-09-04T08:28:07Z</time>
      </trkpt>
      <trkpt lat="51.099530970677733" lon="2.632013987749815">
        <ele>2.54</ele>
        <time>2023-09-04T08:28:08Z</time>
      </trkpt>
      <trkpt lat="51.099445978179574" lon="2.632048018276691">
        <ele>2.54</ele>
        <time>2023-09-04T08:28:09Z</time>
      </trkpt>
      <trkpt lat="51.099008023738861" lon="2.632225966081023">
        <ele>1.58</ele>
        <time>2023-09-04T08:28:14Z</time>
      </trkpt>
      <trkpt lat="51.098934011533856" lon="2.632256979122758">
        <ele>1.58</ele>
        <time>2023-09-04T08:28:15Z</time>
      </trkpt>
      <trkpt lat="51.098081991076469" lon="2.632575994357467">
        <ele>-1.79</ele>
        <time>2023-09-04T08:28:26Z</time>
      </trkpt>
      <trkpt lat="51.098057013005018" lon="2.632585968822241">
        <ele>-1.79</ele>
        <time>2023-09-04T08:28:36Z</time>
      </trkpt>
      <trkpt lat="51.098048966377974" lon="2.632589992135763">
        <ele>-1.3</ele>
        <time>2023-09-04T08:28:45Z</time>
      </trkpt>
      <trkpt lat="51.098009990528226" lon="2.632607007399201">
        <ele>-1.3</ele>
        <time>2023-09-04T08:28:46Z</time>
      </trkpt>
      <trkpt lat="51.09795399941504" lon="2.632630979642272">
        <ele>-1.3</ele>
        <time>2023-09-04T08:28:47Z</time>
      </trkpt>
      <trkpt lat="51.097210021689534" lon="2.632943037897348">
        <ele>-1.79</ele>
        <time>2023-09-04T08:28:54Z</time>
      </trkpt>
      <trkpt lat="51.095486031845212" lon="2.633675029501319">
        <ele>-3.71</ele>
        <time>2023-09-04T08:29:05Z</time>
      </trkpt>
      <trkpt lat="51.093666991218925" lon="2.634513974189758">
        <ele>-2.27</ele>
        <time>2023-09-04T08:29:16Z</time>
      </trkpt>
      <trkpt lat="51.092197978869081" lon="2.635402036830783">
        <ele>0.62</ele>
        <time>2023-09-04T08:29:27Z</time>
      </trkpt>
      <trkpt lat="51.090703988447785" lon="2.636339971795678">
        <ele>-0.34</ele>
        <time>2023-09-04T08:29:38Z</time>
      </trkpt>
      <trkpt lat="51.089005982503295" lon="2.637402964755893">
        <ele>-3.23</ele>
        <time>2023-09-04T08:29:50Z</time>
      </trkpt>
      <trkpt lat="51.087013017386198" lon="2.638694029301405">
        <ele>-3.71</ele>
        <time>2023-09-04T08:30:03Z</time>
      </trkpt>
      <trkpt lat="51.086108023300767" lon="2.639450998976827">
        <ele>-1.79</ele>
        <time>2023-09-04T08:30:11Z</time>
      </trkpt>
      <trkpt lat="51.085174027830362" lon="2.640826972201467">
        <ele>-1.3</ele>
        <time>2023-09-04T08:30:20Z</time>
      </trkpt>
      <trkpt lat="51.084388978779316" lon="2.642427999526262">
        <ele>-4.19</ele>
        <time>2023-09-04T08:30:30Z</time>
      </trkpt>
      <trkpt lat="51.084227962419391" lon="2.642761012539268">
        <ele>-4.19</ele>
        <time>2023-09-04T08:30:33Z</time>
      </trkpt>
      <trkpt lat="51.083958987146616" lon="2.643049014732242">
        <ele>-2.27</ele>
        <time>2023-09-04T08:30:37Z</time>
      </trkpt>
      <trkpt lat="51.083894027397037" lon="2.643112968653441">
        <ele>-1.3</ele>
        <time>2023-09-04T08:30:39Z</time>
      </trkpt>
      <trkpt lat="51.083894027397037" lon="2.643112968653441">
        <ele>-1.3</ele>
        <time>2023-09-04T08:30:40Z</time>
      </trkpt>
      <trkpt lat="51.083905007690191" lon="2.6431979611516">
        <ele>-0.82</ele>
        <time>2023-09-04T08:30:41Z</time>
      </trkpt>
      <trkpt lat="51.083885980769992" lon="2.643353026360273">
        <ele>-0.82</ele>
        <time>2023-09-04T08:30:42Z</time>
      </trkpt>
      <trkpt lat="51.083854967728257" lon="2.643427038565278">
        <ele>-0.82</ele>
        <time>2023-09-04T08:30:43Z</time>
      </trkpt>
      <trkpt lat="51.083818003535271" lon="2.643512031063438">
        <ele>-0.34</ele>
        <time>2023-09-04T08:30:44Z</time>
      </trkpt>
      <trkpt lat="51.08377399854362" lon="2.643616972491145">
        <ele>-0.34</ele>
        <time>2023-09-04T08:30:45Z</time>
      </trkpt>
      <trkpt lat="51.083160024136305" lon="2.644999986514449">
        <ele>-1.3</ele>
        <time>2023-09-04T08:30:54Z</time>
      </trkpt>
      <trkpt lat="51.082994984462857" lon="2.645343979820609">
        <ele>-1.79</ele>
        <time>2023-09-04T08:30:56Z</time>
      </trkpt>
      <trkpt lat="51.082824999466538" lon="2.645698031410575">
        <ele>-2.75</ele>
        <time>2023-09-04T08:30:58Z</time>
      </trkpt>
      <trkpt lat="51.081682965159416" lon="2.648056028410792">
        <ele>-3.23</ele>
        <time>2023-09-04T08:31:10Z</time>
      </trkpt>
      <trkpt lat="51.080923983827233" lon="2.649590000510216">
        <ele>-3.23</ele>
        <time>2023-09-04T08:31:19Z</time>
      </trkpt>
      <trkpt lat="51.080086966976523" lon="2.651086002588272">
        <ele>-4.19</ele>
        <time>2023-09-04T08:31:28Z</time>
      </trkpt>
      <trkpt lat="51.079128999263048" lon="2.652105996385217">
        <ele>-5.15</ele>
        <time>2023-09-04T08:31:37Z</time>
      </trkpt>
      <trkpt lat="51.077768029645085" lon="2.653465960174799">
        <ele>-7.07</ele>
        <time>2023-09-04T08:31:50Z</time>
      </trkpt>
      <trkpt lat="51.077318005263805" lon="2.65389502979815">
        <ele>-7.55</ele>
        <time>2023-09-04T08:31:57Z</time>
      </trkpt>
      <trkpt lat="51.077190013602376" lon="2.65402302145958">
        <ele>-7.07</ele>
        <time>2023-09-04T08:32:04Z</time>
      </trkpt>
      <trkpt lat="51.077190013602376" lon="2.65402302145958">
        <ele>-6.11</ele>
        <time>2023-09-04T08:32:11Z</time>
      </trkpt>
      <trkpt lat="51.077139973640442" lon="2.654072977602482">
        <ele>-5.63</ele>
        <time>2023-09-04T08:32:13Z</time>
      </trkpt>
      <trkpt lat="51.07711398974061" lon="2.654098961502314">
        <ele>-5.63</ele>
        <time>2023-09-04T08:32:26Z</time>
      </trkpt>
      <trkpt lat="51.076922966167331" lon="2.654273975640535">
        <ele>-5.63</ele>
        <time>2023-09-04T08:32:34Z</time>
      </trkpt>
      <trkpt lat="51.076695984229445" lon="2.654490983113647">
        <ele>-4.67</ele>
        <time>2023-09-04T08:32:38Z</time>
      </trkpt>
      <trkpt lat="51.076631024479866" lon="2.654528031125665">
        <ele>-4.67</ele>
        <time>2023-09-04T08:32:39Z</time>
      </trkpt>
      <trkpt lat="51.076561035588384" lon="2.654568012803793">
        <ele>-4.19</ele>
        <time>2023-09-04T08:32:40Z</time>
      </trkpt>
      <trkpt lat="51.076480988413095" lon="2.654596008360386">
        <ele>-4.19</ele>
        <time>2023-09-04T08:32:41Z</time>
      </trkpt>
      <trkpt lat="51.076407982036471" lon="2.654620986431837">
        <ele>-3.71</ele>
        <time>2023-09-04T08:32:42Z</time>
      </trkpt>
      <trkpt lat="51.076336987316608" lon="2.654644036665559">
        <ele>-3.23</ele>
        <time>2023-09-04T08:32:43Z</time>
      </trkpt>
      <trkpt lat="51.075552022084594" lon="2.654587039723992">
        <ele>-1.3</ele>
        <time>2023-09-04T08:32:51Z</time>
      </trkpt>
      <trkpt lat="51.074357014149427" lon="2.654596008360386">
        <ele>-0.34</ele>
        <time>2023-09-04T08:33:00Z</time>
      </trkpt>
      <trkpt lat="51.072538979351521" lon="2.654898008331657">
        <ele>2.54</ele>
        <time>2023-09-04T08:33:10Z</time>
      </trkpt>
      <trkpt lat="51.0708839725703" lon="2.655504019930959">
        <ele>4.46</ele>
        <time>2023-09-04T08:33:19Z</time>
      </trkpt>
      <trkpt lat="51.0689050052315" lon="2.656698022037745">
        <ele>4.94</ele>
        <time>2023-09-04T08:33:29Z</time>
      </trkpt>
      <trkpt lat="51.066150963306427" lon="2.65883800573647">
        <ele>-1.79</ele>
        <time>2023-09-04T08:33:42Z</time>
      </trkpt>
      <trkpt lat="51.063259039074183" lon="2.661245036870241">
        <ele>-2.75</ele>
        <time>2023-09-04T08:33:57Z</time>
      </trkpt>
      <trkpt lat="51.06061102822423" lon="2.663466995581985">
        <ele>-0.34</ele>
        <time>2023-09-04T08:34:11Z</time>
      </trkpt>
      <trkpt lat="51.058864993974566" lon="2.664911029860377">
        <ele>-2.27</ele>
        <time>2023-09-04T08:34:22Z</time>
      </trkpt>
      <trkpt lat="51.058210032060742" lon="2.665472030639648">
        <ele>-3.71</ele>
        <time>2023-09-04T08:34:26Z</time>
      </trkpt>
      <trkpt lat="51.056912010535598" lon="2.666548015549779">
        <ele>-0.34</ele>
        <time>2023-09-04T08:34:36Z</time>
      </trkpt>
      <trkpt lat="51.056684022769332" lon="2.666725041344762">
        <ele>0.62</ele>
        <time>2023-09-04T08:34:38Z</time>
      </trkpt>
      <trkpt lat="51.056369030848145" lon="2.666944982483983">
        <ele>1.58</ele>
        <time>2023-09-04T08:34:41Z</time>
      </trkpt>
      <trkpt lat="51.055967034772038" lon="2.667241031304002">
        <ele>1.58</ele>
        <time>2023-09-04T08:34:45Z</time>
      </trkpt>
      <trkpt lat="51.055858992040157" lon="2.66725997440517">
        <ele>1.58</ele>
        <time>2023-09-04T08:34:46Z</time>
      </trkpt>
      <trkpt lat="51.05575698427856" lon="2.667276989668608">
        <ele>2.06</ele>
        <time>2023-09-04T08:34:47Z</time>
      </trkpt>
      <trkpt lat="51.055656988173723" lon="2.667295010760427">
        <ele>2.06</ele>
        <time>2023-09-04T08:34:48Z</time>
      </trkpt>
      <trkpt lat="51.055526984855533" lon="2.667316971346736">
        <ele>2.06</ele>
        <time>2023-09-04T08:34:49Z</time>
      </trkpt>
      <trkpt lat="51.055461019277573" lon="2.667275983840227">
        <ele>2.06</ele>
        <time>2023-09-04T08:34:50Z</time>
      </trkpt>
      <trkpt lat="51.055254992097616" lon="2.667093006893992">
        <ele>1.58</ele>
        <time>2023-09-04T08:34:51Z</time>
      </trkpt>
      <trkpt lat="51.055254992097616" lon="2.667093006893992">
        <ele>1.58</ele>
        <time>2023-09-04T08:34:52Z</time>
      </trkpt>
      <trkpt lat="51.055071009323001" lon="2.666812967509031">
        <ele>1.58</ele>
        <time>2023-09-04T08:34:53Z</time>
      </trkpt>
      <trkpt lat="51.055071009323001" lon="2.666812967509031">
        <ele>1.1</ele>
        <time>2023-09-04T08:34:54Z</time>
      </trkpt>
      <trkpt lat="51.055018035694957" lon="2.666622027754784">
        <ele>1.1</ele>
        <time>2023-09-04T08:34:55Z</time>
      </trkpt>
      <trkpt lat="51.054990962147713" lon="2.666418012231588">
        <ele>0.62</ele>
        <time>2023-09-04T08:34:56Z</time>
      </trkpt>
      <trkpt lat="51.055004959926009" lon="2.66601299867034">
        <ele>0.14</ele>
        <time>2023-09-04T08:34:58Z</time>
      </trkpt>
      <trkpt lat="51.05504896491766" lon="2.66582197509706">
        <ele>0.14</ele>
        <time>2023-09-04T08:34:59Z</time>
      </trkpt>
      <trkpt lat="51.055134041234851" lon="2.66567001119256">
        <ele>0.14</ele>
        <time>2023-09-04T08:35:00Z</time>
      </trkpt>
      <trkpt lat="51.05521802790463" lon="2.665535984560847">
        <ele>0.14</ele>
        <time>2023-09-04T08:35:01Z</time>
      </trkpt>
      <trkpt lat="51.055312994867563" lon="2.665386032313108">
        <ele>0.62</ele>
        <time>2023-09-04T08:35:02Z</time>
      </trkpt>
      <trkpt lat="51.055408967658877" lon="2.665343033149838">
        <ele>0.62</ele>
        <time>2023-09-04T08:35:03Z</time>
      </trkpt>
      <trkpt lat="51.055508963763714" lon="2.665297016501427">
        <ele>1.1</ele>
        <time>2023-09-04T08:35:04Z</time>
      </trkpt>
      <trkpt lat="51.055612983182073" lon="2.665285030379891">
        <ele>1.1</ele>
        <time>2023-09-04T08:35:05Z</time>
      </trkpt>
      <trkpt lat="51.05571398511529" lon="2.665293999016285">
        <ele>1.58</ele>
        <time>2023-09-04T08:35:06Z</time>
      </trkpt>
      <trkpt lat="51.055826973170042" lon="2.665340015664697">
        <ele>1.58</ele>
        <time>2023-09-04T08:35:07Z</time>
      </trkpt>
      <trkpt lat="51.055914983153343" lon="2.665421990677714">
        <ele>2.06</ele>
        <time>2023-09-04T08:35:08Z</time>
      </trkpt>
      <trkpt lat="51.056002993136644" lon="2.665504971519113">
        <ele>2.06</ele>
        <time>2023-09-04T08:35:09Z</time>
      </trkpt>
      <trkpt lat="51.056091003119946" lon="2.665587030351162">
        <ele>2.54</ele>
        <time>2023-09-04T08:35:10Z</time>
      </trkpt>
      <trkpt lat="51.056158980354667" lon="2.665758021175861">
        <ele>2.54</ele>
        <time>2023-09-04T08:35:11Z</time>
      </trkpt>
      <trkpt lat="51.056197034195065" lon="2.6659270003438">
        <ele>2.54</ele>
        <time>2023-09-04T08:35:12Z</time>
      </trkpt>
      <trkpt lat="51.056283032521605" lon="2.666309969499707">
        <ele>2.54</ele>
        <time>2023-09-04T08:35:14Z</time>
      </trkpt>
      <trkpt lat="51.056661978363991" lon="2.668597977608442">
        <ele>3.02</ele>
        <time>2023-09-04T08:35:23Z</time>
      </trkpt>
      <trkpt lat="51.057232031598687" lon="2.671768013387919">
        <ele>3.02</ele>
        <time>2023-09-04T08:35:33Z</time>
      </trkpt>
      <trkpt lat="51.058313967660069" lon="2.675892999395728">
        <ele>3.98</ele>
        <time>2023-09-04T08:35:44Z</time>
      </trkpt>
      <trkpt lat="51.059725983068347" lon="2.679816987365484">
        <ele>2.06</ele>
        <time>2023-09-04T08:35:54Z</time>
      </trkpt>
      <trkpt lat="51.061463970690966" lon="2.683517010882497">
        <ele>-0.82</ele>
        <time>2023-09-04T08:36:03Z</time>
      </trkpt>
      <trkpt lat="51.063494989648461" lon="2.686798023059964">
        <ele>-0.34</ele>
        <time>2023-09-04T08:36:13Z</time>
      </trkpt>
      <trkpt lat="51.066146017983556" lon="2.69039997830987">
        <ele>2.06</ele>
        <time>2023-09-04T08:36:26Z</time>
      </trkpt>
      <trkpt lat="51.069031991064548" lon="2.694265963509679">
        <ele>7.83</ele>
        <time>2023-09-04T08:36:39Z</time>
      </trkpt>
      <trkpt lat="51.072771996259689" lon="2.699407003819943">
        <ele>7.35</ele>
        <time>2023-09-04T08:36:55Z</time>
      </trkpt>
      <trkpt lat="51.075421012938023" lon="2.703686971217394">
        <ele>3.5</ele>
        <time>2023-09-04T08:37:08Z</time>
      </trkpt>
      <trkpt lat="51.078061982989311" lon="2.708579991012812">
        <ele>0.62</ele>
        <time>2023-09-04T08:37:22Z</time>
      </trkpt>
      <trkpt lat="51.08119597658515" lon="2.714613033458591">
        <ele>0.14</ele>
        <time>2023-09-04T08:37:40Z</time>
      </trkpt>
      <trkpt lat="51.084683015942574" lon="2.721429029479623">
        <ele>0.14</ele>
        <time>2023-09-04T08:37:58Z</time>
      </trkpt>
      <trkpt lat="51.086752004921436" lon="2.725303983315826">
        <ele>-0.34</ele>
        <time>2023-09-04T08:38:09Z</time>
      </trkpt>
      <trkpt lat="51.089303037151694" lon="2.729057986289263">
        <ele>0.14</ele>
        <time>2023-09-04T08:38:21Z</time>
      </trkpt>
      <trkpt lat="51.092180963605642" lon="2.732148980721831">
        <ele>1.1</ele>
        <time>2023-09-04T08:38:33Z</time>
      </trkpt>
      <trkpt lat="51.094741970300674" lon="2.734292987734079">
        <ele>-0.34</ele>
        <time>2023-09-04T08:38:43Z</time>
      </trkpt>
      <trkpt lat="51.098626982420683" lon="2.737377025187016">
        <ele>0.14</ele>
        <time>2023-09-04T08:38:58Z</time>
      </trkpt>
      <trkpt lat="51.101382030174136" lon="2.739907018840313">
        <ele>0.14</ele>
        <time>2023-09-04T08:39:09Z</time>
      </trkpt>
      <trkpt lat="51.104247970506549" lon="2.74299499578774">
        <ele>0.62</ele>
        <time>2023-09-04T08:39:21Z</time>
      </trkpt>
      <trkpt lat="51.107623027637601" lon="2.747319974005222">
        <ele>0.14</ele>
        <time>2023-09-04T08:39:36Z</time>
      </trkpt>
      <trkpt lat="51.110703041777015" lon="2.752152979373932">
        <ele>-0.34</ele>
        <time>2023-09-04T08:39:51Z</time>
      </trkpt>
      <trkpt lat="51.112777981907129" lon="2.755964985117316">
        <ele>-0.82</ele>
        <time>2023-09-04T08:40:02Z</time>
      </trkpt>
      <trkpt lat="51.115316022187471" lon="2.761568035930395">
        <ele>4.94</ele>
        <time>2023-09-04T08:40:17Z</time>
      </trkpt>
      <trkpt lat="51.117369001731277" lon="2.767107971012592">
        <ele>3.98</ele>
        <time>2023-09-04T08:40:31Z</time>
      </trkpt>
      <trkpt lat="51.119179995730519" lon="2.772352024912834">
        <ele>-0.34</ele>
        <time>2023-09-04T08:40:44Z</time>
      </trkpt>
      <trkpt lat="51.122375009581447" lon="2.78160598129034">
        <ele>-1.3</ele>
        <time>2023-09-04T08:41:07Z</time>
      </trkpt>
      <trkpt lat="51.12474599853158" lon="2.788462964817882">
        <ele>-1.79</ele>
        <time>2023-09-04T08:41:24Z</time>
      </trkpt>
      <trkpt lat="51.12575601786375" lon="2.791377017274499">
        <ele>-0.34</ele>
        <time>2023-09-04T08:41:32Z</time>
      </trkpt>
      <trkpt lat="51.127214971929789" lon="2.795608034357429">
        <ele>3.98</ele>
        <time>2023-09-04T08:41:44Z</time>
      </trkpt>
      <trkpt lat="51.128707034513354" lon="2.799952961504459">
        <ele>8.310000000000001</ele>
        <time>2023-09-04T08:41:56Z</time>
      </trkpt>
      <trkpt lat="51.130659012123942" lon="2.805613009259105">
        <ele>4.46</ele>
        <time>2023-09-04T08:42:10Z</time>
      </trkpt>
      <trkpt lat="51.133122034370899" lon="2.812896966934204">
        <ele>-0.34</ele>
        <time>2023-09-04T08:42:28Z</time>
      </trkpt>
      <trkpt lat="51.134296003729105" lon="2.817094037309289">
        <ele>1.1</ele>
        <time>2023-09-04T08:42:39Z</time>
      </trkpt>
      <trkpt lat="51.135838022455573" lon="2.824031990021467">
        <ele>2.06</ele>
        <time>2023-09-04T08:42:54Z</time>
      </trkpt>
      <trkpt lat="51.136947032064199" lon="2.831186028197408">
        <ele>0.62</ele>
        <time>2023-09-04T08:43:11Z</time>
      </trkpt>
      <trkpt lat="51.137868035584688" lon="2.837745035067201">
        <ele>0.62</ele>
        <time>2023-09-04T08:43:26Z</time>
      </trkpt>
      <trkpt lat="51.138464994728565" lon="2.842003963887692">
        <ele>0.62</ele>
        <time>2023-09-04T08:43:37Z</time>
      </trkpt>
      <trkpt lat="51.139062959700823" lon="2.846204973757267">
        <ele>-0.82</ele>
        <time>2023-09-04T08:43:49Z</time>
      </trkpt>
      <trkpt lat="51.139638964086771" lon="2.850154023617506">
        <ele>-3.23</ele>
        <time>2023-09-04T08:44:01Z</time>
      </trkpt>
      <trkpt lat="51.140413032844663" lon="2.854921985417604">
        <ele>-3.23</ele>
        <time>2023-09-04T08:44:14Z</time>
      </trkpt>
      <trkpt lat="51.141146030277014" lon="2.859504036605358">
        <ele>-1.3</ele>
        <time>2023-09-04T08:44:26Z</time>
      </trkpt>
      <trkpt lat="51.141747012734413" lon="2.863543024286628">
        <ele>-0.34</ele>
        <time>2023-09-04T08:44:34Z</time>
      </trkpt>
      <trkpt lat="51.142626022920012" lon="2.870771996676922">
        <ele>-0.34</ele>
        <time>2023-09-04T08:44:50Z</time>
      </trkpt>
      <trkpt lat="51.143230022862554" lon="2.876244960352778">
        <ele>-1.79</ele>
        <time>2023-09-04T08:45:02Z</time>
      </trkpt>
      <trkpt lat="51.144340960308909" lon="2.88503497838974">
        <ele>1.1</ele>
        <time>2023-09-04T08:45:21Z</time>
      </trkpt>
      <trkpt lat="51.145361959934235" lon="2.891448978334665">
        <ele>3.5</ele>
        <time>2023-09-04T08:45:35Z</time>
      </trkpt>
      <trkpt lat="51.146304002031684" lon="2.896415004506707">
        <ele>1.58</ele>
        <time>2023-09-04T08:45:46Z</time>
      </trkpt>
      <trkpt lat="51.147750969976187" lon="2.903094962239265">
        <ele>5.42</ele>
        <time>2023-09-04T08:46:01Z</time>
      </trkpt>
      <trkpt lat="51.149361971765757" lon="2.909539975225925">
        <ele>6.39</ele>
        <time>2023-09-04T08:46:16Z</time>
      </trkpt>
      <trkpt lat="51.151160979643464" lon="2.91582397185266">
        <ele>5.91</ele>
        <time>2023-09-04T08:46:31Z</time>
      </trkpt>
      <trkpt lat="51.152893016114831" lon="2.92112703435123">
        <ele>4.94</ele>
        <time>2023-09-04T08:46:44Z</time>
      </trkpt>
      <trkpt lat="51.154751032590866" lon="2.926326999440789">
        <ele>4.94</ele>
        <time>2023-09-04T08:46:57Z</time>
      </trkpt>
      <trkpt lat="51.156420037150383" lon="2.930630017071962">
        <ele>4.46</ele>
        <time>2023-09-04T08:47:08Z</time>
      </trkpt>
      <trkpt lat="51.158102033659816" lon="2.934932028874755">
        <ele>3.5</ele>
        <time>2023-09-04T08:47:19Z</time>
      </trkpt>
      <trkpt lat="51.160874012857676" lon="2.941935025155544">
        <ele>3.5</ele>
        <time>2023-09-04T08:47:37Z</time>
      </trkpt>
      <trkpt lat="51.163019025698304" lon="2.94740698300302">
        <ele>5.42</ele>
        <time>2023-09-04T08:47:52Z</time>
      </trkpt>
      <trkpt lat="51.164312018081546" lon="2.951002987101674">
        <ele>7.35</ele>
        <time>2023-09-04T08:48:01Z</time>
      </trkpt>
      <trkpt lat="51.166100967675447" lon="2.956792032346129">
        <ele>5.42</ele>
        <time>2023-09-04T08:48:14Z</time>
      </trkpt>
      <trkpt lat="51.167489010840654" lon="2.962332973256707">
        <ele>3.5</ele>
        <time>2023-09-04T08:48:27Z</time>
      </trkpt>
      <trkpt lat="51.168668009340763" lon="2.96850398182869">
        <ele>2.54</ele>
        <time>2023-09-04T08:48:41Z</time>
      </trkpt>
      <trkpt lat="51.16941399872303" lon="2.973413011059165">
        <ele>2.06</ele>
        <time>2023-09-04T08:48:52Z</time>
      </trkpt>
      <trkpt lat="51.170345982536674" lon="2.979680998250842">
        <ele>2.06</ele>
        <time>2023-09-04T08:49:06Z</time>
      </trkpt>
      <trkpt lat="51.171343009918928" lon="2.986396998167038">
        <ele>2.06</ele>
        <time>2023-09-04T08:49:22Z</time>
      </trkpt>
      <trkpt lat="51.171982968226075" lon="2.990854997187853">
        <ele>0.62</ele>
        <time>2023-09-04T08:49:31Z</time>
      </trkpt>
      <trkpt lat="51.172446990385652" lon="2.994022015482187">
        <ele>-0.82</ele>
        <time>2023-09-04T08:49:40Z</time>
      </trkpt>
      <trkpt lat="51.173285013064742" lon="2.999626994132996">
        <ele>0.14</ele>
        <time>2023-09-04T08:49:55Z</time>
      </trkpt>
      <trkpt lat="51.174132004380226" lon="3.004208039492369">
        <ele>1.58</ele>
        <time>2023-09-04T08:50:06Z</time>
      </trkpt>
      <trkpt lat="51.175338998436928" lon="3.008649023249745">
        <ele>3.98</ele>
        <time>2023-09-04T08:50:17Z</time>
      </trkpt>
      <trkpt lat="51.177072040736675" lon="3.013353031128645">
        <ele>3.02</ele>
        <time>2023-09-04T08:50:29Z</time>
      </trkpt>
      <trkpt lat="51.178783038631082" lon="3.017624029889703">
        <ele>4.94</ele>
        <time>2023-09-04T08:50:41Z</time>
      </trkpt>
      <trkpt lat="51.180796036496758" lon="3.022674964740872">
        <ele>5.42</ele>
        <time>2023-09-04T08:50:54Z</time>
      </trkpt>
      <trkpt lat="51.182054998353124" lon="3.026311034336686">
        <ele>6.39</ele>
        <time>2023-09-04T08:51:03Z</time>
      </trkpt>
      <trkpt lat="51.183010032400489" lon="3.030180959030986">
        <ele>5.42</ele>
        <time>2023-09-04T08:51:12Z</time>
      </trkpt>
      <trkpt lat="51.184677025303245" lon="3.037540018558502">
        <ele>1.58</ele>
        <time>2023-09-04T08:51:29Z</time>
      </trkpt>
      <trkpt lat="51.18574102409184" lon="3.042299011722207">
        <ele>3.5</ele>
        <time>2023-09-04T08:51:40Z</time>
      </trkpt>
      <trkpt lat="51.187579007819295" lon="3.050554012879729">
        <ele>3.02</ele>
        <time>2023-09-04T08:51:59Z</time>
      </trkpt>
      <trkpt lat="51.188747026026249" lon="3.055752972140908">
        <ele>3.02</ele>
        <time>2023-09-04T08:52:11Z</time>
      </trkpt>
      <trkpt lat="51.190119981765747" lon="3.061322998255491">
        <ele>0.62</ele>
        <time>2023-09-04T08:52:24Z</time>
      </trkpt>
      <trkpt lat="51.192191988229752" lon="3.068426996469498">
        <ele>1.58</ele>
        <time>2023-09-04T08:52:41Z</time>
      </trkpt>
      <trkpt lat="51.192985000088811" lon="3.072389960289002">
        <ele>1.1</ele>
        <time>2023-09-04T08:52:50Z</time>
      </trkpt>
      <trkpt lat="51.193199995905161" lon="3.076040027663112">
        <ele>1.1</ele>
        <time>2023-09-04T08:52:58Z</time>
      </trkpt>
      <trkpt lat="51.19283496402204" lon="3.080122014507651">
        <ele>1.58</ele>
        <time>2023-09-04T08:53:07Z</time>
      </trkpt>
      <trkpt lat="51.191771971061826" lon="3.086344990879297">
        <ele>1.58</ele>
        <time>2023-09-04T08:53:21Z</time>
      </trkpt>
      <trkpt lat="51.190504040569067" lon="3.092960994690657">
        <ele>0.14</ele>
        <time>2023-09-04T08:53:36Z</time>
      </trkpt>
      <trkpt lat="51.189196966588497" lon="3.098068004474044">
        <ele>1.1</ele>
        <time>2023-09-04T08:53:48Z</time>
      </trkpt>
      <trkpt lat="51.187916966155171" lon="3.102129958570004">
        <ele>0.62</ele>
        <time>2023-09-04T08:53:57Z</time>
      </trkpt>
      <trkpt lat="51.186591032892466" lon="3.105961997061968">
        <ele>0.62</ele>
        <time>2023-09-04T08:54:09Z</time>
      </trkpt>
      <trkpt lat="51.184936026111245" lon="3.110790979117155">
        <ele>3.02</ele>
        <time>2023-09-04T08:54:22Z</time>
      </trkpt>
      <trkpt lat="51.183559969067574" lon="3.114770958200097">
        <ele>3.5</ele>
        <time>2023-09-04T08:54:33Z</time>
      </trkpt>
      <trkpt lat="51.182064972817898" lon="3.119134996086359">
        <ele>5.42</ele>
        <time>2023-09-04T08:54:45Z</time>
      </trkpt>
      <trkpt lat="51.180599983781576" lon="3.123401971533895">
        <ele>7.83</ele>
        <time>2023-09-04T08:54:56Z</time>
      </trkpt>
      <trkpt lat="51.178234023973346" lon="3.130283011123538">
        <ele>11.67</ele>
        <time>2023-09-04T08:55:13Z</time>
      </trkpt>
      <trkpt lat="51.177531033754349" lon="3.132301038131118">
        <ele>12.15</ele>
        <time>2023-09-04T08:55:18Z</time>
      </trkpt>
      <trkpt lat="51.177386026829481" lon="3.132707979530096">
        <ele>12.15</ele>
        <time>2023-09-04T08:55:19Z</time>
      </trkpt>
      <trkpt lat="51.175605962052941" lon="3.137967959046364">
        <ele>12.15</ele>
        <time>2023-09-04T08:55:32Z</time>
      </trkpt>
      <trkpt lat="51.174066960811615" lon="3.142394023016095">
        <ele>12.15</ele>
        <time>2023-09-04T08:55:43Z</time>
      </trkpt>
      <trkpt lat="51.172084975987673" lon="3.148531001061201">
        <ele>12.630000000000001</ele>
        <time>2023-09-04T08:55:57Z</time>
      </trkpt>
      <trkpt lat="51.170599032193422" lon="3.154022991657257">
        <ele>14.08</ele>
        <time>2023-09-04T08:56:11Z</time>
      </trkpt>
      <trkpt lat="51.169367982074618" lon="3.159671975299716">
        <ele>16</ele>
        <time>2023-09-04T08:56:24Z</time>
      </trkpt>
      <trkpt lat="51.167975999414921" lon="3.166720988228917">
        <ele>13.119999999999999</ele>
        <time>2023-09-04T08:56:40Z</time>
      </trkpt>
      <trkpt lat="51.166602959856391" lon="3.173757009208202">
        <ele>8.789999999999999</ele>
        <time>2023-09-04T08:56:56Z</time>
      </trkpt>
      <trkpt lat="51.165557987987995" lon="3.179032998159528">
        <ele>4.94</ele>
        <time>2023-09-04T08:57:08Z</time>
      </trkpt>
      <trkpt lat="51.164429029449821" lon="3.184737972915173">
        <ele>2.06</ele>
        <time>2023-09-04T08:57:21Z</time>
      </trkpt>
      <trkpt lat="51.163396965712309" lon="3.18999401293695">
        <ele>3.02</ele>
        <time>2023-09-04T08:57:33Z</time>
      </trkpt>
      <trkpt lat="51.162142027169466" lon="3.196165021508932">
        <ele>5.42</ele>
        <time>2023-09-04T08:57:47Z</time>
      </trkpt>
      <trkpt lat="51.16081802174449" lon="3.200762998312712">
        <ele>7.83</ele>
        <time>2023-09-04T08:57:58Z</time>
      </trkpt>
      <trkpt lat="51.158860009163618" lon="3.205874031409621">
        <ele>5.42</ele>
        <time>2023-09-04T08:58:11Z</time>
      </trkpt>
      <trkpt lat="51.157077010720968" lon="3.209483027458191">
        <ele>2.06</ele>
        <time>2023-09-04T08:58:21Z</time>
      </trkpt>
      <trkpt lat="51.15473804064095" lon="3.213598039001226">
        <ele>-0.34</ele>
        <time>2023-09-04T08:58:33Z</time>
      </trkpt>
      <trkpt lat="51.151460967957973" lon="3.219399992376566">
        <ele>2.06</ele>
        <time>2023-09-04T08:58:50Z</time>
      </trkpt>
      <trkpt lat="51.149965971708298" lon="3.222551001235843">
        <ele>3.5</ele>
        <time>2023-09-04T08:58:58Z</time>
      </trkpt>
      <trkpt lat="51.148519003763795" lon="3.226252030581236">
        <ele>6.39</ele>
        <time>2023-09-04T08:59:08Z</time>
      </trkpt>
      <trkpt lat="51.147014033049345" lon="3.231206992641091">
        <ele>12.630000000000001</ele>
        <time>2023-09-04T08:59:21Z</time>
      </trkpt>
      <trkpt lat="51.145359026268125" lon="3.237101985141635">
        <ele>10.710000000000001</ele>
        <time>2023-09-04T08:59:35Z</time>
      </trkpt>
      <trkpt lat="51.143596982583404" lon="3.243411965668201">
        <ele>9.75</ele>
        <time>2023-09-04T08:59:50Z</time>
      </trkpt>
      <trkpt lat="51.142186978831887" lon="3.248458039015532">
        <ele>9.27</ele>
        <time>2023-09-04T09:00:02Z</time>
      </trkpt>
      <trkpt lat="51.140554016456008" lon="3.254358982667327">
        <ele>6.39</ele>
        <time>2023-09-04T09:00:16Z</time>
      </trkpt>
      <trkpt lat="51.138673033565283" lon="3.26109099201858">
        <ele>5.91</ele>
        <time>2023-09-04T09:00:32Z</time>
      </trkpt>
      <trkpt lat="51.136436993256211" lon="3.269081963226199">
        <ele>6.87</ele>
        <time>2023-09-04T09:00:51Z</time>
      </trkpt>
      <trkpt lat="51.134791960939765" lon="3.274961030110717">
        <ele>7.83</ele>
        <time>2023-09-04T09:01:05Z</time>
      </trkpt>
      <trkpt lat="51.133382963016629" lon="3.280002996325493">
        <ele>12.15</ele>
        <time>2023-09-04T09:01:17Z</time>
      </trkpt>
      <trkpt lat="51.131615974009037" lon="3.286323035135865">
        <ele>12.15</ele>
        <time>2023-09-04T09:01:32Z</time>
      </trkpt>
      <trkpt lat="51.130362963303924" lon="3.290794026106596">
        <ele>12.15</ele>
        <time>2023-09-04T09:01:43Z</time>
      </trkpt>
      <trkpt lat="51.129023032262921" lon="3.295593000948429">
        <ele>10.710000000000001</ele>
        <time>2023-09-04T09:01:55Z</time>
      </trkpt>
      <trkpt lat="51.127610011026263" lon="3.300658017396927">
        <ele>11.19</ele>
        <time>2023-09-04T09:02:07Z</time>
      </trkpt>
      <trkpt lat="51.126713985577226" lon="3.303872980177403">
        <ele>13.6</ele>
        <time>2023-09-04T09:02:15Z</time>
      </trkpt>
      <trkpt lat="51.125718969851732" lon="3.307446017861366">
        <ele>14.56</ele>
        <time>2023-09-04T09:02:24Z</time>
      </trkpt>
      <trkpt lat="51.124324975535274" lon="3.312440039590001">
        <ele>14.56</ele>
        <time>2023-09-04T09:02:36Z</time>
      </trkpt>
      <trkpt lat="51.122785974293947" lon="3.317908979952335">
        <ele>14.56</ele>
        <time>2023-09-04T09:02:49Z</time>
      </trkpt>
      <trkpt lat="51.121487030759454" lon="3.322527995333076">
        <ele>14.56</ele>
        <time>2023-09-04T09:03:00Z</time>
      </trkpt>
      <trkpt lat="51.120197977870703" lon="3.327150028198957">
        <ele>13.119999999999999</ele>
        <time>2023-09-04T09:03:11Z</time>
      </trkpt>
      <trkpt lat="51.118442974984646" lon="3.333446010947228">
        <ele>11.19</ele>
        <time>2023-09-04T09:03:26Z</time>
      </trkpt>
      <trkpt lat="51.117026014253497" lon="3.338497029617429">
        <ele>10.710000000000001</ele>
        <time>2023-09-04T09:03:37Z</time>
      </trkpt>
      <trkpt lat="51.115841986611485" lon="3.342704996466637">
        <ele>10.23</ele>
        <time>2023-09-04T09:03:48Z</time>
      </trkpt>
      <trkpt lat="51.113963015377522" lon="3.349418984726071">
        <ele>10.710000000000001</ele>
        <time>2023-09-04T09:04:04Z</time>
      </trkpt>
      <trkpt lat="51.113018961623311" lon="3.352791024371982">
        <ele>9.27</ele>
        <time>2023-09-04T09:04:12Z</time>
      </trkpt>
      <trkpt lat="51.111413994804025" lon="3.358196010813117">
        <ele>8.789999999999999</ele>
        <time>2023-09-04T09:04:25Z</time>
      </trkpt>
      <trkpt lat="51.108988020569086" lon="3.36443399079144">
        <ele>9.27</ele>
        <time>2023-09-04T09:04:41Z</time>
      </trkpt>
      <trkpt lat="51.107136039063334" lon="3.369113020598888">
        <ele>11.19</ele>
        <time>2023-09-04T09:04:53Z</time>
      </trkpt>
      <trkpt lat="51.105444990098476" lon="3.373396005481482">
        <ele>10.23</ele>
        <time>2023-09-04T09:05:04Z</time>
      </trkpt>
      <trkpt lat="51.103134015575051" lon="3.379249004647136">
        <ele>8.789999999999999</ele>
        <time>2023-09-04T09:05:19Z</time>
      </trkpt>
      <trkpt lat="51.100964024662971" lon="3.384674023836851">
        <ele>8.789999999999999</ele>
        <time>2023-09-04T09:05:33Z</time>
      </trkpt>
      <trkpt lat="51.098796967417002" lon="3.390093008056283">
        <ele>9.75</ele>
        <time>2023-09-04T09:05:47Z</time>
      </trkpt>
      <trkpt lat="51.096925958991051" lon="3.394757034257054">
        <ele>7.83</ele>
        <time>2023-09-04T09:05:59Z</time>
      </trkpt>
      <trkpt lat="51.094436030834913" lon="3.400955032557249">
        <ele>9.27</ele>
        <time>2023-09-04T09:06:15Z</time>
      </trkpt>
      <trkpt lat="51.092571979388595" lon="3.405596008524299">
        <ele>9.27</ele>
        <time>2023-09-04T09:06:27Z</time>
      </trkpt>
      <trkpt lat="51.089461036026478" lon="3.413340970873833">
        <ele>10.710000000000001</ele>
        <time>2023-09-04T09:06:47Z</time>
      </trkpt>
      <trkpt lat="51.087282998487353" lon="3.418764984235168">
        <ele>10.23</ele>
        <time>2023-09-04T09:07:00Z</time>
      </trkpt>
      <trkpt lat="51.085103033110499" lon="3.424188997596502">
        <ele>8.789999999999999</ele>
        <time>2023-09-04T09:07:15Z</time>
      </trkpt>
      <trkpt lat="51.082455022260547" lon="3.430771976709366">
        <ele>11.67</ele>
        <time>2023-09-04T09:07:32Z</time>
      </trkpt>
      <trkpt lat="51.079665021970868" lon="3.437751000747085">
        <ele>13.6</ele>
        <time>2023-09-04T09:07:50Z</time>
      </trkpt>
      <trkpt lat="51.077381959185004" lon="3.443623026832938">
        <ele>16.48</ele>
        <time>2023-09-04T09:08:05Z</time>
      </trkpt>
      <trkpt lat="51.075592003762722" lon="3.449398996308446">
        <ele>19.359999999999999</ele>
        <time>2023-09-04T09:08:19Z</time>
      </trkpt>
      <trkpt lat="51.074100024998188" lon="3.455405971035361">
        <ele>12.15</ele>
        <time>2023-09-04T09:08:33Z</time>
      </trkpt>
      <trkpt lat="51.07266403734684" lon="3.461913010105491">
        <ele>11.19</ele>
        <time>2023-09-04T09:08:48Z</time>
      </trkpt>
      <trkpt lat="51.071615964174271" lon="3.46668298356235">
        <ele>10.710000000000001</ele>
        <time>2023-09-04T09:08:59Z</time>
      </trkpt>
      <trkpt lat="51.070369994267821" lon="3.472328027710319">
        <ele>9.75</ele>
        <time>2023-09-04T09:09:12Z</time>
      </trkpt>
      <trkpt lat="51.06901396997273" lon="3.478393005207181">
        <ele>9.75</ele>
        <time>2023-09-04T09:09:26Z</time>
      </trkpt>
      <trkpt lat="51.067961035296321" lon="3.483169013634324">
        <ele>10.23</ele>
        <time>2023-09-04T09:09:37Z</time>
      </trkpt>
      <trkpt lat="51.066622026264668" lon="3.489244971424341">
        <ele>11.19</ele>
        <time>2023-09-04T09:09:51Z</time>
      </trkpt>
      <trkpt lat="51.065652994439006" lon="3.493567015975714">
        <ele>9.27</ele>
        <time>2023-09-04T09:10:00Z</time>
      </trkpt>
      <trkpt lat="51.064325971528888" lon="3.499645991250873">
        <ele>9.27</ele>
        <time>2023-09-04T09:10:15Z</time>
      </trkpt>
      <trkpt lat="51.063132975250483" lon="3.505801996216178">
        <ele>9.27</ele>
        <time>2023-09-04T09:10:29Z</time>
      </trkpt>
      <trkpt lat="51.062041986733675" lon="3.511510994285345">
        <ele>8.310000000000001</ele>
        <time>2023-09-04T09:10:42Z</time>
      </trkpt>
      <trkpt lat="51.060524024069309" lon="3.519417978823185">
        <ele>9.75</ele>
        <time>2023-09-04T09:11:00Z</time>
      </trkpt>
      <trkpt lat="51.059163976460695" lon="3.526445031166077">
        <ele>10.23</ele>
        <time>2023-09-04T09:11:16Z</time>
      </trkpt>
      <trkpt lat="51.058514965698123" lon="3.529812963679433">
        <ele>10.23</ele>
        <time>2023-09-04T09:11:24Z</time>
      </trkpt>
      <trkpt lat="51.058447994291782" lon="3.530160980299115">
        <ele>10.23</ele>
        <time>2023-09-04T09:11:25Z</time>
      </trkpt>
      <trkpt lat="51.057827984914184" lon="3.533469988033176">
        <ele>9.27</ele>
        <time>2023-09-04T09:11:35Z</time>
      </trkpt>
      <trkpt lat="51.056544966995716" lon="3.540146006271243">
        <ele>10.23</ele>
        <time>2023-09-04T09:11:54Z</time>
      </trkpt>
      <trkpt lat="51.055392036214471" lon="3.54613303206861">
        <ele>9.75</ele>
        <time>2023-09-04T09:12:13Z</time>
      </trkpt>
      <trkpt lat="51.054229969158769" lon="3.55212802067399">
        <ele>8.789999999999999</ele>
        <time>2023-09-04T09:12:31Z</time>
      </trkpt>
      <trkpt lat="51.053105033934116" lon="3.55741498991847">
        <ele>8.789999999999999</ele>
        <time>2023-09-04T09:12:47Z</time>
      </trkpt>
      <trkpt lat="51.052333982661366" lon="3.561006970703602">
        <ele>10.710000000000001</ele>
        <time>2023-09-04T09:12:58Z</time>
      </trkpt>
      <trkpt lat="51.051349025219679" lon="3.565595978870988">
        <ele>13.6</ele>
        <time>2023-09-04T09:13:12Z</time>
      </trkpt>
      <trkpt lat="51.050497004762292" lon="3.569515021517873">
        <ele>12.630000000000001</ele>
        <time>2023-09-04T09:13:24Z</time>
      </trkpt>
      <trkpt lat="51.049346001818776" lon="3.574724961072207">
        <ele>8.310000000000001</ele>
        <time>2023-09-04T09:13:40Z</time>
      </trkpt>
      <trkpt lat="51.048576040193439" lon="3.578314008191228">
        <ele>8.310000000000001</ele>
        <time>2023-09-04T09:13:51Z</time>
      </trkpt>
      <trkpt lat="51.048135990276933" lon="3.580367993563414">
        <ele>8.310000000000001</ele>
        <time>2023-09-04T09:13:58Z</time>
      </trkpt>
      <trkpt lat="51.047293022274971" lon="3.584211012348533">
        <ele>7.83</ele>
        <time>2023-09-04T09:14:13Z</time>
      </trkpt>
      <trkpt lat="51.046503027901053" lon="3.587810033932328">
        <ele>5.91</ele>
        <time>2023-09-04T09:14:26Z</time>
      </trkpt>
      <trkpt lat="51.045716973021626" lon="3.591411989182234">
        <ele>7.35</ele>
        <time>2023-09-04T09:14:41Z</time>
      </trkpt>
      <trkpt lat="51.044993028044701" lon="3.59475402161479">
        <ele>7.35</ele>
        <time>2023-09-04T09:14:54Z</time>
      </trkpt>
      <trkpt lat="51.044939970597625" lon="3.595000030472875">
        <ele>5.91</ele>
        <time>2023-09-04T09:14:55Z</time>
      </trkpt>
      <trkpt lat="51.044836034998298" lon="3.595477966591716">
        <ele>3.02</ele>
        <time>2023-09-04T09:14:57Z</time>
      </trkpt>
      <trkpt lat="51.044783983379602" lon="3.59572296962142">
        <ele>2.06</ele>
        <time>2023-09-04T09:14:58Z</time>
      </trkpt>
      <trkpt lat="51.044003963470459" lon="3.599334983155131">
        <ele>0.14</ele>
        <time>2023-09-04T09:15:11Z</time>
      </trkpt>
      <trkpt lat="51.043169964104891" lon="3.60319996252656">
        <ele>3.02</ele>
        <time>2023-09-04T09:15:27Z</time>
      </trkpt>
      <trkpt lat="51.042389022186399" lon="3.606817005202174">
        <ele>3.98</ele>
        <time>2023-09-04T09:15:41Z</time>
      </trkpt>
      <trkpt lat="51.041659964248538" lon="3.610194995999336">
        <ele>5.42</ele>
        <time>2023-09-04T09:15:54Z</time>
      </trkpt>
      <trkpt lat="51.040973989292979" lon="3.613341981545091">
        <ele>5.91</ele>
        <time>2023-09-04T09:16:05Z</time>
      </trkpt>
      <trkpt lat="51.040280973538756" lon="3.61647798679769">
        <ele>5.91</ele>
        <time>2023-09-04T09:16:16Z</time>
      </trkpt>
      <trkpt lat="51.039778981357813" lon="3.618699023500085">
        <ele>7.35</ele>
        <time>2023-09-04T09:16:23Z</time>
      </trkpt>
      <trkpt lat="51.039055036380887" lon="3.621475026011467">
        <ele>5.91</ele>
        <time>2023-09-04T09:16:31Z</time>
      </trkpt>
      <trkpt lat="51.038469979539514" lon="3.623563963919878">
        <ele>6.39</ele>
        <time>2023-09-04T09:16:37Z</time>
      </trkpt>
      <trkpt lat="51.037391982972622" lon="3.627279996871948">
        <ele>5.91</ele>
        <time>2023-09-04T09:16:47Z</time>
      </trkpt>
      <trkpt lat="51.036166967824101" lon="3.631498022004962">
        <ele>5.42</ele>
        <time>2023-09-04T09:16:59Z</time>
      </trkpt>
      <trkpt lat="51.035029962658882" lon="3.635465009137988">
        <ele>3.98</ele>
        <time>2023-09-04T09:17:09Z</time>
      </trkpt>
      <trkpt lat="51.033953977748752" lon="3.639236027374864">
        <ele>3.98</ele>
        <time>2023-09-04T09:17:18Z</time>
      </trkpt>
      <trkpt lat="51.032298970967531" lon="3.645089026540518">
        <ele>10.23</ele>
        <time>2023-09-04T09:17:32Z</time>
      </trkpt>
      <trkpt lat="51.03061898611486" lon="3.650967003777623">
        <ele>11.67</ele>
        <time>2023-09-04T09:17:46Z</time>
      </trkpt>
      <trkpt lat="51.028824001550674" lon="3.6572540178895">
        <ele>5.42</ele>
        <time>2023-09-04T09:18:01Z</time>
      </trkpt>
      <trkpt lat="51.027259016409516" lon="3.662668978795409">
        <ele>2.06</ele>
        <time>2023-09-04T09:18:14Z</time>
      </trkpt>
      <trkpt lat="51.026065014302731" lon="3.666850039735436">
        <ele>2.54</ele>
        <time>2023-09-04T09:18:24Z</time>
      </trkpt>
      <trkpt lat="51.024750983342528" lon="3.671458996832371">
        <ele>8.310000000000001</ele>
        <time>2023-09-04T09:18:35Z</time>
      </trkpt>
      <trkpt lat="51.023183986544609" lon="3.676911005750299">
        <ele>9.27</ele>
        <time>2023-09-04T09:18:48Z</time>
      </trkpt>
      <trkpt lat="51.021625958383083" lon="3.682362008839846">
        <ele>13.119999999999999</ele>
        <time>2023-09-04T09:19:01Z</time>
      </trkpt>
      <trkpt lat="51.020029038190842" lon="3.688268987461925">
        <ele>13.6</ele>
        <time>2023-09-04T09:19:15Z</time>
      </trkpt>
      <trkpt lat="51.018445026129484" lon="3.694721041247249">
        <ele>7.83</ele>
        <time>2023-09-04T09:19:29Z</time>
      </trkpt>
      <trkpt lat="51.017294023185968" lon="3.699398981407285">
        <ele>5.42</ele>
        <time>2023-09-04T09:19:40Z</time>
      </trkpt>
      <trkpt lat="51.016348041594028" lon="3.703252980485559">
        <ele>7.83</ele>
        <time>2023-09-04T09:19:50Z</time>
      </trkpt>
      <trkpt lat="51.014895038679242" lon="3.709247969090939">
        <ele>6.87</ele>
        <time>2023-09-04T09:20:03Z</time>
      </trkpt>
      <trkpt lat="51.013973029330373" lon="3.713142033666372">
        <ele>5.91</ele>
        <time>2023-09-04T09:20:12Z</time>
      </trkpt>
      <trkpt lat="51.013007014989853" lon="3.716986980289221">
        <ele>5.42</ele>
        <time>2023-09-04T09:20:22Z</time>
      </trkpt>
      <trkpt lat="51.01207603700459" lon="3.72134598903358">
        <ele>5.42</ele>
        <time>2023-09-04T09:20:32Z</time>
      </trkpt>
      <trkpt lat="51.011145981028676" lon="3.725241981446743">
        <ele>5.91</ele>
        <time>2023-09-04T09:20:41Z</time>
      </trkpt>
      <trkpt lat="51.010394040495157" lon="3.728237003087997">
        <ele>5.91</ele>
        <time>2023-09-04T09:20:47Z</time>
      </trkpt>
      <trkpt lat="51.009225016459823" lon="3.732406999915838">
        <ele>9.75</ele>
        <time>2023-09-04T09:20:57Z</time>
      </trkpt>
      <trkpt lat="51.007391978055239" lon="3.738682027906179">
        <ele>6.87</ele>
        <time>2023-09-04T09:21:13Z</time>
      </trkpt>
      <trkpt lat="51.005703024566174" lon="3.744508037343621">
        <ele>7.35</ele>
        <time>2023-09-04T09:21:27Z</time>
      </trkpt>
      <trkpt lat="51.003903010860085" lon="3.750768983736634">
        <ele>8.310000000000001</ele>
        <time>2023-09-04T09:21:42Z</time>
      </trkpt>
      <trkpt lat="51.00288201123476" lon="3.75460303388536">
        <ele>7.35</ele>
        <time>2023-09-04T09:21:52Z</time>
      </trkpt>
      <trkpt lat="51.001996966078877" lon="3.75832099467516">
        <ele>7.35</ele>
        <time>2023-09-04T09:22:02Z</time>
      </trkpt>
      <trkpt lat="51.001062970608473" lon="3.762516975402832">
        <ele>7.35</ele>
        <time>2023-09-04T09:22:12Z</time>
      </trkpt>
      <trkpt lat="50.999536961317062" lon="3.768944973126054">
        <ele>10.23</ele>
        <time>2023-09-04T09:22:27Z</time>
      </trkpt>
      <trkpt lat="50.998701034113765" lon="3.772210981696844">
        <ele>12.630000000000001</ele>
        <time>2023-09-04T09:22:35Z</time>
      </trkpt>
      <trkpt lat="50.997337969020009" lon="3.777159992605448">
        <ele>20.809999999999999</ele>
        <time>2023-09-04T09:22:47Z</time>
      </trkpt>
      <trkpt lat="50.996454013511539" lon="3.7803899589926">
        <ele>20.809999999999999</ele>
        <time>2023-09-04T09:22:55Z</time>
      </trkpt>
      <trkpt lat="50.9950399864465" lon="3.785104025155306">
        <ele>17.440000000000001</ele>
        <time>2023-09-04T09:23:07Z</time>
      </trkpt>
      <trkpt lat="50.993544990196824" lon="3.789550038054586">
        <ele>17.920000000000002</ele>
        <time>2023-09-04T09:23:18Z</time>
      </trkpt>
      <trkpt lat="50.99134398624301" lon="3.796016005799174">
        <ele>15.52</ele>
        <time>2023-09-04T09:23:34Z</time>
      </trkpt>
      <trkpt lat="50.989515976980329" lon="3.801237009465694">
        <ele>16</ele>
        <time>2023-09-04T09:23:47Z</time>
      </trkpt>
      <trkpt lat="50.987720992416143" lon="3.805991979315877">
        <ele>8.310000000000001</ele>
        <time>2023-09-04T09:23:59Z</time>
      </trkpt>
      <trkpt lat="50.985656026750803" lon="3.810941996052861">
        <ele>3.02</ele>
        <time>2023-09-04T09:24:12Z</time>
      </trkpt>
      <trkpt lat="50.983811002224684" lon="3.815045021474361">
        <ele>4.94</ele>
        <time>2023-09-04T09:24:23Z</time>
      </trkpt>
      <trkpt lat="50.980801982805133" lon="3.821213012561202">
        <ele>6.87</ele>
        <time>2023-09-04T09:24:40Z</time>
      </trkpt>
      <trkpt lat="50.978810023516417" lon="3.825152004137635">
        <ele>10.23</ele>
        <time>2023-09-04T09:24:51Z</time>
      </trkpt>
      <trkpt lat="50.97667096182704" lon="3.829485028982163">
        <ele>16.960000000000001</ele>
        <time>2023-09-04T09:25:03Z</time>
      </trkpt>
      <trkpt lat="50.975211001932621" lon="3.832340994849801">
        <ele>23.210000000000001</ele>
        <time>2023-09-04T09:25:10Z</time>
      </trkpt>
      <trkpt lat="50.975211001932621" lon="3.832340994849801">
        <ele>24.170000000000002</ele>
        <time>2023-09-04T09:25:11Z</time>
      </trkpt>
      <trkpt lat="50.973590025678277" lon="3.83562502451241">
        <ele>27.050000000000001</ele>
        <time>2023-09-04T09:25:20Z</time>
      </trkpt>
      <trkpt lat="50.971969971433282" lon="3.838880974799395">
        <ele>27.530000000000001</ele>
        <time>2023-09-04T09:25:29Z</time>
      </trkpt>
      <trkpt lat="50.969670983031392" lon="3.843605015426874">
        <ele>25.129999999999999</ele>
        <time>2023-09-04T09:25:42Z</time>
      </trkpt>
      <trkpt lat="50.967505015432835" lon="3.848490994423628">
        <ele>22.25</ele>
        <time>2023-09-04T09:25:55Z</time>
      </trkpt>
      <trkpt lat="50.965594025328755" lon="3.853100035339594">
        <ele>18.879999999999999</ele>
        <time>2023-09-04T09:26:07Z</time>
      </trkpt>
      <trkpt lat="50.964319976046681" lon="3.856180971488357">
        <ele>22.73</ele>
        <time>2023-09-04T09:26:15Z</time>
      </trkpt>
      <trkpt lat="50.96212500706315" lon="3.861567014828324">
        <ele>30.420000000000002</ele>
        <time>2023-09-04T09:26:29Z</time>
      </trkpt>
      <trkpt lat="50.959781007841229" lon="3.867367040365934">
        <ele>26.09</ele>
        <time>2023-09-04T09:26:44Z</time>
      </trkpt>
      <trkpt lat="50.958058023825288" lon="3.871603002771735">
        <ele>20.809999999999999</ele>
        <time>2023-09-04T09:26:55Z</time>
      </trkpt>
      <trkpt lat="50.956024993211031" lon="3.876624014228582">
        <ele>26.09</ele>
        <time>2023-09-04T09:27:08Z</time>
      </trkpt>
      <trkpt lat="50.953681999817491" lon="3.882423033937812">
        <ele>28.02</ele>
        <time>2023-09-04T09:27:23Z</time>
      </trkpt>
      <trkpt lat="50.951648969203234" lon="3.887419989332557">
        <ele>31.859999999999999</ele>
        <time>2023-09-04T09:27:36Z</time>
      </trkpt>
      <trkpt lat="50.949443019926548" lon="3.892825981602073">
        <ele>38.109999999999999</ele>
        <time>2023-09-04T09:27:50Z</time>
      </trkpt>
      <trkpt lat="50.947401020675898" lon="3.897831989452243">
        <ele>40.990000000000002</ele>
        <time>2023-09-04T09:28:03Z</time>
      </trkpt>
      <trkpt lat="50.945202028378844" lon="3.903238987550139">
        <ele>45.32</ele>
        <time>2023-09-04T09:28:17Z</time>
      </trkpt>
      <trkpt lat="50.943334037438035" lon="3.907864959910512">
        <ele>53.009999999999998</ele>
        <time>2023-09-04T09:28:29Z</time>
      </trkpt>
      <trkpt lat="50.941459005698562" lon="3.912515994161367">
        <ele>57.340000000000003</ele>
        <time>2023-09-04T09:28:41Z</time>
      </trkpt>
      <trkpt lat="50.938787022605538" lon="3.919086987152696">
        <ele>50.609999999999999</ele>
        <time>2023-09-04T09:28:58Z</time>
      </trkpt>
      <trkpt lat="50.93565596267581" lon="3.926805965602398">
        <ele>42.439999999999998</ele>
        <time>2023-09-04T09:29:17Z</time>
      </trkpt>
      <trkpt lat="50.934392977505922" lon="3.929925039410591">
        <ele>40.030000000000001</ele>
        <time>2023-09-04T09:29:25Z</time>
      </trkpt>
      <trkpt lat="50.932359024882317" lon="3.934944039210677">
        <ele>35.229999999999997</ele>
        <time>2023-09-04T09:29:38Z</time>
      </trkpt>
      <trkpt lat="50.931136021390557" lon="3.938582958653569">
        <ele>30.420000000000002</ele>
        <time>2023-09-04T09:29:48Z</time>
      </trkpt>
      <trkpt lat="50.930135976523161" lon="3.942796960473061">
        <ele>34.740000000000002</ele>
        <time>2023-09-04T09:29:58Z</time>
      </trkpt>
      <trkpt lat="50.929684024304152" lon="3.94517901353538">
        <ele>39.549999999999997</ele>
        <time>2023-09-04T09:30:04Z</time>
      </trkpt>
      <trkpt lat="50.928898975253105" lon="3.949765004217625">
        <ele>42.920000000000002</ele>
        <time>2023-09-04T09:30:15Z</time>
      </trkpt>
      <trkpt lat="50.928174024447799" lon="3.954158965498209">
        <ele>43.880000000000003</ele>
        <time>2023-09-04T09:30:27Z</time>
      </trkpt>
      <trkpt lat="50.927331978455186" lon="3.959231022745371">
        <ele>40.509999999999998</ele>
        <time>2023-09-04T09:30:42Z</time>
      </trkpt>
      <trkpt lat="50.926754968240857" lon="3.962783021852374">
        <ele>36.189999999999998</ele>
        <time>2023-09-04T09:30:53Z</time>
      </trkpt>
      <trkpt lat="50.926331011578441" lon="3.966265032067895">
        <ele>31.379999999999999</ele>
        <time>2023-09-04T09:31:06Z</time>
      </trkpt>
      <trkpt lat="50.926112998276949" lon="3.970059016719461">
        <ele>31.859999999999999</ele>
        <time>2023-09-04T09:31:20Z</time>
      </trkpt>
      <trkpt lat="50.926097994670272" lon="3.972714990377426">
        <ele>34.740000000000002</ele>
        <time>2023-09-04T09:31:30Z</time>
      </trkpt>
      <trkpt lat="50.92617804184556" lon="3.974362034350634">
        <ele>36.670000000000002</ele>
        <time>2023-09-04T09:31:38Z</time>
      </trkpt>
      <trkpt lat="50.926350960507989" lon="3.976741991937161">
        <ele>38.590000000000003</ele>
        <time>2023-09-04T09:31:49Z</time>
      </trkpt>
      <trkpt lat="50.926649020984769" lon="3.979065036401153">
        <ele>42.439999999999998</ele>
        <time>2023-09-04T09:32:00Z</time>
      </trkpt>
      <trkpt lat="50.926934005692601" lon="3.980931015685201">
        <ele>42.439999999999998</ele>
        <time>2023-09-04T09:32:10Z</time>
      </trkpt>
      <trkpt lat="50.927264001220465" lon="3.982695993036032">
        <ele>41.950000000000003</ele>
        <time>2023-09-04T09:32:19Z</time>
      </trkpt>
      <trkpt lat="50.927609000355005" lon="3.984545040875673">
        <ele>41.950000000000003</ele>
        <time>2023-09-04T09:32:32Z</time>
      </trkpt>
      <trkpt lat="50.928096994757652" lon="3.987158015370369">
        <ele>40.030000000000001</ele>
        <time>2023-09-04T09:32:46Z</time>
      </trkpt>
      <trkpt lat="50.928468983620405" lon="3.989213006570935">
        <ele>38.590000000000003</ele>
        <time>2023-09-04T09:32:58Z</time>
      </trkpt>
      <trkpt lat="50.928754974156618" lon="3.991147968918085">
        <ele>38.590000000000003</ele>
        <time>2023-09-04T09:33:06Z</time>
      </trkpt>
      <trkpt lat="50.92905898578465" lon="3.993872003629804">
        <ele>37.630000000000003</ele>
        <time>2023-09-04T09:33:15Z</time>
      </trkpt>
      <trkpt lat="50.929212961345911" lon="3.996525965631008">
        <ele>36.670000000000002</ele>
        <time>2023-09-04T09:33:23Z</time>
      </trkpt>
      <trkpt lat="50.929255960509181" lon="4.000034965574741">
        <ele>35.710000000000001</ele>
        <time>2023-09-04T09:33:31Z</time>
      </trkpt>
      <trkpt lat="50.929137021303177" lon="4.002992017194629">
        <ele>32.82</ele>
        <time>2023-09-04T09:33:37Z</time>
      </trkpt>
      <trkpt lat="50.928726978600025" lon="4.0068219602108">
        <ele>30.420000000000002</ele>
        <time>2023-09-04T09:33:46Z</time>
      </trkpt>
      <trkpt lat="50.927965985611081" lon="4.011219022795558">
        <ele>23.210000000000001</ele>
        <time>2023-09-04T09:33:57Z</time>
      </trkpt>
      <trkpt lat="50.926584983244538" lon="4.016233999282122">
        <ele>16.960000000000001</ele>
        <time>2023-09-04T09:34:09Z</time>
      </trkpt>
      <trkpt lat="50.924764014780521" lon="4.020888973027468">
        <ele>17.440000000000001</ele>
        <time>2023-09-04T09:34:21Z</time>
      </trkpt>
      <trkpt lat="50.922734001651406" lon="4.024751018732786">
        <ele>17.440000000000001</ele>
        <time>2023-09-04T09:34:32Z</time>
      </trkpt>
      <trkpt lat="50.921315029263496" lon="4.027041038498282">
        <ele>18.399999999999999</ele>
        <time>2023-09-04T09:34:39Z</time>
      </trkpt>
      <trkpt lat="50.918935993686318" lon="4.031023029237986">
        <ele>19.84</ele>
        <time>2023-09-04T09:34:51Z</time>
      </trkpt>
      <trkpt lat="50.917711984366179" lon="4.033536007627845">
        <ele>20.809999999999999</ele>
        <time>2023-09-04T09:34:58Z</time>
      </trkpt>
      <trkpt lat="50.916606998071074" lon="4.036226011812687">
        <ele>20.809999999999999</ele>
        <time>2023-09-04T09:35:05Z</time>
      </trkpt>
      <trkpt lat="50.915192971006036" lon="4.040742013603449">
        <ele>16</ele>
        <time>2023-09-04T09:35:15Z</time>
      </trkpt>
      <trkpt lat="50.914284959435463" lon="4.045119965448976">
        <ele>16.48</ele>
        <time>2023-09-04T09:35:25Z</time>
      </trkpt>
      <trkpt lat="50.913335960358381" lon="4.050915967673063">
        <ele>16.960000000000001</ele>
        <time>2023-09-04T09:35:39Z</time>
      </trkpt>
      <trkpt lat="50.912421997636557" lon="4.056677017360926">
        <ele>17.920000000000002</ele>
        <time>2023-09-04T09:35:52Z</time>
      </trkpt>
      <trkpt lat="50.911665027961135" lon="4.060595976188779">
        <ele>14.56</ele>
        <time>2023-09-04T09:36:01Z</time>
      </trkpt>
      <trkpt lat="50.910391984507442" lon="4.065207028761506">
        <ele>12.15</ele>
        <time>2023-09-04T09:36:12Z</time>
      </trkpt>
      <trkpt lat="50.908358031883836" lon="4.071292039006949">
        <ele>8.789999999999999</ele>
        <time>2023-09-04T09:36:27Z</time>
      </trkpt>
      <trkpt lat="50.906862029805779" lon="4.075722964480519">
        <ele>14.08</ele>
        <time>2023-09-04T09:36:37Z</time>
      </trkpt>
      <trkpt lat="50.905367033556104" lon="4.080175012350082">
        <ele>21.77</ele>
        <time>2023-09-04T09:36:49Z</time>
      </trkpt>
      <trkpt lat="50.902939969673753" lon="4.087434997782111">
        <ele>37.149999999999999</ele>
        <time>2023-09-04T09:37:07Z</time>
      </trkpt>
      <trkpt lat="50.900898976251483" lon="4.093517996370792">
        <ele>45.32</ele>
        <time>2023-09-04T09:37:21Z</time>
      </trkpt>
      <trkpt lat="50.898980023339391" lon="4.099179971963167">
        <ele>45.32</ele>
        <time>2023-09-04T09:37:36Z</time>
      </trkpt>
      <trkpt lat="50.897485027089715" lon="4.103622967377305">
        <ele>43.880000000000003</ele>
        <time>2023-09-04T09:37:47Z</time>
      </trkpt>
      <trkpt lat="50.895857010036707" lon="4.108476005494595">
        <ele>35.229999999999997</ele>
        <time>2023-09-04T09:37:59Z</time>
      </trkpt>
      <trkpt lat="50.893567996099591" lon="4.115382023155689">
        <ele>23.690000000000001</ele>
        <time>2023-09-04T09:38:15Z</time>
      </trkpt>
      <trkpt lat="50.892328983172774" lon="4.119526958093047">
        <ele>18.399999999999999</ele>
        <time>2023-09-04T09:38:26Z</time>
      </trkpt>
      <trkpt lat="50.891102040186524" lon="4.124125018715859">
        <ele>13.119999999999999</ele>
        <time>2023-09-04T09:38:37Z</time>
      </trkpt>
      <trkpt lat="50.889692958444357" lon="4.129642993211746">
        <ele>12.630000000000001</ele>
        <time>2023-09-04T09:38:50Z</time>
      </trkpt>
      <trkpt lat="50.888174995779991" lon="4.135577967390418">
        <ele>12.630000000000001</ele>
        <time>2023-09-04T09:39:04Z</time>
      </trkpt>
      <trkpt lat="50.886989962309599" lon="4.140234030783176">
        <ele>12.15</ele>
        <time>2023-09-04T09:39:15Z</time>
      </trkpt>
      <trkpt lat="50.885803001001477" lon="4.14490501396358">
        <ele>12.630000000000001</ele>
        <time>2023-09-04T09:39:26Z</time>
      </trkpt>
      <trkpt lat="50.885006971657276" lon="4.148533036932349">
        <ele>12.630000000000001</ele>
        <time>2023-09-04T09:39:35Z</time>
      </trkpt>
      <trkpt lat="50.884296018630266" lon="4.152942001819611">
        <ele>16</ele>
        <time>2023-09-04T09:39:45Z</time>
      </trkpt>
      <trkpt lat="50.883889999240637" lon="4.156055962666869">
        <ele>16.960000000000001</ele>
        <time>2023-09-04T09:39:52Z</time>
      </trkpt>
      <trkpt lat="50.883348025381565" lon="4.160059997811914">
        <ele>21.289999999999999</ele>
        <time>2023-09-04T09:40:01Z</time>
      </trkpt>
      <trkpt lat="50.882987016811967" lon="4.162728041410446">
        <ele>26.57</ele>
        <time>2023-09-04T09:40:07Z</time>
      </trkpt>
      <trkpt lat="50.882282014936209" lon="4.168143002316356">
        <ele>31.859999999999999</ele>
        <time>2023-09-04T09:40:19Z</time>
      </trkpt>
      <trkpt lat="50.881594028323889" lon="4.173255041241646">
        <ele>25.609999999999999</ele>
        <time>2023-09-04T09:40:31Z</time>
      </trkpt>
      <trkpt lat="50.881016012281179" lon="4.177715973928571">
        <ele>23.210000000000001</ele>
        <time>2023-09-04T09:40:41Z</time>
      </trkpt>
      <trkpt lat="50.880515025928617" lon="4.182660961523652">
        <ele>28.02</ele>
        <time>2023-09-04T09:40:52Z</time>
      </trkpt>
      <trkpt lat="50.880380999296904" lon="4.188135014846921">
        <ele>33.780000000000001</ele>
        <time>2023-09-04T09:41:04Z</time>
      </trkpt>
      <trkpt lat="50.88065299205482" lon="4.193157032132149">
        <ele>38.109999999999999</ele>
        <time>2023-09-04T09:41:15Z</time>
      </trkpt>
      <trkpt lat="50.881176022812724" lon="4.197649983689189">
        <ele>40.509999999999998</ele>
        <time>2023-09-04T09:41:25Z</time>
      </trkpt>
      <trkpt lat="50.881895022466779" lon="4.203027980402112">
        <ele>39.549999999999997</ele>
        <time>2023-09-04T09:41:37Z</time>
      </trkpt>
      <trkpt lat="50.882604969665408" lon="4.20837203040719">
        <ele>38.590000000000003</ele>
        <time>2023-09-04T09:41:49Z</time>
      </trkpt>
      <trkpt lat="50.883198995143175" lon="4.21284100972116">
        <ele>40.509999999999998</ele>
        <time>2023-09-04T09:41:59Z</time>
      </trkpt>
      <trkpt lat="50.883656982332468" lon="4.2173529881984">
        <ele>42.920000000000002</ele>
        <time>2023-09-04T09:42:09Z</time>
      </trkpt>
      <trkpt lat="50.883764019235969" lon="4.221925986930728">
        <ele>47.719999999999999</ele>
        <time>2023-09-04T09:42:18Z</time>
      </trkpt>
      <trkpt lat="50.883437963202596" lon="4.22693501226604">
        <ele>52.049999999999997</ele>
        <time>2023-09-04T09:42:30Z</time>
      </trkpt>
      <trkpt lat="50.882761962711811" lon="4.233212973922491">
        <ele>55.409999999999997</ele>
        <time>2023-09-04T09:42:44Z</time>
      </trkpt>
      <trkpt lat="50.882325014099479" lon="4.237256990745664">
        <ele>56.859999999999999</ele>
        <time>2023-09-04T09:42:53Z</time>
      </trkpt>
      <trkpt lat="50.88174800388515" lon="4.242657031863928">
        <ele>66.469999999999999</ele>
        <time>2023-09-04T09:43:05Z</time>
      </trkpt>
      <trkpt lat="50.881163030862808" lon="4.248080039396882">
        <ele>70.790000000000006</ele>
        <time>2023-09-04T09:43:17Z</time>
      </trkpt>
      <trkpt lat="50.880846027284861" lon="4.251097021624446">
        <ele>70.790000000000006</ele>
        <time>2023-09-04T09:43:24Z</time>
      </trkpt>
      <trkpt lat="50.880346968770027" lon="4.254946997389197">
        <ele>65.510000000000005</ele>
        <time>2023-09-04T09:43:34Z</time>
      </trkpt>
      <trkpt lat="50.879786973819137" lon="4.257947970181704">
        <ele>60.700000000000003</ele>
        <time>2023-09-04T09:43:41Z</time>
      </trkpt>
      <trkpt lat="50.879070991650224" lon="4.261688981205225">
        <ele>52.530000000000001</ele>
        <time>2023-09-04T09:43:51Z</time>
      </trkpt>
      <trkpt lat="50.878151999786496" lon="4.266386032104492">
        <ele>45.32</ele>
        <time>2023-09-04T09:44:03Z</time>
      </trkpt>
      <trkpt lat="50.877336021512747" lon="4.269652962684631">
        <ele>38.590000000000003</ele>
        <time>2023-09-04T09:44:12Z</time>
      </trkpt>
      <trkpt lat="50.876429015770555" lon="4.271421041339636">
        <ele>38.590000000000003</ele>
        <time>2023-09-04T09:44:18Z</time>
      </trkpt>
      <trkpt lat="50.876236986368895" lon="4.27164601162076">
        <ele>39.07</ele>
        <time>2023-09-04T09:44:19Z</time>
      </trkpt>
      <trkpt lat="50.876047974452376" lon="4.271865030750632">
        <ele>39.549999999999997</ele>
        <time>2023-09-04T09:44:20Z</time>
      </trkpt>
      <trkpt lat="50.875169970095158" lon="4.272945038974285">
        <ele>42.439999999999998</ele>
        <time>2023-09-04T09:44:25Z</time>
      </trkpt>
      <trkpt lat="50.875038960948586" lon="4.273170009255409">
        <ele>43.880000000000003</ele>
        <time>2023-09-04T09:44:26Z</time>
      </trkpt>
      <trkpt lat="50.874950028955936" lon="4.273434961214662">
        <ele>45.799999999999997</ele>
        <time>2023-09-04T09:44:27Z</time>
      </trkpt>
      <trkpt lat="50.874856989830732" lon="4.273713994771242">
        <ele>47.240000000000002</ele>
        <time>2023-09-04T09:44:28Z</time>
      </trkpt>
      <trkpt lat="50.874750958755612" lon="4.274319000542164">
        <ele>48.68</ele>
        <time>2023-09-04T09:44:29Z</time>
      </trkpt>
      <trkpt lat="50.874736038967967" lon="4.274641033262014">
        <ele>51.090000000000003</ele>
        <time>2023-09-04T09:44:31Z</time>
      </trkpt>
      <trkpt lat="50.874763028696179" lon="4.274939009919763">
        <ele>52.049999999999997</ele>
        <time>2023-09-04T09:44:32Z</time>
      </trkpt>
      <trkpt lat="50.874789012596011" lon="4.275227012112737">
        <ele>52.530000000000001</ele>
        <time>2023-09-04T09:44:33Z</time>
      </trkpt>
      <trkpt lat="50.874874005094171" lon="4.275496993213892">
        <ele>53.490000000000002</ele>
        <time>2023-09-04T09:44:34Z</time>
      </trkpt>
      <trkpt lat="50.874954974278808" lon="4.275753982365131">
        <ele>53.969999999999999</ele>
        <time>2023-09-04T09:44:35Z</time>
      </trkpt>
      <trkpt lat="50.875032003968954" lon="4.275991022586823">
        <ele>53.969999999999999</ele>
        <time>2023-09-04T09:44:36Z</time>
      </trkpt>
      <trkpt lat="50.875135017558932" lon="4.276211969554424">
        <ele>54.450000000000003</ele>
        <time>2023-09-04T09:44:37Z</time>
      </trkpt>
      <trkpt lat="50.875251023098826" lon="4.276385977864265">
        <ele>54.450000000000003</ele>
        <time>2023-09-04T09:44:38Z</time>
      </trkpt>
      <trkpt lat="50.875392006710172" lon="4.27654598839581">
        <ele>54.450000000000003</ele>
        <time>2023-09-04T09:44:39Z</time>
      </trkpt>
      <trkpt lat="50.875531984493136" lon="4.276678003370762">
        <ele>54.450000000000003</ele>
        <time>2023-09-04T09:44:40Z</time>
      </trkpt>
      <trkpt lat="50.875691995024681" lon="4.276772970333695">
        <ele>53.490000000000002</ele>
        <time>2023-09-04T09:44:41Z</time>
      </trkpt>
      <trkpt lat="50.875858040526509" lon="4.276859974488616">
        <ele>53.009999999999998</ele>
        <time>2023-09-04T09:44:42Z</time>
      </trkpt>
      <trkpt lat="50.877555040642619" lon="4.277670001611114">
        <ele>50.609999999999999</ele>
        <time>2023-09-04T09:44:52Z</time>
      </trkpt>
      <trkpt lat="50.878642005845904" lon="4.279006998986006">
        <ele>49.159999999999997</ele>
        <time>2023-09-04T09:44:59Z</time>
      </trkpt>
      <trkpt lat="50.880368007346988" lon="4.281920967623591">
        <ele>45.799999999999997</ele>
        <time>2023-09-04T09:45:10Z</time>
      </trkpt>
      <trkpt lat="50.882772020995617" lon="4.285520995035768">
        <ele>43.880000000000003</ele>
        <time>2023-09-04T09:45:24Z</time>
      </trkpt>
      <trkpt lat="50.884142965078354" lon="4.287257976830006">
        <ele>51.57</ele>
        <time>2023-09-04T09:45:31Z</time>
      </trkpt>
      <trkpt lat="50.885003032162786" lon="4.288347037509084">
        <ele>58.299999999999997</ele>
        <time>2023-09-04T09:45:39Z</time>
      </trkpt>
      <trkpt lat="50.885586999356747" lon="4.289121022447944">
        <ele>62.140000000000001</ele>
        <time>2023-09-04T09:45:47Z</time>
      </trkpt>
      <trkpt lat="50.886290995404124" lon="4.290035990998149">
        <ele>63.579999999999998</ele>
        <time>2023-09-04T09:45:56Z</time>
      </trkpt>
      <trkpt lat="50.887329010292888" lon="4.291390003636479">
        <ele>65.989999999999995</ele>
        <time>2023-09-04T09:46:07Z</time>
      </trkpt>
      <trkpt lat="50.888443971052766" lon="4.292904026806355">
        <ele>67.430000000000007</ele>
        <time>2023-09-04T09:46:18Z</time>
      </trkpt>
      <trkpt lat="50.889000026509166" lon="4.293738026171923">
        <ele>67.430000000000007</ele>
        <time>2023-09-04T09:46:22Z</time>
      </trkpt>
      <trkpt lat="50.889137992635369" lon="4.293976994231343">
        <ele>67.430000000000007</ele>
        <time>2023-09-04T09:46:23Z</time>
      </trkpt>
      <trkpt lat="50.890314979478717" lon="4.29654504172504">
        <ele>66.950000000000003</ele>
        <time>2023-09-04T09:46:33Z</time>
      </trkpt>
      <trkpt lat="50.891192983835936" lon="4.29962002672255">
        <ele>68.870000000000005</ele>
        <time>2023-09-04T09:46:43Z</time>
      </trkpt>
      <trkpt lat="50.892006028443575" lon="4.30275502614677">
        <ele>69.349999999999994</ele>
        <time>2023-09-04T09:46:53Z</time>
      </trkpt>
      <trkpt lat="50.893286028876901" lon="4.307714011520147">
        <ele>65.989999999999995</ele>
        <time>2023-09-04T09:47:08Z</time>
      </trkpt>
      <trkpt lat="50.894401995465159" lon="4.312068996950984">
        <ele>72.239999999999995</ele>
        <time>2023-09-04T09:47:20Z</time>
      </trkpt>
      <trkpt lat="50.895493989810348" lon="4.315893994644284">
        <ele>79.450000000000003</ele>
        <time>2023-09-04T09:47:31Z</time>
      </trkpt>
      <trkpt lat="50.896768039092422" lon="4.319108035415411">
        <ele>78.480000000000004</ele>
        <time>2023-09-04T09:47:41Z</time>
      </trkpt>
      <trkpt lat="50.898390021175146" lon="4.321948997676373">
        <ele>71.760000000000005</ele>
        <time>2023-09-04T09:47:51Z</time>
      </trkpt>
      <trkpt lat="50.899992976337671" lon="4.324036007747054">
        <ele>63.100000000000001</ele>
        <time>2023-09-04T09:48:00Z</time>
      </trkpt>
      <trkpt lat="50.902127008885145" lon="4.326427029445767">
        <ele>62.140000000000001</ele>
        <time>2023-09-04T09:48:11Z</time>
      </trkpt>
      <trkpt lat="50.903486972674727" lon="4.32813098654151">
        <ele>60.219999999999999</ele>
        <time>2023-09-04T09:48:18Z</time>
      </trkpt>
      <trkpt lat="50.905322022736073" lon="4.330762987956405">
        <ele>65.510000000000005</ele>
        <time>2023-09-04T09:48:29Z</time>
      </trkpt>
      <trkpt lat="50.906747030094266" lon="4.33290297165513">
        <ele>68.390000000000001</ele>
        <time>2023-09-04T09:48:37Z</time>
      </trkpt>
      <trkpt lat="50.909372996538877" lon="4.33683299459517">
        <ele>62.140000000000001</ele>
        <time>2023-09-04T09:48:52Z</time>
      </trkpt>
      <trkpt lat="50.911638038232923" lon="4.340230012312532">
        <ele>49.649999999999999</ele>
        <time>2023-09-04T09:49:05Z</time>
      </trkpt>
      <trkpt lat="50.913157006725669" lon="4.342651963233948">
        <ele>46.759999999999998</ele>
        <time>2023-09-04T09:49:14Z</time>
      </trkpt>
      <trkpt lat="50.914629958570004" lon="4.345612032338977">
        <ele>46.280000000000001</ele>
        <time>2023-09-04T09:49:24Z</time>
      </trkpt>
      <trkpt lat="50.916028982028365" lon="4.349533002823591">
        <ele>45.799999999999997</ele>
        <time>2023-09-04T09:49:36Z</time>
      </trkpt>
      <trkpt lat="50.917075965553522" lon="4.353748010471463">
        <ele>50.609999999999999</ele>
        <time>2023-09-04T09:49:48Z</time>
      </trkpt>
      <trkpt lat="50.917497994378209" lon="4.356717970222235">
        <ele>54.93</ele>
        <time>2023-09-04T09:49:56Z</time>
      </trkpt>
      <trkpt lat="50.917760012671351" lon="4.360894002020359">
        <ele>59.740000000000002</ele>
        <time>2023-09-04T09:50:07Z</time>
      </trkpt>
      <trkpt lat="50.917678037658334" lon="4.36469703912735">
        <ele>55.409999999999997</ele>
        <time>2023-09-04T09:50:16Z</time>
      </trkpt>
      <trkpt lat="50.917163975536823" lon="4.369593998417258">
        <ele>49.159999999999997</ele>
        <time>2023-09-04T09:50:30Z</time>
      </trkpt>
      <trkpt lat="50.916310027241707" lon="4.37434502877295">
        <ele>48.200000000000003</ele>
        <time>2023-09-04T09:50:43Z</time>
      </trkpt>
      <trkpt lat="50.91505098156631" lon="4.380047991871834">
        <ele>49.159999999999997</ele>
        <time>2023-09-04T09:50:59Z</time>
      </trkpt>
      <trkpt lat="50.914334999397397" lon="4.383007977157831">
        <ele>50.130000000000003</ele>
        <time>2023-09-04T09:51:08Z</time>
      </trkpt>
      <trkpt lat="50.913461018353701" lon="4.386702971532941">
        <ele>49.159999999999997</ele>
        <time>2023-09-04T09:51:20Z</time>
      </trkpt>
      <trkpt lat="50.9129430167377" lon="4.388971030712128">
        <ele>43.880000000000003</ele>
        <time>2023-09-04T09:51:29Z</time>
      </trkpt>
      <trkpt lat="50.912373969331384" lon="4.391585011035204">
        <ele>43.880000000000003</ele>
        <time>2023-09-04T09:51:38Z</time>
      </trkpt>
      <trkpt lat="50.911882035434246" lon="4.394706012681127">
        <ele>41.950000000000003</ele>
        <time>2023-09-04T09:51:51Z</time>
      </trkpt>
      <trkpt lat="50.91165698133409" lon="4.396901987493038">
        <ele>42.920000000000002</ele>
        <time>2023-09-04T09:52:02Z</time>
      </trkpt>
      <trkpt lat="50.911585986614227" lon="4.398889001458883">
        <ele>42.920000000000002</ele>
        <time>2023-09-04T09:52:12Z</time>
      </trkpt>
      <trkpt lat="50.911610964685678" lon="4.401420000940561">
        <ele>39.07</ele>
        <time>2023-09-04T09:52:27Z</time>
      </trkpt>
      <trkpt lat="50.911712972447276" lon="4.40287702716887">
        <ele>37.630000000000003</ele>
        <time>2023-09-04T09:52:37Z</time>
      </trkpt>
      <trkpt lat="50.911774998530746" lon="4.403556967154145">
        <ele>37.630000000000003</ele>
        <time>2023-09-04T09:52:42Z</time>
      </trkpt>
      <trkpt lat="50.911788996309042" lon="4.403712032362819">
        <ele>38.109999999999999</ele>
        <time>2023-09-04T09:52:43Z</time>
      </trkpt>
      <trkpt lat="50.91208403930068" lon="4.405883029103279">
        <ele>40.509999999999998</ele>
        <time>2023-09-04T09:52:55Z</time>
      </trkpt>
      <trkpt lat="50.91242996044457" lon="4.407815979793668">
        <ele>47.240000000000002</ele>
        <time>2023-09-04T09:53:07Z</time>
      </trkpt>
      <trkpt lat="50.912823993712664" lon="4.409571988508105">
        <ele>52.049999999999997</ele>
        <time>2023-09-04T09:53:17Z</time>
      </trkpt>
      <trkpt lat="50.913324980065227" lon="4.411693029105663">
        <ele>53.490000000000002</ele>
        <time>2023-09-04T09:53:28Z</time>
      </trkpt>
      <trkpt lat="50.913409972563386" lon="4.41205102019012">
        <ele>53.490000000000002</ele>
        <time>2023-09-04T09:53:31Z</time>
      </trkpt>
      <trkpt lat="50.913835018873215" lon="4.414010960608721">
        <ele>53.009999999999998</ele>
        <time>2023-09-04T09:53:43Z</time>
      </trkpt>
      <trkpt lat="50.914040962234139" lon="4.415808962658048">
        <ele>53.490000000000002</ele>
        <time>2023-09-04T09:53:52Z</time>
      </trkpt>
      <trkpt lat="50.91397600248456" lon="4.418051959946752">
        <ele>52.049999999999997</ele>
        <time>2023-09-04T09:54:02Z</time>
      </trkpt>
      <trkpt lat="50.913688000291586" lon="4.419931014999747">
        <ele>50.130000000000003</ele>
        <time>2023-09-04T09:54:12Z</time>
      </trkpt>
      <trkpt lat="50.913057010620832" lon="4.422004027292132">
        <ele>49.159999999999997</ele>
        <time>2023-09-04T09:54:23Z</time>
      </trkpt>
      <trkpt lat="50.912174982950091" lon="4.424308966845274">
        <ele>46.280000000000001</ele>
        <time>2023-09-04T09:54:37Z</time>
      </trkpt>
      <trkpt lat="50.911085000261664" lon="4.426653971895576">
        <ele>37.149999999999999</ele>
        <time>2023-09-04T09:54:51Z</time>
      </trkpt>
      <trkpt lat="50.90989300981164" lon="4.428372010588646">
        <ele>30.899999999999999</ele>
        <time>2023-09-04T09:55:01Z</time>
      </trkpt>
      <trkpt lat="50.90834503993392" lon="4.429585039615631">
        <ele>23.690000000000001</ele>
        <time>2023-09-04T09:55:10Z</time>
      </trkpt>
      <trkpt lat="50.906237997114658" lon="4.430601010099053">
        <ele>22.25</ele>
        <time>2023-09-04T09:55:21Z</time>
      </trkpt>
      <trkpt lat="50.904553988948464" lon="4.431680012494326">
        <ele>22.25</ele>
        <time>2023-09-04T09:55:29Z</time>
      </trkpt>
      <trkpt lat="50.902886996045709" lon="4.433337030932307">
        <ele>21.77</ele>
        <time>2023-09-04T09:55:37Z</time>
      </trkpt>
      <trkpt lat="50.902144024148583" lon="4.434319976717234">
        <ele>22.25</ele>
        <time>2023-09-04T09:55:41Z</time>
      </trkpt>
      <trkpt lat="50.900604017078876" lon="4.436928005889058">
        <ele>23.690000000000001</ele>
        <time>2023-09-04T09:55:50Z</time>
      </trkpt>
      <trkpt lat="50.898652961477637" lon="4.440963976085186">
        <ele>27.530000000000001</ele>
        <time>2023-09-04T09:56:03Z</time>
      </trkpt>
      <trkpt lat="50.896947998553514" lon="4.444790985435247">
        <ele>32.340000000000003</ele>
        <time>2023-09-04T09:56:15Z</time>
      </trkpt>
      <trkpt lat="50.895091993734241" lon="4.448933992534876">
        <ele>33.780000000000001</ele>
        <time>2023-09-04T09:56:28Z</time>
      </trkpt>
      <trkpt lat="50.893863039091229" lon="4.451217977330089">
        <ele>31.379999999999999</ele>
        <time>2023-09-04T09:56:36Z</time>
      </trkpt>
      <trkpt lat="50.89257700368762" lon="4.452945990487933">
        <ele>27.530000000000001</ele>
        <time>2023-09-04T09:56:46Z</time>
      </trkpt>
      <trkpt lat="50.89107496663928" lon="4.454424977302551">
        <ele>28.98</ele>
        <time>2023-09-04T09:56:56Z</time>
      </trkpt>
      <trkpt lat="50.88924603536725" lon="4.456057017669082">
        <ele>26.57</ele>
        <time>2023-09-04T09:57:08Z</time>
      </trkpt>
      <trkpt lat="50.887319035828114" lon="4.457890978083015">
        <ele>21.77</ele>
        <time>2023-09-04T09:57:21Z</time>
      </trkpt>
      <trkpt lat="50.88499397970736" lon="4.459870029240847">
        <ele>17.920000000000002</ele>
        <time>2023-09-04T09:57:36Z</time>
      </trkpt>
      <trkpt lat="50.883284993469715" lon="4.460337990894914">
        <ele>19.84</ele>
        <time>2023-09-04T09:57:45Z</time>
      </trkpt>
      <trkpt lat="50.88172797113657" lon="4.460447961464524">
        <ele>22.25</ele>
        <time>2023-09-04T09:57:55Z</time>
      </trkpt>
      <trkpt lat="50.880479989573359" lon="4.460963029414415">
        <ele>22.73</ele>
        <time>2023-09-04T09:58:04Z</time>
      </trkpt>
      <trkpt lat="50.878775026649237" lon="4.462055023759604">
        <ele>27.530000000000001</ele>
        <time>2023-09-04T09:58:15Z</time>
      </trkpt>
      <trkpt lat="50.876646023243666" lon="4.4635109603405">
        <ele>36.189999999999998</ele>
        <time>2023-09-04T09:58:28Z</time>
      </trkpt>
      <trkpt lat="50.874681975692511" lon="4.464870002120733">
        <ele>44.840000000000003</ele>
        <time>2023-09-04T09:58:40Z</time>
      </trkpt>
      <trkpt lat="50.87293803691864" lon="4.466071967035532">
        <ele>51.57</ele>
        <time>2023-09-04T09:58:52Z</time>
      </trkpt>
      <trkpt lat="50.871352013200521" lon="4.466801024973393">
        <ele>53.490000000000002</ele>
        <time>2023-09-04T09:59:02Z</time>
      </trkpt>
      <trkpt lat="50.87119703181088" lon="4.466801024973393">
        <ele>53.009999999999998</ele>
        <time>2023-09-04T09:59:04Z</time>
      </trkpt>
      <trkpt lat="50.870430003851652" lon="4.466693988069892">
        <ele>50.130000000000003</ele>
        <time>2023-09-04T09:59:09Z</time>
      </trkpt>
      <trkpt lat="50.870219031348825" lon="4.466629028320313">
        <ele>49.159999999999997</ele>
        <time>2023-09-04T09:59:10Z</time>
      </trkpt>
      <trkpt lat="50.870133033022285" lon="4.466588040813804">
        <ele>48.68</ele>
        <time>2023-09-04T09:59:11Z</time>
      </trkpt>
      <trkpt lat="50.868860995396972" lon="4.466125024482608">
        <ele>42.439999999999998</ele>
        <time>2023-09-04T09:59:18Z</time>
      </trkpt>
      <trkpt lat="50.868696961551905" lon="4.466145979240537">
        <ele>40.990000000000002</ele>
        <time>2023-09-04T09:59:20Z</time>
      </trkpt>
      <trkpt lat="50.868333019316196" lon="4.466277994215488">
        <ele>39.07</ele>
        <time>2023-09-04T09:59:22Z</time>
      </trkpt>
      <trkpt lat="50.868176026269794" lon="4.466374972835183">
        <ele>38.109999999999999</ele>
        <time>2023-09-04T09:59:23Z</time>
      </trkpt>
      <trkpt lat="50.867882994934916" lon="4.466626010835171">
        <ele>37.149999999999999</ele>
        <time>2023-09-04T09:59:24Z</time>
      </trkpt>
      <trkpt lat="50.867752991616726" lon="4.466783003881574">
        <ele>35.710000000000001</ele>
        <time>2023-09-04T09:59:26Z</time>
      </trkpt>
      <trkpt lat="50.867646960541606" lon="4.466957012191415">
        <ele>35.229999999999997</ele>
        <time>2023-09-04T09:59:27Z</time>
      </trkpt>
      <trkpt lat="50.867301961407065" lon="4.467777013778687">
        <ele>34.740000000000002</ele>
        <time>2023-09-04T09:59:30Z</time>
      </trkpt>
      <trkpt lat="50.867254016920924" lon="4.468008019030094">
        <ele>34.740000000000002</ele>
        <time>2023-09-04T09:59:31Z</time>
      </trkpt>
      <trkpt lat="50.867213029414415" lon="4.468257967382669">
        <ele>35.710000000000001</ele>
        <time>2023-09-04T09:59:33Z</time>
      </trkpt>
      <trkpt lat="50.867195008322597" lon="4.468742022290826">
        <ele>36.670000000000002</ele>
        <time>2023-09-04T09:59:34Z</time>
      </trkpt>
      <trkpt lat="50.867214035242796" lon="4.468992976471782">
        <ele>37.630000000000003</ele>
        <time>2023-09-04T09:59:36Z</time>
      </trkpt>
      <trkpt lat="50.867235995829105" lon="4.469234962016344">
        <ele>38.109999999999999</ele>
        <time>2023-09-04T09:59:37Z</time>
      </trkpt>
      <trkpt lat="50.867632962763309" lon="4.470616970211268">
        <ele>42.439999999999998</ele>
        <time>2023-09-04T09:59:43Z</time>
      </trkpt>
      <trkpt lat="50.868480959907174" lon="4.472229983657599">
        <ele>45.799999999999997</ele>
        <time>2023-09-04T09:59:50Z</time>
      </trkpt>
      <trkpt lat="50.868669971823692" lon="4.472742034122348">
        <ele>46.280000000000001</ele>
        <time>2023-09-04T09:59:51Z</time>
      </trkpt>
      <trkpt lat="50.868781032040715" lon="4.473045039921999">
        <ele>46.280000000000001</ele>
        <time>2023-09-04T09:59:52Z</time>
      </trkpt>
      <trkpt lat="50.86881497874856" lon="4.473280990496278">
        <ele>46.280000000000001</ele>
        <time>2023-09-04T09:59:53Z</time>
      </trkpt>
      <trkpt lat="50.868856972083449" lon="4.473577039316297">
        <ele>46.759999999999998</ele>
        <time>2023-09-04T09:59:54Z</time>
      </trkpt>
      <trkpt lat="50.868885973468423" lon="4.473890019580722">
        <ele>46.759999999999998</ele>
        <time>2023-09-04T09:59:56Z</time>
      </trkpt>
      <trkpt lat="50.869209012016654" lon="4.478461006656289">
        <ele>51.090000000000003</ele>
        <time>2023-09-04T10:00:09Z</time>
      </trkpt>
      <trkpt lat="50.869317976757884" lon="4.482950018718839">
        <ele>56.369999999999997</ele>
        <time>2023-09-04T10:00:21Z</time>
      </trkpt>
      <trkpt lat="50.869317976757884" lon="4.487698031589389">
        <ele>59.740000000000002</ele>
        <time>2023-09-04T10:00:33Z</time>
      </trkpt>
      <trkpt lat="50.869317976757884" lon="4.488078989088535">
        <ele>59.740000000000002</ele>
        <time>2023-09-04T10:00:34Z</time>
      </trkpt>
      <trkpt lat="50.869299033656716" lon="4.49159100651741">
        <ele>60.700000000000003</ele>
        <time>2023-09-04T10:00:43Z</time>
      </trkpt>
      <trkpt lat="50.869296016171575" lon="4.495281977578998">
        <ele>62.619999999999997</ele>
        <time>2023-09-04T10:00:53Z</time>
      </trkpt>
      <trkpt lat="50.869296016171575" lon="4.501103041693568">
        <ele>66.950000000000003</ele>
        <time>2023-09-04T10:01:09Z</time>
      </trkpt>
      <trkpt lat="50.869296016171575" lon="4.506812961772084">
        <ele>65.510000000000005</ele>
        <time>2023-09-04T10:01:22Z</time>
      </trkpt>
      <trkpt lat="50.869296016171575" lon="4.51139803044498">
        <ele>66.950000000000003</ele>
        <time>2023-09-04T10:01:32Z</time>
      </trkpt>
      <trkpt lat="50.869274977594614" lon="4.520077994093299">
        <ele>73.680000000000007</ele>
        <time>2023-09-04T10:01:50Z</time>
      </trkpt>
      <trkpt lat="50.869292998686433" lon="4.524662978947163">
        <ele>78.480000000000004</ele>
        <time>2023-09-04T10:02:01Z</time>
      </trkpt>
      <trkpt lat="50.869274977594614" lon="4.531534966081381">
        <ele>82.810000000000002</ele>
        <time>2023-09-04T10:02:15Z</time>
      </trkpt>
      <trkpt lat="50.86926500312984" lon="4.537271959707141">
        <ele>87.140000000000001</ele>
        <time>2023-09-04T10:02:28Z</time>
      </trkpt>
      <trkpt lat="50.869253017008305" lon="4.541217992082238">
        <ele>88.579999999999998</ele>
        <time>2023-09-04T10:02:39Z</time>
      </trkpt>
      <trkpt lat="50.868998961523175" lon="4.543039966374636">
        <ele>90.5</ele>
        <time>2023-09-04T10:02:47Z</time>
      </trkpt>
      <trkpt lat="50.868951017037034" lon="4.543255968019366">
        <ele>90.980000000000004</ele>
        <time>2023-09-04T10:02:48Z</time>
      </trkpt>
      <trkpt lat="50.868636025115848" lon="4.54442298039794">
        <ele>93.870000000000005</ele>
        <time>2023-09-04T10:02:54Z</time>
      </trkpt>
      <trkpt lat="50.868483977392316" lon="4.544854983687401">
        <ele>94.829999999999998</ele>
        <time>2023-09-04T10:02:59Z</time>
      </trkpt>
      <trkpt lat="50.868480959907174" lon="4.544864036142826">
        <ele>95.310000000000002</ele>
        <time>2023-09-04T10:03:00Z</time>
      </trkpt>
      <trkpt lat="50.868480959907174" lon="4.544864036142826">
        <ele>95.310000000000002</ele>
        <time>2023-09-04T10:03:02Z</time>
      </trkpt>
      <trkpt lat="50.868474002927542" lon="4.54502496868372">
        <ele>95.310000000000002</ele>
        <time>2023-09-04T10:03:03Z</time>
      </trkpt>
      <trkpt lat="50.868471991270781" lon="4.54506796784699">
        <ele>95.790000000000006</ele>
        <time>2023-09-04T10:03:04Z</time>
      </trkpt>
      <trkpt lat="50.868498980998993" lon="4.545658975839615">
        <ele>97.230000000000004</ele>
        <time>2023-09-04T10:03:15Z</time>
      </trkpt>
      <trkpt lat="50.868549020960927" lon="4.545812029391527">
        <ele>97.230000000000004</ele>
        <time>2023-09-04T10:03:27Z</time>
      </trkpt>
      <trkpt lat="50.868549020960927" lon="4.545812029391527">
        <ele>97.230000000000004</ele>
        <time>2023-09-04T10:03:51Z</time>
      </trkpt>
      <trkpt lat="50.868611969053745" lon="4.54584295861423">
        <ele>94.829999999999998</ele>
        <time>2023-09-04T10:14:42Z</time>
      </trkpt>
      <trkpt lat="50.868550026789308" lon="4.545812029391527">
        <ele>90.019999999999996</ele>
        <time>2023-09-04T10:15:20Z</time>
      </trkpt>
      <trkpt lat="50.868580034002662" lon="4.545817980542779">
        <ele>91.459999999999994</ele>
        <time>2023-09-04T10:16:00Z</time>
      </trkpt>
      <trkpt lat="50.868587996810675" lon="4.545875983312726">
        <ele>91.459999999999994</ele>
        <time>2023-09-04T10:16:25Z</time>
      </trkpt>
      <trkpt lat="50.868585985153913" lon="4.545914037153125">
        <ele>90.980000000000004</ele>
        <time>2023-09-04T10:16:27Z</time>
      </trkpt>
      <trkpt lat="50.868597971275449" lon="4.545949995517731">
        <ele>90.980000000000004</ele>
        <time>2023-09-04T10:16:28Z</time>
      </trkpt>
      <trkpt lat="50.868615992367268" lon="4.546001041308045">
        <ele>90.980000000000004</ele>
        <time>2023-09-04T10:16:29Z</time>
      </trkpt>
      <trkpt lat="50.868638958781958" lon="4.546063989400864">
        <ele>90.5</ele>
        <time>2023-09-04T10:16:30Z</time>
      </trkpt>
      <trkpt lat="50.868667960166931" lon="4.546145964413881">
        <ele>90.019999999999996</ele>
        <time>2023-09-04T10:16:31Z</time>
      </trkpt>
      <trkpt lat="50.868886979296803" lon="4.546762034296989">
        <ele>88.099999999999994</ele>
        <time>2023-09-04T10:16:36Z</time>
      </trkpt>
      <trkpt lat="50.869020000100136" lon="4.548447970300913">
        <ele>83.769999999999996</ele>
        <time>2023-09-04T10:16:44Z</time>
      </trkpt>
      <trkpt lat="50.869138017296791" lon="4.55093203112483">
        <ele>81.849999999999994</ele>
        <time>2023-09-04T10:16:52Z</time>
      </trkpt>
      <trkpt lat="50.868983035907149" lon="4.554711012169719">
        <ele>78.480000000000004</ele>
        <time>2023-09-04T10:17:02Z</time>
      </trkpt>
      <trkpt lat="50.868691010400653" lon="4.55914000980556">
        <ele>71.269999999999996</ele>
        <time>2023-09-04T10:17:13Z</time>
      </trkpt>
      <trkpt lat="50.868309969082475" lon="4.563273964449763">
        <ele>70.790000000000006</ele>
        <time>2023-09-04T10:17:22Z</time>
      </trkpt>
      <trkpt lat="50.867629023268819" lon="4.569148002192378">
        <ele>72.719999999999999</ele>
        <time>2023-09-04T10:17:35Z</time>
      </trkpt>
      <trkpt lat="50.866785971447825" lon="4.574964037165046">
        <ele>77.040000000000006</ele>
        <time>2023-09-04T10:17:48Z</time>
      </trkpt>
      <trkpt lat="50.86569900624454" lon="4.581623962149024">
        <ele>76.560000000000002</ele>
        <time>2023-09-04T10:18:03Z</time>
      </trkpt>
      <trkpt lat="50.864986963570118" lon="4.585923040285707">
        <ele>73.680000000000007</ele>
        <time>2023-09-04T10:18:13Z</time>
      </trkpt>
      <trkpt lat="50.86402103304863" lon="4.591675959527493">
        <ele>67.909999999999997</ele>
        <time>2023-09-04T10:18:26Z</time>
      </trkpt>
      <trkpt lat="50.863064993172884" lon="4.597410019487143">
        <ele>63.579999999999998</ele>
        <time>2023-09-04T10:18:39Z</time>
      </trkpt>
      <trkpt lat="50.862130997702479" lon="4.603151958435774">
        <ele>55.890000000000001</ele>
        <time>2023-09-04T10:18:52Z</time>
      </trkpt>
      <trkpt lat="50.861520040780306" lon="4.607144007459283">
        <ele>52.530000000000001</ele>
        <time>2023-09-04T10:19:01Z</time>
      </trkpt>
      <trkpt lat="50.860859965905547" lon="4.612021017819643">
        <ele>49.649999999999999</ele>
        <time>2023-09-04T10:19:12Z</time>
      </trkpt>
      <trkpt lat="50.860248003154993" lon="4.61652897298336">
        <ele>49.649999999999999</ele>
        <time>2023-09-04T10:19:22Z</time>
      </trkpt>
      <trkpt lat="50.859343009069562" lon="4.623258970677853">
        <ele>53.009999999999998</ele>
        <time>2023-09-04T10:19:37Z</time>
      </trkpt>
      <trkpt lat="50.858682012185454" lon="4.628180991858244">
        <ele>59.740000000000002</ele>
        <time>2023-09-04T10:19:48Z</time>
      </trkpt>
      <trkpt lat="50.857758997008204" lon="4.633918991312385">
        <ele>66.950000000000003</ele>
        <time>2023-09-04T10:20:01Z</time>
      </trkpt>
      <trkpt lat="50.857364041730762" lon="4.636003989726305">
        <ele>68.390000000000001</ele>
        <time>2023-09-04T10:20:06Z</time>
      </trkpt>
      <trkpt lat="50.857243007048965" lon="4.63631403632462">
        <ele>68.390000000000001</ele>
        <time>2023-09-04T10:20:07Z</time>
      </trkpt>
      <trkpt lat="50.857114009559155" lon="4.636601032689214">
        <ele>68.390000000000001</ele>
        <time>2023-09-04T10:20:08Z</time>
      </trkpt>
      <trkpt lat="50.856967996805906" lon="4.636859027668834">
        <ele>68.870000000000005</ele>
        <time>2023-09-04T10:20:09Z</time>
      </trkpt>
      <trkpt lat="50.856819972395897" lon="4.637099001556635">
        <ele>68.870000000000005</ele>
        <time>2023-09-04T10:20:10Z</time>
      </trkpt>
      <trkpt lat="50.856640012934804" lon="4.637290025129914">
        <ele>68.870000000000005</ele>
        <time>2023-09-04T10:20:11Z</time>
      </trkpt>
      <trkpt lat="50.85645804181695" lon="4.637480964884162">
        <ele>68.870000000000005</ele>
        <time>2023-09-04T10:20:12Z</time>
      </trkpt>
      <trkpt lat="50.856275986880064" lon="4.637674000114203">
        <ele>68.870000000000005</ele>
        <time>2023-09-04T10:20:13Z</time>
      </trkpt>
      <trkpt lat="50.856096027418971" lon="4.637864017859101">
        <ele>68.870000000000005</ele>
        <time>2023-09-04T10:20:14Z</time>
      </trkpt>
      <trkpt lat="50.855584982782602" lon="4.638456031680107">
        <ele>68.390000000000001</ele>
        <time>2023-09-04T10:20:17Z</time>
      </trkpt>
      <trkpt lat="50.855446010828018" lon="4.638679996132851">
        <ele>67.909999999999997</ele>
        <time>2023-09-04T10:20:18Z</time>
      </trkpt>
      <trkpt lat="50.855349032208323" lon="4.638929022476077">
        <ele>67.909999999999997</ele>
        <time>2023-09-04T10:20:19Z</time>
      </trkpt>
      <trkpt lat="50.855284994468093" lon="4.639193974435329">
        <ele>67.430000000000007</ele>
        <time>2023-09-04T10:20:20Z</time>
      </trkpt>
      <trkpt lat="50.855249036103487" lon="4.639455992728472">
        <ele>66.950000000000003</ele>
        <time>2023-09-04T10:20:21Z</time>
      </trkpt>
      <trkpt lat="50.85527703166008" lon="4.639707030728459">
        <ele>65.989999999999995</ele>
        <time>2023-09-04T10:20:22Z</time>
      </trkpt>
      <trkpt lat="50.855321958661079" lon="4.639951027929783">
        <ele>65.510000000000005</ele>
        <time>2023-09-04T10:20:23Z</time>
      </trkpt>
      <trkpt lat="50.855389013886452" lon="4.640163006260991">
        <ele>64.549999999999997</ele>
        <time>2023-09-04T10:20:24Z</time>
      </trkpt>
      <trkpt lat="50.855496972799301" lon="4.640356041491032">
        <ele>63.579999999999998</ele>
        <time>2023-09-04T10:20:25Z</time>
      </trkpt>
      <trkpt lat="50.855610966682434" lon="4.640557039529085">
        <ele>63.100000000000001</ele>
        <time>2023-09-04T10:20:26Z</time>
      </trkpt>
      <trkpt lat="50.855752034112811" lon="4.640711015090346">
        <ele>62.619999999999997</ele>
        <time>2023-09-04T10:20:27Z</time>
      </trkpt>
      <trkpt lat="50.855910032987595" lon="4.640868008136749">
        <ele>62.140000000000001</ele>
        <time>2023-09-04T10:20:28Z</time>
      </trkpt>
      <trkpt lat="50.856079012155533" lon="4.641016032546759">
        <ele>61.659999999999997</ele>
        <time>2023-09-04T10:20:29Z</time>
      </trkpt>
      <trkpt lat="50.857441993430257" lon="4.64217902161181">
        <ele>59.740000000000002</ele>
        <time>2023-09-04T10:20:36Z</time>
      </trkpt>
      <trkpt lat="50.859728995710611" lon="4.644451020285487">
        <ele>53.009999999999998</ele>
        <time>2023-09-04T10:20:46Z</time>
      </trkpt>
      <trkpt lat="50.862153964117169" lon="4.646981013938785">
        <ele>48.200000000000003</ele>
        <time>2023-09-04T10:20:56Z</time>
      </trkpt>
      <trkpt lat="50.865497002378106" lon="4.650562014430761">
        <ele>42.920000000000002</ele>
        <time>2023-09-04T10:21:10Z</time>
      </trkpt>
      <trkpt lat="50.868394961580634" lon="4.653525017201901">
        <ele>42.920000000000002</ele>
        <time>2023-09-04T10:21:22Z</time>
      </trkpt>
      <trkpt lat="50.870549026876688" lon="4.654671996831894">
        <ele>44.359999999999999</ele>
        <time>2023-09-04T10:21:30Z</time>
      </trkpt>
      <trkpt lat="50.87276503443718" lon="4.655529968440533">
        <ele>45.32</ele>
        <time>2023-09-04T10:21:38Z</time>
      </trkpt>
      <trkpt lat="50.874576028436422" lon="4.656878029927611">
        <ele>48.200000000000003</ele>
        <time>2023-09-04T10:21:45Z</time>
      </trkpt>
      <trkpt lat="50.876135984435678" lon="4.658946013078094">
        <ele>51.090000000000003</ele>
        <time>2023-09-04T10:21:52Z</time>
      </trkpt>
      <trkpt lat="50.877330992370844" lon="4.661577008664608">
        <ele>57.340000000000003</ele>
        <time>2023-09-04T10:21:59Z</time>
      </trkpt>
      <trkpt lat="50.878557013347745" lon="4.665197990834713">
        <ele>66.469999999999999</ele>
        <time>2023-09-04T10:22:08Z</time>
      </trkpt>
      <trkpt lat="50.879505006596446" lon="4.667505025863648">
        <ele>66.950000000000003</ele>
        <time>2023-09-04T10:22:14Z</time>
      </trkpt>
      <trkpt lat="50.881187003105879" lon="4.670021021738648">
        <ele>61.659999999999997</ele>
        <time>2023-09-04T10:22:22Z</time>
      </trkpt>
      <trkpt lat="50.883657988160849" lon="4.672355968505144">
        <ele>56.369999999999997</ele>
        <time>2023-09-04T10:22:32Z</time>
      </trkpt>
      <trkpt lat="50.88757099583745" lon="4.67537404038012">
        <ele>43.399999999999999</ele>
        <time>2023-09-04T10:22:47Z</time>
      </trkpt>
      <trkpt lat="50.889707040041685" lon="4.677693983539939">
        <ele>34.259999999999998</ele>
        <time>2023-09-04T10:22:56Z</time>
      </trkpt>
      <trkpt lat="50.891045965254307" lon="4.680033959448338">
        <ele>28.5</ele>
        <time>2023-09-04T10:23:03Z</time>
      </trkpt>
      <trkpt lat="50.892578009516001" lon="4.683908997103572">
        <ele>24.170000000000002</ele>
        <time>2023-09-04T10:23:13Z</time>
      </trkpt>
      <trkpt lat="50.894842967391014" lon="4.689802983775735">
        <ele>20.809999999999999</ele>
        <time>2023-09-04T10:23:28Z</time>
      </trkpt>
      <trkpt lat="50.896043004468083" lon="4.692375976592302">
        <ele>18.399999999999999</ele>
        <time>2023-09-04T10:23:35Z</time>
      </trkpt>
      <trkpt lat="50.897894985973835" lon="4.695253986865282">
        <ele>12.630000000000001</ele>
        <time>2023-09-04T10:23:44Z</time>
      </trkpt>
      <trkpt lat="50.900390027090907" lon="4.699078984558582">
        <ele>11.67</ele>
        <time>2023-09-04T10:23:56Z</time>
      </trkpt>
      <trkpt lat="50.901704980060458" lon="4.702110970392823">
        <ele>16</ele>
        <time>2023-09-04T10:24:04Z</time>
      </trkpt>
      <trkpt lat="50.904347039759159" lon="4.709256961941719">
        <ele>20.809999999999999</ele>
        <time>2023-09-04T10:24:22Z</time>
      </trkpt>
      <trkpt lat="50.905974972993135" lon="4.713019011542201">
        <ele>18.879999999999999</ele>
        <time>2023-09-04T10:24:32Z</time>
      </trkpt>
      <trkpt lat="50.907513974234462" lon="4.715106021612883">
        <ele>16.48</ele>
        <time>2023-09-04T10:24:39Z</time>
      </trkpt>
      <trkpt lat="50.911253979429603" lon="4.719451032578945">
        <ele>14.08</ele>
        <time>2023-09-04T10:24:55Z</time>
      </trkpt>
      <trkpt lat="50.913594961166382" lon="4.722181018441916">
        <ele>10.710000000000001</ele>
        <time>2023-09-04T10:25:05Z</time>
      </trkpt>
      <trkpt lat="50.916852001100779" lon="4.72595295868814">
        <ele>4.46</ele>
        <time>2023-09-04T10:25:19Z</time>
      </trkpt>
      <trkpt lat="50.920338034629822" lon="4.730019019916654">
        <ele>3.5</ele>
        <time>2023-09-04T10:25:34Z</time>
      </trkpt>
      <trkpt lat="50.92313096858561" lon="4.733268013224006">
        <ele>0.62</ele>
        <time>2023-09-04T10:25:46Z</time>
      </trkpt>
      <trkpt lat="50.926640974357724" lon="4.737347988411784">
        <ele>2.54</ele>
        <time>2023-09-04T10:26:01Z</time>
      </trkpt>
      <trkpt lat="50.928708035498857" lon="4.73974697291851">
        <ele>3.5</ele>
        <time>2023-09-04T10:26:10Z</time>
      </trkpt>
      <trkpt lat="50.930944997817278" lon="4.742337986826897">
        <ele>3.98</ele>
        <time>2023-09-04T10:26:20Z</time>
      </trkpt>
      <trkpt lat="50.932807037606835" lon="4.744548965245485">
        <ele>4.94</ele>
        <time>2023-09-04T10:26:28Z</time>
      </trkpt>
      <trkpt lat="50.935307024046779" lon="4.747697040438652">
        <ele>6.39</ele>
        <time>2023-09-04T10:26:39Z</time>
      </trkpt>
      <trkpt lat="50.937526971101761" lon="4.751292038708925">
        <ele>4.94</ele>
        <time>2023-09-04T10:26:50Z</time>
      </trkpt>
      <trkpt lat="50.939325978979468" lon="4.754877984523773">
        <ele>5.42</ele>
        <time>2023-09-04T10:27:00Z</time>
      </trkpt>
      <trkpt lat="50.941360015422106" lon="4.759906036779285">
        <ele>5.91</ele>
        <time>2023-09-04T10:27:13Z</time>
      </trkpt>
      <trkpt lat="50.943347029387951" lon="4.764959989115596">
        <ele>6.87</ele>
        <time>2023-09-04T10:27:26Z</time>
      </trkpt>
      <trkpt lat="50.94448302872479" lon="4.768176041543484">
        <ele>8.789999999999999</ele>
        <time>2023-09-04T10:27:34Z</time>
      </trkpt>
      <trkpt lat="50.94622696749866" lon="4.773960979655385">
        <ele>11.19</ele>
        <time>2023-09-04T10:27:48Z</time>
      </trkpt>
      <trkpt lat="50.947874011471868" lon="4.780329968780279">
        <ele>16</ele>
        <time>2023-09-04T10:28:03Z</time>
      </trkpt>
      <trkpt lat="50.949918022379279" lon="4.788410039618611">
        <ele>21.289999999999999</ele>
        <time>2023-09-04T10:28:22Z</time>
      </trkpt>
      <trkpt lat="50.951593983918428" lon="4.794739969074726">
        <ele>29.460000000000001</ele>
        <time>2023-09-04T10:28:37Z</time>
      </trkpt>
      <trkpt lat="50.953617040067911" lon="4.80028904043138">
        <ele>37.149999999999999</ele>
        <time>2023-09-04T10:28:51Z</time>
      </trkpt>
      <trkpt lat="50.955318985506892" lon="4.803991997614503">
        <ele>40.509999999999998</ele>
        <time>2023-09-04T10:29:01Z</time>
      </trkpt>
      <trkpt lat="50.957941012457013" lon="4.809482982382178">
        <ele>48.200000000000003</ele>
        <time>2023-09-04T10:29:16Z</time>
      </trkpt>
      <trkpt lat="50.959986029192805" lon="4.813956990838051">
        <ele>49.649999999999999</ele>
        <time>2023-09-04T10:29:28Z</time>
      </trkpt>
      <trkpt lat="50.961926020681858" lon="4.819082021713257">
        <ele>42.920000000000002</ele>
        <time>2023-09-04T10:29:41Z</time>
      </trkpt>
      <trkpt lat="50.962981972843409" lon="4.822839964181185">
        <ele>40.030000000000001</ele>
        <time>2023-09-04T10:29:50Z</time>
      </trkpt>
      <trkpt lat="50.963831981644034" lon="4.827194027602673">
        <ele>41.469999999999999</ele>
        <time>2023-09-04T10:30:00Z</time>
      </trkpt>
      <trkpt lat="50.964366998523474" lon="4.832164999097586">
        <ele>45.32</ele>
        <time>2023-09-04T10:30:11Z</time>
      </trkpt>
      <trkpt lat="50.96442298963666" lon="4.8376539722085">
        <ele>50.130000000000003</ele>
        <time>2023-09-04T10:30:23Z</time>
      </trkpt>
      <trkpt lat="50.964054018259048" lon="4.843601016327739">
        <ele>49.649999999999999</ele>
        <time>2023-09-04T10:30:36Z</time>
      </trkpt>
      <trkpt lat="50.963546996936202" lon="4.849051013588905">
        <ele>46.280000000000001</ele>
        <time>2023-09-04T10:30:48Z</time>
      </trkpt>
      <trkpt lat="50.962950037792325" lon="4.855217998847365">
        <ele>42.920000000000002</ele>
        <time>2023-09-04T10:31:02Z</time>
      </trkpt>
      <trkpt lat="50.962653988972306" lon="4.858426004648209">
        <ele>42.920000000000002</ele>
        <time>2023-09-04T10:31:10Z</time>
      </trkpt>
      <trkpt lat="50.962199019268155" lon="4.863395970314741">
        <ele>44.840000000000003</ele>
        <time>2023-09-04T10:31:21Z</time>
      </trkpt>
      <trkpt lat="50.961709013208747" lon="4.868830963969231">
        <ele>48.68</ele>
        <time>2023-09-04T10:31:33Z</time>
      </trkpt>
      <trkpt lat="50.961273992434144" lon="4.874289007857442">
        <ele>52.049999999999997</ele>
        <time>2023-09-04T10:31:45Z</time>
      </trkpt>
      <trkpt lat="50.960773006081581" lon="4.88161101937294">
        <ele>49.159999999999997</ele>
        <time>2023-09-04T10:32:01Z</time>
      </trkpt>
      <trkpt lat="50.960435969755054" lon="4.887564014643431">
        <ele>39.549999999999997</ele>
        <time>2023-09-04T10:32:14Z</time>
      </trkpt>
      <trkpt lat="50.960147967562079" lon="4.893043013289571">
        <ele>31.859999999999999</ele>
        <time>2023-09-04T10:32:26Z</time>
      </trkpt>
      <trkpt lat="50.959886033087969" lon="4.899417031556368">
        <ele>25.609999999999999</ele>
        <time>2023-09-04T10:32:40Z</time>
      </trkpt>
      <trkpt lat="50.959542039781809" lon="4.907168028876185">
        <ele>25.609999999999999</ele>
        <time>2023-09-04T10:32:57Z</time>
      </trkpt>
      <trkpt lat="50.959004005417228" lon="4.91444100625813">
        <ele>34.740000000000002</ele>
        <time>2023-09-04T10:33:13Z</time>
      </trkpt>
      <trkpt lat="50.95836496911943" lon="4.92125297896564">
        <ele>43.399999999999999</ele>
        <time>2023-09-04T10:33:28Z</time>
      </trkpt>
      <trkpt lat="50.957841016352177" lon="4.926669029518962">
        <ele>49.649999999999999</ele>
        <time>2023-09-04T10:33:40Z</time>
      </trkpt>
      <trkpt lat="50.957316979765892" lon="4.932111985981464">
        <ele>53.490000000000002</ele>
        <time>2023-09-04T10:33:52Z</time>
      </trkpt>
      <trkpt lat="50.956811970099807" lon="4.937092009931803">
        <ele>52.530000000000001</ele>
        <time>2023-09-04T10:34:03Z</time>
      </trkpt>
      <trkpt lat="50.95606598071754" lon="4.944796990603209">
        <ele>48.200000000000003</ele>
        <time>2023-09-04T10:34:20Z</time>
      </trkpt>
      <trkpt lat="50.95542099326849" lon="4.952514041215181">
        <ele>44.359999999999999</ele>
        <time>2023-09-04T10:34:37Z</time>
      </trkpt>
      <trkpt lat="50.955276992172003" lon="4.958466030657291">
        <ele>39.549999999999997</ele>
        <time>2023-09-04T10:34:50Z</time>
      </trkpt>
      <trkpt lat="50.955473966896534" lon="4.963950980454683">
        <ele>35.710000000000001</ele>
        <time>2023-09-04T10:35:02Z</time>
      </trkpt>
      <trkpt lat="50.956073021516204" lon="4.97073202393949">
        <ele>31.859999999999999</ele>
        <time>2023-09-04T10:35:17Z</time>
      </trkpt>
      <trkpt lat="50.956722032278776" lon="4.977056002244353">
        <ele>31.379999999999999</ele>
        <time>2023-09-04T10:35:31Z</time>
      </trkpt>
      <trkpt lat="50.956887993961573" lon="4.981636963784695">
        <ele>34.259999999999998</ele>
        <time>2023-09-04T10:35:41Z</time>
      </trkpt>
      <trkpt lat="50.956608960404992" lon="4.986203005537391">
        <ele>38.590000000000003</ele>
        <time>2023-09-04T10:35:51Z</time>
      </trkpt>
      <trkpt lat="50.956076961010695" lon="4.989776965230703">
        <ele>40.990000000000002</ele>
        <time>2023-09-04T10:35:59Z</time>
      </trkpt>
      <trkpt lat="50.954857980832458" lon="4.994432022795081">
        <ele>42.920000000000002</ele>
        <time>2023-09-04T10:36:10Z</time>
      </trkpt>
      <trkpt lat="50.953643023967743" lon="4.997561993077397">
        <ele>41.469999999999999</ele>
        <time>2023-09-04T10:36:18Z</time>
      </trkpt>
      <trkpt lat="50.951148988679051" lon="5.002640001475811">
        <ele>38.109999999999999</ele>
        <time>2023-09-04T10:36:32Z</time>
      </trkpt>
      <trkpt lat="50.948620000854135" lon="5.007629999890924">
        <ele>40.509999999999998</ele>
        <time>2023-09-04T10:36:46Z</time>
      </trkpt>
      <trkpt lat="50.946511030197144" lon="5.012512961402535">
        <ele>51.090000000000003</ele>
        <time>2023-09-04T10:36:59Z</time>
      </trkpt>
      <trkpt lat="50.944985020905733" lon="5.01744101755321">
        <ele>63.100000000000001</ele>
        <time>2023-09-04T10:37:11Z</time>
      </trkpt>
      <trkpt lat="50.944102993234992" lon="5.021799020469189">
        <ele>69.349999999999994</ele>
        <time>2023-09-04T10:37:21Z</time>
      </trkpt>
      <trkpt lat="50.943558001890779" lon="5.027252035215497">
        <ele>71.760000000000005</ele>
        <time>2023-09-04T10:37:33Z</time>
      </trkpt>
      <trkpt lat="50.943531012162566" lon="5.032302970066667">
        <ele>71.760000000000005</ele>
        <time>2023-09-04T10:37:44Z</time>
      </trkpt>
      <trkpt lat="50.943901995196939" lon="5.036742025986314">
        <ele>70.310000000000002</ele>
        <time>2023-09-04T10:37:54Z</time>
      </trkpt>
      <trkpt lat="50.944733982905746" lon="5.041663041338325">
        <ele>69.349999999999994</ele>
        <time>2023-09-04T10:38:06Z</time>
      </trkpt>
      <trkpt lat="50.945683987811208" lon="5.045324005186558">
        <ele>67.430000000000007</ele>
        <time>2023-09-04T10:38:15Z</time>
      </trkpt>
      <trkpt lat="50.947019979357719" lon="5.049251010641456">
        <ele>64.549999999999997</ele>
        <time>2023-09-04T10:38:25Z</time>
      </trkpt>
      <trkpt lat="50.948891993612051" lon="5.053382031619549">
        <ele>60.700000000000003</ele>
        <time>2023-09-04T10:38:36Z</time>
      </trkpt>
      <trkpt lat="50.951112024486065" lon="5.057221027091146">
        <ele>57.340000000000003</ele>
        <time>2023-09-04T10:38:47Z</time>
      </trkpt>
      <trkpt lat="50.954251969233155" lon="5.061998041346669">
        <ele>52.049999999999997</ele>
        <time>2023-09-04T10:39:02Z</time>
      </trkpt>
      <trkpt lat="50.956477029249072" lon="5.065388018265367">
        <ele>45.32</ele>
        <time>2023-09-04T10:39:13Z</time>
      </trkpt>
      <trkpt lat="50.958267990499735" lon="5.068342974409461">
        <ele>37.630000000000003</ele>
        <time>2023-09-04T10:39:24Z</time>
      </trkpt>
      <trkpt lat="50.959957027807832" lon="5.071647958829999">
        <ele>31.859999999999999</ele>
        <time>2023-09-04T10:39:35Z</time>
      </trkpt>
      <trkpt lat="50.961586972698569" lon="5.075652999803424">
        <ele>26.57</ele>
        <time>2023-09-04T10:39:47Z</time>
      </trkpt>
      <trkpt lat="50.962729007005692" lon="5.079144984483719">
        <ele>24.170000000000002</ele>
        <time>2023-09-04T10:39:57Z</time>
      </trkpt>
      <trkpt lat="50.963393021374941" lon="5.081738010048866">
        <ele>23.210000000000001</ele>
        <time>2023-09-04T10:40:05Z</time>
      </trkpt>
      <trkpt lat="50.963954022154212" lon="5.084319971501827">
        <ele>22.25</ele>
        <time>2023-09-04T10:40:13Z</time>
      </trkpt>
      <trkpt lat="50.964538995176554" lon="5.087838023900986">
        <ele>21.77</ele>
        <time>2023-09-04T10:40:21Z</time>
      </trkpt>
      <trkpt lat="50.964909978210926" lon="5.090933041647077">
        <ele>21.77</ele>
        <time>2023-09-04T10:40:29Z</time>
      </trkpt>
      <trkpt lat="50.965133020654321" lon="5.093653975054622">
        <ele>19.84</ele>
        <time>2023-09-04T10:40:36Z</time>
      </trkpt>
      <trkpt lat="50.96545203588903" lon="5.098744975402951">
        <ele>16.48</ele>
        <time>2023-09-04T10:40:48Z</time>
      </trkpt>
      <trkpt lat="50.965852020308375" lon="5.104634016752243">
        <ele>15.52</ele>
        <time>2023-09-04T10:41:01Z</time>
      </trkpt>
      <trkpt lat="50.966497007757425" lon="5.110034979879856">
        <ele>18.879999999999999</ele>
        <time>2023-09-04T10:41:13Z</time>
      </trkpt>
      <trkpt lat="50.967507027089596" lon="5.115321027114987">
        <ele>20.32</ele>
        <time>2023-09-04T10:41:25Z</time>
      </trkpt>
      <trkpt lat="50.968792978674173" lon="5.119914980605245">
        <ele>17.440000000000001</ele>
        <time>2023-09-04T10:41:36Z</time>
      </trkpt>
      <trkpt lat="50.970517974346876" lon="5.124682020395994">
        <ele>17.440000000000001</ele>
        <time>2023-09-04T10:41:48Z</time>
      </trkpt>
      <trkpt lat="50.97258604131639" lon="5.129647962749004">
        <ele>18.399999999999999</ele>
        <time>2023-09-04T10:42:01Z</time>
      </trkpt>
      <trkpt lat="50.974373985081911" lon="5.133825000375509">
        <ele>21.77</ele>
        <time>2023-09-04T10:42:12Z</time>
      </trkpt>
      <trkpt lat="50.976656964048743" lon="5.139136025682092">
        <ele>22.73</ele>
        <time>2023-09-04T10:42:26Z</time>
      </trkpt>
      <trkpt lat="50.979433972388506" lon="5.145592018961906">
        <ele>19.359999999999999</ele>
        <time>2023-09-04T10:42:43Z</time>
      </trkpt>
      <trkpt lat="50.981372036039829" lon="5.150125036016107">
        <ele>19.359999999999999</ele>
        <time>2023-09-04T10:42:55Z</time>
      </trkpt>
      <trkpt lat="50.982985971495509" lon="5.153927989304066">
        <ele>21.289999999999999</ele>
        <time>2023-09-04T10:43:05Z</time>
      </trkpt>
      <trkpt lat="50.98489997908473" lon="5.158518003299832">
        <ele>25.129999999999999</ele>
        <time>2023-09-04T10:43:17Z</time>
      </trkpt>
      <trkpt lat="50.986079983413219" lon="5.161684015765786">
        <ele>28.02</ele>
        <time>2023-09-04T10:43:25Z</time>
      </trkpt>
      <trkpt lat="50.987485041841865" lon="5.166214015334845">
        <ele>31.859999999999999</ele>
        <time>2023-09-04T10:43:36Z</time>
      </trkpt>
      <trkpt lat="50.988343013450503" lon="5.169109962880611">
        <ele>35.229999999999997</ele>
        <time>2023-09-04T10:43:43Z</time>
      </trkpt>
      <trkpt lat="50.989546990022063" lon="5.173281971365213">
        <ele>37.630000000000003</ele>
        <time>2023-09-04T10:43:53Z</time>
      </trkpt>
      <trkpt lat="50.990995969623327" lon="5.178302982822061">
        <ele>39.549999999999997</ele>
        <time>2023-09-04T10:44:05Z</time>
      </trkpt>
      <trkpt lat="50.992321986705065" lon="5.182894002646208">
        <ele>39.07</ele>
        <time>2023-09-04T10:44:16Z</time>
      </trkpt>
      <trkpt lat="50.994149995967746" lon="5.18915000371635">
        <ele>39.07</ele>
        <time>2023-09-04T10:44:31Z</time>
      </trkpt>
      <trkpt lat="50.99583500996232" lon="5.195479011163116">
        <ele>36.189999999999998</ele>
        <time>2023-09-04T10:44:46Z</time>
      </trkpt>
      <trkpt lat="50.996610000729561" lon="5.199396964162588">
        <ele>35.229999999999997</ele>
        <time>2023-09-04T10:44:55Z</time>
      </trkpt>
      <trkpt lat="50.997463027015328" lon="5.205717002972961">
        <ele>32.82</ele>
        <time>2023-09-04T10:45:09Z</time>
      </trkpt>
      <trkpt lat="50.998131986707449" lon="5.212022038176656">
        <ele>28.5</ele>
        <time>2023-09-04T10:45:23Z</time>
      </trkpt>
      <trkpt lat="50.998850986361504" lon="5.218795035034418">
        <ele>24.649999999999999</ele>
        <time>2023-09-04T10:45:38Z</time>
      </trkpt>
      <trkpt lat="50.999287012964487" lon="5.222885990515351">
        <ele>21.289999999999999</ele>
        <time>2023-09-04T10:45:47Z</time>
      </trkpt>
      <trkpt lat="50.999619020149112" lon="5.226029036566615">
        <ele>21.289999999999999</ele>
        <time>2023-09-04T10:45:54Z</time>
      </trkpt>
      <trkpt lat="51.000124029815197" lon="5.231446009129286">
        <ele>24.170000000000002</ele>
        <time>2023-09-04T10:46:06Z</time>
      </trkpt>
      <trkpt lat="51.001128014177084" lon="5.240506008267403">
        <ele>36.189999999999998</ele>
        <time>2023-09-04T10:46:26Z</time>
      </trkpt>
      <trkpt lat="51.001696977764368" lon="5.245952988043428">
        <ele>34.259999999999998</ele>
        <time>2023-09-04T10:46:38Z</time>
      </trkpt>
      <trkpt lat="51.002382030710578" lon="5.252283001318574">
        <ele>29.460000000000001</ele>
        <time>2023-09-04T10:46:52Z</time>
      </trkpt>
      <trkpt lat="51.002857033163309" lon="5.25682901032269">
        <ele>28.5</ele>
        <time>2023-09-04T10:47:02Z</time>
      </trkpt>
      <trkpt lat="51.003558011725545" lon="5.263613993301988">
        <ele>30.420000000000002</ele>
        <time>2023-09-04T10:47:17Z</time>
      </trkpt>
      <trkpt lat="51.004265025258064" lon="5.270395036786795">
        <ele>30.420000000000002</ele>
        <time>2023-09-04T10:47:32Z</time>
      </trkpt>
      <trkpt lat="51.004738016054034" lon="5.274903997778893">
        <ele>30.420000000000002</ele>
        <time>2023-09-04T10:47:42Z</time>
      </trkpt>
      <trkpt lat="51.005350984632969" lon="5.280798990279436">
        <ele>32.340000000000003</ele>
        <time>2023-09-04T10:47:55Z</time>
      </trkpt>
      <trkpt lat="51.005835039541125" lon="5.285310968756676">
        <ele>31.859999999999999</ele>
        <time>2023-09-04T10:48:05Z</time>
      </trkpt>
      <trkpt lat="51.006512967869639" lon="5.289789000526071">
        <ele>32.82</ele>
        <time>2023-09-04T10:48:15Z</time>
      </trkpt>
      <trkpt lat="51.007505971938372" lon="5.295521970838308">
        <ele>32.82</ele>
        <time>2023-09-04T10:48:28Z</time>
      </trkpt>
      <trkpt lat="51.008629985153675" lon="5.301687028259039">
        <ele>31.379999999999999</ele>
        <time>2023-09-04T10:48:42Z</time>
      </trkpt>
      <trkpt lat="51.009442023932934" lon="5.306110996752977">
        <ele>31.379999999999999</ele>
        <time>2023-09-04T10:48:52Z</time>
      </trkpt>
      <trkpt lat="51.010478027164936" lon="5.311827035620809">
        <ele>32.340000000000003</ele>
        <time>2023-09-04T10:49:05Z</time>
      </trkpt>
      <trkpt lat="51.011382015421987" lon="5.317527987062931">
        <ele>32.82</ele>
        <time>2023-09-04T10:49:18Z</time>
      </trkpt>
      <trkpt lat="51.011633975431323" lon="5.319920014590025">
        <ele>33.299999999999997</ele>
        <time>2023-09-04T10:49:25Z</time>
      </trkpt>
      <trkpt lat="51.011875038966537" lon="5.323683992028236">
        <ele>33.780000000000001</ele>
        <time>2023-09-04T10:49:37Z</time>
      </trkpt>
      <trkpt lat="51.011924995109439" lon="5.32706500031054">
        <ele>30.899999999999999</ele>
        <time>2023-09-04T10:49:47Z</time>
      </trkpt>
      <trkpt lat="51.011969000101089" lon="5.331592988222837">
        <ele>31.859999999999999</ele>
        <time>2023-09-04T10:49:59Z</time>
      </trkpt>
      <trkpt lat="51.012010993435979" lon="5.337551012635231">
        <ele>35.710000000000001</ele>
        <time>2023-09-04T10:50:14Z</time>
      </trkpt>
      <trkpt lat="51.012010993435979" lon="5.340974014252424">
        <ele>40.030000000000001</ele>
        <time>2023-09-04T10:50:23Z</time>
      </trkpt>
      <trkpt lat="51.012053992599249" lon="5.345419021323323">
        <ele>46.280000000000001</ele>
        <time>2023-09-04T10:50:36Z</time>
      </trkpt>
      <trkpt lat="51.012063967064023" lon="5.349143017083406">
        <ele>46.759999999999998</ele>
        <time>2023-09-04T10:50:45Z</time>
      </trkpt>
      <trkpt lat="51.012097997590899" lon="5.353622976690531">
        <ele>47.240000000000002</ele>
        <time>2023-09-04T10:50:56Z</time>
      </trkpt>
      <trkpt lat="51.012128004804254" lon="5.357951978221536">
        <ele>44.840000000000003</ele>
        <time>2023-09-04T10:51:07Z</time>
      </trkpt>
      <trkpt lat="51.012161029502749" lon="5.362534029409289">
        <ele>40.990000000000002</ele>
        <time>2023-09-04T10:51:20Z</time>
      </trkpt>
      <trkpt lat="51.012190030887723" lon="5.366976018995047">
        <ele>40.030000000000001</ele>
        <time>2023-09-04T10:51:31Z</time>
      </trkpt>
      <trkpt lat="51.012229006737471" lon="5.372142037376761">
        <ele>41.950000000000003</ele>
        <time>2023-09-04T10:51:44Z</time>
      </trkpt>
      <trkpt lat="51.012255996465683" lon="5.376946041360498">
        <ele>44.840000000000003</ele>
        <time>2023-09-04T10:51:55Z</time>
      </trkpt>
      <trkpt lat="51.012275023385882" lon="5.381472017616034">
        <ele>47.719999999999999</ele>
        <time>2023-09-04T10:52:05Z</time>
      </trkpt>
      <trkpt lat="51.012311987578869" lon="5.385900009423494">
        <ele>47.719999999999999</ele>
        <time>2023-09-04T10:52:16Z</time>
      </trkpt>
      <trkpt lat="51.012343000620604" lon="5.391238024458289">
        <ele>49.159999999999997</ele>
        <time>2023-09-04T10:52:30Z</time>
      </trkpt>
      <trkpt lat="51.012376025319099" lon="5.395273994654417">
        <ele>48.200000000000003</ele>
        <time>2023-09-04T10:52:40Z</time>
      </trkpt>
      <trkpt lat="51.012349035590887" lon="5.39934097789228">
        <ele>47.719999999999999</ele>
        <time>2023-09-04T10:52:50Z</time>
      </trkpt>
      <trkpt lat="51.012193970382214" lon="5.404701037332416">
        <ele>53.009999999999998</ele>
        <time>2023-09-04T10:53:03Z</time>
      </trkpt>
      <trkpt lat="51.011711005121469" lon="5.410207025706768">
        <ele>58.299999999999997</ele>
        <time>2023-09-04T10:53:16Z</time>
      </trkpt>
      <trkpt lat="51.010907012969255" lon="5.415545962750912">
        <ele>62.140000000000001</ele>
        <time>2023-09-04T10:53:28Z</time>
      </trkpt>
      <trkpt lat="51.009784005582333" lon="5.421242974698544">
        <ele>65.989999999999995</ele>
        <time>2023-09-04T10:53:41Z</time>
      </trkpt>
      <trkpt lat="51.008572988212109" lon="5.427377019077539">
        <ele>65.030000000000001</ele>
        <time>2023-09-04T10:53:55Z</time>
      </trkpt>
      <trkpt lat="51.007535979151726" lon="5.432630041614175">
        <ele>64.549999999999997</ele>
        <time>2023-09-04T10:54:07Z</time>
      </trkpt>
      <trkpt lat="51.006761994212866" lon="5.436547994613648">
        <ele>63.100000000000001</ele>
        <time>2023-09-04T10:54:16Z</time>
      </trkpt>
      <trkpt lat="51.005638986825943" lon="5.442235032096505">
        <ele>60.700000000000003</ele>
        <time>2023-09-04T10:54:29Z</time>
      </trkpt>
      <trkpt lat="51.00434297695756" lon="5.448800995945931">
        <ele>62.619999999999997</ele>
        <time>2023-09-04T10:54:44Z</time>
      </trkpt>
      <trkpt lat="51.003295993432403" lon="5.454026022925973">
        <ele>65.030000000000001</ele>
        <time>2023-09-04T10:54:56Z</time>
      </trkpt>
      <trkpt lat="51.002315981313586" lon="5.458821980282664">
        <ele>67.909999999999997</ele>
        <time>2023-09-04T10:55:07Z</time>
      </trkpt>
      <trkpt lat="51.00133596919477" lon="5.463612992316485">
        <ele>68.870000000000005</ele>
        <time>2023-09-04T10:55:18Z</time>
      </trkpt>
      <trkpt lat="51.000056974589825" lon="5.469724992290139">
        <ele>72.239999999999995</ele>
        <time>2023-09-04T10:55:32Z</time>
      </trkpt>
      <trkpt lat="50.998912006616592" lon="5.475402977317572">
        <ele>76.560000000000002</ele>
        <time>2023-09-04T10:55:45Z</time>
      </trkpt>
      <trkpt lat="50.998006006702781" lon="5.479782018810511">
        <ele>78</ele>
        <time>2023-09-04T10:55:55Z</time>
      </trkpt>
      <trkpt lat="50.997104030102491" lon="5.48412099480629">
        <ele>75.120000000000005</ele>
        <time>2023-09-04T10:56:05Z</time>
      </trkpt>
      <trkpt lat="50.996008012443781" lon="5.488860039040446">
        <ele>73.200000000000003</ele>
        <time>2023-09-04T10:56:16Z</time>
      </trkpt>
      <trkpt lat="50.99476003088057" lon="5.492999022826552">
        <ele>73.200000000000003</ele>
        <time>2023-09-04T10:56:26Z</time>
      </trkpt>
      <trkpt lat="50.993443988263607" lon="5.497142029926181">
        <ele>69.829999999999998</ele>
        <time>2023-09-04T10:56:36Z</time>
      </trkpt>
      <trkpt lat="50.991476001217961" lon="5.503270961344242">
        <ele>70.310000000000002</ele>
        <time>2023-09-04T10:56:51Z</time>
      </trkpt>
      <trkpt lat="50.989494016394019" lon="5.509397964924574">
        <ele>69.349999999999994</ele>
        <time>2023-09-04T10:57:06Z</time>
      </trkpt>
      <trkpt lat="50.988623974844813" lon="5.512135997414589">
        <ele>68.390000000000001</ele>
        <time>2023-09-04T10:57:13Z</time>
      </trkpt>
      <trkpt lat="50.986921023577452" lon="5.517437970265746">
        <ele>64.069999999999993</ele>
        <time>2023-09-04T10:57:26Z</time>
      </trkpt>
      <trkpt lat="50.985502973198891" lon="5.521821035072208">
        <ele>62.140000000000001</ele>
        <time>2023-09-04T10:57:37Z</time>
      </trkpt>
      <trkpt lat="50.984008982777596" lon="5.526485983282328">
        <ele>60.700000000000003</ele>
        <time>2023-09-04T10:57:50Z</time>
      </trkpt>
      <trkpt lat="50.982982032001019" lon="5.529697006568313">
        <ele>60.700000000000003</ele>
        <time>2023-09-04T10:57:59Z</time>
      </trkpt>
      <trkpt lat="50.982039989903569" lon="5.532645005732775">
        <ele>62.140000000000001</ele>
        <time>2023-09-04T10:58:08Z</time>
      </trkpt>
      <trkpt lat="50.980849005281925" lon="5.536360032856464">
        <ele>65.989999999999995</ele>
        <time>2023-09-04T10:58:18Z</time>
      </trkpt>
      <trkpt lat="50.979401031509042" lon="5.540852984413505">
        <ele>66.469999999999999</ele>
        <time>2023-09-04T10:58:30Z</time>
      </trkpt>
      <trkpt lat="50.978200994431973" lon="5.544621990993619">
        <ele>65.989999999999995</ele>
        <time>2023-09-04T10:58:40Z</time>
      </trkpt>
      <trkpt lat="50.977341011166573" lon="5.547285005450249">
        <ele>67.430000000000007</ele>
        <time>2023-09-04T10:58:47Z</time>
      </trkpt>
      <trkpt lat="50.977231040596962" lon="5.547687001526356">
        <ele>68.390000000000001</ele>
        <time>2023-09-04T10:58:48Z</time>
      </trkpt>
      <trkpt lat="50.977115035057068" lon="5.548085980117321">
        <ele>68.870000000000005</ele>
        <time>2023-09-04T10:58:49Z</time>
      </trkpt>
      <trkpt lat="50.97585498355329" lon="5.552497962489724">
        <ele>71.760000000000005</ele>
        <time>2023-09-04T10:59:00Z</time>
      </trkpt>
      <trkpt lat="50.974992988631129" lon="5.556073011830449">
        <ele>75.599999999999994</ele>
        <time>2023-09-04T10:59:09Z</time>
      </trkpt>
      <trkpt lat="50.974042983725667" lon="5.560439983382821">
        <ele>80.409999999999997</ele>
        <time>2023-09-04T10:59:20Z</time>
      </trkpt>
      <trkpt lat="50.972741022706032" lon="5.566426003351808">
        <ele>83.290000000000006</ele>
        <time>2023-09-04T10:59:35Z</time>
      </trkpt>
      <trkpt lat="50.972036020830274" lon="5.569731993600726">
        <ele>83.769999999999996</ele>
        <time>2023-09-04T10:59:43Z</time>
      </trkpt>
      <trkpt lat="50.970948971807957" lon="5.574761973693967">
        <ele>86.180000000000007</ele>
        <time>2023-09-04T10:59:55Z</time>
      </trkpt>
      <trkpt lat="50.970228966325521" lon="5.578085985034704">
        <ele>88.579999999999998</ele>
        <time>2023-09-04T11:00:03Z</time>
      </trkpt>
      <trkpt lat="50.968938991427422" lon="5.58400796726346">
        <ele>90.019999999999996</ele>
        <time>2023-09-04T11:00:18Z</time>
      </trkpt>
      <trkpt lat="50.967757981270552" lon="5.589430974796414">
        <ele>87.140000000000001</ele>
        <time>2023-09-04T11:00:32Z</time>
      </trkpt>
      <trkpt lat="50.966737987473607" lon="5.594115033745766">
        <ele>89.060000000000002</ele>
        <time>2023-09-04T11:00:44Z</time>
      </trkpt>
      <trkpt lat="50.965696033090353" lon="5.599012998864055">
        <ele>88.099999999999994</ele>
        <time>2023-09-04T11:00:57Z</time>
      </trkpt>
      <trkpt lat="50.965076023712754" lon="5.602149004116654">
        <ele>90.019999999999996</ele>
        <time>2023-09-04T11:01:06Z</time>
      </trkpt>
      <trkpt lat="50.964489961043" lon="5.605294983834028">
        <ele>89.540000000000006</ele>
        <time>2023-09-04T11:01:15Z</time>
      </trkpt>
      <trkpt lat="50.963731985539198" lon="5.609624991193414">
        <ele>89.540000000000006</ele>
        <time>2023-09-04T11:01:26Z</time>
      </trkpt>
      <trkpt lat="50.963146006688476" lon="5.613704966381192">
        <ele>88.579999999999998</ele>
        <time>2023-09-04T11:01:36Z</time>
      </trkpt>
      <trkpt lat="50.962477969005704" lon="5.618862016126514">
        <ele>87.140000000000001</ele>
        <time>2023-09-04T11:01:48Z</time>
      </trkpt>
      <trkpt lat="50.962001038715243" lon="5.623294031247497">
        <ele>86.180000000000007</ele>
        <time>2023-09-04T11:01:59Z</time>
      </trkpt>
      <trkpt lat="50.961528969928622" lon="5.628344966098666">
        <ele>81.849999999999994</ele>
        <time>2023-09-04T11:02:11Z</time>
      </trkpt>
      <trkpt lat="50.961106019094586" lon="5.632878988981247">
        <ele>77.040000000000006</ele>
        <time>2023-09-04T11:02:21Z</time>
      </trkpt>
      <trkpt lat="50.960526997223496" lon="5.638757972046733">
        <ele>75.599999999999994</ele>
        <time>2023-09-04T11:02:34Z</time>
      </trkpt>
      <trkpt lat="50.959990974515676" lon="5.642997035756707">
        <ele>74.640000000000001</ele>
        <time>2023-09-04T11:02:44Z</time>
      </trkpt>
      <trkpt lat="50.959326960146427" lon="5.647058989852667">
        <ele>71.269999999999996</ele>
        <time>2023-09-04T11:02:54Z</time>
      </trkpt>
      <trkpt lat="50.958268996328115" lon="5.652289967983961">
        <ele>62.140000000000001</ele>
        <time>2023-09-04T11:03:07Z</time>
      </trkpt>
      <trkpt lat="50.957405995577574" lon="5.656160982325673">
        <ele>55.890000000000001</ele>
        <time>2023-09-04T11:03:17Z</time>
      </trkpt>
      <trkpt lat="50.956651959568262" lon="5.659558000043035">
        <ele>50.130000000000003</ele>
        <time>2023-09-04T11:03:26Z</time>
      </trkpt>
      <trkpt lat="50.955784013494849" lon="5.664019016548991">
        <ele>45.799999999999997</ele>
        <time>2023-09-04T11:03:38Z</time>
      </trkpt>
      <trkpt lat="50.955230975523591" lon="5.668410966172814">
        <ele>42.439999999999998</ele>
        <time>2023-09-04T11:03:50Z</time>
      </trkpt>
      <trkpt lat="50.954954959452152" lon="5.671712011098862">
        <ele>41.469999999999999</ele>
        <time>2023-09-04T11:03:59Z</time>
      </trkpt>
      <trkpt lat="50.954556986689568" lon="5.677069975063205">
        <ele>40.990000000000002</ele>
        <time>2023-09-04T11:04:13Z</time>
      </trkpt>
      <trkpt lat="50.954272001981735" lon="5.680906036868691">
        <ele>39.07</ele>
        <time>2023-09-04T11:04:23Z</time>
      </trkpt>
      <trkpt lat="50.953965978696942" lon="5.684973020106554">
        <ele>37.149999999999999</ele>
        <time>2023-09-04T11:04:35Z</time>
      </trkpt>
      <trkpt lat="50.953730028122663" lon="5.688062002882361">
        <ele>36.189999999999998</ele>
        <time>2023-09-04T11:04:45Z</time>
      </trkpt>
      <trkpt lat="50.953430039808154" lon="5.689151985570788">
        <ele>36.670000000000002</ele>
        <time>2023-09-04T11:04:49Z</time>
      </trkpt>
      <trkpt lat="50.953349992632866" lon="5.68941199220717">
        <ele>36.670000000000002</ele>
        <time>2023-09-04T11:04:50Z</time>
      </trkpt>
      <trkpt lat="50.953260976821184" lon="5.689636962488294">
        <ele>36.670000000000002</ele>
        <time>2023-09-04T11:04:51Z</time>
      </trkpt>
      <trkpt lat="50.953139020130038" lon="5.689845001325011">
        <ele>36.670000000000002</ele>
        <time>2023-09-04T11:04:52Z</time>
      </trkpt>
      <trkpt lat="50.95301597379148" lon="5.690053040161729">
        <ele>36.670000000000002</ele>
        <time>2023-09-04T11:04:53Z</time>
      </trkpt>
      <trkpt lat="50.952895022928715" lon="5.690256971865892">
        <ele>36.670000000000002</ele>
        <time>2023-09-04T11:04:54Z</time>
      </trkpt>
      <trkpt lat="50.95260601490736" lon="5.690595014020801">
        <ele>36.189999999999998</ele>
        <time>2023-09-04T11:04:56Z</time>
      </trkpt>
      <trkpt lat="50.952020036056638" lon="5.691169006749988">
        <ele>37.149999999999999</ele>
        <time>2023-09-04T11:05:00Z</time>
      </trkpt>
      <trkpt lat="50.951905036345124" lon="5.691341003403068">
        <ele>37.630000000000003</ele>
        <time>2023-09-04T11:05:01Z</time>
      </trkpt>
      <trkpt lat="50.951801016926765" lon="5.69149699062109">
        <ele>38.109999999999999</ele>
        <time>2023-09-04T11:05:02Z</time>
      </trkpt>
      <trkpt lat="50.951728010550141" lon="5.691697988659143">
        <ele>38.590000000000003</ele>
        <time>2023-09-04T11:05:03Z</time>
      </trkpt>
      <trkpt lat="50.951656010001898" lon="5.691895969212055">
        <ele>39.07</ele>
        <time>2023-09-04T11:05:04Z</time>
      </trkpt>
      <trkpt lat="50.951620973646641" lon="5.692081041634083">
        <ele>39.549999999999997</ele>
        <time>2023-09-04T11:05:05Z</time>
      </trkpt>
      <trkpt lat="50.951603958383203" lon="5.692285979166627">
        <ele>40.030000000000001</ele>
        <time>2023-09-04T11:05:06Z</time>
      </trkpt>
      <trkpt lat="50.951589960604906" lon="5.692467028275132">
        <ele>40.030000000000001</ele>
        <time>2023-09-04T11:05:07Z</time>
      </trkpt>
      <trkpt lat="50.951474038884044" lon="5.693012019619346">
        <ele>40.030000000000001</ele>
        <time>2023-09-04T11:05:13Z</time>
      </trkpt>
      <trkpt lat="50.951439002528787" lon="5.693101035431027">
        <ele>40.509999999999998</ele>
        <time>2023-09-04T11:05:14Z</time>
      </trkpt>
      <trkpt lat="50.951396003365517" lon="5.693207988515496">
        <ele>40.509999999999998</ele>
        <time>2023-09-04T11:05:15Z</time>
      </trkpt>
      <trkpt lat="50.951288966462016" lon="5.693474030122161">
        <ele>40.030000000000001</ele>
        <time>2023-09-04T11:05:22Z</time>
      </trkpt>
      <trkpt lat="50.951244961470366" lon="5.693533960729837">
        <ele>39.549999999999997</ele>
        <time>2023-09-04T11:05:27Z</time>
      </trkpt>
      <trkpt lat="50.951199028640985" lon="5.693528009578586">
        <ele>39.549999999999997</ele>
        <time>2023-09-04T11:05:28Z</time>
      </trkpt>
      <trkpt lat="50.951134990900755" lon="5.693519962951541">
        <ele>39.07</ele>
        <time>2023-09-04T11:05:29Z</time>
      </trkpt>
      <trkpt lat="50.95106097869575" lon="5.693512000143528">
        <ele>38.590000000000003</ele>
        <time>2023-09-04T11:05:30Z</time>
      </trkpt>
      <trkpt lat="50.950984032824636" lon="5.693505965173245">
        <ele>38.590000000000003</ele>
        <time>2023-09-04T11:05:31Z</time>
      </trkpt>
      <trkpt lat="50.950846988707781" lon="5.69349599070847">
        <ele>37.630000000000003</ele>
        <time>2023-09-04T11:05:33Z</time>
      </trkpt>
      <trkpt lat="50.950793009251356" lon="5.693490039557219">
        <ele>37.630000000000003</ele>
        <time>2023-09-04T11:05:34Z</time>
      </trkpt>
      <trkpt lat="50.950753027573228" lon="5.693484004586935">
        <ele>37.149999999999999</ele>
        <time>2023-09-04T11:05:35Z</time>
      </trkpt>
      <trkpt lat="50.950717991217971" lon="5.693477969616652">
        <ele>37.149999999999999</ele>
        <time>2023-09-04T11:05:36Z</time>
      </trkpt>
      <trkpt lat="50.950686978176236" lon="5.69347302429378">
        <ele>36.670000000000002</ele>
        <time>2023-09-04T11:05:37Z</time>
      </trkpt>
      <trkpt lat="50.950589999556541" lon="5.693458020687103">
        <ele>35.229999999999997</ele>
        <time>2023-09-04T11:05:41Z</time>
      </trkpt>
      <trkpt lat="50.950570972636342" lon="5.693455003201962">
        <ele>34.740000000000002</ele>
        <time>2023-09-04T11:05:42Z</time>
      </trkpt>
      <trkpt lat="50.950570972636342" lon="5.693455003201962">
        <ele>33.780000000000001</ele>
        <time>2023-09-04T11:05:54Z</time>
      </trkpt>
      <trkpt lat="50.950497966259718" lon="5.692973965778947">
        <ele>-15.24</ele>
        <time>2023-09-04T11:09:27Z</time>
      </trkpt>
      <trkpt lat="50.950516993179917" lon="5.693189967423677">
        <ele>28.98</ele>
        <time>2023-09-04T11:09:56Z</time>
      </trkpt>
      <trkpt lat="50.950555969029665" lon="5.693199019879103">
        <ele>27.050000000000001</ele>
        <time>2023-09-04T11:10:41Z</time>
      </trkpt>
      <trkpt lat="50.95054498873651" lon="5.69321502931416">
        <ele>28.02</ele>
        <time>2023-09-04T11:11:30Z</time>
      </trkpt>
      <trkpt lat="50.950542977079749" lon="5.693208994343877">
        <ele>28.02</ele>
        <time>2023-09-04T11:12:12Z</time>
      </trkpt>
      <trkpt lat="50.950422026216984" lon="5.693246964365244">
        <ele>28.98</ele>
        <time>2023-09-04T11:12:36Z</time>
      </trkpt>
      <trkpt lat="50.950330998748541" lon="5.693417033180594">
        <ele>29.940000000000001</ele>
        <time>2023-09-04T11:12:48Z</time>
      </trkpt>
      <trkpt lat="50.950268972665071" lon="5.693406974896789">
        <ele>29.460000000000001</ele>
        <time>2023-09-04T11:12:49Z</time>
      </trkpt>
      <trkpt lat="50.950182974338531" lon="5.693393982946873">
        <ele>28.98</ele>
        <time>2023-09-04T11:12:50Z</time>
      </trkpt>
      <trkpt lat="50.949197011068463" lon="5.693256016820669">
        <ele>28.98</ele>
        <time>2023-09-04T11:12:58Z</time>
      </trkpt>
      <trkpt lat="50.947388028725982" lon="5.693001039326191">
        <ele>31.379999999999999</ele>
        <time>2023-09-04T11:13:10Z</time>
      </trkpt>
      <trkpt lat="50.946414973586798" lon="5.692942030727863">
        <ele>32.340000000000003</ele>
        <time>2023-09-04T11:13:18Z</time>
      </trkpt>
      <trkpt lat="50.944801038131118" lon="5.692702978849411">
        <ele>32.82</ele>
        <time>2023-09-04T11:13:30Z</time>
      </trkpt>
      <trkpt lat="50.944044990465045" lon="5.692596025764942">
        <ele>34.740000000000002</ele>
        <time>2023-09-04T11:13:38Z</time>
      </trkpt>
      <trkpt lat="50.943940971046686" lon="5.692581022158265">
        <ele>35.229999999999997</ele>
        <time>2023-09-04T11:13:45Z</time>
      </trkpt>
      <trkpt lat="50.943896966055036" lon="5.692574987187982">
        <ele>35.229999999999997</ele>
        <time>2023-09-04T11:13:52Z</time>
      </trkpt>
      <trkpt lat="50.943836029618979" lon="5.692567024379969">
        <ele>35.229999999999997</ele>
        <time>2023-09-04T11:13:53Z</time>
      </trkpt>
      <trkpt lat="50.94313002191484" lon="5.692417994141579">
        <ele>35.710000000000001</ele>
        <time>2023-09-04T11:14:00Z</time>
      </trkpt>
      <trkpt lat="50.943051986396313" lon="5.69239997304976">
        <ele>35.710000000000001</ele>
        <time>2023-09-04T11:14:01Z</time>
      </trkpt>
      <trkpt lat="50.943018039688468" lon="5.692263012751937">
        <ele>35.710000000000001</ele>
        <time>2023-09-04T11:14:02Z</time>
      </trkpt>
      <trkpt lat="50.942956013604999" lon="5.692201992496848">
        <ele>35.710000000000001</ele>
        <time>2023-09-04T11:14:03Z</time>
      </trkpt>
      <trkpt lat="50.942869009450078" lon="5.692140972241759">
        <ele>35.710000000000001</ele>
        <time>2023-09-04T11:14:04Z</time>
      </trkpt>
      <trkpt lat="50.942802960053086" lon="5.692140972241759">
        <ele>36.189999999999998</ele>
        <time>2023-09-04T11:14:05Z</time>
      </trkpt>
      <trkpt lat="50.942726014181972" lon="5.692224036902189">
        <ele>36.670000000000002</ele>
        <time>2023-09-04T11:14:06Z</time>
      </trkpt>
      <trkpt lat="50.942685026675463" lon="5.692305006086826">
        <ele>37.149999999999999</ele>
        <time>2023-09-04T11:14:07Z</time>
      </trkpt>
      <trkpt lat="50.94265996478498" lon="5.692439032718539">
        <ele>37.149999999999999</ele>
        <time>2023-09-04T11:14:08Z</time>
      </trkpt>
      <trkpt lat="50.942686032503843" lon="5.692563001066446">
        <ele>37.630000000000003</ele>
        <time>2023-09-04T11:14:09Z</time>
      </trkpt>
      <trkpt lat="50.942719979211688" lon="5.692664002999663">
        <ele>37.630000000000003</ele>
        <time>2023-09-04T11:14:10Z</time>
      </trkpt>
      <trkpt lat="50.942798014730215" lon="5.692713959142566">
        <ele>37.630000000000003</ele>
        <time>2023-09-04T11:14:11Z</time>
      </trkpt>
      <trkpt lat="50.942870015278459" lon="5.692739021033049">
        <ele>37.630000000000003</ele>
        <time>2023-09-04T11:14:12Z</time>
      </trkpt>
      <trkpt lat="50.942946039140224" lon="5.692723011597991">
        <ele>37.630000000000003</ele>
        <time>2023-09-04T11:14:13Z</time>
      </trkpt>
      <trkpt lat="50.942960036918521" lon="5.692719994112849">
        <ele>37.630000000000003</ele>
        <time>2023-09-04T11:14:14Z</time>
      </trkpt>
      <trkpt lat="50.943121975287795" lon="5.692556966096163">
        <ele>37.630000000000003</ele>
        <time>2023-09-04T11:14:15Z</time>
      </trkpt>
      <trkpt lat="50.943224988877773" lon="5.692568030208349">
        <ele>37.630000000000003</ele>
        <time>2023-09-04T11:14:16Z</time>
      </trkpt>
      <trkpt lat="50.943335965275764" lon="5.692581022158265">
        <ele>37.149999999999999</ele>
        <time>2023-09-04T11:14:17Z</time>
      </trkpt>
      <trkpt lat="50.944559974595904" lon="5.692669032141566">
        <ele>33.780000000000001</ele>
        <time>2023-09-04T11:14:26Z</time>
      </trkpt>
      <trkpt lat="50.946152033284307" lon="5.692895008251071">
        <ele>32.340000000000003</ele>
        <time>2023-09-04T11:14:36Z</time>
      </trkpt>
      <trkpt lat="50.948709016665816" lon="5.693355007097125">
        <ele>32.340000000000003</ele>
        <time>2023-09-04T11:14:51Z</time>
      </trkpt>
      <trkpt lat="50.949809979647398" lon="5.693505965173245">
        <ele>33.299999999999997</ele>
        <time>2023-09-04T11:14:59Z</time>
      </trkpt>
      <trkpt lat="50.95067298039794" lon="5.6936239823699">
        <ele>33.780000000000001</ele>
        <time>2023-09-04T11:15:08Z</time>
      </trkpt>
      <trkpt lat="50.951287038624287" lon="5.693729007616639">
        <ele>32.82</ele>
        <time>2023-09-04T11:15:17Z</time>
      </trkpt>
      <trkpt lat="50.95149097032845" lon="5.69388197734952">
        <ele>31.859999999999999</ele>
        <time>2023-09-04T11:15:25Z</time>
      </trkpt>
      <trkpt lat="50.951521983370185" lon="5.693921959027648">
        <ele>32.340000000000003</ele>
        <time>2023-09-04T11:15:26Z</time>
      </trkpt>
      <trkpt lat="50.951590966433287" lon="5.693950960412622">
        <ele>32.340000000000003</ele>
        <time>2023-09-04T11:15:27Z</time>
      </trkpt>
      <trkpt lat="50.95163899473846" lon="5.693971998989582">
        <ele>32.340000000000003</ele>
        <time>2023-09-04T11:15:28Z</time>
      </trkpt>
      <trkpt lat="50.951698003336787" lon="5.693953977897763">
        <ele>32.340000000000003</ele>
        <time>2023-09-04T11:15:29Z</time>
      </trkpt>
      <trkpt lat="50.951744019985199" lon="5.693893963471055">
        <ele>32.340000000000003</ele>
        <time>2023-09-04T11:15:30Z</time>
      </trkpt>
      <trkpt lat="50.951787019148469" lon="5.69383897818625">
        <ele>32.340000000000003</ele>
        <time>2023-09-04T11:15:31Z</time>
      </trkpt>
      <trkpt lat="50.951817026361823" lon="5.693734958767891">
        <ele>32.340000000000003</ele>
        <time>2023-09-04T11:15:32Z</time>
      </trkpt>
      <trkpt lat="50.951806968078017" lon="5.693643009290099">
        <ele>32.340000000000003</ele>
        <time>2023-09-04T11:15:33Z</time>
      </trkpt>
      <trkpt lat="50.951793976128101" lon="5.693542007356882">
        <ele>32.340000000000003</ele>
        <time>2023-09-04T11:15:34Z</time>
      </trkpt>
      <trkpt lat="50.951776038855314" lon="5.693436982110143">
        <ele>32.340000000000003</ele>
        <time>2023-09-04T11:15:35Z</time>
      </trkpt>
      <trkpt lat="50.951750976964831" lon="5.69321402348578">
        <ele>32.340000000000003</ele>
        <time>2023-09-04T11:15:37Z</time>
      </trkpt>
      <trkpt lat="50.951736979186535" lon="5.69308502599597">
        <ele>32.340000000000003</ele>
        <time>2023-09-04T11:15:38Z</time>
      </trkpt>
      <trkpt lat="50.951837981119752" lon="5.692330989986658">
        <ele>32.82</ele>
        <time>2023-09-04T11:15:43Z</time>
      </trkpt>
      <trkpt lat="50.951885003596544" lon="5.691980961710215">
        <ele>32.340000000000003</ele>
        <time>2023-09-04T11:15:45Z</time>
      </trkpt>
      <trkpt lat="50.951950969174504" lon="5.691816005855799">
        <ele>31.859999999999999</ele>
        <time>2023-09-04T11:15:46Z</time>
      </trkpt>
      <trkpt lat="50.952033028006554" lon="5.691663036122918">
        <ele>31.859999999999999</ele>
        <time>2023-09-04T11:15:47Z</time>
      </trkpt>
      <trkpt lat="50.952137969434261" lon="5.691532026976347">
        <ele>31.379999999999999</ele>
        <time>2023-09-04T11:15:48Z</time>
      </trkpt>
      <trkpt lat="50.95224198885262" lon="5.691460026428103">
        <ele>31.379999999999999</ele>
        <time>2023-09-04T11:15:49Z</time>
      </trkpt>
      <trkpt lat="50.952364029362798" lon="5.691398000344634">
        <ele>31.379999999999999</ele>
        <time>2023-09-04T11:15:50Z</time>
      </trkpt>
      <trkpt lat="50.952485986053944" lon="5.691348966211081">
        <ele>31.859999999999999</ele>
        <time>2023-09-04T11:15:51Z</time>
      </trkpt>
      <trkpt lat="50.952618001028895" lon="5.691361036151648">
        <ele>31.859999999999999</ele>
        <time>2023-09-04T11:15:52Z</time>
      </trkpt>
      <trkpt lat="50.952742975205183" lon="5.691398000344634">
        <ele>32.340000000000003</ele>
        <time>2023-09-04T11:15:53Z</time>
      </trkpt>
      <trkpt lat="50.952869039028883" lon="5.691490033641458">
        <ele>32.82</ele>
        <time>2023-09-04T11:15:54Z</time>
      </trkpt>
      <trkpt lat="50.952989989891648" lon="5.691610984504223">
        <ele>32.82</ele>
        <time>2023-09-04T11:15:55Z</time>
      </trkpt>
      <trkpt lat="50.95309903845191" lon="5.691761020570993">
        <ele>33.780000000000001</ele>
        <time>2023-09-04T11:15:56Z</time>
      </trkpt>
      <trkpt lat="50.953172966837883" lon="5.691966963931918">
        <ele>34.259999999999998</ele>
        <time>2023-09-04T11:15:57Z</time>
      </trkpt>
      <trkpt lat="50.953242033720016" lon="5.692173996940255">
        <ele>34.740000000000002</ele>
        <time>2023-09-04T11:15:58Z</time>
      </trkpt>
      <trkpt lat="50.95327103510499" lon="5.69242000579834">
        <ele>35.710000000000001</ele>
        <time>2023-09-04T11:15:59Z</time>
      </trkpt>
      <trkpt lat="50.953286038711667" lon="5.692669032141566">
        <ele>36.189999999999998</ele>
        <time>2023-09-04T11:16:00Z</time>
      </trkpt>
      <trkpt lat="50.953300036489964" lon="5.692920992150903">
        <ele>36.670000000000002</ele>
        <time>2023-09-04T11:16:01Z</time>
      </trkpt>
      <trkpt lat="50.953315040096641" lon="5.693187033757567">
        <ele>37.149999999999999</ele>
        <time>2023-09-04T11:16:02Z</time>
      </trkpt>
      <trkpt lat="50.953312022611499" lon="5.693481992930174">
        <ele>38.109999999999999</ele>
        <time>2023-09-04T11:16:03Z</time>
      </trkpt>
      <trkpt lat="50.953113958239555" lon="5.696062026545405">
        <ele>39.549999999999997</ele>
        <time>2023-09-04T11:16:11Z</time>
      </trkpt>
      <trkpt lat="50.952869039028883" lon="5.699152015149593">
        <ele>40.509999999999998</ele>
        <time>2023-09-04T11:16:19Z</time>
      </trkpt>
      <trkpt lat="50.952537031844258" lon="5.703582018613815">
        <ele>43.880000000000003</ele>
        <time>2023-09-04T11:16:29Z</time>
      </trkpt>
      <trkpt lat="50.952057000249624" lon="5.709934998303652">
        <ele>47.240000000000002</ele>
        <time>2023-09-04T11:16:43Z</time>
      </trkpt>
      <trkpt lat="50.951667996123433" lon="5.715262033045292">
        <ele>46.280000000000001</ele>
        <time>2023-09-04T11:16:55Z</time>
      </trkpt>
      <trkpt lat="50.9514469653368" lon="5.718254037201405">
        <ele>44.840000000000003</ele>
        <time>2023-09-04T11:17:04Z</time>
      </trkpt>
      <trkpt lat="50.951271029189229" lon="5.722077023237944">
        <ele>43.399999999999999</ele>
        <time>2023-09-04T11:17:16Z</time>
      </trkpt>
      <trkpt lat="50.951221995055676" lon="5.72589498013258">
        <ele>42.920000000000002</ele>
        <time>2023-09-04T11:17:30Z</time>
      </trkpt>
      <trkpt lat="50.951428022235632" lon="5.729456031695008">
        <ele>41.469999999999999</ele>
        <time>2023-09-04T11:17:43Z</time>
      </trkpt>
      <trkpt lat="50.951780984178185" lon="5.732694966718555">
        <ele>40.509999999999998</ele>
        <time>2023-09-04T11:17:55Z</time>
      </trkpt>
      <trkpt lat="50.952452039346099" lon="5.736950039863586">
        <ele>42.920000000000002</ele>
        <time>2023-09-04T11:18:11Z</time>
      </trkpt>
      <trkpt lat="50.953415036201477" lon="5.741044012829661">
        <ele>44.840000000000003</ele>
        <time>2023-09-04T11:18:27Z</time>
      </trkpt>
      <trkpt lat="50.954367974773049" lon="5.744231985881925">
        <ele>45.799999999999997</ele>
        <time>2023-09-04T11:18:40Z</time>
      </trkpt>
      <trkpt lat="50.95540196634829" lon="5.747098010033369">
        <ele>48.68</ele>
        <time>2023-09-04T11:18:52Z</time>
      </trkpt>
      <trkpt lat="50.956795960664749" lon="5.750549007207155">
        <ele>50.609999999999999</ele>
        <time>2023-09-04T11:19:07Z</time>
      </trkpt>
      <trkpt lat="50.958031034097075" lon="5.753514021635056">
        <ele>53.490000000000002</ele>
        <time>2023-09-04T11:19:20Z</time>
      </trkpt>
      <trkpt lat="50.959824007004499" lon="5.757846962660551">
        <ele>53.969999999999999</ele>
        <time>2023-09-04T11:19:39Z</time>
      </trkpt>
      <trkpt lat="50.960854981094599" lon="5.760368993505836">
        <ele>53.009999999999998</ele>
        <time>2023-09-04T11:19:50Z</time>
      </trkpt>
      <trkpt lat="50.96257402561605" lon="5.764488028362393">
        <ele>52.530000000000001</ele>
        <time>2023-09-04T11:20:08Z</time>
      </trkpt>
      <trkpt lat="50.963464016094804" lon="5.76665299013257">
        <ele>53.969999999999999</ele>
        <time>2023-09-04T11:20:16Z</time>
      </trkpt>
      <trkpt lat="50.964713003486395" lon="5.770006002858281">
        <ele>59.740000000000002</ele>
        <time>2023-09-04T11:20:27Z</time>
      </trkpt>
      <trkpt lat="50.965720005333424" lon="5.7734190300107">
        <ele>61.18</ele>
        <time>2023-09-04T11:20:37Z</time>
      </trkpt>
      <trkpt lat="50.966300033032894" lon="5.776258986443281">
        <ele>62.140000000000001</ele>
        <time>2023-09-04T11:20:45Z</time>
      </trkpt>
      <trkpt lat="50.966856004670262" lon="5.779979964718223">
        <ele>66.950000000000003</ele>
        <time>2023-09-04T11:20:57Z</time>
      </trkpt>
      <trkpt lat="50.967231011018157" lon="5.784609960392118">
        <ele>69.829999999999998</ele>
        <time>2023-09-04T11:21:09Z</time>
      </trkpt>
      <trkpt lat="50.967210978269577" lon="5.787442037835717">
        <ele>68.870000000000005</ele>
        <time>2023-09-04T11:21:17Z</time>
      </trkpt>
      <trkpt lat="50.966990031301975" lon="5.788970980793238">
        <ele>68.390000000000001</ele>
        <time>2023-09-04T11:21:22Z</time>
      </trkpt>
      <trkpt lat="50.966925993561745" lon="5.789225958287716">
        <ele>68.870000000000005</ele>
        <time>2023-09-04T11:21:23Z</time>
      </trkpt>
      <trkpt lat="50.966832032427192" lon="5.789424022659659">
        <ele>68.870000000000005</ele>
        <time>2023-09-04T11:21:24Z</time>
      </trkpt>
      <trkpt lat="50.966729018837214" lon="5.789594007655978">
        <ele>68.870000000000005</ele>
        <time>2023-09-04T11:21:25Z</time>
      </trkpt>
      <trkpt lat="50.966617036610842" lon="5.789727028459311">
        <ele>68.390000000000001</ele>
        <time>2023-09-04T11:21:26Z</time>
      </trkpt>
      <trkpt lat="50.966489966958761" lon="5.789818977937102">
        <ele>68.390000000000001</ele>
        <time>2023-09-04T11:21:27Z</time>
      </trkpt>
      <trkpt lat="50.966359963640571" lon="5.789844039827585">
        <ele>68.390000000000001</ele>
        <time>2023-09-04T11:21:28Z</time>
      </trkpt>
      <trkpt lat="50.96622996032238" lon="5.789815960451961">
        <ele>68.390000000000001</ele>
        <time>2023-09-04T11:21:29Z</time>
      </trkpt>
      <trkpt lat="50.966096017509699" lon="5.789787964895368">
        <ele>68.390000000000001</ele>
        <time>2023-09-04T11:21:30Z</time>
      </trkpt>
      <trkpt lat="50.965967020019889" lon="5.789708001539111">
        <ele>67.909999999999997</ele>
        <time>2023-09-04T11:21:31Z</time>
      </trkpt>
      <trkpt lat="50.965844979509711" lon="5.789573974907398">
        <ele>67.909999999999997</ele>
        <time>2023-09-04T11:21:32Z</time>
      </trkpt>
      <trkpt lat="50.965744983404875" lon="5.789416981860995">
        <ele>67.909999999999997</ele>
        <time>2023-09-04T11:21:33Z</time>
      </trkpt>
      <trkpt lat="50.965659990906715" lon="5.789222018793225">
        <ele>67.909999999999997</ele>
        <time>2023-09-04T11:21:34Z</time>
      </trkpt>
      <trkpt lat="50.965624032542109" lon="5.788981961086392">
        <ele>67.430000000000007</ele>
        <time>2023-09-04T11:21:35Z</time>
      </trkpt>
      <trkpt lat="50.965601988136768" lon="5.788745004683733">
        <ele>67.430000000000007</ele>
        <time>2023-09-04T11:21:36Z</time>
      </trkpt>
      <trkpt lat="50.965617997571826" lon="5.788506036624312">
        <ele>66.950000000000003</ele>
        <time>2023-09-04T11:21:37Z</time>
      </trkpt>
      <trkpt lat="50.965683963149786" lon="5.788291962817311">
        <ele>66.469999999999999</ele>
        <time>2023-09-04T11:21:38Z</time>
      </trkpt>
      <trkpt lat="50.965758981183171" lon="5.788085013628006">
        <ele>65.989999999999995</ele>
        <time>2023-09-04T11:21:39Z</time>
      </trkpt>
      <trkpt lat="50.965866018086672" lon="5.7879229914397">
        <ele>65.510000000000005</ele>
        <time>2023-09-04T11:21:40Z</time>
      </trkpt>
      <trkpt lat="50.965986968949437" lon="5.7877710275352">
        <ele>65.030000000000001</ele>
        <time>2023-09-04T11:21:41Z</time>
      </trkpt>
      <trkpt lat="50.966138010844588" lon="5.787725010886788">
        <ele>64.069999999999993</ele>
        <time>2023-09-04T11:21:42Z</time>
      </trkpt>
      <trkpt lat="50.966295003890991" lon="5.787676982581615">
        <ele>64.069999999999993</ele>
        <time>2023-09-04T11:21:43Z</time>
      </trkpt>
      <trkpt lat="50.966459959745407" lon="5.787628032267094">
        <ele>63.579999999999998</ele>
        <time>2023-09-04T11:21:44Z</time>
      </trkpt>
      <trkpt lat="50.966631034389138" lon="5.787615962326527">
        <ele>63.579999999999998</ele>
        <time>2023-09-04T11:21:45Z</time>
      </trkpt>
      <trkpt lat="50.967165967449546" lon="5.787668013945222">
        <ele>63.579999999999998</ele>
        <time>2023-09-04T11:21:48Z</time>
      </trkpt>
      <trkpt lat="50.967684974893928" lon="5.787724005058408">
        <ele>64.549999999999997</ele>
        <time>2023-09-04T11:21:51Z</time>
      </trkpt>
      <trkpt lat="50.96992202103138" lon="5.787873035296798">
        <ele>64.069999999999993</ele>
        <time>2023-09-04T11:22:02Z</time>
      </trkpt>
      <trkpt lat="50.972805982455611" lon="5.787673965096474">
        <ele>64.069999999999993</ele>
        <time>2023-09-04T11:22:14Z</time>
      </trkpt>
      <trkpt lat="50.974772041663527" lon="5.787074994295836">
        <ele>64.069999999999993</ele>
        <time>2023-09-04T11:22:22Z</time>
      </trkpt>
      <trkpt lat="50.977259958162904" lon="5.785791976377368">
        <ele>62.619999999999997</ele>
        <time>2023-09-04T11:22:33Z</time>
      </trkpt>
      <trkpt lat="50.979844015091658" lon="5.78403496183455">
        <ele>60.700000000000003</ele>
        <time>2023-09-04T11:22:45Z</time>
      </trkpt>
      <trkpt lat="50.982322040945292" lon="5.78306601382792">
        <ele>59.740000000000002</ele>
        <time>2023-09-04T11:22:56Z</time>
      </trkpt>
      <trkpt lat="50.984652964398265" lon="5.782821010798216">
        <ele>58.299999999999997</ele>
        <time>2023-09-04T11:23:06Z</time>
      </trkpt>
      <trkpt lat="50.987209025770426" lon="5.783265000209212">
        <ele>57.82</ele>
        <time>2023-09-04T11:23:17Z</time>
      </trkpt>
      <trkpt lat="50.989500973373652" lon="5.784309972077608">
        <ele>57.82</ele>
        <time>2023-09-04T11:23:27Z</time>
      </trkpt>
      <trkpt lat="50.992937972769141" lon="5.786014012992382">
        <ele>51.090000000000003</ele>
        <time>2023-09-04T11:23:42Z</time>
      </trkpt>
      <trkpt lat="50.996367009356618" lon="5.787698021158576">
        <ele>46.759999999999998</ele>
        <time>2023-09-04T11:23:57Z</time>
      </trkpt>
      <trkpt lat="50.998869007453322" lon="5.788927981629968">
        <ele>45.32</ele>
        <time>2023-09-04T11:24:08Z</time>
      </trkpt>
      <trkpt lat="51.001603016629815" lon="5.790289035066962">
        <ele>43.880000000000003</ele>
        <time>2023-09-04T11:24:20Z</time>
      </trkpt>
      <trkpt lat="51.004047011956573" lon="5.791866006329656">
        <ele>43.880000000000003</ele>
        <time>2023-09-04T11:24:31Z</time>
      </trkpt>
      <trkpt lat="51.006312975659966" lon="5.793967014178634">
        <ele>42.920000000000002</ele>
        <time>2023-09-04T11:24:42Z</time>
      </trkpt>
      <trkpt lat="51.009037010371685" lon="5.797123974189162">
        <ele>42.920000000000002</ele>
        <time>2023-09-04T11:24:56Z</time>
      </trkpt>
      <trkpt lat="51.012119958177209" lon="5.800739005208015">
        <ele>42.439999999999998</ele>
        <time>2023-09-04T11:25:12Z</time>
      </trkpt>
      <trkpt lat="51.015212964266539" lon="5.804372979328036">
        <ele>41.950000000000003</ele>
        <time>2023-09-04T11:25:28Z</time>
      </trkpt>
      <trkpt lat="51.01772703230381" lon="5.807292982935906">
        <ele>41.950000000000003</ele>
        <time>2023-09-04T11:25:41Z</time>
      </trkpt>
      <trkpt lat="51.020233975723386" lon="5.810237964615226">
        <ele>40.509999999999998</ele>
        <time>2023-09-04T11:25:54Z</time>
      </trkpt>
      <trkpt lat="51.02254101075232" lon="5.812958981841803">
        <ele>39.549999999999997</ele>
        <time>2023-09-04T11:26:06Z</time>
      </trkpt>
      <trkpt lat="51.026002988219261" lon="5.817033005878329">
        <ele>39.07</ele>
        <time>2023-09-04T11:26:24Z</time>
      </trkpt>
      <trkpt lat="51.029339991509914" lon="5.820766976103187">
        <ele>33.780000000000001</ele>
        <time>2023-09-04T11:26:41Z</time>
      </trkpt>
      <trkpt lat="51.031695976853371" lon="5.822656005620956">
        <ele>31.859999999999999</ele>
        <time>2023-09-04T11:26:52Z</time>
      </trkpt>
      <trkpt lat="51.034191017970443" lon="5.824012029916048">
        <ele>29.940000000000001</ele>
        <time>2023-09-04T11:27:03Z</time>
      </trkpt>
      <trkpt lat="51.036737021058798" lon="5.824876958504319">
        <ele>29.460000000000001</ele>
        <time>2023-09-04T11:27:14Z</time>
      </trkpt>
      <trkpt lat="51.038212990388274" lon="5.825558993965387">
        <ele>31.379999999999999</ele>
        <time>2023-09-04T11:27:22Z</time>
      </trkpt>
      <trkpt lat="51.039284029975533" lon="5.8260159753263">
        <ele>34.259999999999998</ele>
        <time>2023-09-04T11:27:30Z</time>
      </trkpt>
      <trkpt lat="51.039444962516427" lon="5.826057968661189">
        <ele>34.259999999999998</ele>
        <time>2023-09-04T11:27:32Z</time>
      </trkpt>
      <trkpt lat="51.039505982771516" lon="5.826074983924627">
        <ele>34.259999999999998</ele>
        <time>2023-09-04T11:27:33Z</time>
      </trkpt>
      <trkpt lat="51.039593992754817" lon="5.826248992234469">
        <ele>34.259999999999998</ele>
        <time>2023-09-04T11:27:34Z</time>
      </trkpt>
      <trkpt lat="51.039586029946804" lon="5.826348988339305">
        <ele>34.259999999999998</ele>
        <time>2023-09-04T11:27:35Z</time>
      </trkpt>
      <trkpt lat="51.039575971662998" lon="5.826478991657496">
        <ele>33.780000000000001</ele>
        <time>2023-09-04T11:27:36Z</time>
      </trkpt>
      <trkpt lat="51.039562979713082" lon="5.826649982482195">
        <ele>33.780000000000001</ele>
        <time>2023-09-04T11:27:37Z</time>
      </trkpt>
      <trkpt lat="51.039497014135122" lon="5.828217985108495">
        <ele>33.299999999999997</ele>
        <time>2023-09-04T11:27:44Z</time>
      </trkpt>
      <trkpt lat="51.039197025820613" lon="5.83108501508832">
        <ele>30.420000000000002</ele>
        <time>2023-09-04T11:27:55Z</time>
      </trkpt>
      <trkpt lat="51.038898965343833" lon="5.833000028505921">
        <ele>30.899999999999999</ele>
        <time>2023-09-04T11:28:04Z</time>
      </trkpt>
      <trkpt lat="51.038726968690753" lon="5.834000995382667">
        <ele>30.899999999999999</ele>
        <time>2023-09-04T11:28:11Z</time>
      </trkpt>
      <trkpt lat="51.038678018376231" lon="5.83428799174726">
        <ele>31.859999999999999</ele>
        <time>2023-09-04T11:28:19Z</time>
      </trkpt>
      <trkpt lat="51.038581961765885" lon="5.83482401445508">
        <ele>32.82</ele>
        <time>2023-09-04T11:28:25Z</time>
      </trkpt>
      <trkpt lat="51.0382030159235" lon="5.836105020716786">
        <ele>33.299999999999997</ele>
        <time>2023-09-04T11:28:32Z</time>
      </trkpt>
      <trkpt lat="51.037462977692485" lon="5.837351996451616">
        <ele>32.340000000000003</ele>
        <time>2023-09-04T11:28:38Z</time>
      </trkpt>
      <trkpt lat="51.037288969382644" lon="5.83751100115478">
        <ele>32.340000000000003</ele>
        <time>2023-09-04T11:28:39Z</time>
      </trkpt>
      <trkpt lat="51.03710699826479" lon="5.837647039443255">
        <ele>31.859999999999999</ele>
        <time>2023-09-04T11:28:40Z</time>
      </trkpt>
      <trkpt lat="51.035850970074534" lon="5.838810028508306">
        <ele>32.82</ele>
        <time>2023-09-04T11:28:47Z</time>
      </trkpt>
      <trkpt lat="51.034023966640234" lon="5.841519981622696">
        <ele>35.710000000000001</ele>
        <time>2023-09-04T11:28:59Z</time>
      </trkpt>
      <trkpt lat="51.032046005129814" lon="5.844840975478292">
        <ele>36.189999999999998</ele>
        <time>2023-09-04T11:29:14Z</time>
      </trkpt>
      <trkpt lat="51.030196035280824" lon="5.848375959321857">
        <ele>34.740000000000002</ele>
        <time>2023-09-04T11:29:29Z</time>
      </trkpt>
      <trkpt lat="51.028951993212104" lon="5.851470977067947">
        <ele>35.229999999999997</ele>
        <time>2023-09-04T11:29:41Z</time>
      </trkpt>
      <trkpt lat="51.028649993240833" lon="5.852604964748025">
        <ele>32.340000000000003</ele>
        <time>2023-09-04T11:29:45Z</time>
      </trkpt>
      <trkpt lat="51.028523007407784" lon="5.853189015761018">
        <ele>31.379999999999999</ele>
        <time>2023-09-04T11:29:47Z</time>
      </trkpt>
      <trkpt lat="51.028154036030173" lon="5.855881031602621">
        <ele>28.5</ele>
        <time>2023-09-04T11:29:56Z</time>
      </trkpt>
      <trkpt lat="51.02808304131031" lon="5.857109986245632">
        <ele>28.5</ele>
        <time>2023-09-04T11:30:00Z</time>
      </trkpt>
      <trkpt lat="51.028244979679585" lon="5.860443972051144">
        <ele>28.5</ele>
        <time>2023-09-04T11:30:11Z</time>
      </trkpt>
      <trkpt lat="51.02853499352932" lon="5.862825019285083">
        <ele>30.420000000000002</ele>
        <time>2023-09-04T11:30:19Z</time>
      </trkpt>
      <trkpt lat="51.029211999848485" lon="5.866318009793758">
        <ele>35.710000000000001</ele>
        <time>2023-09-04T11:30:31Z</time>
      </trkpt>
      <trkpt lat="51.03020902723074" lon="5.870937025174499">
        <ele>36.189999999999998</ele>
        <time>2023-09-04T11:30:47Z</time>
      </trkpt>
      <trkpt lat="51.031161965802312" lon="5.875244988128543">
        <ele>38.590000000000003</ele>
        <time>2023-09-04T11:31:02Z</time>
      </trkpt>
      <trkpt lat="51.031937040388584" lon="5.87901902385056">
        <ele>42.920000000000002</ele>
        <time>2023-09-04T11:31:15Z</time>
      </trkpt>
      <trkpt lat="51.032153964042664" lon="5.881753033027053">
        <ele>43.399999999999999</ele>
        <time>2023-09-04T11:31:23Z</time>
      </trkpt>
      <trkpt lat="51.032099984586239" lon="5.884787030518055">
        <ele>39.549999999999997</ele>
        <time>2023-09-04T11:31:31Z</time>
      </trkpt>
      <trkpt lat="51.03160897269845" lon="5.888120010495186">
        <ele>38.590000000000003</ele>
        <time>2023-09-04T11:31:40Z</time>
      </trkpt>
      <trkpt lat="51.03072602301836" lon="5.891249980777502">
        <ele>37.630000000000003</ele>
        <time>2023-09-04T11:31:49Z</time>
      </trkpt>
      <trkpt lat="51.029306966811419" lon="5.894281966611743">
        <ele>38.590000000000003</ele>
        <time>2023-09-04T11:31:59Z</time>
      </trkpt>
      <trkpt lat="51.027234038338065" lon="5.897431969642639">
        <ele>40.030000000000001</ele>
        <time>2023-09-04T11:32:11Z</time>
      </trkpt>
      <trkpt lat="51.024687029421329" lon="5.901460982859135">
        <ele>42.920000000000002</ele>
        <time>2023-09-04T11:32:26Z</time>
      </trkpt>
      <trkpt lat="51.022349987179041" lon="5.905771041288972">
        <ele>45.32</ele>
        <time>2023-09-04T11:32:41Z</time>
      </trkpt>
      <trkpt lat="51.020050998777151" lon="5.9106479678303">
        <ele>46.280000000000001</ele>
        <time>2023-09-04T11:32:57Z</time>
      </trkpt>
      <trkpt lat="51.019327975809574" lon="5.912254024296999">
        <ele>45.32</ele>
        <time>2023-09-04T11:33:03Z</time>
      </trkpt>
      <trkpt lat="51.019205013290048" lon="5.912349997088313">
        <ele>45.799999999999997</ele>
        <time>2023-09-04T11:33:04Z</time>
      </trkpt>
      <trkpt lat="51.019104011356831" lon="5.912402970716357">
        <ele>45.799999999999997</ele>
        <time>2023-09-04T11:33:05Z</time>
      </trkpt>
      <trkpt lat="51.018966967239976" lon="5.912398025393486">
        <ele>45.799999999999997</ele>
        <time>2023-09-04T11:33:06Z</time>
      </trkpt>
      <trkpt lat="51.018830006942153" lon="5.912391990423203">
        <ele>46.280000000000001</ele>
        <time>2023-09-04T11:33:07Z</time>
      </trkpt>
      <trkpt lat="51.018687011674047" lon="5.9123869612813">
        <ele>46.280000000000001</ele>
        <time>2023-09-04T11:33:08Z</time>
      </trkpt>
      <trkpt lat="51.018528006970882" lon="5.912421997636557">
        <ele>46.759999999999998</ele>
        <time>2023-09-04T11:33:09Z</time>
      </trkpt>
      <trkpt lat="51.018392974510789" lon="5.912530040368438">
        <ele>47.240000000000002</ele>
        <time>2023-09-04T11:33:10Z</time>
      </trkpt>
      <trkpt lat="51.018255008384585" lon="5.912640010938048">
        <ele>47.240000000000002</ele>
        <time>2023-09-04T11:33:11Z</time>
      </trkpt>
      <trkpt lat="51.018104972317815" lon="5.912746964022517">
        <ele>47.719999999999999</ele>
        <time>2023-09-04T11:33:12Z</time>
      </trkpt>
      <trkpt lat="51.017713034525514" lon="5.913065979257226">
        <ele>48.68</ele>
        <time>2023-09-04T11:33:17Z</time>
      </trkpt>
      <trkpt lat="51.017591999843717" lon="5.912982998415828">
        <ele>49.159999999999997</ele>
        <time>2023-09-04T11:33:18Z</time>
      </trkpt>
      <trkpt lat="51.017570039257407" lon="5.912904040887952">
        <ele>49.159999999999997</ele>
        <time>2023-09-04T11:33:19Z</time>
      </trkpt>
      <trkpt lat="51.017538020387292" lon="5.912788035348058">
        <ele>49.649999999999999</ele>
        <time>2023-09-04T11:33:20Z</time>
      </trkpt>
      <trkpt lat="51.017497032880783" lon="5.912640010938048">
        <ele>49.649999999999999</ele>
        <time>2023-09-04T11:33:21Z</time>
      </trkpt>
      <trkpt lat="51.016980959102511" lon="5.911308964714408">
        <ele>47.719999999999999</ele>
        <time>2023-09-04T11:33:28Z</time>
      </trkpt>
      <trkpt lat="51.015982003882527" lon="5.909262020140886">
        <ele>46.759999999999998</ele>
        <time>2023-09-04T11:33:38Z</time>
      </trkpt>
      <trkpt lat="51.015721997246146" lon="5.908749969676137">
        <ele>46.280000000000001</ele>
        <time>2023-09-04T11:33:41Z</time>
      </trkpt>
      <trkpt lat="51.015651002526283" lon="5.908608986064792">
        <ele>46.280000000000001</ele>
        <time>2023-09-04T11:33:42Z</time>
      </trkpt>
      <trkpt lat="51.015587970614433" lon="5.908436989411712">
        <ele>46.759999999999998</ele>
        <time>2023-09-04T11:33:43Z</time>
      </trkpt>
      <trkpt lat="51.015572967007756" lon="5.908286031335592">
        <ele>46.759999999999998</ele>
        <time>2023-09-04T11:33:44Z</time>
      </trkpt>
      <trkpt lat="51.015584031119943" lon="5.908147981390357">
        <ele>47.240000000000002</ele>
        <time>2023-09-04T11:33:45Z</time>
      </trkpt>
      <trkpt lat="51.015591993927956" lon="5.908034993335605">
        <ele>47.719999999999999</ele>
        <time>2023-09-04T11:33:46Z</time>
      </trkpt>
      <trkpt lat="51.015646979212761" lon="5.907918987795711">
        <ele>48.200000000000003</ele>
        <time>2023-09-04T11:33:47Z</time>
      </trkpt>
      <trkpt lat="51.015723003074527" lon="5.907790996134281">
        <ele>48.200000000000003</ele>
        <time>2023-09-04T11:33:48Z</time>
      </trkpt>
      <trkpt lat="51.015807995572686" lon="5.907721007242799">
        <ele>48.200000000000003</ele>
        <time>2023-09-04T11:33:49Z</time>
      </trkpt>
      <trkpt lat="51.016617016866803" lon="5.906982980668545">
        <ele>47.719999999999999</ele>
        <time>2023-09-04T11:33:55Z</time>
      </trkpt>
      <trkpt lat="51.01781495846808" lon="5.905262008309364">
        <ele>46.280000000000001</ele>
        <time>2023-09-04T11:34:03Z</time>
      </trkpt>
      <trkpt lat="51.018510991707444" lon="5.903401980176568">
        <ele>45.32</ele>
        <time>2023-09-04T11:34:10Z</time>
      </trkpt>
      <trkpt lat="51.018680976703763" lon="5.902777025476098">
        <ele>45.32</ele>
        <time>2023-09-04T11:34:14Z</time>
      </trkpt>
      <trkpt lat="51.018835036084056" lon="5.902683986350894">
        <ele>45.32</ele>
        <time>2023-09-04T11:34:15Z</time>
      </trkpt>
      <trkpt lat="51.018848028033972" lon="5.902636041864753">
        <ele>45.32</ele>
        <time>2023-09-04T11:34:16Z</time>
      </trkpt>
      <trkpt lat="51.018875017762184" lon="5.902540991082788">
        <ele>45.32</ele>
        <time>2023-09-04T11:34:17Z</time>
      </trkpt>
      <trkpt lat="51.018851967528462" lon="5.902431020513177">
        <ele>45.32</ele>
        <time>2023-09-04T11:34:18Z</time>
      </trkpt>
      <trkpt lat="51.018842998892069" lon="5.902292970567942">
        <ele>45.32</ele>
        <time>2023-09-04T11:34:19Z</time>
      </trkpt>
      <trkpt lat="51.018864037469029" lon="5.902140000835061">
        <ele>45.32</ele>
        <time>2023-09-04T11:34:20Z</time>
      </trkpt>
      <trkpt lat="51.018892033025622" lon="5.901958029717207">
        <ele>45.32</ele>
        <time>2023-09-04T11:34:21Z</time>
      </trkpt>
      <trkpt lat="51.018923968076706" lon="5.901757031679153">
        <ele>45.32</ele>
        <time>2023-09-04T11:34:22Z</time>
      </trkpt>
      <trkpt lat="51.01925496943295" lon="5.899631967768073">
        <ele>44.840000000000003</ele>
        <time>2023-09-04T11:34:31Z</time>
      </trkpt>
      <trkpt lat="51.019379021599889" lon="5.898843985050917">
        <ele>43.399999999999999</ele>
        <time>2023-09-04T11:34:36Z</time>
      </trkpt>
      <trkpt lat="51.019393019378185" lon="5.898756980895996">
        <ele>43.399999999999999</ele>
        <time>2023-09-04T11:34:38Z</time>
      </trkpt>
      <trkpt lat="51.019438030198216" lon="5.89872102253139">
        <ele>42.920000000000002</ele>
        <time>2023-09-04T11:34:39Z</time>
      </trkpt>
      <trkpt lat="51.019509024918079" lon="5.898626977577806">
        <ele>42.920000000000002</ele>
        <time>2023-09-04T11:34:40Z</time>
      </trkpt>
      <trkpt lat="51.019521011039615" lon="5.898564029484987">
        <ele>42.439999999999998</ele>
        <time>2023-09-04T11:34:41Z</time>
      </trkpt>
      <trkpt lat="51.019521011039615" lon="5.898564029484987">
        <ele>42.439999999999998</ele>
        <time>2023-09-04T11:34:42Z</time>
      </trkpt>
      <trkpt lat="51.019454961642623" lon="5.898413993418217">
        <ele>41.950000000000003</ele>
        <time>2023-09-04T11:34:43Z</time>
      </trkpt>
      <trkpt lat="51.01944699883461" lon="5.898260017856956">
        <ele>41.950000000000003</ele>
        <time>2023-09-04T11:34:44Z</time>
      </trkpt>
      <trkpt lat="51.019458984956145" lon="5.898152980953455">
        <ele>41.950000000000003</ele>
        <time>2023-09-04T11:34:45Z</time>
      </trkpt>
      <trkpt lat="51.019471976906061" lon="5.89803303591907">
        <ele>41.950000000000003</ele>
        <time>2023-09-04T11:34:46Z</time>
      </trkpt>
      <trkpt lat="51.019485974684358" lon="5.897898003458977">
        <ele>41.469999999999999</ele>
        <time>2023-09-04T11:34:47Z</time>
      </trkpt>
      <trkpt lat="51.019656965509057" lon="5.896609034389257">
        <ele>41.469999999999999</ele>
        <time>2023-09-04T11:34:53Z</time>
      </trkpt>
      <trkpt lat="51.020088968798518" lon="5.893903020769358">
        <ele>43.399999999999999</ele>
        <time>2023-09-04T11:35:03Z</time>
      </trkpt>
      <trkpt lat="51.020764969289303" lon="5.891473023220897">
        <ele>40.509999999999998</ele>
        <time>2023-09-04T11:35:12Z</time>
      </trkpt>
      <trkpt lat="51.021539960056543" lon="5.889624981209636">
        <ele>39.07</ele>
        <time>2023-09-04T11:35:21Z</time>
      </trkpt>
      <trkpt lat="51.022794982418418" lon="5.887564038857818">
        <ele>37.630000000000003</ele>
        <time>2023-09-04T11:35:31Z</time>
      </trkpt>
      <trkpt lat="51.024150000885129" lon="5.886041969060898">
        <ele>34.259999999999998</ele>
        <time>2023-09-04T11:35:40Z</time>
      </trkpt>
      <trkpt lat="51.025750022381544" lon="5.884918961673975">
        <ele>31.379999999999999</ele>
        <time>2023-09-04T11:35:49Z</time>
      </trkpt>
      <trkpt lat="51.02765497751534" lon="5.884251007810235">
        <ele>30.420000000000002</ele>
        <time>2023-09-04T11:35:58Z</time>
      </trkpt>
      <trkpt lat="51.0292440187186" lon="5.884211026132107">
        <ele>30.420000000000002</ele>
        <time>2023-09-04T11:36:06Z</time>
      </trkpt>
      <trkpt lat="51.032193023711443" lon="5.884642023593187">
        <ele>36.189999999999998</ele>
        <time>2023-09-04T11:36:22Z</time>
      </trkpt>
      <trkpt lat="51.033844007179141" lon="5.884428033605218">
        <ele>32.82</ele>
        <time>2023-09-04T11:36:30Z</time>
      </trkpt>
      <trkpt lat="51.035445034503937" lon="5.88357500731945">
        <ele>28.98</ele>
        <time>2023-09-04T11:36:39Z</time>
      </trkpt>
      <trkpt lat="51.036545997485518" lon="5.882513020187616">
        <ele>30.420000000000002</ele>
        <time>2023-09-04T11:36:47Z</time>
      </trkpt>
      <trkpt lat="51.037486027926207" lon="5.881048031151295">
        <ele>30.899999999999999</ele>
        <time>2023-09-04T11:36:56Z</time>
      </trkpt>
      <trkpt lat="51.038582967594266" lon="5.878919027745724">
        <ele>33.299999999999997</ele>
        <time>2023-09-04T11:37:07Z</time>
      </trkpt>
      <trkpt lat="51.039607990533113" lon="5.876781977713108">
        <ele>33.780000000000001</ele>
        <time>2023-09-04T11:37:17Z</time>
      </trkpt>
      <trkpt lat="51.04088899679482" lon="5.874265981838107">
        <ele>31.859999999999999</ele>
        <time>2023-09-04T11:37:28Z</time>
      </trkpt>
      <trkpt lat="51.042290031909943" lon="5.872195987030864">
        <ele>31.859999999999999</ele>
        <time>2023-09-04T11:37:39Z</time>
      </trkpt>
      <trkpt lat="51.043733982369304" lon="5.870586996898055">
        <ele>30.420000000000002</ele>
        <time>2023-09-04T11:37:48Z</time>
      </trkpt>
      <trkpt lat="51.045484961941838" lon="5.869124019518495">
        <ele>30.899999999999999</ele>
        <time>2023-09-04T11:37:57Z</time>
      </trkpt>
      <trkpt lat="51.04742000810802" lon="5.868080975487828">
        <ele>29.940000000000001</ele>
        <time>2023-09-04T11:38:07Z</time>
      </trkpt>
      <trkpt lat="51.049294034019113" lon="5.867443028837442">
        <ele>28.98</ele>
        <time>2023-09-04T11:38:17Z</time>
      </trkpt>
      <trkpt lat="51.049961987882853" lon="5.867305984720588">
        <ele>28.02</ele>
        <time>2023-09-04T11:38:23Z</time>
      </trkpt>
      <trkpt lat="51.05006399564445" lon="5.86728603579104">
        <ele>27.530000000000001</ele>
        <time>2023-09-04T11:38:26Z</time>
      </trkpt>
      <trkpt lat="51.050088973715901" lon="5.867280000820756">
        <ele>27.530000000000001</ele>
        <time>2023-09-04T11:38:27Z</time>
      </trkpt>
      <trkpt lat="51.050108000636101" lon="5.867276983335614">
        <ele>27.530000000000001</ele>
        <time>2023-09-04T11:38:28Z</time>
      </trkpt>
      <trkpt lat="51.050086040049791" lon="5.867205988615751">
        <ele>27.530000000000001</ele>
        <time>2023-09-04T11:38:29Z</time>
      </trkpt>
      <trkpt lat="51.050091991201043" lon="5.867077996954322">
        <ele>27.530000000000001</ele>
        <time>2023-09-04T11:38:32Z</time>
      </trkpt>
      <trkpt lat="51.050031976774335" lon="5.867083026096225">
        <ele>27.530000000000001</ele>
        <time>2023-09-04T11:38:42Z</time>
      </trkpt>
      <trkpt lat="51.050048992037773" lon="5.86711403913796">
        <ele>27.530000000000001</ele>
        <time>2023-09-04T11:38:53Z</time>
      </trkpt>
      <trkpt lat="51.049974979832768" lon="5.867079002782702">
        <ele>28.02</ele>
        <time>2023-09-04T11:50:11Z</time>
      </trkpt>
      <trkpt lat="51.050024013966322" lon="5.867108004167676">
        <ele>27.530000000000001</ele>
        <time>2023-09-04T11:50:23Z</time>
      </trkpt>
      <trkpt lat="51.05008402839303" lon="5.867282012477517">
        <ele>28.5</ele>
        <time>2023-09-04T11:50:28Z</time>
      </trkpt>
      <trkpt lat="51.050061983987689" lon="5.86728603579104">
        <ele>29.460000000000001</ele>
        <time>2023-09-04T11:50:31Z</time>
      </trkpt>
      <trkpt lat="51.049999035894871" lon="5.867298021912575">
        <ele>28.98</ele>
        <time>2023-09-04T11:50:32Z</time>
      </trkpt>
      <trkpt lat="51.04991395957768" lon="5.867315037176013">
        <ele>28.5</ele>
        <time>2023-09-04T11:50:33Z</time>
      </trkpt>
      <trkpt lat="51.049816980957985" lon="5.867334986105561">
        <ele>27.530000000000001</ele>
        <time>2023-09-04T11:50:34Z</time>
      </trkpt>
      <trkpt lat="51.049707010388374" lon="5.867357030510902">
        <ele>27.050000000000001</ele>
        <time>2023-09-04T11:50:35Z</time>
      </trkpt>
      <trkpt lat="51.048672012984753" lon="5.867620976641774">
        <ele>24.170000000000002</ele>
        <time>2023-09-04T11:50:42Z</time>
      </trkpt>
      <trkpt lat="51.047031003981829" lon="5.868222964927554">
        <ele>22.25</ele>
        <time>2023-09-04T11:50:51Z</time>
      </trkpt>
      <trkpt lat="51.045412961393595" lon="5.869180010631681">
        <ele>22.73</ele>
        <time>2023-09-04T11:51:00Z</time>
      </trkpt>
      <trkpt lat="51.043659970164299" lon="5.870658997446299">
        <ele>26.57</ele>
        <time>2023-09-04T11:51:09Z</time>
      </trkpt>
      <trkpt lat="51.042438978329301" lon="5.87201502174139">
        <ele>28.98</ele>
        <time>2023-09-04T11:51:16Z</time>
      </trkpt>
      <trkpt lat="51.0413390211761" lon="5.873543964698911">
        <ele>29.460000000000001</ele>
        <time>2023-09-04T11:51:25Z</time>
      </trkpt>
      <trkpt lat="51.040282985195518" lon="5.875429976731539">
        <ele>28.02</ele>
        <time>2023-09-04T11:51:33Z</time>
      </trkpt>
      <trkpt lat="51.039098035544157" lon="5.877861985936761">
        <ele>25.609999999999999</ele>
        <time>2023-09-04T11:51:42Z</time>
      </trkpt>
      <trkpt lat="51.038369983434677" lon="5.87936201132834">
        <ele>25.129999999999999</ele>
        <time>2023-09-04T11:51:49Z</time>
      </trkpt>
      <trkpt lat="51.037737987935543" lon="5.880595995113254">
        <ele>25.609999999999999</ele>
        <time>2023-09-04T11:51:56Z</time>
      </trkpt>
      <trkpt lat="51.037073973566294" lon="5.881754038855434">
        <ele>26.57</ele>
        <time>2023-09-04T11:52:04Z</time>
      </trkpt>
      <trkpt lat="51.036403002217412" lon="5.882674958556891">
        <ele>26.57</ele>
        <time>2023-09-04T11:52:09Z</time>
      </trkpt>
      <trkpt lat="51.035098023712635" lon="5.883847000077367">
        <ele>28.02</ele>
        <time>2023-09-04T11:52:19Z</time>
      </trkpt>
      <trkpt lat="51.034991992637515" lon="5.883929980918765">
        <ele>28.02</ele>
        <time>2023-09-04T11:52:22Z</time>
      </trkpt>
      <trkpt lat="51.035006996244192" lon="5.884008016437292">
        <ele>28.02</ele>
        <time>2023-09-04T11:52:23Z</time>
      </trkpt>
      <trkpt lat="51.035017976537347" lon="5.884063001722097">
        <ele>28.02</ele>
        <time>2023-09-04T11:52:24Z</time>
      </trkpt>
      <trkpt lat="51.035032980144024" lon="5.884142965078354">
        <ele>27.530000000000001</ele>
        <time>2023-09-04T11:52:25Z</time>
      </trkpt>
      <trkpt lat="51.035049995407462" lon="5.884237010031939">
        <ele>27.050000000000001</ele>
        <time>2023-09-04T11:52:26Z</time>
      </trkpt>
      <trkpt lat="51.035070028156042" lon="5.884340023621917">
        <ele>27.050000000000001</ele>
        <time>2023-09-04T11:52:27Z</time>
      </trkpt>
      <trkpt lat="51.035116966813803" lon="5.884586032480001">
        <ele>26.09</ele>
        <time>2023-09-04T11:52:29Z</time>
      </trkpt>
      <trkpt lat="51.035142028704286" lon="5.884722992777824">
        <ele>25.609999999999999</ele>
        <time>2023-09-04T11:52:30Z</time>
      </trkpt>
      <trkpt lat="51.035112021490932" lon="5.885002026334405">
        <ele>23.210000000000001</ele>
        <time>2023-09-04T11:52:32Z</time>
      </trkpt>
      <trkpt lat="51.035095006227493" lon="5.885161031037569">
        <ele>22.25</ele>
        <time>2023-09-04T11:52:33Z</time>
      </trkpt>
      <trkpt lat="51.035077990964055" lon="5.885310983285308">
        <ele>20.809999999999999</ele>
        <time>2023-09-04T11:52:34Z</time>
      </trkpt>
      <trkpt lat="51.034977994859219" lon="5.886222012341023">
        <ele>14.08</ele>
        <time>2023-09-04T11:52:39Z</time>
      </trkpt>
      <trkpt lat="51.034749001264572" lon="5.88830198161304">
        <ele>8.310000000000001</ele>
        <time>2023-09-04T11:52:47Z</time>
      </trkpt>
      <trkpt lat="51.034441972151399" lon="5.891249980777502">
        <ele>9.27</ele>
        <time>2023-09-04T11:52:56Z</time>
      </trkpt>
      <trkpt lat="51.033917013555765" lon="5.89629203081131">
        <ele>15.039999999999999</ele>
        <time>2023-09-04T11:53:10Z</time>
      </trkpt>
      <trkpt lat="51.033666981384158" lon="5.898686992004514">
        <ele>18.399999999999999</ele>
        <time>2023-09-04T11:53:18Z</time>
      </trkpt>
      <trkpt lat="51.033332962542772" lon="5.901845963671804">
        <ele>20.809999999999999</ele>
        <time>2023-09-04T11:53:29Z</time>
      </trkpt>
      <trkpt lat="51.033291975036263" lon="5.903032002970576">
        <ele>23.210000000000001</ele>
        <time>2023-09-04T11:53:35Z</time>
      </trkpt>
      <trkpt lat="51.033312007784843" lon="5.90317097492516">
        <ele>23.690000000000001</ele>
        <time>2023-09-04T11:53:36Z</time>
      </trkpt>
      <trkpt lat="51.033529015257955" lon="5.904482994228602">
        <ele>25.129999999999999</ele>
        <time>2023-09-04T11:53:44Z</time>
      </trkpt>
      <trkpt lat="51.033522980287671" lon="5.9046730119735">
        <ele>25.609999999999999</ele>
        <time>2023-09-04T11:53:45Z</time>
      </trkpt>
      <trkpt lat="51.033516023308039" lon="5.905078025534749">
        <ele>26.09</ele>
        <time>2023-09-04T11:53:47Z</time>
      </trkpt>
      <trkpt lat="51.033528009429574" lon="5.905270976945758">
        <ele>26.57</ele>
        <time>2023-09-04T11:53:48Z</time>
      </trkpt>
      <trkpt lat="51.033544018864632" lon="5.905938008800149">
        <ele>28.5</ele>
        <time>2023-09-04T11:53:52Z</time>
      </trkpt>
      <trkpt lat="51.033534966409206" lon="5.906103970482945">
        <ele>28.5</ele>
        <time>2023-09-04T11:53:53Z</time>
      </trkpt>
      <trkpt lat="51.033510994166136" lon="5.906268004328013">
        <ele>28.98</ele>
        <time>2023-09-04T11:53:54Z</time>
      </trkpt>
      <trkpt lat="51.033482998609543" lon="5.906433966010809">
        <ele>28.98</ele>
        <time>2023-09-04T11:53:55Z</time>
      </trkpt>
      <trkpt lat="51.033453997224569" lon="5.906603028997779">
        <ele>28.98</ele>
        <time>2023-09-04T11:53:56Z</time>
      </trkpt>
      <trkpt lat="51.033061975613236" lon="5.908019989728928">
        <ele>29.460000000000001</ele>
        <time>2023-09-04T11:54:05Z</time>
      </trkpt>
      <trkpt lat="51.033032974228263" lon="5.908115040510893">
        <ele>29.460000000000001</ele>
        <time>2023-09-04T11:54:06Z</time>
      </trkpt>
      <trkpt lat="51.032974971458316" lon="5.908305980265141">
        <ele>28.98</ele>
        <time>2023-09-04T11:54:10Z</time>
      </trkpt>
      <trkpt lat="51.033013025298715" lon="5.908340010792017">
        <ele>29.460000000000001</ele>
        <time>2023-09-04T11:54:11Z</time>
      </trkpt>
      <trkpt lat="51.033073039725423" lon="5.908392984420061">
        <ele>28.98</ele>
        <time>2023-09-04T11:54:12Z</time>
      </trkpt>
      <trkpt lat="51.033147973939776" lon="5.908460961654782">
        <ele>28.98</ele>
        <time>2023-09-04T11:54:13Z</time>
      </trkpt>
      <trkpt lat="51.033242018893361" lon="5.908545032143593">
        <ele>28.98</ele>
        <time>2023-09-04T11:54:14Z</time>
      </trkpt>
      <trkpt lat="51.03334603831172" lon="5.908638993278146">
        <ele>29.460000000000001</ele>
        <time>2023-09-04T11:54:15Z</time>
      </trkpt>
      <trkpt lat="51.034217001870275" lon="5.909097986295819">
        <ele>29.460000000000001</ele>
        <time>2023-09-04T11:54:21Z</time>
      </trkpt>
      <trkpt lat="51.034381035715342" lon="5.909116007387638">
        <ele>29.460000000000001</ele>
        <time>2023-09-04T11:54:22Z</time>
      </trkpt>
      <trkpt lat="51.034541968256235" lon="5.909090023487806">
        <ele>29.460000000000001</ele>
        <time>2023-09-04T11:54:23Z</time>
      </trkpt>
      <trkpt lat="51.035910984501243" lon="5.908893970772624">
        <ele>29.940000000000001</ele>
        <time>2023-09-04T11:54:33Z</time>
      </trkpt>
      <trkpt lat="51.037068022415042" lon="5.908831022679806">
        <ele>30.420000000000002</ele>
        <time>2023-09-04T11:54:43Z</time>
      </trkpt>
      <trkpt lat="51.037847958505154" lon="5.909101003780961">
        <ele>33.299999999999997</ele>
        <time>2023-09-04T11:54:53Z</time>
      </trkpt>
      <trkpt lat="51.037889029830694" lon="5.909121036529541">
        <ele>34.259999999999998</ele>
        <time>2023-09-04T11:54:57Z</time>
      </trkpt>
      <trkpt lat="51.037905039265752" lon="5.909021962434053">
        <ele>34.259999999999998</ele>
        <time>2023-09-04T11:54:58Z</time>
      </trkpt>
      <trkpt lat="51.037920964881778" lon="5.908922972157598">
        <ele>34.740000000000002</ele>
        <time>2023-09-04T11:54:59Z</time>
      </trkpt>
      <trkpt lat="51.037939991801977" lon="5.908807972446084">
        <ele>34.740000000000002</ele>
        <time>2023-09-04T11:55:00Z</time>
      </trkpt>
      <trkpt lat="51.037960024550557" lon="5.908682998269796">
        <ele>35.229999999999997</ele>
        <time>2023-09-04T11:55:01Z</time>
      </trkpt>
      <trkpt lat="51.037981985136867" lon="5.908543020486832">
        <ele>35.229999999999997</ele>
        <time>2023-09-04T11:55:02Z</time>
      </trkpt>
      <trkpt lat="51.038006041198969" lon="5.908396001905203">
        <ele>35.229999999999997</ele>
        <time>2023-09-04T11:55:03Z</time>
      </trkpt>
      <trkpt lat="51.038028001785278" lon="5.908260969445109">
        <ele>35.229999999999997</ele>
        <time>2023-09-04T11:55:04Z</time>
      </trkpt>
      <trkpt lat="51.038097990676761" lon="5.907824020832777">
        <ele>35.229999999999997</ele>
        <time>2023-09-04T11:55:08Z</time>
      </trkpt>
      <trkpt lat="51.038104025647044" lon="5.907790996134281">
        <ele>35.229999999999997</ele>
        <time>2023-09-04T11:55:09Z</time>
      </trkpt>
      <trkpt lat="51.038104025647044" lon="5.907790996134281">
        <ele>34.740000000000002</ele>
        <time>2023-09-04T11:55:10Z</time>
      </trkpt>
      <trkpt lat="51.038104025647044" lon="5.907618999481201">
        <ele>34.740000000000002</ele>
        <time>2023-09-04T11:55:11Z</time>
      </trkpt>
      <trkpt lat="51.038170997053385" lon="5.907669961452484">
        <ele>34.740000000000002</ele>
        <time>2023-09-04T11:55:12Z</time>
      </trkpt>
      <trkpt lat="51.038207961246371" lon="5.907698040828109">
        <ele>34.740000000000002</ele>
        <time>2023-09-04T11:55:13Z</time>
      </trkpt>
      <trkpt lat="51.038262024521828" lon="5.907739028334618">
        <ele>34.740000000000002</ele>
        <time>2023-09-04T11:55:14Z</time>
      </trkpt>
      <trkpt lat="51.038331007584929" lon="5.907790996134281">
        <ele>34.259999999999998</ele>
        <time>2023-09-04T11:55:15Z</time>
      </trkpt>
      <trkpt lat="51.038980018347502" lon="5.90843103826046">
        <ele>33.299999999999997</ele>
        <time>2023-09-04T11:55:24Z</time>
      </trkpt>
      <trkpt lat="51.039108010008931" lon="5.908570010215044">
        <ele>33.780000000000001</ele>
        <time>2023-09-04T11:55:26Z</time>
      </trkpt>
      <trkpt lat="51.039198031648993" lon="5.90860596857965">
        <ele>34.259999999999998</ele>
        <time>2023-09-04T11:55:27Z</time>
      </trkpt>
      <trkpt lat="51.039265003055334" lon="5.90860596857965">
        <ele>34.259999999999998</ele>
        <time>2023-09-04T11:55:28Z</time>
      </trkpt>
      <trkpt lat="51.039360975846648" lon="5.908576967194676">
        <ele>34.740000000000002</ele>
        <time>2023-09-04T11:55:29Z</time>
      </trkpt>
      <trkpt lat="51.039439011365175" lon="5.908534973859787">
        <ele>34.740000000000002</ele>
        <time>2023-09-04T11:55:30Z</time>
      </trkpt>
      <trkpt lat="51.039515035226941" lon="5.908493986353278">
        <ele>34.740000000000002</ele>
        <time>2023-09-04T11:55:31Z</time>
      </trkpt>
      <trkpt lat="51.039587035775185" lon="5.908456016331911">
        <ele>34.740000000000002</ele>
        <time>2023-09-04T11:55:32Z</time>
      </trkpt>
      <trkpt lat="51.039884006604552" lon="5.908297011628747">
        <ele>34.259999999999998</ele>
        <time>2023-09-04T11:55:37Z</time>
      </trkpt>
      <trkpt lat="51.039932034909725" lon="5.908188968896866">
        <ele>34.740000000000002</ele>
        <time>2023-09-04T11:55:38Z</time>
      </trkpt>
      <trkpt lat="51.039921976625919" lon="5.908147981390357">
        <ele>34.740000000000002</ele>
        <time>2023-09-04T11:55:39Z</time>
      </trkpt>
      <trkpt lat="51.039908984676003" lon="5.908087966963649">
        <ele>34.740000000000002</ele>
        <time>2023-09-04T11:55:40Z</time>
      </trkpt>
      <trkpt lat="51.039890041574836" lon="5.908006997779012">
        <ele>35.229999999999997</ele>
        <time>2023-09-04T11:55:41Z</time>
      </trkpt>
      <trkpt lat="51.039867997169495" lon="5.907913036644459">
        <ele>35.710000000000001</ele>
        <time>2023-09-04T11:55:42Z</time>
      </trkpt>
      <trkpt lat="51.039746962487698" lon="5.907395035028458">
        <ele>37.149999999999999</ele>
        <time>2023-09-04T11:55:47Z</time>
      </trkpt>
      <trkpt lat="51.039749979972839" lon="5.907279029488564">
        <ele>37.630000000000003</ele>
        <time>2023-09-04T11:55:48Z</time>
      </trkpt>
      <trkpt lat="51.039777975529432" lon="5.907172998413444">
        <ele>38.109999999999999</ele>
        <time>2023-09-04T11:55:49Z</time>
      </trkpt>
      <trkpt lat="51.039801025763154" lon="5.907085994258523">
        <ele>38.590000000000003</ele>
        <time>2023-09-04T11:55:50Z</time>
      </trkpt>
      <trkpt lat="51.039816029369831" lon="5.907027991488576">
        <ele>39.07</ele>
        <time>2023-09-04T11:55:51Z</time>
      </trkpt>
      <trkpt lat="51.039904961362481" lon="5.906874015927315">
        <ele>39.07</ele>
        <time>2023-09-04T11:55:52Z</time>
      </trkpt>
      <trkpt lat="51.039946032688022" lon="5.906902011483908">
        <ele>39.07</ele>
        <time>2023-09-04T11:55:53Z</time>
      </trkpt>
      <trkpt lat="51.039991965517402" lon="5.906932018697262">
        <ele>39.549999999999997</ele>
        <time>2023-09-04T11:55:54Z</time>
      </trkpt>
      <trkpt lat="51.040033958852291" lon="5.906932018697262">
        <ele>39.07</ele>
        <time>2023-09-04T11:55:55Z</time>
      </trkpt>
      <trkpt lat="51.040088022127748" lon="5.906932018697262">
        <ele>39.07</ele>
        <time>2023-09-04T11:55:56Z</time>
      </trkpt>
      <trkpt lat="51.040163962170482" lon="5.906932018697262">
        <ele>39.549999999999997</ele>
        <time>2023-09-04T11:55:57Z</time>
      </trkpt>
      <trkpt lat="51.04018097743392" lon="5.906922966241837">
        <ele>39.549999999999997</ele>
        <time>2023-09-04T11:55:58Z</time>
      </trkpt>
      <trkpt lat="51.040231017395854" lon="5.906893964856863">
        <ele>39.549999999999997</ele>
        <time>2023-09-04T11:55:59Z</time>
      </trkpt>
      <trkpt lat="51.040326990187168" lon="5.906838979572058">
        <ele>39.549999999999997</ele>
        <time>2023-09-04T11:56:01Z</time>
      </trkpt>
      <trkpt lat="51.040891008451581" lon="5.906517030671239">
        <ele>40.509999999999998</ele>
        <time>2023-09-04T11:56:12Z</time>
      </trkpt>
      <trkpt lat="51.041051018983126" lon="5.906424997374415">
        <ele>40.509999999999998</ele>
        <time>2023-09-04T11:56:20Z</time>
      </trkpt>
      <trkpt lat="51.04099603369832" lon="5.90645601041615">
        <ele>40.509999999999998</ele>
        <time>2023-09-04T11:56:24Z</time>
      </trkpt>
      <trkpt lat="51.040978012606502" lon="5.906466990709305">
        <ele>40.509999999999998</ele>
        <time>2023-09-04T11:56:25Z</time>
      </trkpt>
      <trkpt lat="51.040978012606502" lon="5.906466990709305">
        <ele>40.509999999999998</ele>
        <time>2023-09-04T11:56:26Z</time>
      </trkpt>
      <trkpt lat="51.040978012606502" lon="5.906466990709305">
        <ele>40.509999999999998</ele>
        <time>2023-09-04T11:56:44Z</time>
      </trkpt>
      <trkpt lat="51.040978012606502" lon="5.906466990709305">
        <ele>40.990000000000002</ele>
        <time>2023-09-04T11:57:43Z</time>
      </trkpt>
      <trkpt lat="51.040978012606502" lon="5.906466990709305">
        <ele>40.990000000000002</ele>
        <time>2023-09-04T11:58:37Z</time>
      </trkpt>
      <trkpt lat="51.040786989033222" lon="5.906576039269567">
        <ele>41.469999999999999</ele>
        <time>2023-09-04T11:58:43Z</time>
      </trkpt>
      <trkpt lat="51.040744995698333" lon="5.906600011512637">
        <ele>41.950000000000003</ele>
        <time>2023-09-04T11:58:44Z</time>
      </trkpt>
      <trkpt lat="51.040487000718713" lon="5.906747030094266">
        <ele>41.469999999999999</ele>
        <time>2023-09-04T11:58:50Z</time>
      </trkpt>
      <trkpt lat="51.040442995727062" lon="5.906773013994098">
        <ele>41.469999999999999</ele>
        <time>2023-09-04T11:58:51Z</time>
      </trkpt>
      <trkpt lat="51.040060026571155" lon="5.906932018697262">
        <ele>41.469999999999999</ele>
        <time>2023-09-04T11:59:00Z</time>
      </trkpt>
      <trkpt lat="51.040014009922743" lon="5.906932018697262">
        <ele>41.469999999999999</ele>
        <time>2023-09-04T11:59:01Z</time>
      </trkpt>
      <trkpt lat="51.039982996881008" lon="5.906926989555359">
        <ele>41.469999999999999</ele>
        <time>2023-09-04T11:59:02Z</time>
      </trkpt>
      <trkpt lat="51.039952989667654" lon="5.90690603479743">
        <ele>41.469999999999999</ele>
        <time>2023-09-04T11:59:03Z</time>
      </trkpt>
      <trkpt lat="51.039927005767822" lon="5.906889019533992">
        <ele>41.469999999999999</ele>
        <time>2023-09-04T11:59:04Z</time>
      </trkpt>
      <trkpt lat="51.039903033524752" lon="5.906873010098934">
        <ele>41.469999999999999</ele>
        <time>2023-09-04T11:59:05Z</time>
      </trkpt>
      <trkpt lat="51.039834972470999" lon="5.906952973455191">
        <ele>41.469999999999999</ele>
        <time>2023-09-04T11:59:06Z</time>
      </trkpt>
      <trkpt lat="51.039821980521083" lon="5.907005025073886">
        <ele>40.990000000000002</ele>
        <time>2023-09-04T11:59:07Z</time>
      </trkpt>
      <trkpt lat="51.039806976914406" lon="5.907063027843833">
        <ele>40.990000000000002</ele>
        <time>2023-09-04T11:59:08Z</time>
      </trkpt>
      <trkpt lat="51.039789039641619" lon="5.907131005078554">
        <ele>40.990000000000002</ele>
        <time>2023-09-04T11:59:09Z</time>
      </trkpt>
      <trkpt lat="51.039769006893039" lon="5.907209040597081">
        <ele>40.509999999999998</ele>
        <time>2023-09-04T11:59:10Z</time>
      </trkpt>
      <trkpt lat="51.039746962487698" lon="5.907291015610099">
        <ele>40.509999999999998</ele>
        <time>2023-09-04T11:59:11Z</time>
      </trkpt>
      <trkpt lat="51.039742017164826" lon="5.907370978966355">
        <ele>40.509999999999998</ele>
        <time>2023-09-04T11:59:12Z</time>
      </trkpt>
      <trkpt lat="51.039760038256645" lon="5.907449014484882">
        <ele>40.509999999999998</ele>
        <time>2023-09-04T11:59:13Z</time>
      </trkpt>
      <trkpt lat="51.039778981357813" lon="5.907529983669519">
        <ele>40.509999999999998</ele>
        <time>2023-09-04T11:59:14Z</time>
      </trkpt>
      <trkpt lat="51.039800019934773" lon="5.907621011137962">
        <ele>40.030000000000001</ele>
        <time>2023-09-04T11:59:15Z</time>
      </trkpt>
      <trkpt lat="51.039890041574836" lon="5.908008003607392">
        <ele>39.549999999999997</ele>
        <time>2023-09-04T11:59:19Z</time>
      </trkpt>
      <trkpt lat="51.039906973019242" lon="5.908084027469158">
        <ele>39.07</ele>
        <time>2023-09-04T11:59:20Z</time>
      </trkpt>
      <trkpt lat="51.039919964969158" lon="5.908138006925583">
        <ele>39.07</ele>
        <time>2023-09-04T11:59:21Z</time>
      </trkpt>
      <trkpt lat="51.039884006604552" lon="5.908297011628747">
        <ele>39.07</ele>
        <time>2023-09-04T11:59:22Z</time>
      </trkpt>
      <trkpt lat="51.039844024926424" lon="5.908317966386676">
        <ele>38.590000000000003</ele>
        <time>2023-09-04T11:59:23Z</time>
      </trkpt>
      <trkpt lat="51.039790967479348" lon="5.908346967771649">
        <ele>38.590000000000003</ele>
        <time>2023-09-04T11:59:24Z</time>
      </trkpt>
      <trkpt lat="51.039731036871672" lon="5.908378986641765">
        <ele>39.07</ele>
        <time>2023-09-04T11:59:25Z</time>
      </trkpt>
      <trkpt lat="51.039247987791896" lon="5.90860596857965">
        <ele>39.07</ele>
        <time>2023-09-04T11:59:32Z</time>
      </trkpt>
      <trkpt lat="51.039198031648993" lon="5.90860596857965">
        <ele>39.07</ele>
        <time>2023-09-04T11:59:33Z</time>
      </trkpt>
      <trkpt lat="51.039125025272369" lon="5.908576967194676">
        <ele>39.07</ele>
        <time>2023-09-04T11:59:34Z</time>
      </trkpt>
      <trkpt lat="51.0390629991889" lon="5.908530028536916">
        <ele>39.07</ele>
        <time>2023-09-04T11:59:35Z</time>
      </trkpt>
      <trkpt lat="51.039007008075714" lon="5.908462973311544">
        <ele>39.07</ele>
        <time>2023-09-04T11:59:36Z</time>
      </trkpt>
      <trkpt lat="51.038639964535832" lon="5.908027030527592">
        <ele>40.030000000000001</ele>
        <time>2023-09-04T11:59:42Z</time>
      </trkpt>
      <trkpt lat="51.038548015058041" lon="5.907957041636109">
        <ele>40.509999999999998</ele>
        <time>2023-09-04T11:59:43Z</time>
      </trkpt>
      <trkpt lat="51.038471991196275" lon="5.907899038866162">
        <ele>41.469999999999999</ele>
        <time>2023-09-04T11:59:44Z</time>
      </trkpt>
      <trkpt lat="51.038334025070071" lon="5.907794013619423">
        <ele>42.920000000000002</ele>
        <time>2023-09-04T11:59:46Z</time>
      </trkpt>
      <trkpt lat="51.038267975673079" lon="5.907743973657489">
        <ele>43.399999999999999</ele>
        <time>2023-09-04T11:59:47Z</time>
      </trkpt>
      <trkpt lat="51.038212990388274" lon="5.907701980322599">
        <ele>43.880000000000003</ele>
        <time>2023-09-04T11:59:48Z</time>
      </trkpt>
      <trkpt lat="51.038173008710146" lon="5.907671973109245">
        <ele>44.359999999999999</ele>
        <time>2023-09-04T11:59:49Z</time>
      </trkpt>
      <trkpt lat="51.038147024810314" lon="5.907652024179697">
        <ele>44.359999999999999</ele>
        <time>2023-09-04T11:59:50Z</time>
      </trkpt>
      <trkpt lat="51.038104025647044" lon="5.907790996134281">
        <ele>44.840000000000003</ele>
        <time>2023-09-04T11:59:53Z</time>
      </trkpt>
      <trkpt lat="51.038104025647044" lon="5.907790996134281">
        <ele>44.840000000000003</ele>
        <time>2023-09-04T11:59:54Z</time>
      </trkpt>
      <trkpt lat="51.03809597902" lon="5.907837012782693">
        <ele>44.840000000000003</ele>
        <time>2023-09-04T11:59:55Z</time>
      </trkpt>
      <trkpt lat="51.038079969584942" lon="5.907940026372671">
        <ele>44.840000000000003</ele>
        <time>2023-09-04T11:59:56Z</time>
      </trkpt>
      <trkpt lat="51.038062032312155" lon="5.908045973628759">
        <ele>44.840000000000003</ele>
        <time>2023-09-04T11:59:57Z</time>
      </trkpt>
      <trkpt lat="51.037957007065415" lon="5.908699007704854">
        <ele>45.799999999999997</ele>
        <time>2023-09-04T12:00:02Z</time>
      </trkpt>
      <trkpt lat="51.03788198903203" lon="5.909145008772612">
        <ele>46.280000000000001</ele>
        <time>2023-09-04T12:00:05Z</time>
      </trkpt>
      <trkpt lat="51.037404974922538" lon="5.91096798889339">
        <ele>48.68</ele>
        <time>2023-09-04T12:00:18Z</time>
      </trkpt>
      <trkpt lat="51.037210011854768" lon="5.911835012957454">
        <ele>49.159999999999997</ele>
        <time>2023-09-04T12:00:24Z</time>
      </trkpt>
      <trkpt lat="51.037042960524559" lon="5.912204990163446">
        <ele>48.200000000000003</ele>
        <time>2023-09-04T12:00:27Z</time>
      </trkpt>
      <trkpt lat="51.036932989954948" lon="5.91244999319315">
        <ele>47.719999999999999</ele>
        <time>2023-09-04T12:00:29Z</time>
      </trkpt>
      <trkpt lat="51.036876998841763" lon="5.912573961541057">
        <ele>47.240000000000002</ele>
        <time>2023-09-04T12:00:30Z</time>
      </trkpt>
      <trkpt lat="51.036288002505898" lon="5.913879023864865">
        <ele>45.799999999999997</ele>
        <time>2023-09-04T12:00:40Z</time>
      </trkpt>
      <trkpt lat="51.035686014220119" lon="5.915342001244426">
        <ele>47.240000000000002</ele>
        <time>2023-09-04T12:00:49Z</time>
      </trkpt>
      <trkpt lat="51.034988975152373" lon="5.917727993801236">
        <ele>46.280000000000001</ele>
        <time>2023-09-04T12:00:58Z</time>
      </trkpt>
      <trkpt lat="51.034462004899979" lon="5.919059962034226">
        <ele>45.32</ele>
        <time>2023-09-04T12:01:04Z</time>
      </trkpt>
      <trkpt lat="51.034388998523355" lon="5.919204968959093">
        <ele>45.32</ele>
        <time>2023-09-04T12:01:05Z</time>
      </trkpt>
      <trkpt lat="51.034318003803492" lon="5.91934603638947">
        <ele>44.840000000000003</ele>
        <time>2023-09-04T12:01:06Z</time>
      </trkpt>
      <trkpt lat="51.033539995551109" lon="5.920848995447159">
        <ele>44.359999999999999</ele>
        <time>2023-09-04T12:01:17Z</time>
      </trkpt>
      <trkpt lat="51.033313013613224" lon="5.921230036765337">
        <ele>44.359999999999999</ele>
        <time>2023-09-04T12:01:20Z</time>
      </trkpt>
      <trkpt lat="51.033086031675339" lon="5.921610994264484">
        <ele>44.359999999999999</ele>
        <time>2023-09-04T12:01:23Z</time>
      </trkpt>
      <trkpt lat="51.033011013641953" lon="5.921736974269152">
        <ele>44.359999999999999</ele>
        <time>2023-09-04T12:01:24Z</time>
      </trkpt>
      <trkpt lat="51.032550008967519" lon="5.922510037198663">
        <ele>44.359999999999999</ele>
        <time>2023-09-04T12:01:30Z</time>
      </trkpt>
      <trkpt lat="51.032459987327456" lon="5.922660995274782">
        <ele>44.840000000000003</ele>
        <time>2023-09-04T12:01:31Z</time>
      </trkpt>
      <trkpt lat="51.031945003196597" lon="5.923584010452032">
        <ele>48.200000000000003</ele>
        <time>2023-09-04T12:01:38Z</time>
      </trkpt>
      <trkpt lat="51.031903009861708" lon="5.923738991841674">
        <ele>48.68</ele>
        <time>2023-09-04T12:01:39Z</time>
      </trkpt>
      <trkpt lat="51.031856993213296" lon="5.923908976837993">
        <ele>49.159999999999997</ele>
        <time>2023-09-04T12:01:40Z</time>
      </trkpt>
      <trkpt lat="51.031764037907124" lon="5.924254981800914">
        <ele>49.649999999999999</ele>
        <time>2023-09-04T12:01:42Z</time>
      </trkpt>
      <trkpt lat="51.031445022672415" lon="5.925392992794514">
        <ele>49.649999999999999</ele>
        <time>2023-09-04T12:01:49Z</time>
      </trkpt>
      <trkpt lat="51.031396994367242" lon="5.925545962527394">
        <ele>49.649999999999999</ele>
        <time>2023-09-04T12:01:50Z</time>
      </trkpt>
      <trkpt lat="51.031347960233688" lon="5.925699016079307">
        <ele>49.649999999999999</ele>
        <time>2023-09-04T12:01:51Z</time>
      </trkpt>
      <trkpt lat="51.031295992434025" lon="5.925861038267613">
        <ele>49.159999999999997</ele>
        <time>2023-09-04T12:01:52Z</time>
      </trkpt>
      <trkpt lat="51.031244024634361" lon="5.926025994122028">
        <ele>49.159999999999997</ele>
        <time>2023-09-04T12:01:53Z</time>
      </trkpt>
      <trkpt lat="51.031083008274436" lon="5.926529997959733">
        <ele>48.200000000000003</ele>
        <time>2023-09-04T12:01:56Z</time>
      </trkpt>
      <trkpt lat="51.03102701716125" lon="5.926704006269574">
        <ele>47.240000000000002</ele>
        <time>2023-09-04T12:01:57Z</time>
      </trkpt>
      <trkpt lat="51.030560983344913" lon="5.928429001942277">
        <ele>44.359999999999999</ele>
        <time>2023-09-04T12:02:07Z</time>
      </trkpt>
      <trkpt lat="51.030544973909855" lon="5.928645003587008">
        <ele>44.359999999999999</ele>
        <time>2023-09-04T12:02:08Z</time>
      </trkpt>
      <trkpt lat="51.030481019988656" lon="5.929351011291146">
        <ele>43.880000000000003</ele>
        <time>2023-09-04T12:02:11Z</time>
      </trkpt>
      <trkpt lat="51.030449001118541" lon="5.929601965472102">
        <ele>43.399999999999999</ele>
        <time>2023-09-04T12:02:12Z</time>
      </trkpt>
      <trkpt lat="51.030006017535925" lon="5.931768016889691">
        <ele>42.920000000000002</ele>
        <time>2023-09-04T12:02:20Z</time>
      </trkpt>
      <trkpt lat="51.029376033693552" lon="5.93412802554667">
        <ele>45.32</ele>
        <time>2023-09-04T12:02:29Z</time>
      </trkpt>
      <trkpt lat="51.02885702624917" lon="5.935601983219385">
        <ele>43.880000000000003</ele>
        <time>2023-09-04T12:02:37Z</time>
      </trkpt>
      <trkpt lat="51.028358973562717" lon="5.936826998367906">
        <ele>41.469999999999999</ele>
        <time>2023-09-04T12:02:46Z</time>
      </trkpt>
      <trkpt lat="51.028232993558049" lon="5.93713503330946">
        <ele>40.990000000000002</ele>
        <time>2023-09-04T12:02:52Z</time>
      </trkpt>
      <trkpt lat="51.02821396663785" lon="5.93718096613884">
        <ele>40.509999999999998</ele>
        <time>2023-09-04T12:02:55Z</time>
      </trkpt>
      <trkpt lat="51.02823399938643" lon="5.9372020047158">
        <ele>40.509999999999998</ele>
        <time>2023-09-04T12:02:56Z</time>
      </trkpt>
      <trkpt lat="51.028269035741687" lon="5.93722497113049">
        <ele>40.030000000000001</ele>
        <time>2023-09-04T12:02:57Z</time>
      </trkpt>
      <trkpt lat="51.028322009369731" lon="5.937259001657367">
        <ele>39.549999999999997</ele>
        <time>2023-09-04T12:02:58Z</time>
      </trkpt>
      <trkpt lat="51.028381017968059" lon="5.937296971678734">
        <ele>39.07</ele>
        <time>2023-09-04T12:02:59Z</time>
      </trkpt>
      <trkpt lat="51.029067998751998" lon="5.937739033252001">
        <ele>39.07</ele>
        <time>2023-09-04T12:03:07Z</time>
      </trkpt>
      <trkpt lat="51.029280982911587" lon="5.937929973006249">
        <ele>40.030000000000001</ele>
        <time>2023-09-04T12:03:09Z</time>
      </trkpt>
      <trkpt lat="51.029378967359662" lon="5.938042039051652">
        <ele>40.509999999999998</ele>
        <time>2023-09-04T12:03:10Z</time>
      </trkpt>
      <trkpt lat="51.029476029798388" lon="5.938172964379191">
        <ele>40.990000000000002</ele>
        <time>2023-09-04T12:03:11Z</time>
      </trkpt>
      <trkpt lat="51.02954501286149" lon="5.938320988789201">
        <ele>41.469999999999999</ele>
        <time>2023-09-04T12:03:12Z</time>
      </trkpt>
      <trkpt lat="51.029616007581353" lon="5.938471024855971">
        <ele>42.439999999999998</ele>
        <time>2023-09-04T12:03:13Z</time>
      </trkpt>
      <trkpt lat="51.029659006744623" lon="5.93866003677249">
        <ele>42.920000000000002</ele>
        <time>2023-09-04T12:03:14Z</time>
      </trkpt>
      <trkpt lat="51.029691025614738" lon="5.938833961263299">
        <ele>43.399999999999999</ele>
        <time>2023-09-04T12:03:15Z</time>
      </trkpt>
      <trkpt lat="51.029723966494203" lon="5.939008975401521">
        <ele>43.880000000000003</ele>
        <time>2023-09-04T12:03:16Z</time>
      </trkpt>
      <trkpt lat="51.029756991192698" lon="5.939189018681645">
        <ele>44.359999999999999</ele>
        <time>2023-09-04T12:03:17Z</time>
      </trkpt>
      <trkpt lat="51.029756991192698" lon="5.939363026991487">
        <ele>44.840000000000003</ele>
        <time>2023-09-04T12:03:18Z</time>
      </trkpt>
      <trkpt lat="51.029756991192698" lon="5.939536029472947">
        <ele>44.840000000000003</ele>
        <time>2023-09-04T12:03:19Z</time>
      </trkpt>
      <trkpt lat="51.029756991192698" lon="5.939709031954408">
        <ele>45.799999999999997</ele>
        <time>2023-09-04T12:03:20Z</time>
      </trkpt>
      <trkpt lat="51.029784986749291" lon="5.941099002957344">
        <ele>48.200000000000003</ele>
        <time>2023-09-04T12:03:28Z</time>
      </trkpt>
      <trkpt lat="51.030028983950615" lon="5.942817041650415">
        <ele>47.719999999999999</ele>
        <time>2023-09-04T12:03:38Z</time>
      </trkpt>
      <trkpt lat="51.030068965628743" lon="5.943177966400981">
        <ele>47.240000000000002</ele>
        <time>2023-09-04T12:03:40Z</time>
      </trkpt>
      <trkpt lat="51.030099978670478" lon="5.9434549883008">
        <ele>46.759999999999998</ele>
        <time>2023-09-04T12:03:42Z</time>
      </trkpt>
      <trkpt lat="51.030013980343938" lon="5.943710971623659">
        <ele>46.280000000000001</ele>
        <time>2023-09-04T12:03:43Z</time>
      </trkpt>
      <trkpt lat="51.030013980343938" lon="5.943710971623659">
        <ele>46.280000000000001</ele>
        <time>2023-09-04T12:03:44Z</time>
      </trkpt>
      <trkpt lat="51.030013980343938" lon="5.943710971623659">
        <ele>46.280000000000001</ele>
        <time>2023-09-04T12:03:45Z</time>
      </trkpt>
      <trkpt lat="51.029857993125916" lon="5.943887997418642">
        <ele>46.280000000000001</ele>
        <time>2023-09-04T12:03:46Z</time>
      </trkpt>
      <trkpt lat="51.029753973707557" lon="5.943894032388926">
        <ele>46.280000000000001</ele>
        <time>2023-09-04T12:03:47Z</time>
      </trkpt>
      <trkpt lat="51.029641991481185" lon="5.943899983540177">
        <ele>46.280000000000001</ele>
        <time>2023-09-04T12:03:48Z</time>
      </trkpt>
      <trkpt lat="51.028503980487585" lon="5.943961003795266">
        <ele>45.799999999999997</ele>
        <time>2023-09-04T12:03:55Z</time>
      </trkpt>
      <trkpt lat="51.026543034240603" lon="5.943996962159872">
        <ele>44.359999999999999</ele>
        <time>2023-09-04T12:04:04Z</time>
      </trkpt>
      <trkpt lat="51.023465031757951" lon="5.944216987118125">
        <ele>47.719999999999999</ele>
        <time>2023-09-04T12:04:17Z</time>
      </trkpt>
      <trkpt lat="51.02151095867157" lon="5.944513035938144">
        <ele>50.609999999999999</ele>
        <time>2023-09-04T12:04:26Z</time>
      </trkpt>
      <trkpt lat="51.020232969895005" lon="5.944802965968847">
        <ele>51.57</ele>
        <time>2023-09-04T12:04:34Z</time>
      </trkpt>
      <trkpt lat="51.020078994333744" lon="5.9446120262146">
        <ele>52.049999999999997</ele>
        <time>2023-09-04T12:04:35Z</time>
      </trkpt>
      <trkpt lat="51.020020991563797" lon="5.944600040093064">
        <ele>51.57</ele>
        <time>2023-09-04T12:04:36Z</time>
      </trkpt>
      <trkpt lat="51.019916972145438" lon="5.94463599845767">
        <ele>52.049999999999997</ele>
        <time>2023-09-04T12:04:37Z</time>
      </trkpt>
      <trkpt lat="51.019842959940434" lon="5.94469802454114">
        <ele>52.049999999999997</ele>
        <time>2023-09-04T12:04:38Z</time>
      </trkpt>
      <trkpt lat="51.019774982705712" lon="5.944841019809246">
        <ele>52.049999999999997</ele>
        <time>2023-09-04T12:04:39Z</time>
      </trkpt>
      <trkpt lat="51.019664006307721" lon="5.944875972345471">
        <ele>52.049999999999997</ele>
        <time>2023-09-04T12:04:40Z</time>
      </trkpt>
      <trkpt lat="51.019535008817911" lon="5.944916037842631">
        <ele>51.57</ele>
        <time>2023-09-04T12:04:41Z</time>
      </trkpt>
      <trkpt lat="51.019387990236282" lon="5.944961970672011">
        <ele>51.57</ele>
        <time>2023-09-04T12:04:42Z</time>
      </trkpt>
      <trkpt lat="51.018014028668404" lon="5.945389028638601">
        <ele>52.530000000000001</ele>
        <time>2023-09-04T12:04:50Z</time>
      </trkpt>
      <trkpt lat="51.015501972287893" lon="5.9461610019207">
        <ele>56.369999999999997</ele>
        <time>2023-09-04T12:05:05Z</time>
      </trkpt>
      <trkpt lat="51.013690978288651" lon="5.946843959391117">
        <ele>58.780000000000001</ele>
        <time>2023-09-04T12:05:17Z</time>
      </trkpt>
      <trkpt lat="51.013232991099358" lon="5.947017967700958">
        <ele>59.740000000000002</ele>
        <time>2023-09-04T12:05:22Z</time>
      </trkpt>
      <trkpt lat="51.013160990551114" lon="5.947045041248202">
        <ele>59.740000000000002</ele>
        <time>2023-09-04T12:05:23Z</time>
      </trkpt>
      <trkpt lat="51.013040961697698" lon="5.946821998804808">
        <ele>59.740000000000002</ele>
        <time>2023-09-04T12:05:24Z</time>
      </trkpt>
      <trkpt lat="51.013003997504711" lon="5.946810012683272">
        <ele>59.740000000000002</ele>
        <time>2023-09-04T12:05:25Z</time>
      </trkpt>
      <trkpt lat="51.012928979471326" lon="5.946785034611821">
        <ele>59.740000000000002</ele>
        <time>2023-09-04T12:05:26Z</time>
      </trkpt>
      <trkpt lat="51.012848010286689" lon="5.946757961064577">
        <ele>59.259999999999998</ele>
        <time>2023-09-04T12:05:27Z</time>
      </trkpt>
      <trkpt lat="51.012741979211569" lon="5.946757961064577">
        <ele>58.299999999999997</ele>
        <time>2023-09-04T12:05:28Z</time>
      </trkpt>
      <trkpt lat="51.012656986713409" lon="5.946800960227847">
        <ele>57.82</ele>
        <time>2023-09-04T12:05:29Z</time>
      </trkpt>
      <trkpt lat="51.012569982558489" lon="5.946860974654555">
        <ele>57.340000000000003</ele>
        <time>2023-09-04T12:05:30Z</time>
      </trkpt>
      <trkpt lat="51.01248599588871" lon="5.946918977424502">
        <ele>57.340000000000003</ele>
        <time>2023-09-04T12:05:31Z</time>
      </trkpt>
      <trkpt lat="51.01242296397686" lon="5.946988966315985">
        <ele>56.859999999999999</ele>
        <time>2023-09-04T12:05:32Z</time>
      </trkpt>
      <trkpt lat="51.012374013662338" lon="5.947093991562724">
        <ele>57.340000000000003</ele>
        <time>2023-09-04T12:05:33Z</time>
      </trkpt>
      <trkpt lat="51.012311987578869" lon="5.947230029851198">
        <ele>56.859999999999999</ele>
        <time>2023-09-04T12:05:34Z</time>
      </trkpt>
      <trkpt lat="51.012311987578869" lon="5.947344023734331">
        <ele>56.859999999999999</ele>
        <time>2023-09-04T12:05:35Z</time>
      </trkpt>
      <trkpt lat="51.012375019490719" lon="5.947478972375393">
        <ele>56.369999999999997</ele>
        <time>2023-09-04T12:05:36Z</time>
      </trkpt>
      <trkpt lat="51.012444002553821" lon="5.947589026764035">
        <ele>56.369999999999997</ele>
        <time>2023-09-04T12:05:37Z</time>
      </trkpt>
      <trkpt lat="51.012462023645639" lon="5.94779203645885">
        <ele>55.890000000000001</ele>
        <time>2023-09-04T12:05:38Z</time>
      </trkpt>
      <trkpt lat="51.012462023645639" lon="5.947980964556336">
        <ele>55.890000000000001</ele>
        <time>2023-09-04T12:05:39Z</time>
      </trkpt>
      <trkpt lat="51.012452971190214" lon="5.948225967586041">
        <ele>55.890000000000001</ele>
        <time>2023-09-04T12:05:40Z</time>
      </trkpt>
      <trkpt lat="51.012444002553821" lon="5.94848102889955">
        <ele>55.890000000000001</ele>
        <time>2023-09-04T12:05:41Z</time>
      </trkpt>
      <trkpt lat="51.012424975633621" lon="5.94903901219368">
        <ele>56.859999999999999</ele>
        <time>2023-09-04T12:05:43Z</time>
      </trkpt>
      <trkpt lat="51.012445008382201" lon="5.949311004951596">
        <ele>56.859999999999999</ele>
        <time>2023-09-04T12:05:44Z</time>
      </trkpt>
      <trkpt lat="51.012509968131781" lon="5.949576962739229">
        <ele>57.340000000000003</ele>
        <time>2023-09-04T12:05:45Z</time>
      </trkpt>
      <trkpt lat="51.012577023357153" lon="5.949850967153907">
        <ele>57.82</ele>
        <time>2023-09-04T12:05:46Z</time>
      </trkpt>
      <trkpt lat="51.012633014470339" lon="5.950152967125177">
        <ele>57.82</ele>
        <time>2023-09-04T12:05:47Z</time>
      </trkpt>
      <trkpt lat="51.012634020298719" lon="5.950464019551873">
        <ele>58.299999999999997</ele>
        <time>2023-09-04T12:05:48Z</time>
      </trkpt>
      <trkpt lat="51.012638965621591" lon="5.950792003422976">
        <ele>58.780000000000001</ele>
        <time>2023-09-04T12:05:49Z</time>
      </trkpt>
      <trkpt lat="51.0127869900316" lon="5.954082990065217">
        <ele>57.340000000000003</ele>
        <time>2023-09-04T12:05:58Z</time>
      </trkpt>
      <trkpt lat="51.013055965304375" lon="5.959011968225241">
        <ele>53.490000000000002</ele>
        <time>2023-09-04T12:06:11Z</time>
      </trkpt>
      <trkpt lat="51.013591988012195" lon="5.964258033782244">
        <ele>57.82</ele>
        <time>2023-09-04T12:06:25Z</time>
      </trkpt>
      <trkpt lat="51.014689011499286" lon="5.971280978992581">
        <ele>63.100000000000001</ele>
        <time>2023-09-04T12:06:44Z</time>
      </trkpt>
      <trkpt lat="51.015433995053172" lon="5.976865002885461">
        <ele>69.349999999999994</ele>
        <time>2023-09-04T12:06:59Z</time>
      </trkpt>
      <trkpt lat="51.015697019174695" lon="5.981415035203099">
        <ele>71.760000000000005</ele>
        <time>2023-09-04T12:07:11Z</time>
      </trkpt>
      <trkpt lat="51.015624012798071" lon="5.984878018498421">
        <ele>71.269999999999996</ele>
        <time>2023-09-04T12:07:21Z</time>
      </trkpt>
      <trkpt lat="51.015439024195075" lon="5.987179018557072">
        <ele>68.870000000000005</ele>
        <time>2023-09-04T12:07:30Z</time>
      </trkpt>
      <trkpt lat="51.014990005642176" lon="5.990840988233686">
        <ele>67.430000000000007</ele>
        <time>2023-09-04T12:07:45Z</time>
      </trkpt>
      <trkpt lat="51.014520032331347" lon="5.994014963507652">
        <ele>67.430000000000007</ele>
        <time>2023-09-04T12:07:58Z</time>
      </trkpt>
      <trkpt lat="51.01390496827662" lon="5.998092005029321">
        <ele>67.430000000000007</ele>
        <time>2023-09-04T12:08:15Z</time>
      </trkpt>
      <trkpt lat="51.013344973325729" lon="6.001835027709603">
        <ele>66.469999999999999</ele>
        <time>2023-09-04T12:08:30Z</time>
      </trkpt>
      <trkpt lat="51.012873994186521" lon="6.004368960857391">
        <ele>67.430000000000007</ele>
        <time>2023-09-04T12:08:37Z</time>
      </trkpt>
      <trkpt lat="51.012137979269028" lon="6.009551994502544">
        <ele>73.200000000000003</ele>
        <time>2023-09-04T12:08:51Z</time>
      </trkpt>
      <trkpt lat="51.011255029588938" lon="6.015480011701584">
        <ele>73.200000000000003</ele>
        <time>2023-09-04T12:09:07Z</time>
      </trkpt>
      <trkpt lat="51.010534018278122" lon="6.020302958786488">
        <ele>70.790000000000006</ele>
        <time>2023-09-04T12:09:20Z</time>
      </trkpt>
      <trkpt lat="51.009903028607368" lon="6.025531003251672">
        <ele>68.390000000000001</ele>
        <time>2023-09-04T12:09:34Z</time>
      </trkpt>
      <trkpt lat="51.009937981143594" lon="6.029707035049796">
        <ele>65.989999999999995</ele>
        <time>2023-09-04T12:09:45Z</time>
      </trkpt>
      <trkpt lat="51.010451959446073" lon="6.033414015546441">
        <ele>64.069999999999993</ele>
        <time>2023-09-04T12:09:55Z</time>
      </trkpt>
      <trkpt lat="51.011400036513805" lon="6.036911029368639">
        <ele>61.18</ele>
        <time>2023-09-04T12:10:05Z</time>
      </trkpt>
      <trkpt lat="51.012585991993546" lon="6.039763977751136">
        <ele>56.859999999999999</ele>
        <time>2023-09-04T12:10:14Z</time>
      </trkpt>
      <trkpt lat="51.014232030138373" lon="6.043013976886869">
        <ele>54.450000000000003</ele>
        <time>2023-09-04T12:10:25Z</time>
      </trkpt>
      <trkpt lat="51.016212003305554" lon="6.047282963991165">
        <ele>59.740000000000002</ele>
        <time>2023-09-04T12:10:39Z</time>
      </trkpt>
      <trkpt lat="51.017725020647049" lon="6.051619006320834">
        <ele>67.430000000000007</ele>
        <time>2023-09-04T12:10:52Z</time>
      </trkpt>
      <trkpt lat="51.018703021109104" lon="6.055516004562378">
        <ele>72.239999999999995</ele>
        <time>2023-09-04T12:11:03Z</time>
      </trkpt>
      <trkpt lat="51.019436018541455" lon="6.059432029724121">
        <ele>72.719999999999999</ele>
        <time>2023-09-04T12:11:14Z</time>
      </trkpt>
      <trkpt lat="51.020031971856952" lon="6.064011985436082">
        <ele>71.760000000000005</ele>
        <time>2023-09-04T12:11:26Z</time>
      </trkpt>
      <trkpt lat="51.020831018686295" lon="6.069961963221431">
        <ele>69.349999999999994</ele>
        <time>2023-09-04T12:11:42Z</time>
      </trkpt>
      <trkpt lat="51.021699970588088" lon="6.075100991874933">
        <ele>70.310000000000002</ele>
        <time>2023-09-04T12:11:56Z</time>
      </trkpt>
      <trkpt lat="51.022974019870162" lon="6.080868998542428">
        <ele>66.950000000000003</ele>
        <time>2023-09-04T12:12:12Z</time>
      </trkpt>
      <trkpt lat="51.023725038394332" lon="6.085267988964915">
        <ele>63.100000000000001</ele>
        <time>2023-09-04T12:12:24Z</time>
      </trkpt>
      <trkpt lat="51.023752028122544" lon="6.08867104165256">
        <ele>63.579999999999998</ele>
        <time>2023-09-04T12:12:33Z</time>
      </trkpt>
      <trkpt lat="51.023308038711548" lon="6.091920034959912">
        <ele>65.510000000000005</ele>
        <time>2023-09-04T12:12:42Z</time>
      </trkpt>
      <trkpt lat="51.022610999643803" lon="6.095781996846199">
        <ele>68.870000000000005</ele>
        <time>2023-09-04T12:12:53Z</time>
      </trkpt>
      <trkpt lat="51.022397009655833" lon="6.099132997915149">
        <ele>70.790000000000006</ele>
        <time>2023-09-04T12:13:01Z</time>
      </trkpt>
      <trkpt lat="51.022607982158661" lon="6.103919986635447">
        <ele>72.239999999999995</ele>
        <time>2023-09-04T12:13:13Z</time>
      </trkpt>
      <trkpt lat="51.023064041510224" lon="6.109869964420795">
        <ele>77.040000000000006</ele>
        <time>2023-09-04T12:13:29Z</time>
      </trkpt>
      <trkpt lat="51.023343997076154" lon="6.112380009144545">
        <ele>76.079999999999998</ele>
        <time>2023-09-04T12:13:37Z</time>
      </trkpt>
      <trkpt lat="51.023395964875817" lon="6.113129016011953">
        <ele>75.120000000000005</ele>
        <time>2023-09-04T12:13:40Z</time>
      </trkpt>
      <trkpt lat="51.023386996239424" lon="6.113354992121458">
        <ele>74.640000000000001</ele>
        <time>2023-09-04T12:13:41Z</time>
      </trkpt>
      <trkpt lat="51.023350032046437" lon="6.113536041229963">
        <ele>74.640000000000001</ele>
        <time>2023-09-04T12:13:42Z</time>
      </trkpt>
      <trkpt lat="51.02329202927649" lon="6.113697979599237">
        <ele>74.159999999999997</ele>
        <time>2023-09-04T12:13:43Z</time>
      </trkpt>
      <trkpt lat="51.023199995979667" lon="6.113801999017596">
        <ele>73.680000000000007</ele>
        <time>2023-09-04T12:13:44Z</time>
      </trkpt>
      <trkpt lat="51.023096982389688" lon="6.113884979858995">
        <ele>73.680000000000007</ele>
        <time>2023-09-04T12:13:45Z</time>
      </trkpt>
      <trkpt lat="51.022986005991697" lon="6.113901995122433">
        <ele>73.680000000000007</ele>
        <time>2023-09-04T12:13:46Z</time>
      </trkpt>
      <trkpt lat="51.022873017936945" lon="6.113883974030614">
        <ele>74.159999999999997</ele>
        <time>2023-09-04T12:13:47Z</time>
      </trkpt>
      <trkpt lat="51.022760029882193" lon="6.113843992352486">
        <ele>74.159999999999997</ele>
        <time>2023-09-04T12:13:48Z</time>
      </trkpt>
      <trkpt lat="51.022666990756989" lon="6.113737961277366">
        <ele>74.640000000000001</ele>
        <time>2023-09-04T12:13:49Z</time>
      </trkpt>
      <trkpt lat="51.022587027400732" lon="6.113588009029627">
        <ele>75.120000000000005</ele>
        <time>2023-09-04T12:13:50Z</time>
      </trkpt>
      <trkpt lat="51.022518966346979" lon="6.11340201459825">
        <ele>75.599999999999994</ele>
        <time>2023-09-04T12:13:51Z</time>
      </trkpt>
      <trkpt lat="51.022488037124276" lon="6.113196993246675">
        <ele>75.599999999999994</ele>
        <time>2023-09-04T12:13:52Z</time>
      </trkpt>
      <trkpt lat="51.0224540065974" lon="6.112981997430325">
        <ele>76.079999999999998</ele>
        <time>2023-09-04T12:13:53Z</time>
      </trkpt>
      <trkpt lat="51.022351998835802" lon="6.112324018031359">
        <ele>75.599999999999994</ele>
        <time>2023-09-04T12:13:58Z</time>
      </trkpt>
      <trkpt lat="51.022339006885886" lon="6.112236008048058">
        <ele>75.120000000000005</ele>
        <time>2023-09-04T12:14:05Z</time>
      </trkpt>
      <trkpt lat="51.022405978292227" lon="6.112166019156575">
        <ele>74.640000000000001</ele>
        <time>2023-09-04T12:14:06Z</time>
      </trkpt>
      <trkpt lat="51.022464986890554" lon="6.112141963094473">
        <ele>74.159999999999997</ele>
        <time>2023-09-04T12:14:07Z</time>
      </trkpt>
      <trkpt lat="51.022548973560333" lon="6.112108016386628">
        <ele>73.680000000000007</ele>
        <time>2023-09-04T12:14:08Z</time>
      </trkpt>
      <trkpt lat="51.022662967443466" lon="6.112060993909836">
        <ele>73.200000000000003</ele>
        <time>2023-09-04T12:14:09Z</time>
      </trkpt>
      <trkpt lat="51.022803029045463" lon="6.112003996968269">
        <ele>72.239999999999995</ele>
        <time>2023-09-04T12:14:10Z</time>
      </trkpt>
      <trkpt lat="51.023741969838738" lon="6.111656986176968">
        <ele>68.390000000000001</ele>
        <time>2023-09-04T12:14:18Z</time>
      </trkpt>
      <trkpt lat="51.023881025612354" lon="6.111609963700175">
        <ele>66.469999999999999</ele>
        <time>2023-09-04T12:14:25Z</time>
      </trkpt>
      <trkpt lat="51.023887982591987" lon="6.111607030034065">
        <ele>66.469999999999999</ele>
        <time>2023-09-04T12:14:49Z</time>
      </trkpt>
      <trkpt lat="51.024143965914845" lon="6.111457999795675">
        <ele>65.510000000000005</ele>
        <time>2023-09-04T12:14:54Z</time>
      </trkpt>
      <trkpt lat="51.024990035220981" lon="6.110789962112904">
        <ele>66.950000000000003</ele>
        <time>2023-09-04T12:15:03Z</time>
      </trkpt>
      <trkpt lat="51.02657999843359" lon="6.109926039353013">
        <ele>66.950000000000003</ele>
        <time>2023-09-04T12:15:15Z</time>
      </trkpt>
      <trkpt lat="51.027967035770416" lon="6.109219025820494">
        <ele>67.430000000000007</ele>
        <time>2023-09-04T12:15:26Z</time>
      </trkpt>
      <trkpt lat="51.029336974024773" lon="6.108532967045903">
        <ele>64.549999999999997</ele>
        <time>2023-09-04T12:15:38Z</time>
      </trkpt>
      <trkpt lat="51.030401978641748" lon="6.107970960438252">
        <ele>62.619999999999997</ele>
        <time>2023-09-04T12:15:47Z</time>
      </trkpt>
      <trkpt lat="51.031433036550879" lon="6.107456982135773">
        <ele>62.619999999999997</ele>
        <time>2023-09-04T12:15:54Z</time>
      </trkpt>
      <trkpt lat="51.032976983115077" lon="6.106608984991908">
        <ele>62.619999999999997</ele>
        <time>2023-09-04T12:16:04Z</time>
      </trkpt>
      <trkpt lat="51.03418598882854" lon="6.105328984558582">
        <ele>63.100000000000001</ele>
        <time>2023-09-04T12:16:12Z</time>
      </trkpt>
      <trkpt lat="51.035628011450171" lon="6.102995965629816">
        <ele>59.259999999999998</ele>
        <time>2023-09-04T12:16:23Z</time>
      </trkpt>
      <trkpt lat="51.036976994946599" lon="6.101166028529406">
        <ele>58.780000000000001</ele>
        <time>2023-09-04T12:16:33Z</time>
      </trkpt>
      <trkpt lat="51.038565030321479" lon="6.099884016439319">
        <ele>57.340000000000003</ele>
        <time>2023-09-04T12:16:42Z</time>
      </trkpt>
      <trkpt lat="51.040081987157464" lon="6.099287979304791">
        <ele>55.890000000000001</ele>
        <time>2023-09-04T12:16:50Z</time>
      </trkpt>
      <trkpt lat="51.041552005335689" lon="6.099224025383592">
        <ele>53.490000000000002</ele>
        <time>2023-09-04T12:16:58Z</time>
      </trkpt>
      <trkpt lat="51.043302984908223" lon="6.099752001464367">
        <ele>51.57</ele>
        <time>2023-09-04T12:17:06Z</time>
      </trkpt>
      <trkpt lat="51.045196959748864" lon="6.100593963637948">
        <ele>50.609999999999999</ele>
        <time>2023-09-04T12:17:15Z</time>
      </trkpt>
      <trkpt lat="51.047333003953099" lon="6.101639019325376">
        <ele>48.68</ele>
        <time>2023-09-04T12:17:27Z</time>
      </trkpt>
      <trkpt lat="51.049469970166683" lon="6.102738976478577">
        <ele>46.759999999999998</ele>
        <time>2023-09-04T12:17:38Z</time>
      </trkpt>
      <trkpt lat="51.051511969417334" lon="6.104071028530598">
        <ele>43.399999999999999</ele>
        <time>2023-09-04T12:17:49Z</time>
      </trkpt>
      <trkpt lat="51.053316006436944" lon="6.105495030060411">
        <ele>40.509999999999998</ele>
        <time>2023-09-04T12:18:00Z</time>
      </trkpt>
      <trkpt lat="51.054806979373097" lon="6.106906961649656">
        <ele>38.590000000000003</ele>
        <time>2023-09-04T12:18:10Z</time>
      </trkpt>
      <trkpt lat="51.056395014747977" lon="6.108710998669267">
        <ele>34.740000000000002</ele>
        <time>2023-09-04T12:18:22Z</time>
      </trkpt>
      <trkpt lat="51.058033006265759" lon="6.110848970711231">
        <ele>30.899999999999999</ele>
        <time>2023-09-04T12:18:35Z</time>
      </trkpt>
      <trkpt lat="51.059336978942156" lon="6.112789968028665">
        <ele>30.899999999999999</ele>
        <time>2023-09-04T12:18:44Z</time>
      </trkpt>
      <trkpt lat="51.060623014345765" lon="6.114859040826559">
        <ele>32.340000000000003</ele>
        <time>2023-09-04T12:18:55Z</time>
      </trkpt>
      <trkpt lat="51.061649965122342" lon="6.116615971550345">
        <ele>32.82</ele>
        <time>2023-09-04T12:19:05Z</time>
      </trkpt>
      <trkpt lat="51.062428979203105" lon="6.118008038029075">
        <ele>32.82</ele>
        <time>2023-09-04T12:19:13Z</time>
      </trkpt>
      <trkpt lat="51.062580021098256" lon="6.118391007184982">
        <ele>33.299999999999997</ele>
        <time>2023-09-04T12:19:16Z</time>
      </trkpt>
      <trkpt lat="51.062607010826468" lon="6.118477005511522">
        <ele>33.780000000000001</ele>
        <time>2023-09-04T12:19:17Z</time>
      </trkpt>
      <trkpt lat="51.06258999556303" lon="6.118669034913182">
        <ele>33.780000000000001</ele>
        <time>2023-09-04T12:19:18Z</time>
      </trkpt>
      <trkpt lat="51.062559988349676" lon="6.118756961077452">
        <ele>34.259999999999998</ele>
        <time>2023-09-04T12:19:19Z</time>
      </trkpt>
      <trkpt lat="51.062509026378393" lon="6.118850000202656">
        <ele>34.740000000000002</ele>
        <time>2023-09-04T12:19:20Z</time>
      </trkpt>
      <trkpt lat="51.062454041093588" lon="6.118918983265758">
        <ele>35.229999999999997</ele>
        <time>2023-09-04T12:19:21Z</time>
      </trkpt>
      <trkpt lat="51.062398971989751" lon="6.118987966328859">
        <ele>35.710000000000001</ele>
        <time>2023-09-04T12:19:22Z</time>
      </trkpt>
      <trkpt lat="51.062035029754043" lon="6.119371019303799">
        <ele>36.670000000000002</ele>
        <time>2023-09-04T12:19:27Z</time>
      </trkpt>
      <trkpt lat="51.061948025599122" lon="6.119415024295449">
        <ele>36.670000000000002</ele>
        <time>2023-09-04T12:19:28Z</time>
      </trkpt>
      <trkpt lat="51.061862027272582" lon="6.119457017630339">
        <ele>36.189999999999998</ele>
        <time>2023-09-04T12:19:29Z</time>
      </trkpt>
      <trkpt lat="51.0617730114609" lon="6.119471015408635">
        <ele>36.189999999999998</ele>
        <time>2023-09-04T12:19:30Z</time>
      </trkpt>
      <trkpt lat="51.061691036447883" lon="6.119471015408635">
        <ele>36.189999999999998</ele>
        <time>2023-09-04T12:19:31Z</time>
      </trkpt>
      <trkpt lat="51.061603026464581" lon="6.11946196295321">
        <ele>36.189999999999998</ele>
        <time>2023-09-04T12:19:32Z</time>
      </trkpt>
      <trkpt lat="51.061532031744719" lon="6.119426004588604">
        <ele>36.189999999999998</ele>
        <time>2023-09-04T12:19:33Z</time>
      </trkpt>
      <trkpt lat="51.061445027589798" lon="6.119378982111812">
        <ele>35.710000000000001</ele>
        <time>2023-09-04T12:19:34Z</time>
      </trkpt>
      <trkpt lat="51.061389036476612" lon="6.119303964078426">
        <ele>35.710000000000001</ele>
        <time>2023-09-04T12:19:35Z</time>
      </trkpt>
      <trkpt lat="51.061335979029536" lon="6.119232969358563">
        <ele>35.229999999999997</ele>
        <time>2023-09-04T12:19:36Z</time>
      </trkpt>
      <trkpt lat="51.061126012355089" lon="6.118914959952235">
        <ele>34.259999999999998</ele>
        <time>2023-09-04T12:19:40Z</time>
      </trkpt>
      <trkpt lat="51.060972036793828" lon="6.118618994951248">
        <ele>32.82</ele>
        <time>2023-09-04T12:19:44Z</time>
      </trkpt>
      <trkpt lat="51.060928031802177" lon="6.118534002453089">
        <ele>32.82</ele>
        <time>2023-09-04T12:19:45Z</time>
      </trkpt>
      <trkpt lat="51.06089198961854" lon="6.118406010791659">
        <ele>32.340000000000003</ele>
        <time>2023-09-04T12:19:46Z</time>
      </trkpt>
      <trkpt lat="51.06086902320385" lon="6.118302997201681">
        <ele>32.340000000000003</ele>
        <time>2023-09-04T12:19:47Z</time>
      </trkpt>
      <trkpt lat="51.060846978798509" lon="6.118198977783322">
        <ele>31.859999999999999</ele>
        <time>2023-09-04T12:19:48Z</time>
      </trkpt>
      <trkpt lat="51.060824012383819" lon="6.118093030527234">
        <ele>31.859999999999999</ele>
        <time>2023-09-04T12:19:49Z</time>
      </trkpt>
      <trkpt lat="51.060805991292" lon="6.118011977523565">
        <ele>32.340000000000003</ele>
        <time>2023-09-04T12:19:50Z</time>
      </trkpt>
      <trkpt lat="51.060815965756774" lon="6.117883985862136">
        <ele>32.340000000000003</ele>
        <time>2023-09-04T12:19:51Z</time>
      </trkpt>
      <trkpt lat="51.06082602404058" lon="6.117767980322242">
        <ele>31.859999999999999</ele>
        <time>2023-09-04T12:19:52Z</time>
      </trkpt>
      <trkpt lat="51.060857959091663" lon="6.117658009752631">
        <ele>31.379999999999999</ele>
        <time>2023-09-04T12:19:53Z</time>
      </trkpt>
      <trkpt lat="51.060899030417204" lon="6.117528006434441">
        <ele>31.379999999999999</ele>
        <time>2023-09-04T12:19:54Z</time>
      </trkpt>
      <trkpt lat="51.061358023434877" lon="6.116010965779424">
        <ele>28.98</ele>
        <time>2023-09-04T12:20:03Z</time>
      </trkpt>
      <trkpt lat="51.061595985665917" lon="6.115065990015864">
        <ele>28.02</ele>
        <time>2023-09-04T12:20:10Z</time>
      </trkpt>
      <trkpt lat="51.061801007017493" lon="6.114313965663314">
        <ele>28.98</ele>
        <time>2023-09-04T12:20:17Z</time>
      </trkpt>
      <trkpt lat="51.061832020059228" lon="6.11419502645731">
        <ele>28.98</ele>
        <time>2023-09-04T12:20:18Z</time>
      </trkpt>
      <trkpt lat="51.06226603500545" lon="6.112525016069412">
        <ele>30.420000000000002</ele>
        <time>2023-09-04T12:20:32Z</time>
      </trkpt>
      <trkpt lat="51.062595024704933" lon="6.111259013414383">
        <ele>30.420000000000002</ele>
        <time>2023-09-04T12:20:43Z</time>
      </trkpt>
      <trkpt lat="51.062671970576048" lon="6.110956007614732">
        <ele>30.420000000000002</ele>
        <time>2023-09-04T12:20:52Z</time>
      </trkpt>
      <trkpt lat="51.062779007479548" lon="6.110547976568341">
        <ele>31.379999999999999</ele>
        <time>2023-09-04T12:21:01Z</time>
      </trkpt>
      <trkpt lat="51.062780013307929" lon="6.110544037073851">
        <ele>31.859999999999999</ele>
        <time>2023-09-04T12:21:02Z</time>
      </trkpt>
      <trkpt lat="51.062886966392398" lon="6.110380003228784">
        <ele>31.859999999999999</ele>
        <time>2023-09-04T12:21:03Z</time>
      </trkpt>
      <trkpt lat="51.062866011634469" lon="6.11026500351727">
        <ele>31.859999999999999</ele>
        <time>2023-09-04T12:21:04Z</time>
      </trkpt>
      <trkpt lat="51.062898030504584" lon="6.110143968835473">
        <ele>31.859999999999999</ele>
        <time>2023-09-04T12:21:05Z</time>
      </trkpt>
      <trkpt lat="51.062936000525951" lon="6.110001979395747">
        <ele>31.859999999999999</ele>
        <time>2023-09-04T12:21:06Z</time>
      </trkpt>
      <trkpt lat="51.063420977443457" lon="6.108190985396504">
        <ele>29.940000000000001</ele>
        <time>2023-09-04T12:21:17Z</time>
      </trkpt>
      <trkpt lat="51.063762037083507" lon="6.10691400244832">
        <ele>29.940000000000001</ele>
        <time>2023-09-04T12:21:24Z</time>
      </trkpt>
      <trkpt lat="51.064304010942578" lon="6.104889018461108">
        <ele>30.899999999999999</ele>
        <time>2023-09-04T12:21:36Z</time>
      </trkpt>
      <trkpt lat="51.06432999484241" lon="6.104792039841414">
        <ele>30.899999999999999</ele>
        <time>2023-09-04T12:21:37Z</time>
      </trkpt>
      <trkpt lat="51.064348015934229" lon="6.104725990444422">
        <ele>30.899999999999999</ele>
        <time>2023-09-04T12:21:38Z</time>
      </trkpt>
      <trkpt lat="51.064357990399003" lon="6.104687014594674">
        <ele>30.420000000000002</ele>
        <time>2023-09-04T12:21:39Z</time>
      </trkpt>
      <trkpt lat="51.064482964575291" lon="6.104753986001015">
        <ele>29.460000000000001</ele>
        <time>2023-09-04T12:21:41Z</time>
      </trkpt>
      <trkpt lat="51.064588995650411" lon="6.104839984327555">
        <ele>28.5</ele>
        <time>2023-09-04T12:21:43Z</time>
      </trkpt>
      <trkpt lat="51.06475998647511" lon="6.104844007641077">
        <ele>27.530000000000001</ele>
        <time>2023-09-04T12:21:47Z</time>
      </trkpt>
      <trkpt lat="51.064815977588296" lon="6.104772007092834">
        <ele>27.050000000000001</ele>
        <time>2023-09-04T12:21:49Z</time>
      </trkpt>
      <trkpt lat="51.064836010336876" lon="6.104725990444422">
        <ele>27.530000000000001</ele>
        <time>2023-09-04T12:21:51Z</time>
      </trkpt>
      <trkpt lat="51.064674993976951" lon="6.104609984904528">
        <ele>30.420000000000002</ele>
        <time>2023-09-04T12:22:01Z</time>
      </trkpt>
      <trkpt lat="51.064666025340557" lon="6.104645021259785">
        <ele>41.469999999999999</ele>
        <time>2023-09-04T12:38:22Z</time>
      </trkpt>
      <trkpt lat="51.064686980098486" lon="6.104618031531572">
        <ele>39.549999999999997</ele>
        <time>2023-09-04T12:39:05Z</time>
      </trkpt>
      <trkpt lat="51.064665019512177" lon="6.104600010439754">
        <ele>42.920000000000002</ele>
        <time>2023-09-04T12:39:53Z</time>
      </trkpt>
      <trkpt lat="51.064660996198654" lon="6.104596992954612">
        <ele>42.439999999999998</ele>
        <time>2023-09-04T12:40:44Z</time>
      </trkpt>
      <trkpt lat="51.064655967056751" lon="6.104592969641089">
        <ele>42.439999999999998</ele>
        <time>2023-09-04T12:41:32Z</time>
      </trkpt>
      <trkpt lat="51.064655967056751" lon="6.104592969641089">
        <ele>42.439999999999998</ele>
        <time>2023-09-04T12:41:36Z</time>
      </trkpt>
      <trkpt lat="51.064382968470454" lon="6.104592969641089">
        <ele>38.590000000000003</ele>
        <time>2023-09-04T12:41:49Z</time>
      </trkpt>
      <trkpt lat="51.064380034804344" lon="6.104605039581657">
        <ele>38.590000000000003</ele>
        <time>2023-09-04T12:41:50Z</time>
      </trkpt>
      <trkpt lat="51.064373999834061" lon="6.104629011824727">
        <ele>37.630000000000003</ele>
        <time>2023-09-04T12:41:51Z</time>
      </trkpt>
      <trkpt lat="51.064366037026048" lon="6.104659019038081">
        <ele>36.670000000000002</ele>
        <time>2023-09-04T12:41:52Z</time>
      </trkpt>
      <trkpt lat="51.064409958198667" lon="6.104493979364634">
        <ele>33.780000000000001</ele>
        <time>2023-09-04T12:41:57Z</time>
      </trkpt>
      <trkpt lat="51.064438037574291" lon="6.104389037936926">
        <ele>33.299999999999997</ele>
        <time>2023-09-04T12:41:58Z</time>
      </trkpt>
      <trkpt lat="51.064493022859097" lon="6.104185022413731">
        <ele>32.82</ele>
        <time>2023-09-04T12:42:00Z</time>
      </trkpt>
      <trkpt lat="51.064571980386972" lon="6.103888973593712">
        <ele>32.82</ele>
        <time>2023-09-04T12:42:04Z</time>
      </trkpt>
      <trkpt lat="51.064654039219022" lon="6.103903977200389">
        <ele>32.82</ele>
        <time>2023-09-04T12:42:07Z</time>
      </trkpt>
      <trkpt lat="51.064573992043734" lon="6.103878999128938">
        <ele>30.899999999999999</ele>
        <time>2023-09-04T12:42:17Z</time>
      </trkpt>
      <trkpt lat="51.06456502340734" lon="6.103915963321924">
        <ele>30.420000000000002</ele>
        <time>2023-09-04T12:42:18Z</time>
      </trkpt>
      <trkpt lat="51.064545996487141" lon="6.103986036032438">
        <ele>29.940000000000001</ele>
        <time>2023-09-04T12:42:19Z</time>
      </trkpt>
      <trkpt lat="51.064519006758928" lon="6.104086032137275">
        <ele>29.940000000000001</ele>
        <time>2023-09-04T12:42:20Z</time>
      </trkpt>
      <trkpt lat="51.064486987888813" lon="6.104204971343279">
        <ele>29.460000000000001</ele>
        <time>2023-09-04T12:42:21Z</time>
      </trkpt>
      <trkpt lat="51.064453041180968" lon="6.104332963004708">
        <ele>28.98</ele>
        <time>2023-09-04T12:42:22Z</time>
      </trkpt>
      <trkpt lat="51.064060013741255" lon="6.105801975354552">
        <ele>26.57</ele>
        <time>2023-09-04T12:42:32Z</time>
      </trkpt>
      <trkpt lat="51.063504964113235" lon="6.107875993475318">
        <ele>26.57</ele>
        <time>2023-09-04T12:42:48Z</time>
      </trkpt>
      <trkpt lat="51.063304971903563" lon="6.108623994514346">
        <ele>27.050000000000001</ele>
        <time>2023-09-04T12:42:55Z</time>
      </trkpt>
      <trkpt lat="51.063216961920261" lon="6.108950972557068">
        <ele>27.050000000000001</ele>
        <time>2023-09-04T12:42:58Z</time>
      </trkpt>
      <trkpt lat="51.063179997727275" lon="6.109092961996794">
        <ele>27.050000000000001</ele>
        <time>2023-09-04T12:42:59Z</time>
      </trkpt>
      <trkpt lat="51.063058963045478" lon="6.109544998034835">
        <ele>26.57</ele>
        <time>2023-09-04T12:43:02Z</time>
      </trkpt>
      <trkpt lat="51.062866011634469" lon="6.11026500351727">
        <ele>26.57</ele>
        <time>2023-09-04T12:43:09Z</time>
      </trkpt>
      <trkpt lat="51.062780013307929" lon="6.110544037073851">
        <ele>27.050000000000001</ele>
        <time>2023-09-04T12:43:10Z</time>
      </trkpt>
      <trkpt lat="51.062772972509265" lon="6.110571026802063">
        <ele>27.050000000000001</ele>
        <time>2023-09-04T12:43:11Z</time>
      </trkpt>
      <trkpt lat="51.062743971124291" lon="6.110682003200054">
        <ele>27.530000000000001</ele>
        <time>2023-09-04T12:43:12Z</time>
      </trkpt>
      <trkpt lat="51.062712036073208" lon="6.110803037881851">
        <ele>27.530000000000001</ele>
        <time>2023-09-04T12:43:13Z</time>
      </trkpt>
      <trkpt lat="51.062678005546331" lon="6.110933041200042">
        <ele>28.02</ele>
        <time>2023-09-04T12:43:14Z</time>
      </trkpt>
      <trkpt lat="51.062641963362694" lon="6.111074024811387">
        <ele>28.5</ele>
        <time>2023-09-04T12:43:15Z</time>
      </trkpt>
      <trkpt lat="51.062157992273569" lon="6.112938998267055">
        <ele>33.299999999999997</ele>
        <time>2023-09-04T12:43:26Z</time>
      </trkpt>
      <trkpt lat="51.061442010104656" lon="6.115650963038206">
        <ele>35.229999999999997</ele>
        <time>2023-09-04T12:43:41Z</time>
      </trkpt>
      <trkpt lat="51.060972036793828" lon="6.117293983697891">
        <ele>35.229999999999997</ele>
        <time>2023-09-04T12:43:51Z</time>
      </trkpt>
      <trkpt lat="51.060830969363451" lon="6.11774199642241">
        <ele>34.740000000000002</ele>
        <time>2023-09-04T12:43:54Z</time>
      </trkpt>
      <trkpt lat="51.060815965756774" lon="6.117884991690517">
        <ele>34.259999999999998</ele>
        <time>2023-09-04T12:43:55Z</time>
      </trkpt>
      <trkpt lat="51.060805991292" lon="6.118013989180327">
        <ele>34.259999999999998</ele>
        <time>2023-09-04T12:43:56Z</time>
      </trkpt>
      <trkpt lat="51.060833986848593" lon="6.118141980841756">
        <ele>34.259999999999998</ele>
        <time>2023-09-04T12:43:57Z</time>
      </trkpt>
      <trkpt lat="51.060853013768792" lon="6.118225967511535">
        <ele>33.780000000000001</ele>
        <time>2023-09-04T12:43:58Z</time>
      </trkpt>
      <trkpt lat="51.060860976576805" lon="6.118267038837075">
        <ele>33.780000000000001</ele>
        <time>2023-09-04T12:43:59Z</time>
      </trkpt>
      <trkpt lat="51.060860976576805" lon="6.118267038837075">
        <ele>33.780000000000001</ele>
        <time>2023-09-04T12:44:10Z</time>
      </trkpt>
      <trkpt lat="51.060864999890327" lon="6.118281958624721">
        <ele>33.780000000000001</ele>
        <time>2023-09-04T12:44:36Z</time>
      </trkpt>
      <trkpt lat="51.060875980183482" lon="6.118334010243416">
        <ele>33.299999999999997</ele>
        <time>2023-09-04T12:44:37Z</time>
      </trkpt>
      <trkpt lat="51.06089299544692" lon="6.118412967771292">
        <ele>33.299999999999997</ele>
        <time>2023-09-04T12:44:38Z</time>
      </trkpt>
      <trkpt lat="51.060808002948761" lon="6.118639027699828">
        <ele>33.299999999999997</ele>
        <time>2023-09-04T12:44:39Z</time>
      </trkpt>
      <trkpt lat="51.060754023492336" lon="6.11870801076293">
        <ele>33.299999999999997</ele>
        <time>2023-09-04T12:44:40Z</time>
      </trkpt>
      <trkpt lat="51.06067699380219" lon="6.118804989382625">
        <ele>33.299999999999997</ele>
        <time>2023-09-04T12:44:41Z</time>
      </trkpt>
      <trkpt lat="51.060615973547101" lon="6.118895011022687">
        <ele>33.299999999999997</ele>
        <time>2023-09-04T12:44:42Z</time>
      </trkpt>
      <trkpt lat="51.059826985001564" lon="6.120372992008925">
        <ele>31.859999999999999</ele>
        <time>2023-09-04T12:44:52Z</time>
      </trkpt>
      <trkpt lat="51.059573013335466" lon="6.12111303023994">
        <ele>32.82</ele>
        <time>2023-09-04T12:44:56Z</time>
      </trkpt>
      <trkpt lat="51.059509981423616" lon="6.121316039934754">
        <ele>33.299999999999997</ele>
        <time>2023-09-04T12:44:57Z</time>
      </trkpt>
      <trkpt lat="51.058751000091434" lon="6.123772021383047">
        <ele>37.630000000000003</ele>
        <time>2023-09-04T12:45:11Z</time>
      </trkpt>
      <trkpt lat="51.058403989300132" lon="6.124833002686501">
        <ele>40.030000000000001</ele>
        <time>2023-09-04T12:45:19Z</time>
      </trkpt>
      <trkpt lat="51.058283038437366" lon="6.125202979892492">
        <ele>40.030000000000001</ele>
        <time>2023-09-04T12:45:28Z</time>
      </trkpt>
      <trkpt lat="51.058283038437366" lon="6.125202979892492">
        <ele>40.030000000000001</ele>
        <time>2023-09-04T12:45:45Z</time>
      </trkpt>
      <trkpt lat="51.058121016249061" lon="6.125698015093803">
        <ele>41.950000000000003</ele>
        <time>2023-09-04T12:45:52Z</time>
      </trkpt>
      <trkpt lat="51.057707034051418" lon="6.126965023577213">
        <ele>41.469999999999999</ele>
        <time>2023-09-04T12:46:06Z</time>
      </trkpt>
      <trkpt lat="51.057439986616373" lon="6.127835987135768">
        <ele>39.549999999999997</ele>
        <time>2023-09-04T12:46:16Z</time>
      </trkpt>
      <trkpt lat="51.05741199105978" lon="6.127929026260972">
        <ele>39.07</ele>
        <time>2023-09-04T12:46:17Z</time>
      </trkpt>
      <trkpt lat="51.057323981076479" lon="6.128209987655282">
        <ele>39.07</ele>
        <time>2023-09-04T12:46:20Z</time>
      </trkpt>
      <trkpt lat="51.057293973863125" lon="6.128305038437247">
        <ele>39.07</ele>
        <time>2023-09-04T12:46:21Z</time>
      </trkpt>
      <trkpt lat="51.05726296082139" lon="6.128405034542084">
        <ele>39.07</ele>
        <time>2023-09-04T12:46:22Z</time>
      </trkpt>
      <trkpt lat="51.056777983903885" lon="6.129916040226817">
        <ele>40.030000000000001</ele>
        <time>2023-09-04T12:46:36Z</time>
      </trkpt>
      <trkpt lat="51.05627004057169" lon="6.13142604008317">
        <ele>40.030000000000001</ele>
        <time>2023-09-04T12:46:46Z</time>
      </trkpt>
      <trkpt lat="51.055728988721967" lon="6.133151035755873">
        <ele>39.549999999999997</ele>
        <time>2023-09-04T12:46:56Z</time>
      </trkpt>
      <trkpt lat="51.055508963763714" lon="6.133719999343157">
        <ele>40.030000000000001</ele>
        <time>2023-09-04T12:47:00Z</time>
      </trkpt>
      <trkpt lat="51.054598018527031" lon="6.135005028918386">
        <ele>39.549999999999997</ele>
        <time>2023-09-04T12:47:12Z</time>
      </trkpt>
      <trkpt lat="51.054003993049264" lon="6.135683041065931">
        <ele>38.109999999999999</ele>
        <time>2023-09-04T12:47:21Z</time>
      </trkpt>
      <trkpt lat="51.053903996944427" lon="6.135800974443555">
        <ele>38.109999999999999</ele>
        <time>2023-09-04T12:47:23Z</time>
      </trkpt>
      <trkpt lat="51.05386602692306" lon="6.135846991091967">
        <ele>38.590000000000003</ele>
        <time>2023-09-04T12:47:24Z</time>
      </trkpt>
      <trkpt lat="51.053835013881326" lon="6.135884039103985">
        <ele>38.590000000000003</ele>
        <time>2023-09-04T12:47:25Z</time>
      </trkpt>
      <trkpt lat="51.053747003898025" lon="6.135988980531693">
        <ele>39.549999999999997</ele>
        <time>2023-09-04T12:47:34Z</time>
      </trkpt>
      <trkpt lat="51.053637033328414" lon="6.136128036305308">
        <ele>38.590000000000003</ele>
        <time>2023-09-04T12:47:40Z</time>
      </trkpt>
      <trkpt lat="51.053593028336763" lon="6.136185033246875">
        <ele>38.109999999999999</ele>
        <time>2023-09-04T12:47:41Z</time>
      </trkpt>
      <trkpt lat="51.053397981449962" lon="6.136441016569734">
        <ele>37.149999999999999</ele>
        <time>2023-09-04T12:47:44Z</time>
      </trkpt>
      <trkpt lat="51.053317012265325" lon="6.136564984917641">
        <ele>36.670000000000002</ele>
        <time>2023-09-04T12:47:45Z</time>
      </trkpt>
      <trkpt lat="51.052713012322783" lon="6.137650022283196">
        <ele>33.780000000000001</ele>
        <time>2023-09-04T12:47:53Z</time>
      </trkpt>
      <trkpt lat="51.052631037309766" lon="6.137838028371334">
        <ele>33.780000000000001</ele>
        <time>2023-09-04T12:47:54Z</time>
      </trkpt>
      <trkpt lat="51.052472032606602" lon="6.138967992737889">
        <ele>33.299999999999997</ele>
        <time>2023-09-04T12:48:00Z</time>
      </trkpt>
      <trkpt lat="51.052476977929473" lon="6.139534022659063">
        <ele>33.780000000000001</ele>
        <time>2023-09-04T12:48:03Z</time>
      </trkpt>
      <trkpt lat="51.052504973486066" lon="6.139943981543183">
        <ele>34.740000000000002</ele>
        <time>2023-09-04T12:48:05Z</time>
      </trkpt>
      <trkpt lat="51.052793981507421" lon="6.140961963683367">
        <ele>34.740000000000002</ele>
        <time>2023-09-04T12:48:10Z</time>
      </trkpt>
      <trkpt lat="51.052873022854328" lon="6.141153993085027">
        <ele>34.259999999999998</ele>
        <time>2023-09-04T12:48:11Z</time>
      </trkpt>
      <trkpt lat="51.052952986210585" lon="6.141341999173164">
        <ele>34.259999999999998</ele>
        <time>2023-09-04T12:48:12Z</time>
      </trkpt>
      <trkpt lat="51.053291028365493" lon="6.142166024073958">
        <ele>31.379999999999999</ele>
        <time>2023-09-04T12:48:17Z</time>
      </trkpt>
      <trkpt lat="51.053334027528763" lon="6.142324022948742">
        <ele>30.899999999999999</ele>
        <time>2023-09-04T12:48:18Z</time>
      </trkpt>
      <trkpt lat="51.053410973399878" lon="6.142609007656574">
        <ele>30.420000000000002</ele>
        <time>2023-09-04T12:48:20Z</time>
      </trkpt>
      <trkpt lat="51.053490014746785" lon="6.143045034259558">
        <ele>27.530000000000001</ele>
        <time>2023-09-04T12:48:26Z</time>
      </trkpt>
      <trkpt lat="51.053508035838604" lon="6.143247960135341">
        <ele>27.050000000000001</ele>
        <time>2023-09-04T12:48:27Z</time>
      </trkpt>
      <trkpt lat="51.053492026403546" lon="6.143263969570398">
        <ele>26.57</ele>
        <time>2023-09-04T12:48:28Z</time>
      </trkpt>
      <trkpt lat="51.053494960069656" lon="6.143089039251208">
        <ele>26.57</ele>
        <time>2023-09-04T12:48:29Z</time>
      </trkpt>
      <trkpt lat="51.053499989211559" lon="6.143138995394111">
        <ele>26.09</ele>
        <time>2023-09-04T12:48:30Z</time>
      </trkpt>
      <trkpt lat="51.053423965349793" lon="6.143332030624151">
        <ele>26.09</ele>
        <time>2023-09-04T12:48:31Z</time>
      </trkpt>
      <trkpt lat="51.053423965349793" lon="6.143332030624151">
        <ele>25.609999999999999</ele>
        <time>2023-09-04T12:48:32Z</time>
      </trkpt>
      <trkpt lat="51.053408039733768" lon="6.14341601729393">
        <ele>25.129999999999999</ele>
        <time>2023-09-04T12:48:33Z</time>
      </trkpt>
      <trkpt lat="51.0534149967134" lon="6.143496986478567">
        <ele>25.129999999999999</ele>
        <time>2023-09-04T12:48:34Z</time>
      </trkpt>
      <trkpt lat="51.05343502946198" lon="6.143600000068545">
        <ele>25.129999999999999</ele>
        <time>2023-09-04T12:48:35Z</time>
      </trkpt>
      <trkpt lat="51.053446009755135" lon="6.14365297369659">
        <ele>25.129999999999999</ele>
        <time>2023-09-04T12:48:36Z</time>
      </trkpt>
      <trkpt lat="51.053512981161475" lon="6.14386604167521">
        <ele>24.649999999999999</ele>
        <time>2023-09-04T12:48:37Z</time>
      </trkpt>
      <trkpt lat="51.053495965898037" lon="6.144013982266188">
        <ele>24.649999999999999</ele>
        <time>2023-09-04T12:48:38Z</time>
      </trkpt>
      <trkpt lat="51.053476016968489" lon="6.14419000223279">
        <ele>25.129999999999999</ele>
        <time>2023-09-04T12:48:39Z</time>
      </trkpt>
      <trkpt lat="51.053452966734767" lon="6.144385971128941">
        <ele>25.129999999999999</ele>
        <time>2023-09-04T12:48:40Z</time>
      </trkpt>
      <trkpt lat="51.053430000320077" lon="6.144589986652136">
        <ele>25.609999999999999</ele>
        <time>2023-09-04T12:48:41Z</time>
      </trkpt>
      <trkpt lat="51.053375015035272" lon="6.144803976640105">
        <ele>25.609999999999999</ele>
        <time>2023-09-04T12:48:42Z</time>
      </trkpt>
      <trkpt lat="51.053246017545462" lon="6.145208990201354">
        <ele>26.09</ele>
        <time>2023-09-04T12:48:44Z</time>
      </trkpt>
      <trkpt lat="51.053167982026935" lon="6.145416023209691">
        <ele>26.57</ele>
        <time>2023-09-04T12:48:45Z</time>
      </trkpt>
      <trkpt lat="51.053080977872014" lon="6.14564904011786">
        <ele>26.57</ele>
        <time>2023-09-04T12:48:46Z</time>
      </trkpt>
      <trkpt lat="51.052198028191924" lon="6.146987965330482">
        <ele>28.5</ele>
        <time>2023-09-04T12:48:54Z</time>
      </trkpt>
      <trkpt lat="51.051376014947891" lon="6.148168975487351">
        <ele>30.899999999999999</ele>
        <time>2023-09-04T12:49:00Z</time>
      </trkpt>
      <trkpt lat="51.05070797726512" lon="6.149219982326031">
        <ele>31.859999999999999</ele>
        <time>2023-09-04T12:49:06Z</time>
      </trkpt>
      <trkpt lat="51.050160974264145" lon="6.150414990261197">
        <ele>33.780000000000001</ele>
        <time>2023-09-04T12:49:14Z</time>
      </trkpt>
      <trkpt lat="51.049918988719583" lon="6.150974985212088">
        <ele>34.740000000000002</ele>
        <time>2023-09-04T12:49:20Z</time>
      </trkpt>
      <trkpt lat="51.049893004819751" lon="6.151034999638796">
        <ele>34.740000000000002</ele>
        <time>2023-09-04T12:49:21Z</time>
      </trkpt>
      <trkpt lat="51.04974003508687" lon="6.15138896740973">
        <ele>34.740000000000002</ele>
        <time>2023-09-04T12:49:29Z</time>
      </trkpt>
      <trkpt lat="51.0496970359236" lon="6.151488963514566">
        <ele>34.740000000000002</ele>
        <time>2023-09-04T12:49:31Z</time>
      </trkpt>
      <trkpt lat="51.049616988748312" lon="6.151673030108213">
        <ele>34.740000000000002</ele>
        <time>2023-09-04T12:49:34Z</time>
      </trkpt>
      <trkpt lat="51.049399981275201" lon="6.152174016460776">
        <ele>33.780000000000001</ele>
        <time>2023-09-04T12:49:41Z</time>
      </trkpt>
      <trkpt lat="51.049367040395737" lon="6.152250962331891">
        <ele>33.299999999999997</ele>
        <time>2023-09-04T12:49:42Z</time>
      </trkpt>
      <trkpt lat="51.049334015697241" lon="6.152324974536896">
        <ele>32.82</ele>
        <time>2023-09-04T12:49:43Z</time>
      </trkpt>
      <trkpt lat="51.049303002655506" lon="6.152390018105507">
        <ele>32.82</ele>
        <time>2023-09-04T12:49:44Z</time>
      </trkpt>
      <trkpt lat="51.049278024584055" lon="6.152438968420029">
        <ele>32.82</ele>
        <time>2023-09-04T12:49:45Z</time>
      </trkpt>
      <trkpt lat="51.049262015148997" lon="6.152471993118525">
        <ele>32.340000000000003</ele>
        <time>2023-09-04T12:49:46Z</time>
      </trkpt>
      <trkpt lat="51.049251034855843" lon="6.152494959533215">
        <ele>32.340000000000003</ele>
        <time>2023-09-04T12:49:47Z</time>
      </trkpt>
      <trkpt lat="51.049236031249166" lon="6.152523960918188">
        <ele>31.859999999999999</ele>
        <time>2023-09-04T12:49:48Z</time>
      </trkpt>
      <trkpt lat="51.049214992672205" lon="6.152566038072109">
        <ele>31.859999999999999</ele>
        <time>2023-09-04T12:49:49Z</time>
      </trkpt>
      <trkpt lat="51.049185991287231" lon="6.152624040842056">
        <ele>31.859999999999999</ele>
        <time>2023-09-04T12:49:50Z</time>
      </trkpt>
      <trkpt lat="51.049068979918957" lon="6.152623035013676">
        <ele>31.859999999999999</ele>
        <time>2023-09-04T12:49:51Z</time>
      </trkpt>
      <trkpt lat="51.04903201572597" lon="6.152681959792972">
        <ele>31.379999999999999</ele>
        <time>2023-09-04T12:49:52Z</time>
      </trkpt>
      <trkpt lat="51.048961021006107" lon="6.152830990031362">
        <ele>31.379999999999999</ele>
        <time>2023-09-04T12:49:53Z</time>
      </trkpt>
      <trkpt lat="51.048961021006107" lon="6.152880024164915">
        <ele>31.859999999999999</ele>
        <time>2023-09-04T12:49:54Z</time>
      </trkpt>
      <trkpt lat="51.048963032662868" lon="6.15317297168076">
        <ele>31.859999999999999</ele>
        <time>2023-09-04T12:49:56Z</time>
      </trkpt>
      <trkpt lat="51.048910981044173" lon="6.153291994705796">
        <ele>31.859999999999999</ele>
        <time>2023-09-04T12:49:57Z</time>
      </trkpt>
      <trkpt lat="51.048293989151716" lon="6.154419025406241">
        <ele>31.859999999999999</ele>
        <time>2023-09-04T12:50:05Z</time>
      </trkpt>
      <trkpt lat="51.047415984794497" lon="6.155655020847917">
        <ele>35.229999999999997</ele>
        <time>2023-09-04T12:50:15Z</time>
      </trkpt>
      <trkpt lat="51.046673012897372" lon="6.156752966344357">
        <ele>38.590000000000003</ele>
        <time>2023-09-04T12:50:24Z</time>
      </trkpt>
      <trkpt lat="51.046394985169172" lon="6.157346991822124">
        <ele>39.07</ele>
        <time>2023-09-04T12:50:28Z</time>
      </trkpt>
      <trkpt lat="51.045846976339817" lon="6.159196961671114">
        <ele>39.549999999999997</ele>
        <time>2023-09-04T12:50:38Z</time>
      </trkpt>
      <trkpt lat="51.045498037710786" lon="6.161004016175866">
        <ele>41.950000000000003</ele>
        <time>2023-09-04T12:50:47Z</time>
      </trkpt>
      <trkpt lat="51.045192014425993" lon="6.162619041278958">
        <ele>42.439999999999998</ele>
        <time>2023-09-04T12:50:58Z</time>
      </trkpt>
      <trkpt lat="51.044845003634691" lon="6.164632961153984">
        <ele>42.920000000000002</ele>
        <time>2023-09-04T12:51:09Z</time>
      </trkpt>
      <trkpt lat="51.044522970914841" lon="6.166582005098462">
        <ele>43.880000000000003</ele>
        <time>2023-09-04T12:51:18Z</time>
      </trkpt>
      <trkpt lat="51.044288026168942" lon="6.167788999155164">
        <ele>42.920000000000002</ele>
        <time>2023-09-04T12:51:24Z</time>
      </trkpt>
      <trkpt lat="51.044230023398995" lon="6.16790902800858">
        <ele>42.920000000000002</ele>
        <time>2023-09-04T12:51:25Z</time>
      </trkpt>
      <trkpt lat="51.044146958738565" lon="6.167970970273018">
        <ele>42.920000000000002</ele>
        <time>2023-09-04T12:51:26Z</time>
      </trkpt>
      <trkpt lat="51.044029025360942" lon="6.16801698692143">
        <ele>42.920000000000002</ele>
        <time>2023-09-04T12:51:27Z</time>
      </trkpt>
      <trkpt lat="51.043902039527893" lon="6.167979016900063">
        <ele>43.399999999999999</ele>
        <time>2023-09-04T12:51:29Z</time>
      </trkpt>
      <trkpt lat="51.043606996536255" lon="6.167868040502071">
        <ele>43.880000000000003</ele>
        <time>2023-09-04T12:51:30Z</time>
      </trkpt>
      <trkpt lat="51.043480010703206" lon="6.167740970849991">
        <ele>43.880000000000003</ele>
        <time>2023-09-04T12:51:31Z</time>
      </trkpt>
      <trkpt lat="51.043362999334931" lon="6.167571991682053">
        <ele>44.359999999999999</ele>
        <time>2023-09-04T12:51:32Z</time>
      </trkpt>
      <trkpt lat="51.043310025706887" lon="6.167376022785902">
        <ele>44.840000000000003</ele>
        <time>2023-09-04T12:51:33Z</time>
      </trkpt>
      <trkpt lat="51.043255962431431" lon="6.167178964242339">
        <ele>45.32</ele>
        <time>2023-09-04T12:51:34Z</time>
      </trkpt>
      <trkpt lat="51.043287981301546" lon="6.166953993961215">
        <ele>45.799999999999997</ele>
        <time>2023-09-04T12:51:35Z</time>
      </trkpt>
      <trkpt lat="51.0433179885149" lon="6.166762970387936">
        <ele>45.799999999999997</ele>
        <time>2023-09-04T12:51:36Z</time>
      </trkpt>
      <trkpt lat="51.043413961306214" lon="6.1665990203619">
        <ele>46.280000000000001</ele>
        <time>2023-09-04T12:51:37Z</time>
      </trkpt>
      <trkpt lat="51.043502977117896" lon="6.166447978466749">
        <ele>46.280000000000001</ele>
        <time>2023-09-04T12:51:38Z</time>
      </trkpt>
      <trkpt lat="51.043631974607706" lon="6.166358962655067">
        <ele>46.759999999999998</ele>
        <time>2023-09-04T12:51:39Z</time>
      </trkpt>
      <trkpt lat="51.043782010674477" lon="6.166327027603984">
        <ele>46.759999999999998</ele>
        <time>2023-09-04T12:51:40Z</time>
      </trkpt>
      <trkpt lat="51.043924000114202" lon="6.16638301871717">
        <ele>46.759999999999998</ele>
        <time>2023-09-04T12:51:41Z</time>
      </trkpt>
      <trkpt lat="51.044064983725548" lon="6.166506987065077">
        <ele>46.759999999999998</ele>
        <time>2023-09-04T12:51:42Z</time>
      </trkpt>
      <trkpt lat="51.044209990650415" lon="6.166657023131847">
        <ele>46.759999999999998</ele>
        <time>2023-09-04T12:51:43Z</time>
      </trkpt>
      <trkpt lat="51.044360026717186" lon="6.16681401617825">
        <ele>46.759999999999998</ele>
        <time>2023-09-04T12:51:44Z</time>
      </trkpt>
      <trkpt lat="51.044520037248731" lon="6.167000010609627">
        <ele>46.759999999999998</ele>
        <time>2023-09-04T12:51:45Z</time>
      </trkpt>
      <trkpt lat="51.045541036874056" lon="6.168495006859303">
        <ele>46.280000000000001</ele>
        <time>2023-09-04T12:51:51Z</time>
      </trkpt>
      <trkpt lat="51.047195037826896" lon="6.170919975265861">
        <ele>45.799999999999997</ele>
        <time>2023-09-04T12:52:00Z</time>
      </trkpt>
      <trkpt lat="51.049919994547963" lon="6.174906995147467">
        <ele>47.240000000000002</ele>
        <time>2023-09-04T12:52:15Z</time>
      </trkpt>
      <trkpt lat="51.052468009293079" lon="6.178628979250789">
        <ele>46.759999999999998</ele>
        <time>2023-09-04T12:52:29Z</time>
      </trkpt>
      <trkpt lat="51.055118031799793" lon="6.182523965835571">
        <ele>45.799999999999997</ele>
        <time>2023-09-04T12:52:43Z</time>
      </trkpt>
      <trkpt lat="51.057148966938257" lon="6.185694001615048">
        <ele>44.840000000000003</ele>
        <time>2023-09-04T12:52:54Z</time>
      </trkpt>
      <trkpt lat="51.058888966217637" lon="6.189127983525395">
        <ele>45.799999999999997</ele>
        <time>2023-09-04T12:53:04Z</time>
      </trkpt>
      <trkpt lat="51.060234010219574" lon="6.19283102452755">
        <ele>51.57</ele>
        <time>2023-09-04T12:53:13Z</time>
      </trkpt>
      <trkpt lat="51.061459025368094" lon="6.196595001965761">
        <ele>56.859999999999999</ele>
        <time>2023-09-04T12:53:22Z</time>
      </trkpt>
      <trkpt lat="51.063088970258832" lon="6.200526030734181">
        <ele>61.18</ele>
        <time>2023-09-04T12:53:32Z</time>
      </trkpt>
      <trkpt lat="51.064718998968601" lon="6.203258028253913">
        <ele>64.069999999999993</ele>
        <time>2023-09-04T12:53:40Z</time>
      </trkpt>
      <trkpt lat="51.066756974905729" lon="6.206696033477783">
        <ele>67.430000000000007</ele>
        <time>2023-09-04T12:53:50Z</time>
      </trkpt>
      <trkpt lat="51.068105958402157" lon="6.209883000701666">
        <ele>66.950000000000003</ele>
        <time>2023-09-04T12:53:58Z</time>
      </trkpt>
      <trkpt lat="51.069066021591425" lon="6.213300973176956">
        <ele>59.740000000000002</ele>
        <time>2023-09-04T12:54:06Z</time>
      </trkpt>
      <trkpt lat="51.069706985726953" lon="6.217409027740359">
        <ele>56.859999999999999</ele>
        <time>2023-09-04T12:54:15Z</time>
      </trkpt>
      <trkpt lat="51.069875964894891" lon="6.221203012391925">
        <ele>60.700000000000003</ele>
        <time>2023-09-04T12:54:23Z</time>
      </trkpt>
      <trkpt lat="51.069576982408762" lon="6.225408967584372">
        <ele>65.030000000000001</ele>
        <time>2023-09-04T12:54:32Z</time>
      </trkpt>
      <trkpt lat="51.068759998306632" lon="6.229913989081979">
        <ele>68.390000000000001</ele>
        <time>2023-09-04T12:54:42Z</time>
      </trkpt>
      <trkpt lat="51.067421995103359" lon="6.235131975263357">
        <ele>71.760000000000005</ele>
        <time>2023-09-04T12:54:54Z</time>
      </trkpt>
      <trkpt lat="51.067189984023571" lon="6.235981984063983">
        <ele>72.719999999999999</ele>
        <time>2023-09-04T12:54:56Z</time>
      </trkpt>
      <trkpt lat="51.067084958776832" lon="6.236394960433245">
        <ele>74.159999999999997</ele>
        <time>2023-09-04T12:54:57Z</time>
      </trkpt>
      <trkpt lat="51.066079968586564" lon="6.240881960839033">
        <ele>81.849999999999994</ele>
        <time>2023-09-04T12:55:07Z</time>
      </trkpt>
      <trkpt lat="51.065474962815642" lon="6.244925977662206">
        <ele>86.180000000000007</ele>
        <time>2023-09-04T12:55:16Z</time>
      </trkpt>
      <trkpt lat="51.065197018906474" lon="6.2487150169909">
        <ele>90.5</ele>
        <time>2023-09-04T12:55:26Z</time>
      </trkpt>
      <trkpt lat="51.065209005028009" lon="6.252483017742634">
        <ele>92.420000000000002</ele>
        <time>2023-09-04T12:55:36Z</time>
      </trkpt>
      <trkpt lat="51.065472029149532" lon="6.255675014108419">
        <ele>92.420000000000002</ele>
        <time>2023-09-04T12:55:43Z</time>
      </trkpt>
      <trkpt lat="51.066254982724786" lon="6.260220017284155">
        <ele>90.5</ele>
        <time>2023-09-04T12:55:53Z</time>
      </trkpt>
      <trkpt lat="51.067297020927072" lon="6.264149034395814">
        <ele>88.579999999999998</ele>
        <time>2023-09-04T12:56:02Z</time>
      </trkpt>
      <trkpt lat="51.068557994440198" lon="6.268400000408292">
        <ele>92.420000000000002</ele>
        <time>2023-09-04T12:56:12Z</time>
      </trkpt>
      <trkpt lat="51.069911001250148" lon="6.273147007450461">
        <ele>93.870000000000005</ele>
        <time>2023-09-04T12:56:23Z</time>
      </trkpt>
      <trkpt lat="51.070849020034075" lon="6.277616992592812">
        <ele>94.349999999999994</ele>
        <time>2023-09-04T12:56:33Z</time>
      </trkpt>
      <trkpt lat="51.071168035268784" lon="6.281347023323178">
        <ele>95.310000000000002</ele>
        <time>2023-09-04T12:56:41Z</time>
      </trkpt>
      <trkpt lat="51.071040965616703" lon="6.285591032356024">
        <ele>97.230000000000004</ele>
        <time>2023-09-04T12:56:50Z</time>
      </trkpt>
      <trkpt lat="51.070479964837432" lon="6.289744013920426">
        <ele>99.150000000000006</ele>
        <time>2023-09-04T12:56:59Z</time>
      </trkpt>
      <trkpt lat="51.069612018764019" lon="6.293670013546944">
        <ele>100.11</ele>
        <time>2023-09-04T12:57:08Z</time>
      </trkpt>
      <trkpt lat="51.068781958892941" lon="6.297225030139089">
        <ele>100.11</ele>
        <time>2023-09-04T12:57:16Z</time>
      </trkpt>
      <trkpt lat="51.068006968125701" lon="6.300793960690498">
        <ele>98.670000000000002</ele>
        <time>2023-09-04T12:57:24Z</time>
      </trkpt>
      <trkpt lat="51.067924993112683" lon="6.301256977021694">
        <ele>98.189999999999998</ele>
        <time>2023-09-04T12:57:25Z</time>
      </trkpt>
      <trkpt lat="51.06729500927031" lon="6.305809020996094">
        <ele>97.230000000000004</ele>
        <time>2023-09-04T12:57:35Z</time>
      </trkpt>
      <trkpt lat="51.066957972943783" lon="6.310975961387157">
        <ele>99.150000000000006</ele>
        <time>2023-09-04T12:57:46Z</time>
      </trkpt>
      <trkpt lat="51.067070960998535" lon="6.316623017191887">
        <ele>101.08</ele>
        <time>2023-09-04T12:57:58Z</time>
      </trkpt>
      <trkpt lat="51.06755199842155" lon="6.32082000374794">
        <ele>99.629999999999995</ele>
        <time>2023-09-04T12:58:07Z</time>
      </trkpt>
      <trkpt lat="51.068529998883605" lon="6.324771987274289">
        <ele>94.349999999999994</ele>
        <time>2023-09-04T12:58:16Z</time>
      </trkpt>
      <trkpt lat="51.069773035123944" lon="6.327987033873797">
        <ele>88.579999999999998</ele>
        <time>2023-09-04T12:58:24Z</time>
      </trkpt>
      <trkpt lat="51.071385964751244" lon="6.330754989758134">
        <ele>85.689999999999998</ele>
        <time>2023-09-04T12:58:32Z</time>
      </trkpt>
      <trkpt lat="51.073516979813576" lon="6.333320019766688">
        <ele>86.659999999999997</ele>
        <time>2023-09-04T12:58:41Z</time>
      </trkpt>
      <trkpt lat="51.075643971562386" lon="6.335005033761263">
        <ele>86.659999999999997</ele>
        <time>2023-09-04T12:58:49Z</time>
      </trkpt>
      <trkpt lat="51.078501027077436" lon="6.336368015035987">
        <ele>89.060000000000002</ele>
        <time>2023-09-04T12:58:59Z</time>
      </trkpt>
      <trkpt lat="51.082009021192789" lon="6.337511977180839">
        <ele>91.939999999999998</ele>
        <time>2023-09-04T12:59:12Z</time>
      </trkpt>
      <trkpt lat="51.085116025060415" lon="6.339132031425834">
        <ele>93.390000000000001</ele>
        <time>2023-09-04T12:59:22Z</time>
      </trkpt>
      <trkpt lat="51.087173027917743" lon="6.341006979346275">
        <ele>94.349999999999994</ele>
        <time>2023-09-04T12:59:30Z</time>
      </trkpt>
      <trkpt lat="51.089233970269561" lon="6.343710981309414">
        <ele>92.900000000000006</ele>
        <time>2023-09-04T12:59:39Z</time>
      </trkpt>
      <trkpt lat="51.091087041422725" lon="6.34679401293397">
        <ele>90.019999999999996</ele>
        <time>2023-09-04T12:59:48Z</time>
      </trkpt>
      <trkpt lat="51.093899002298713" lon="6.35165099054575">
        <ele>83.769999999999996</ele>
        <time>2023-09-04T13:00:02Z</time>
      </trkpt>
      <trkpt lat="51.097074989229441" lon="6.357266027480364">
        <ele>79.930000000000007</ele>
        <time>2023-09-04T13:00:18Z</time>
      </trkpt>
      <trkpt lat="51.099060997366905" lon="6.361410040408373">
        <ele>80.890000000000001</ele>
        <time>2023-09-04T13:00:29Z</time>
      </trkpt>
      <trkpt lat="51.100722961127758" lon="6.365877008065581">
        <ele>82.329999999999998</ele>
        <time>2023-09-04T13:00:40Z</time>
      </trkpt>
      <trkpt lat="51.10192702151835" lon="6.370197040960193">
        <ele>82.810000000000002</ele>
        <time>2023-09-04T13:00:50Z</time>
      </trkpt>
      <trkpt lat="51.102950032800436" lon="6.375642009079456">
        <ele>83.290000000000006</ele>
        <time>2023-09-04T13:01:02Z</time>
      </trkpt>
      <trkpt lat="51.103430986404419" lon="6.379809994250536">
        <ele>81.370000000000005</ele>
        <time>2023-09-04T13:01:11Z</time>
      </trkpt>
      <trkpt lat="51.103867013007402" lon="6.385930962860584">
        <ele>78.480000000000004</ele>
        <time>2023-09-04T13:01:24Z</time>
      </trkpt>
      <trkpt lat="51.104245036840439" lon="6.392046986147761">
        <ele>77.519999999999996</ele>
        <time>2023-09-04T13:01:37Z</time>
      </trkpt>
      <trkpt lat="51.104731019586325" lon="6.400072993710637">
        <ele>75.120000000000005</ele>
        <time>2023-09-04T13:01:54Z</time>
      </trkpt>
      <trkpt lat="51.104876026511192" lon="6.404770966619253">
        <ele>71.760000000000005</ele>
        <time>2023-09-04T13:02:04Z</time>
      </trkpt>
      <trkpt lat="51.104839984327555" lon="6.409956011921167">
        <ele>69.829999999999998</ele>
        <time>2023-09-04T13:02:15Z</time>
      </trkpt>
      <trkpt lat="51.10450797714293" lon="6.415117001160979">
        <ele>68.870000000000005</ele>
        <time>2023-09-04T13:02:26Z</time>
      </trkpt>
      <trkpt lat="51.103784032166004" lon="6.420211018994451">
        <ele>72.239999999999995</ele>
        <time>2023-09-04T13:02:37Z</time>
      </trkpt>
      <trkpt lat="51.102997977286577" lon="6.423810962587595">
        <ele>71.760000000000005</ele>
        <time>2023-09-04T13:02:45Z</time>
      </trkpt>
      <trkpt lat="51.10242297872901" lon="6.425981959328055">
        <ele>68.870000000000005</ele>
        <time>2023-09-04T13:02:50Z</time>
      </trkpt>
      <trkpt lat="51.102296998724341" lon="6.426401976495981">
        <ele>68.870000000000005</ele>
        <time>2023-09-04T13:02:51Z</time>
      </trkpt>
      <trkpt lat="51.100555993616581" lon="6.431289967149496">
        <ele>69.829999999999998</ele>
        <time>2023-09-04T13:03:03Z</time>
      </trkpt>
      <trkpt lat="51.098351972177625" lon="6.436317013576627">
        <ele>74.640000000000001</ele>
        <time>2023-09-04T13:03:16Z</time>
      </trkpt>
      <trkpt lat="51.096173012629151" lon="6.441383035853505">
        <ele>78</ele>
        <time>2023-09-04T13:03:29Z</time>
      </trkpt>
      <trkpt lat="51.094779018312693" lon="6.445545991882682">
        <ele>82.810000000000002</ele>
        <time>2023-09-04T13:03:39Z</time>
      </trkpt>
      <trkpt lat="51.093605970963836" lon="6.450386038050056">
        <ele>88.579999999999998</ele>
        <time>2023-09-04T13:03:50Z</time>
      </trkpt>
      <trkpt lat="51.092956960201263" lon="6.455487012863159">
        <ele>92.420000000000002</ele>
        <time>2023-09-04T13:04:01Z</time>
      </trkpt>
      <trkpt lat="51.092741964384913" lon="6.460197977721691">
        <ele>94.829999999999998</ele>
        <time>2023-09-04T13:04:11Z</time>
      </trkpt>
      <trkpt lat="51.092838020995259" lon="6.46316098049283">
        <ele>94.349999999999994</ele>
        <time>2023-09-04T13:04:18Z</time>
      </trkpt>
      <trkpt lat="51.093069026246667" lon="6.467776978388429">
        <ele>89.540000000000006</ele>
        <time>2023-09-04T13:04:29Z</time>
      </trkpt>
      <trkpt lat="51.093233982101083" lon="6.470719026401639">
        <ele>85.689999999999998</ele>
        <time>2023-09-04T13:04:37Z</time>
      </trkpt>
      <trkpt lat="51.093254014849663" lon="6.471744971349835">
        <ele>85.209999999999994</ele>
        <time>2023-09-04T13:04:40Z</time>
      </trkpt>
      <trkpt lat="51.093238005414605" lon="6.472093993797898">
        <ele>85.209999999999994</ele>
        <time>2023-09-04T13:04:41Z</time>
      </trkpt>
      <trkpt lat="51.093197017908096" lon="6.472429018467665">
        <ele>85.209999999999994</ele>
        <time>2023-09-04T13:04:42Z</time>
      </trkpt>
      <trkpt lat="51.093118982389569" lon="6.472750967368484">
        <ele>85.209999999999994</ele>
        <time>2023-09-04T13:04:43Z</time>
      </trkpt>
      <trkpt lat="51.093036001548171" lon="6.473059002310038">
        <ele>85.209999999999994</ele>
        <time>2023-09-04T13:04:44Z</time>
      </trkpt>
      <trkpt lat="51.092921001836658" lon="6.473339963704348">
        <ele>85.209999999999994</ele>
        <time>2023-09-04T13:04:45Z</time>
      </trkpt>
      <trkpt lat="51.092788986861706" lon="6.473588990047574">
        <ele>85.209999999999994</ele>
        <time>2023-09-04T13:04:46Z</time>
      </trkpt>
      <trkpt lat="51.092637022957206" lon="6.473811026662588">
        <ele>85.209999999999994</ele>
        <time>2023-09-04T13:04:47Z</time>
      </trkpt>
      <trkpt lat="51.092480029910803" lon="6.474027028307319">
        <ele>85.209999999999994</ele>
        <time>2023-09-04T13:04:48Z</time>
      </trkpt>
      <trkpt lat="51.092311972752213" lon="6.474232971668243">
        <ele>85.689999999999998</ele>
        <time>2023-09-04T13:04:49Z</time>
      </trkpt>
      <trkpt lat="51.090831980109215" lon="6.475903987884522">
        <ele>87.620000000000005</ele>
        <time>2023-09-04T13:04:57Z</time>
      </trkpt>
      <trkpt lat="51.09060600399971" lon="6.476028962060809">
        <ele>87.620000000000005</ele>
        <time>2023-09-04T13:04:58Z</time>
      </trkpt>
      <trkpt lat="51.090371981263161" lon="6.476110015064478">
        <ele>87.620000000000005</ele>
        <time>2023-09-04T13:04:59Z</time>
      </trkpt>
      <trkpt lat="51.090135024860501" lon="6.476138010621071">
        <ele>88.099999999999994</ele>
        <time>2023-09-04T13:05:00Z</time>
      </trkpt>
      <trkpt lat="51.089906031265855" lon="6.476110015064478">
        <ele>88.099999999999994</ele>
        <time>2023-09-04T13:05:01Z</time>
      </trkpt>
      <trkpt lat="51.089677037671208" lon="6.476076990365982">
        <ele>88.099999999999994</ele>
        <time>2023-09-04T13:05:02Z</time>
      </trkpt>
      <trkpt lat="51.089455001056194" lon="6.475973976776004">
        <ele>88.579999999999998</ele>
        <time>2023-09-04T13:05:03Z</time>
      </trkpt>
      <trkpt lat="51.08923296444118" lon="6.475867023691535">
        <ele>89.540000000000006</ele>
        <time>2023-09-04T13:05:04Z</time>
      </trkpt>
      <trkpt lat="51.087392969056964" lon="6.475229999050498">
        <ele>94.349999999999994</ele>
        <time>2023-09-04T13:05:12Z</time>
      </trkpt>
      <trkpt lat="51.085250973701477" lon="6.475496040657163">
        <ele>97.709999999999994</ele>
        <time>2023-09-04T13:05:21Z</time>
      </trkpt>
      <trkpt lat="51.083379965275526" lon="6.476312018930912">
        <ele>101.56</ele>
        <time>2023-09-04T13:05:29Z</time>
      </trkpt>
      <trkpt lat="51.081622028723359" lon="6.477657984942198">
        <ele>103.95999999999999</ele>
        <time>2023-09-04T13:05:36Z</time>
      </trkpt>
      <trkpt lat="51.078513013198972" lon="6.480438010767102">
        <ele>107.81</ele>
        <time>2023-09-04T13:05:48Z</time>
      </trkpt>
      <trkpt lat="51.07461903244257" lon="6.483920020982623">
        <ele>108.29000000000001</ele>
        <time>2023-09-04T13:06:03Z</time>
      </trkpt>
      <trkpt lat="51.07124799862504" lon="6.486933985725045">
        <ele>102.52</ele>
        <time>2023-09-04T13:06:16Z</time>
      </trkpt>
      <trkpt lat="51.068715993314981" lon="6.48919802159071">
        <ele>97.709999999999994</ele>
        <time>2023-09-04T13:06:26Z</time>
      </trkpt>
      <trkpt lat="51.066722022369504" lon="6.490983031690121">
        <ele>94.829999999999998</ele>
        <time>2023-09-04T13:06:33Z</time>
      </trkpt>
      <trkpt lat="51.063401028513908" lon="6.493928013369441">
        <ele>88.579999999999998</ele>
        <time>2023-09-04T13:06:45Z</time>
      </trkpt>
      <trkpt lat="51.059718020260334" lon="6.496971985325217">
        <ele>86.659999999999997</ele>
        <time>2023-09-04T13:06:59Z</time>
      </trkpt>
      <trkpt lat="51.056696008890867" lon="6.498940978199244">
        <ele>89.060000000000002</ele>
        <time>2023-09-04T13:07:10Z</time>
      </trkpt>
      <trkpt lat="51.053519016131759" lon="6.500143026933074">
        <ele>93.390000000000001</ele>
        <time>2023-09-04T13:07:21Z</time>
      </trkpt>
      <trkpt lat="51.05083697475493" lon="6.500424994155765">
        <ele>95.310000000000002</ele>
        <time>2023-09-04T13:07:30Z</time>
      </trkpt>
      <trkpt lat="51.047875983640552" lon="6.499967006966472">
        <ele>98.670000000000002</ele>
        <time>2023-09-04T13:07:40Z</time>
      </trkpt>
      <trkpt lat="51.045004008337855" lon="6.498709972947836">
        <ele>102.04000000000001</ele>
        <time>2023-09-04T13:07:50Z</time>
      </trkpt>
      <trkpt lat="51.042937031015754" lon="6.497199973091483">
        <ele>103.95999999999999</ele>
        <time>2023-09-04T13:07:58Z</time>
      </trkpt>
      <trkpt lat="51.041711010038853" lon="6.496065985411406">
        <ele>106.36</ele>
        <time>2023-09-04T13:08:05Z</time>
      </trkpt>
      <trkpt lat="51.039833966642618" lon="6.493832040578127">
        <ele>108.29000000000001</ele>
        <time>2023-09-04T13:08:17Z</time>
      </trkpt>
      <trkpt lat="51.038046022877097" lon="6.491034999489784">
        <ele>111.65000000000001</ele>
        <time>2023-09-04T13:08:29Z</time>
      </trkpt>
      <trkpt lat="51.036808015778661" lon="6.488473992794752">
        <ele>114.05</ele>
        <time>2023-09-04T13:08:38Z</time>
      </trkpt>
      <trkpt lat="51.035874020308256" lon="6.486037960276008">
        <ele>115.5</ele>
        <time>2023-09-04T13:08:47Z</time>
      </trkpt>
      <trkpt lat="51.035077990964055" lon="6.483220970258117">
        <ele>117.90000000000001</ele>
        <time>2023-09-04T13:08:55Z</time>
      </trkpt>
      <trkpt lat="51.034188000485301" lon="6.479109982028604">
        <ele>119.81999999999999</ele>
        <time>2023-09-04T13:09:05Z</time>
      </trkpt>
      <trkpt lat="51.034005023539066" lon="6.476913001388311">
        <ele>120.78</ele>
        <time>2023-09-04T13:09:11Z</time>
      </trkpt>
      <trkpt lat="51.034356979653239" lon="6.474320981651545">
        <ele>119.34</ele>
        <time>2023-09-04T13:09:18Z</time>
      </trkpt>
      <trkpt lat="51.034699967131019" lon="6.471935994923115">
        <ele>118.38</ele>
        <time>2023-09-04T13:09:24Z</time>
      </trkpt>
      <trkpt lat="51.034708013758063" lon="6.471572974696755">
        <ele>118.38</ele>
        <time>2023-09-04T13:09:25Z</time>
      </trkpt>
      <trkpt lat="51.034692004323006" lon="6.471210038289428">
        <ele>118.38</ele>
        <time>2023-09-04T13:09:26Z</time>
      </trkpt>
      <trkpt lat="51.034629978239536" lon="6.470863027498126">
        <ele>118.38</ele>
        <time>2023-09-04T13:09:27Z</time>
      </trkpt>
      <trkpt lat="51.034549009054899" lon="6.470509981736541">
        <ele>118.38</ele>
        <time>2023-09-04T13:09:28Z</time>
      </trkpt>
      <trkpt lat="51.034433003515005" lon="6.470204964280129">
        <ele>118.38</ele>
        <time>2023-09-04T13:09:29Z</time>
      </trkpt>
      <trkpt lat="51.03429595939815" lon="6.469930037856102">
        <ele>118.86</ele>
        <time>2023-09-04T13:09:30Z</time>
      </trkpt>
      <trkpt lat="51.034154975786805" lon="6.469659972935915">
        <ele>119.34</ele>
        <time>2023-09-04T13:09:31Z</time>
      </trkpt>
      <trkpt lat="51.033985996618867" lon="6.469468027353287">
        <ele>119.81999999999999</ele>
        <time>2023-09-04T13:09:32Z</time>
      </trkpt>
      <trkpt lat="51.033810982480645" lon="6.469280021265149">
        <ele>120.3</ele>
        <time>2023-09-04T13:09:33Z</time>
      </trkpt>
      <trkpt lat="51.033623982220888" lon="6.46915496326983">
        <ele>121.26000000000001</ele>
        <time>2023-09-04T13:09:34Z</time>
      </trkpt>
      <trkpt lat="51.033430024981499" lon="6.469033006578684">
        <ele>122.22</ele>
        <time>2023-09-04T13:09:35Z</time>
      </trkpt>
      <trkpt lat="51.033232966437936" lon="6.46898397244513">
        <ele>122.70999999999999</ele>
        <time>2023-09-04T13:09:36Z</time>
      </trkpt>
      <trkpt lat="51.033034985885024" lon="6.468935022130609">
        <ele>123.19</ele>
        <time>2023-09-04T13:09:37Z</time>
      </trkpt>
      <trkpt lat="51.032826025038958" lon="6.468949019908905">
        <ele>123.67</ele>
        <time>2023-09-04T13:09:38Z</time>
      </trkpt>
      <trkpt lat="51.032622009515762" lon="6.468967963010073">
        <ele>124.63</ele>
        <time>2023-09-04T13:09:39Z</time>
      </trkpt>
      <trkpt lat="51.032418999820948" lon="6.469052033498883">
        <ele>125.11</ele>
        <time>2023-09-04T13:09:40Z</time>
      </trkpt>
      <trkpt lat="51.032224958762527" lon="6.469154041260481">
        <ele>125.59</ele>
        <time>2023-09-04T13:09:41Z</time>
      </trkpt>
      <trkpt lat="51.032037036493421" lon="6.469311034306884">
        <ele>126.06999999999999</ele>
        <time>2023-09-04T13:09:42Z</time>
      </trkpt>
      <trkpt lat="51.031856993213296" lon="6.469490993767977">
        <ele>126.06999999999999</ele>
        <time>2023-09-04T13:09:43Z</time>
      </trkpt>
      <trkpt lat="51.031702011823654" lon="6.469717975705862">
        <ele>126.06999999999999</ele>
        <time>2023-09-04T13:09:44Z</time>
      </trkpt>
      <trkpt lat="51.031548036262393" lon="6.469976976513863">
        <ele>126.06999999999999</ele>
        <time>2023-09-04T13:09:45Z</time>
      </trkpt>
      <trkpt lat="51.031433958560228" lon="6.470261961221695">
        <ele>125.59</ele>
        <time>2023-09-04T13:09:46Z</time>
      </trkpt>
      <trkpt lat="51.031339997425675" lon="6.470569996163249">
        <ele>125.59</ele>
        <time>2023-09-04T13:09:47Z</time>
      </trkpt>
      <trkpt lat="51.031279982998967" lon="6.470879036933184">
        <ele>125.11</ele>
        <time>2023-09-04T13:09:48Z</time>
      </trkpt>
      <trkpt lat="51.031236983835697" lon="6.471196040511131">
        <ele>125.11</ele>
        <time>2023-09-04T13:09:49Z</time>
      </trkpt>
      <trkpt lat="51.031203037127852" lon="6.471526036038995">
        <ele>124.15000000000001</ele>
        <time>2023-09-04T13:09:50Z</time>
      </trkpt>
      <trkpt lat="51.031203959137201" lon="6.471865000203252">
        <ele>123.67</ele>
        <time>2023-09-04T13:09:51Z</time>
      </trkpt>
      <trkpt lat="51.031219968572259" lon="6.472213016822934">
        <ele>123.19</ele>
        <time>2023-09-04T13:09:52Z</time>
      </trkpt>
      <trkpt lat="51.031260034069419" lon="6.472567990422249">
        <ele>122.70999999999999</ele>
        <time>2023-09-04T13:09:53Z</time>
      </trkpt>
      <trkpt lat="51.031304039061069" lon="6.472921036183834">
        <ele>122.22</ele>
        <time>2023-09-04T13:09:54Z</time>
      </trkpt>
      <trkpt lat="51.031430019065738" lon="6.47428804077208">
        <ele>119.81999999999999</ele>
        <time>2023-09-04T13:09:58Z</time>
      </trkpt>
      <trkpt lat="51.031413003802299" lon="6.474638991057873">
        <ele>119.34</ele>
        <time>2023-09-04T13:09:59Z</time>
      </trkpt>
      <trkpt lat="51.031360030174255" lon="6.474977033212781">
        <ele>118.38</ele>
        <time>2023-09-04T13:10:00Z</time>
      </trkpt>
      <trkpt lat="51.03130697272718" lon="6.475311974063516">
        <ele>118.38</ele>
        <time>2023-09-04T13:10:01Z</time>
      </trkpt>
      <trkpt lat="51.031203037127852" lon="6.475608022883534">
        <ele>117.90000000000001</ele>
        <time>2023-09-04T13:10:02Z</time>
      </trkpt>
      <trkpt lat="51.031093988567591" lon="6.475898958742619">
        <ele>117.42</ele>
        <time>2023-09-04T13:10:03Z</time>
      </trkpt>
      <trkpt lat="51.030986029654741" lon="6.476188972592354">
        <ele>116.94</ele>
        <time>2023-09-04T13:10:04Z</time>
      </trkpt>
      <trkpt lat="51.030829958617687" lon="6.4764369931072">
        <ele>116.45999999999999</ele>
        <time>2023-09-04T13:10:05Z</time>
      </trkpt>
      <trkpt lat="51.029378967359662" lon="6.478688959032297">
        <ele>114.53</ele>
        <time>2023-09-04T13:10:13Z</time>
      </trkpt>
      <trkpt lat="51.027273014187813" lon="6.481199003756046">
        <ele>112.13</ele>
        <time>2023-09-04T13:10:22Z</time>
      </trkpt>
      <trkpt lat="51.024645958095789" lon="6.483449041843414">
        <ele>111.17</ele>
        <time>2023-09-04T13:10:32Z</time>
      </trkpt>
      <trkpt lat="51.02168102748692" lon="6.485625989735127">
        <ele>109.73</ele>
        <time>2023-09-04T13:10:43Z</time>
      </trkpt>
      <trkpt lat="51.018500011414289" lon="6.488284980878234">
        <ele>106.36</ele>
        <time>2023-09-04T13:10:55Z</time>
      </trkpt>
      <trkpt lat="51.01592400111258" lon="6.491443030536175">
        <ele>104.44</ele>
        <time>2023-09-04T13:11:06Z</time>
      </trkpt>
      <trkpt lat="51.014104960486293" lon="6.494536958634853">
        <ele>98.670000000000002</ele>
        <time>2023-09-04T13:11:15Z</time>
      </trkpt>
      <trkpt lat="51.012397985905409" lon="6.498378971591592">
        <ele>99.629999999999995</ele>
        <time>2023-09-04T13:11:25Z</time>
      </trkpt>
      <trkpt lat="51.011231979355216" lon="6.501671969890595">
        <ele>101.08</ele>
        <time>2023-09-04T13:11:33Z</time>
      </trkpt>
      <trkpt lat="51.011086972430348" lon="6.502109002321959">
        <ele>101.08</ele>
        <time>2023-09-04T13:11:34Z</time>
      </trkpt>
      <trkpt lat="51.009828010573983" lon="6.505898041650653">
        <ele>101.56</ele>
        <time>2023-09-04T13:11:43Z</time>
      </trkpt>
      <trkpt lat="51.008044006302953" lon="6.511331023648381">
        <ele>98.670000000000002</ele>
        <time>2023-09-04T13:11:56Z</time>
      </trkpt>
      <trkpt lat="51.006649006158113" lon="6.515510994940996">
        <ele>97.709999999999994</ele>
        <time>2023-09-04T13:12:06Z</time>
      </trkpt>
      <trkpt lat="51.005144035443664" lon="6.520090028643608">
        <ele>96.75</ele>
        <time>2023-09-04T13:12:17Z</time>
      </trkpt>
      <trkpt lat="51.003904016688466" lon="6.523848976939917">
        <ele>93.870000000000005</ele>
        <time>2023-09-04T13:12:26Z</time>
      </trkpt>
      <trkpt lat="51.002395022660494" lon="6.52845298871398">
        <ele>91.459999999999994</ele>
        <time>2023-09-04T13:12:37Z</time>
      </trkpt>
      <trkpt lat="51.000740015879273" lon="6.533470982685685">
        <ele>89.540000000000006</ele>
        <time>2023-09-04T13:12:49Z</time>
      </trkpt>
      <trkpt lat="50.999318026006222" lon="6.53764701448381">
        <ele>87.140000000000001</ele>
        <time>2023-09-04T13:12:59Z</time>
      </trkpt>
      <trkpt lat="50.9972969815135" lon="6.542881010100246">
        <ele>85.689999999999998</ele>
        <time>2023-09-04T13:13:12Z</time>
      </trkpt>
      <trkpt lat="50.995627976953983" lon="6.546191023662686">
        <ele>83.769999999999996</ele>
        <time>2023-09-04T13:13:21Z</time>
      </trkpt>
      <trkpt lat="50.993716986849904" lon="6.549090994521976">
        <ele>81.370000000000005</ele>
        <time>2023-09-04T13:13:30Z</time>
      </trkpt>
      <trkpt lat="50.991290006786585" lon="6.551774963736534">
        <ele>78</ele>
        <time>2023-09-04T13:13:40Z</time>
      </trkpt>
      <trkpt lat="50.988610982894897" lon="6.553759966045618">
        <ele>75.599999999999994</ele>
        <time>2023-09-04T13:13:50Z</time>
      </trkpt>
      <trkpt lat="50.985207008197904" lon="6.555556962266564">
        <ele>72.719999999999999</ele>
        <time>2023-09-04T13:14:02Z</time>
      </trkpt>
      <trkpt lat="50.982654970139265" lon="6.556795975193381">
        <ele>75.120000000000005</ele>
        <time>2023-09-04T13:14:11Z</time>
      </trkpt>
      <trkpt lat="50.980380959808826" lon="6.557896016165614">
        <ele>77.519999999999996</ele>
        <time>2023-09-04T13:14:19Z</time>
      </trkpt>
      <trkpt lat="50.975822964683175" lon="6.56009903177619">
        <ele>77.040000000000006</ele>
        <time>2023-09-04T13:14:35Z</time>
      </trkpt>
      <trkpt lat="50.972424019128084" lon="6.561800977215171">
        <ele>73.680000000000007</ele>
        <time>2023-09-04T13:14:47Z</time>
      </trkpt>
      <trkpt lat="50.96966402605176" lon="6.563544999808073">
        <ele>71.269999999999996</ele>
        <time>2023-09-04T13:14:57Z</time>
      </trkpt>
      <trkpt lat="50.967247020453215" lon="6.56544903293252">
        <ele>68.870000000000005</ele>
        <time>2023-09-04T13:15:06Z</time>
      </trkpt>
      <trkpt lat="50.966479992493987" lon="6.566151017323136">
        <ele>67.909999999999997</ele>
        <time>2023-09-04T13:15:09Z</time>
      </trkpt>
      <trkpt lat="50.966231971979141" lon="6.566376993432641">
        <ele>67.430000000000007</ele>
        <time>2023-09-04T13:15:10Z</time>
      </trkpt>
      <trkpt lat="50.963485976681113" lon="6.569180991500616">
        <ele>70.790000000000006</ele>
        <time>2023-09-04T13:15:21Z</time>
      </trkpt>
      <trkpt lat="50.960678039118648" lon="6.572709018364549">
        <ele>75.599999999999994</ele>
        <time>2023-09-04T13:15:33Z</time>
      </trkpt>
      <trkpt lat="50.95791301690042" lon="6.576982028782368">
        <ele>78</ele>
        <time>2023-09-04T13:15:46Z</time>
      </trkpt>
      <trkpt lat="50.955803962424397" lon="6.580961002036929">
        <ele>77.040000000000006</ele>
        <time>2023-09-04T13:15:57Z</time>
      </trkpt>
      <trkpt lat="50.953771015629172" lon="6.585609018802643">
        <ele>75.120000000000005</ele>
        <time>2023-09-04T13:16:09Z</time>
      </trkpt>
      <trkpt lat="50.952452039346099" lon="6.589296972379088">
        <ele>71.760000000000005</ele>
        <time>2023-09-04T13:16:18Z</time>
      </trkpt>
      <trkpt lat="50.951399020850658" lon="6.592674963176251">
        <ele>70.790000000000006</ele>
        <time>2023-09-04T13:16:26Z</time>
      </trkpt>
      <trkpt lat="50.950165959075093" lon="6.597481984645128">
        <ele>70.790000000000006</ele>
        <time>2023-09-04T13:16:37Z</time>
      </trkpt>
      <trkpt lat="50.94873801805079" lon="6.60317799076438">
        <ele>69.349999999999994</ele>
        <time>2023-09-04T13:16:50Z</time>
      </trkpt>
      <trkpt lat="50.947318961843848" lon="6.608867961913347">
        <ele>65.989999999999995</ele>
        <time>2023-09-04T13:17:03Z</time>
      </trkpt>
      <trkpt lat="50.946400975808501" lon="6.61254501901567">
        <ele>66.950000000000003</ele>
        <time>2023-09-04T13:17:12Z</time>
      </trkpt>
      <trkpt lat="50.945886997506022" lon="6.614572014659643">
        <ele>65.989999999999995</ele>
        <time>2023-09-04T13:17:19Z</time>
      </trkpt>
      <trkpt lat="50.945477038621902" lon="6.616191985085607">
        <ele>62.619999999999997</ele>
        <time>2023-09-04T13:17:27Z</time>
      </trkpt>
      <trkpt lat="50.945111000910401" lon="6.617636019363999">
        <ele>62.140000000000001</ele>
        <time>2023-09-04T13:17:37Z</time>
      </trkpt>
      <trkpt lat="50.944762984290719" lon="6.619020961225033">
        <ele>61.18</ele>
        <time>2023-09-04T13:17:46Z</time>
      </trkpt>
      <trkpt lat="50.944682015106082" lon="6.619342993944883">
        <ele>61.18</ele>
        <time>2023-09-04T13:17:48Z</time>
      </trkpt>
      <trkpt lat="50.944643039256334" lon="6.619500992819667">
        <ele>61.18</ele>
        <time>2023-09-04T13:17:49Z</time>
      </trkpt>
      <trkpt lat="50.944240959361196" lon="6.621102020144463">
        <ele>61.18</ele>
        <time>2023-09-04T13:18:00Z</time>
      </trkpt>
      <trkpt lat="50.943918004631996" lon="6.622385960072279">
        <ele>56.859999999999999</ele>
        <time>2023-09-04T13:18:09Z</time>
      </trkpt>
      <trkpt lat="50.943641988560557" lon="6.623487006872892">
        <ele>53.490000000000002</ele>
        <time>2023-09-04T13:18:19Z</time>
      </trkpt>
      <trkpt lat="50.943618016317487" lon="6.623583985492587">
        <ele>53.490000000000002</ele>
        <time>2023-09-04T13:18:20Z</time>
      </trkpt>
      <trkpt lat="50.943593038246036" lon="6.623682975769043">
        <ele>53.009999999999998</ele>
        <time>2023-09-04T13:18:21Z</time>
      </trkpt>
      <trkpt lat="50.943250972777605" lon="6.625043023377657">
        <ele>50.609999999999999</ele>
        <time>2023-09-04T13:18:35Z</time>
      </trkpt>
      <trkpt lat="50.943037988618016" lon="6.625891020521522">
        <ele>50.609999999999999</ele>
        <time>2023-09-04T13:18:44Z</time>
      </trkpt>
      <trkpt lat="50.943007981404662" lon="6.626009959727526">
        <ele>50.609999999999999</ele>
        <time>2023-09-04T13:18:45Z</time>
      </trkpt>
      <trkpt lat="50.942693995311856" lon="6.627262970432639">
        <ele>50.130000000000003</ele>
        <time>2023-09-04T13:18:55Z</time>
      </trkpt>
      <trkpt lat="50.9424879681319" lon="6.62808196619153">
        <ele>48.200000000000003</ele>
        <time>2023-09-04T13:19:03Z</time>
      </trkpt>
      <trkpt lat="50.94246600754559" lon="6.628169976174831">
        <ele>47.719999999999999</ele>
        <time>2023-09-04T13:19:04Z</time>
      </trkpt>
      <trkpt lat="50.942298034206033" lon="6.628842959180474">
        <ele>46.280000000000001</ele>
        <time>2023-09-04T13:19:15Z</time>
      </trkpt>
      <trkpt lat="50.942204995080829" lon="6.629216959699988">
        <ele>47.240000000000002</ele>
        <time>2023-09-04T13:19:26Z</time>
      </trkpt>
      <trkpt lat="50.942020006477833" lon="6.629952974617481">
        <ele>48.68</ele>
        <time>2023-09-04T13:19:40Z</time>
      </trkpt>
      <trkpt lat="50.941837029531598" lon="6.630688989534974">
        <ele>50.609999999999999</ele>
        <time>2023-09-04T13:19:57Z</time>
      </trkpt>
      <trkpt lat="50.941643994301558" lon="6.631460962817073">
        <ele>55.409999999999997</ele>
        <time>2023-09-04T13:20:13Z</time>
      </trkpt>
      <trkpt lat="50.941549027338624" lon="6.631836974993348">
        <ele>57.340000000000003</ele>
        <time>2023-09-04T13:20:26Z</time>
      </trkpt>
      <trkpt lat="50.941411983221769" lon="6.632384983822703">
        <ele>57.82</ele>
        <time>2023-09-04T13:20:43Z</time>
      </trkpt>
      <trkpt lat="50.941306035965681" lon="6.632810030132532">
        <ele>58.299999999999997</ele>
        <time>2023-09-04T13:20:49Z</time>
      </trkpt>
      <trkpt lat="50.941290026530623" lon="6.632874989882112">
        <ele>57.82</ele>
        <time>2023-09-04T13:20:50Z</time>
      </trkpt>
      <trkpt lat="50.941274017095566" lon="6.632940033450723">
        <ele>57.82</ele>
        <time>2023-09-04T13:20:51Z</time>
      </trkpt>
      <trkpt lat="50.941117024049163" lon="6.633566999807954">
        <ele>56.859999999999999</ele>
        <time>2023-09-04T13:21:04Z</time>
      </trkpt>
      <trkpt lat="50.940991966053843" lon="6.634067986160517">
        <ele>56.369999999999997</ele>
        <time>2023-09-04T13:21:17Z</time>
      </trkpt>
      <trkpt lat="50.940934969112277" lon="6.634294968098402">
        <ele>54.450000000000003</ele>
        <time>2023-09-04T13:21:24Z</time>
      </trkpt>
      <trkpt lat="50.940927006304264" lon="6.634327992796898">
        <ele>54.450000000000003</ele>
        <time>2023-09-04T13:21:25Z</time>
      </trkpt>
      <trkpt lat="50.940918959677219" lon="6.634358000010252">
        <ele>53.969999999999999</ele>
        <time>2023-09-04T13:21:26Z</time>
      </trkpt>
      <trkpt lat="50.940910996869206" lon="6.634388007223606">
        <ele>53.969999999999999</ele>
        <time>2023-09-04T13:21:27Z</time>
      </trkpt>
      <trkpt lat="50.940903034061193" lon="6.634422959759831">
        <ele>53.969999999999999</ele>
        <time>2023-09-04T13:21:28Z</time>
      </trkpt>
      <trkpt lat="50.940871015191078" lon="6.63454701192677">
        <ele>53.969999999999999</ele>
        <time>2023-09-04T13:21:31Z</time>
      </trkpt>
      <trkpt lat="50.940852994099259" lon="6.634620018303394">
        <ele>53.490000000000002</ele>
        <time>2023-09-04T13:21:33Z</time>
      </trkpt>
      <trkpt lat="50.940842013806105" lon="6.634664023295045">
        <ele>53.009999999999998</ele>
        <time>2023-09-04T13:21:34Z</time>
      </trkpt>
      <trkpt lat="50.94070496968925" lon="6.635200968012214">
        <ele>50.130000000000003</ele>
        <time>2023-09-04T13:21:44Z</time>
      </trkpt>
      <trkpt lat="50.940630035474896" lon="6.635501040145755">
        <ele>49.649999999999999</ele>
        <time>2023-09-04T13:21:49Z</time>
      </trkpt>
      <trkpt lat="50.940501959994435" lon="6.636004038155079">
        <ele>49.159999999999997</ele>
        <time>2023-09-04T13:21:58Z</time>
      </trkpt>
      <trkpt lat="50.940487962216139" lon="6.636060029268265">
        <ele>49.159999999999997</ele>
        <time>2023-09-04T13:21:59Z</time>
      </trkpt>
      <trkpt lat="50.940469019114971" lon="6.63613697513938">
        <ele>49.159999999999997</ele>
        <time>2023-09-04T13:22:00Z</time>
      </trkpt>
      <trkpt lat="50.940447980538011" lon="6.636218028143048">
        <ele>49.159999999999997</ele>
        <time>2023-09-04T13:22:01Z</time>
      </trkpt>
      <trkpt lat="50.940429037436843" lon="6.636293968185782">
        <ele>49.159999999999997</ele>
        <time>2023-09-04T13:22:02Z</time>
      </trkpt>
      <trkpt lat="50.940357958897948" lon="6.636574007570744">
        <ele>49.159999999999997</ele>
        <time>2023-09-04T13:22:06Z</time>
      </trkpt>
      <trkpt lat="50.940340021625161" lon="6.636647013947368">
        <ele>49.159999999999997</ele>
        <time>2023-09-04T13:22:07Z</time>
      </trkpt>
      <trkpt lat="50.940319988876581" lon="6.636723959818482">
        <ele>48.68</ele>
        <time>2023-09-04T13:22:08Z</time>
      </trkpt>
      <trkpt lat="50.940300039947033" lon="6.636801995337009">
        <ele>48.68</ele>
        <time>2023-09-04T13:22:09Z</time>
      </trkpt>
      <trkpt lat="50.940282018855214" lon="6.636876007542014">
        <ele>48.68</ele>
        <time>2023-09-04T13:22:10Z</time>
      </trkpt>
      <trkpt lat="50.940262991935015" lon="6.636949013918638">
        <ele>48.68</ele>
        <time>2023-09-04T13:22:11Z</time>
      </trkpt>
      <trkpt lat="50.940228961408138" lon="6.637084968388081">
        <ele>48.68</ele>
        <time>2023-09-04T13:22:13Z</time>
      </trkpt>
      <trkpt lat="50.940159978345037" lon="6.637357966974378">
        <ele>48.200000000000003</ele>
        <time>2023-09-04T13:22:17Z</time>
      </trkpt>
      <trkpt lat="50.940141035243869" lon="6.637429967522621">
        <ele>48.200000000000003</ele>
        <time>2023-09-04T13:22:18Z</time>
      </trkpt>
      <trkpt lat="50.940122008323669" lon="6.637505991384387">
        <ele>48.200000000000003</ele>
        <time>2023-09-04T13:22:19Z</time>
      </trkpt>
      <trkpt lat="50.939854038879275" lon="6.63856303319335">
        <ele>49.649999999999999</ele>
        <time>2023-09-04T13:22:29Z</time>
      </trkpt>
      <trkpt lat="50.939825959503651" lon="6.638674009591341">
        <ele>49.649999999999999</ele>
        <time>2023-09-04T13:22:30Z</time>
      </trkpt>
      <trkpt lat="50.939798969775438" lon="6.638782974332571">
        <ele>49.649999999999999</ele>
        <time>2023-09-04T13:22:31Z</time>
      </trkpt>
      <trkpt lat="50.939366966485977" lon="6.640489026904106">
        <ele>53.490000000000002</ele>
        <time>2023-09-04T13:22:45Z</time>
      </trkpt>
      <trkpt lat="50.939202010631561" lon="6.64114298298955">
        <ele>54.450000000000003</ele>
        <time>2023-09-04T13:22:49Z</time>
      </trkpt>
      <trkpt lat="50.939154988154769" lon="6.641329983249307">
        <ele>54.93</ele>
        <time>2023-09-04T13:22:50Z</time>
      </trkpt>
      <trkpt lat="50.939111988991499" lon="6.641501979902387">
        <ele>55.409999999999997</ele>
        <time>2023-09-04T13:22:51Z</time>
      </trkpt>
      <trkpt lat="50.938601028174162" lon="6.643558982759714">
        <ele>58.780000000000001</ele>
        <time>2023-09-04T13:23:01Z</time>
      </trkpt>
      <trkpt lat="50.93769502826035" lon="6.647204020991921">
        <ele>59.740000000000002</ele>
        <time>2023-09-04T13:23:16Z</time>
      </trkpt>
      <trkpt lat="50.936906039714813" lon="6.650258973240852">
        <ele>59.259999999999998</ele>
        <time>2023-09-04T13:23:28Z</time>
      </trkpt>
      <trkpt lat="50.935907000675797" lon="6.653705025091767">
        <ele>60.219999999999999</ele>
        <time>2023-09-04T13:23:41Z</time>
      </trkpt>
      <trkpt lat="50.935652023181319" lon="6.654470963403583">
        <ele>60.700000000000003</ele>
        <time>2023-09-04T13:23:47Z</time>
      </trkpt>
      <trkpt lat="50.935455970466137" lon="6.655057026073337">
        <ele>61.659999999999997</ele>
        <time>2023-09-04T13:23:58Z</time>
      </trkpt>
      <trkpt lat="50.935291014611721" lon="6.655529011040926">
        <ele>62.140000000000001</ele>
        <time>2023-09-04T13:24:14Z</time>
      </trkpt>
      <trkpt lat="50.935065960511565" lon="6.656134016811848">
        <ele>62.140000000000001</ele>
        <time>2023-09-04T13:24:28Z</time>
      </trkpt>
      <trkpt lat="50.934913996607065" lon="6.656541964039207">
        <ele>62.619999999999997</ele>
        <time>2023-09-04T13:24:46Z</time>
      </trkpt>
      <trkpt lat="50.934913996607065" lon="6.656541964039207">
        <ele>62.140000000000001</ele>
        <time>2023-09-04T13:25:06Z</time>
      </trkpt>
      <trkpt lat="50.934810983017087" lon="6.656817980110645">
        <ele>63.579999999999998</ele>
        <time>2023-09-04T13:25:41Z</time>
      </trkpt>
      <trkpt lat="50.934419967234135" lon="6.657864963635802">
        <ele>57.340000000000003</ele>
        <time>2023-09-04T13:25:56Z</time>
      </trkpt>
      <trkpt lat="50.933973966166377" lon="6.658839024603367">
        <ele>53.969999999999999</ele>
        <time>2023-09-04T13:26:10Z</time>
      </trkpt>
      <trkpt lat="50.933452025055885" lon="6.659979969263077">
        <ele>53.969999999999999</ele>
        <time>2023-09-04T13:26:22Z</time>
      </trkpt>
      <trkpt lat="50.932830004021525" lon="6.661241026595235">
        <ele>54.450000000000003</ele>
        <time>2023-09-04T13:26:33Z</time>
      </trkpt>
      <trkpt lat="50.932050989940763" lon="6.662696041166782">
        <ele>54.93</ele>
        <time>2023-09-04T13:26:44Z</time>
      </trkpt>
      <trkpt lat="50.930999983102083" lon="6.664479961618781">
        <ele>55.890000000000001</ele>
        <time>2023-09-04T13:27:00Z</time>
      </trkpt>
      <trkpt lat="50.929942019283772" lon="6.666085012257099">
        <ele>57.340000000000003</ele>
        <time>2023-09-04T13:27:13Z</time>
      </trkpt>
      <trkpt lat="50.928646009415388" lon="6.667812019586563">
        <ele>61.659999999999997</ele>
        <time>2023-09-04T13:27:28Z</time>
      </trkpt>
      <trkpt lat="50.927721988409758" lon="6.668926980346441">
        <ele>64.069999999999993</ele>
        <time>2023-09-04T13:27:40Z</time>
      </trkpt>
      <trkpt lat="50.92682302929461" lon="6.669972036033869">
        <ele>66.950000000000003</ele>
        <time>2023-09-04T13:27:52Z</time>
      </trkpt>
      <trkpt lat="50.925669008865952" lon="6.671253964304924">
        <ele>68.870000000000005</ele>
        <time>2023-09-04T13:28:06Z</time>
      </trkpt>
      <trkpt lat="50.924217011779547" lon="6.672859014943242">
        <ele>71.760000000000005</ele>
        <time>2023-09-04T13:28:20Z</time>
      </trkpt>
      <trkpt lat="50.922559993341565" lon="6.67468199506402">
        <ele>73.200000000000003</ele>
        <time>2023-09-04T13:28:35Z</time>
      </trkpt>
      <trkpt lat="50.922330999746919" lon="6.674919035285711">
        <ele>73.200000000000003</ele>
        <time>2023-09-04T13:28:37Z</time>
      </trkpt>
      <trkpt lat="50.922216000035405" lon="6.675050966441631">
        <ele>72.719999999999999</ele>
        <time>2023-09-04T13:28:38Z</time>
      </trkpt>
      <trkpt lat="50.920996014028788" lon="6.676306994631887">
        <ele>71.269999999999996</ele>
        <time>2023-09-04T13:28:49Z</time>
      </trkpt>
      <trkpt lat="50.920113986358047" lon="6.677204025909305">
        <ele>72.239999999999995</ele>
        <time>2023-09-04T13:29:00Z</time>
      </trkpt>
      <trkpt lat="50.91932499781251" lon="6.678006006404758">
        <ele>73.200000000000003</ele>
        <time>2023-09-04T13:29:11Z</time>
      </trkpt>
      <trkpt lat="50.918284971266985" lon="6.679063970223069">
        <ele>71.760000000000005</ele>
        <time>2023-09-04T13:29:25Z</time>
      </trkpt>
      <trkpt lat="50.917152995243669" lon="6.680214973166585">
        <ele>71.760000000000005</ele>
        <time>2023-09-04T13:29:38Z</time>
      </trkpt>
      <trkpt lat="50.915728993713856" lon="6.681603016331792">
        <ele>71.269999999999996</ele>
        <time>2023-09-04T13:29:51Z</time>
      </trkpt>
      <trkpt lat="50.913824960589409" lon="6.683405041694641">
        <ele>68.870000000000005</ele>
        <time>2023-09-04T13:30:08Z</time>
      </trkpt>
      <trkpt lat="50.913444003090262" lon="6.683740988373756">
        <ele>68.390000000000001</ele>
        <time>2023-09-04T13:30:14Z</time>
      </trkpt>
      <trkpt lat="50.913115013390779" lon="6.684011975303292">
        <ele>67.909999999999997</ele>
        <time>2023-09-04T13:30:25Z</time>
      </trkpt>
      <trkpt lat="50.912931030616164" lon="6.684163017198443">
        <ele>67.430000000000007</ele>
        <time>2023-09-04T13:30:38Z</time>
      </trkpt>
      <trkpt lat="50.912731038406491" lon="6.684327973052859">
        <ele>67.909999999999997</ele>
        <time>2023-09-04T13:30:47Z</time>
      </trkpt>
      <trkpt lat="50.912347985431552" lon="6.684643970802426">
        <ele>68.390000000000001</ele>
        <time>2023-09-04T13:31:01Z</time>
      </trkpt>
      <trkpt lat="50.911795031279325" lon="6.685099024325609">
        <ele>67.909999999999997</ele>
        <time>2023-09-04T13:31:17Z</time>
      </trkpt>
      <trkpt lat="50.911393035203218" lon="6.685407981276512">
        <ele>68.390000000000001</ele>
        <time>2023-09-04T13:31:25Z</time>
      </trkpt>
      <trkpt lat="50.911351041868329" lon="6.685436982661486">
        <ele>67.909999999999997</ele>
        <time>2023-09-04T13:31:26Z</time>
      </trkpt>
      <trkpt lat="50.911307958886027" lon="6.685469001531601">
        <ele>67.909999999999997</ele>
        <time>2023-09-04T13:31:27Z</time>
      </trkpt>
      <trkpt lat="50.911256996914744" lon="6.685505965724587">
        <ele>67.430000000000007</ele>
        <time>2023-09-04T13:31:28Z</time>
      </trkpt>
      <trkpt lat="50.911199999973178" lon="6.685547959059477">
        <ele>67.430000000000007</ele>
        <time>2023-09-04T13:31:29Z</time>
      </trkpt>
      <trkpt lat="50.910285031422973" lon="6.686164028942585">
        <ele>68.870000000000005</ele>
        <time>2023-09-04T13:31:41Z</time>
      </trkpt>
      <trkpt lat="50.909137967973948" lon="6.686845980584621">
        <ele>70.310000000000002</ele>
        <time>2023-09-04T13:31:54Z</time>
      </trkpt>
      <trkpt lat="50.908791963011026" lon="6.687038009986281">
        <ele>70.790000000000006</ele>
        <time>2023-09-04T13:31:59Z</time>
      </trkpt>
      <trkpt lat="50.907839024439454" lon="6.687494991347194">
        <ele>70.310000000000002</ele>
        <time>2023-09-04T13:32:12Z</time>
      </trkpt>
      <trkpt lat="50.906754992902279" lon="6.688015004619956">
        <ele>69.349999999999994</ele>
        <time>2023-09-04T13:32:23Z</time>
      </trkpt>
      <trkpt lat="50.905818985775113" lon="6.688467040657997">
        <ele>68.870000000000005</ele>
        <time>2023-09-04T13:32:30Z</time>
      </trkpt>
      <trkpt lat="50.904080998152494" lon="6.689311014488339">
        <ele>66.950000000000003</ele>
        <time>2023-09-04T13:32:41Z</time>
      </trkpt>
      <trkpt lat="50.902422973886132" lon="6.690121041610837">
        <ele>67.430000000000007</ele>
        <time>2023-09-04T13:32:53Z</time>
      </trkpt>
      <trkpt lat="50.900883972644806" lon="6.691000973805785">
        <ele>69.349999999999994</ele>
        <time>2023-09-04T13:33:03Z</time>
      </trkpt>
      <trkpt lat="50.899168029427528" lon="6.692059021443129">
        <ele>69.349999999999994</ele>
        <time>2023-09-04T13:33:11Z</time>
      </trkpt>
      <trkpt lat="50.896990997716784" lon="6.693505989387631">
        <ele>69.349999999999994</ele>
        <time>2023-09-04T13:33:19Z</time>
      </trkpt>
      <trkpt lat="50.894572986289859" lon="6.695332992821932">
        <ele>68.870000000000005</ele>
        <time>2023-09-04T13:33:28Z</time>
      </trkpt>
      <trkpt lat="50.894025983288884" lon="6.695786034688354">
        <ele>68.870000000000005</ele>
        <time>2023-09-04T13:33:30Z</time>
      </trkpt>
      <trkpt lat="50.89064204134047" lon="6.698603024706245">
        <ele>71.269999999999996</ele>
        <time>2023-09-04T13:33:43Z</time>
      </trkpt>
      <trkpt lat="50.889309989288449" lon="6.699642967432737">
        <ele>73.200000000000003</ele>
        <time>2023-09-04T13:33:48Z</time>
      </trkpt>
      <trkpt lat="50.886597018688917" lon="6.701599974185228">
        <ele>77.040000000000006</ele>
        <time>2023-09-04T13:33:58Z</time>
      </trkpt>
      <trkpt lat="50.884388973936439" lon="6.703020958229899">
        <ele>77.040000000000006</ele>
        <time>2023-09-04T13:34:06Z</time>
      </trkpt>
      <trkpt lat="50.881011988967657" lon="6.704866988584399">
        <ele>76.079999999999998</ele>
        <time>2023-09-04T13:34:18Z</time>
      </trkpt>
      <trkpt lat="50.879296967759728" lon="6.705658994615078">
        <ele>74.640000000000001</ele>
        <time>2023-09-04T13:34:25Z</time>
      </trkpt>
      <trkpt lat="50.877245999872684" lon="6.706547979265451">
        <ele>72.719999999999999</ele>
        <time>2023-09-04T13:34:34Z</time>
      </trkpt>
      <trkpt lat="50.875127976760268" lon="6.707301009446383">
        <ele>72.239999999999995</ele>
        <time>2023-09-04T13:34:45Z</time>
      </trkpt>
      <trkpt lat="50.872685993090272" lon="6.708084968850017">
        <ele>73.200000000000003</ele>
        <time>2023-09-04T13:34:57Z</time>
      </trkpt>
      <trkpt lat="50.869660964235663" lon="6.708890972658992">
        <ele>76.560000000000002</ele>
        <time>2023-09-04T13:35:11Z</time>
      </trkpt>
      <trkpt lat="50.866913041099906" lon="6.709848018363118">
        <ele>77.040000000000006</ele>
        <time>2023-09-04T13:35:24Z</time>
      </trkpt>
      <trkpt lat="50.8644749969244" lon="6.711333962157369">
        <ele>78.969999999999999</ele>
        <time>2023-09-04T13:35:35Z</time>
      </trkpt>
      <trkpt lat="50.86241103708744" lon="6.713137999176979">
        <ele>81.370000000000005</ele>
        <time>2023-09-04T13:35:43Z</time>
      </trkpt>
      <trkpt lat="50.860066032037139" lon="6.715969992801547">
        <ele>87.620000000000005</ele>
        <time>2023-09-04T13:35:53Z</time>
      </trkpt>
      <trkpt lat="50.857442999258637" lon="6.719789039343596">
        <ele>90.980000000000004</ele>
        <time>2023-09-04T13:36:05Z</time>
      </trkpt>
      <trkpt lat="50.854864977300167" lon="6.723674973472953">
        <ele>85.689999999999998</ele>
        <time>2023-09-04T13:36:17Z</time>
      </trkpt>
      <trkpt lat="50.852342024445534" lon="6.727651013061404">
        <ele>84.25</ele>
        <time>2023-09-04T13:36:29Z</time>
      </trkpt>
      <trkpt lat="50.850483002141118" lon="6.731308037415147">
        <ele>86.180000000000007</ele>
        <time>2023-09-04T13:36:39Z</time>
      </trkpt>
      <trkpt lat="50.848794970661402" lon="6.735737035050988">
        <ele>87.140000000000001</ele>
        <time>2023-09-04T13:36:50Z</time>
      </trkpt>
      <trkpt lat="50.847356971353292" lon="6.740913027897477">
        <ele>88.579999999999998</ele>
        <time>2023-09-04T13:37:02Z</time>
      </trkpt>
      <trkpt lat="50.84604000672698" lon="6.745659029111266">
        <ele>92.420000000000002</ele>
        <time>2023-09-04T13:37:13Z</time>
      </trkpt>
      <trkpt lat="50.844349041581154" lon="6.750075034797192">
        <ele>93.390000000000001</ele>
        <time>2023-09-04T13:37:24Z</time>
      </trkpt>
      <trkpt lat="50.842872988432646" lon="6.753018004819751">
        <ele>93.390000000000001</ele>
        <time>2023-09-04T13:37:32Z</time>
      </trkpt>
      <trkpt lat="50.840766029432416" lon="6.756305973976851">
        <ele>93.390000000000001</ele>
        <time>2023-09-04T13:37:42Z</time>
      </trkpt>
      <trkpt lat="50.838234024122357" lon="6.759481960907579">
        <ele>94.349999999999994</ele>
        <time>2023-09-04T13:37:53Z</time>
      </trkpt>
      <trkpt lat="50.835664970800281" lon="6.762601034715772">
        <ele>97.709999999999994</ele>
        <time>2023-09-04T13:38:04Z</time>
      </trkpt>
      <trkpt lat="50.832340037450194" lon="6.76665703766048">
        <ele>98.670000000000002</ele>
        <time>2023-09-04T13:38:18Z</time>
      </trkpt>
      <trkpt lat="50.829268991947174" lon="6.770392013713718">
        <ele>97.230000000000004</ele>
        <time>2023-09-04T13:38:31Z</time>
      </trkpt>
      <trkpt lat="50.825484981760383" lon="6.774968029931188">
        <ele>97.230000000000004</ele>
        <time>2023-09-04T13:38:47Z</time>
      </trkpt>
      <trkpt lat="50.822142027318478" lon="6.778890006244183">
        <ele>96.269999999999996</ele>
        <time>2023-09-04T13:39:01Z</time>
      </trkpt>
      <trkpt lat="50.818509981036186" lon="6.782965958118439">
        <ele>95.310000000000002</ele>
        <time>2023-09-04T13:39:16Z</time>
      </trkpt>
      <trkpt lat="50.816534031182528" lon="6.785348011180759">
        <ele>97.230000000000004</ele>
        <time>2023-09-04T13:39:25Z</time>
      </trkpt>
      <trkpt lat="50.814824961125851" lon="6.78689799271524">
        <ele>97.230000000000004</ele>
        <time>2023-09-04T13:39:33Z</time>
      </trkpt>
      <trkpt lat="50.812380965799093" lon="6.788760032504797">
        <ele>97.230000000000004</ele>
        <time>2023-09-04T13:39:44Z</time>
      </trkpt>
      <trkpt lat="50.810818998143077" lon="6.790076997131109">
        <ele>97.230000000000004</ele>
        <time>2023-09-04T13:39:52Z</time>
      </trkpt>
      <trkpt lat="50.808567032217979" lon="6.791929984465241">
        <ele>93.870000000000005</ele>
        <time>2023-09-04T13:40:03Z</time>
      </trkpt>
      <trkpt lat="50.805521970614791" lon="6.79428898729384">
        <ele>94.829999999999998</ele>
        <time>2023-09-04T13:40:18Z</time>
      </trkpt>
      <trkpt lat="50.803615003824234" lon="6.795676024630666">
        <ele>96.269999999999996</ele>
        <time>2023-09-04T13:40:27Z</time>
      </trkpt>
      <trkpt lat="50.803395984694362" lon="6.795830000191927">
        <ele>97.230000000000004</ele>
        <time>2023-09-04T13:40:28Z</time>
      </trkpt>
      <trkpt lat="50.800804970785975" lon="6.797651974484325">
        <ele>101.08</ele>
        <time>2023-09-04T13:40:40Z</time>
      </trkpt>
      <trkpt lat="50.797946993261576" lon="6.799611998721957">
        <ele>101.08</ele>
        <time>2023-09-04T13:40:52Z</time>
      </trkpt>
      <trkpt lat="50.795533005148172" lon="6.801290977746248">
        <ele>101.56</ele>
        <time>2023-09-04T13:41:03Z</time>
      </trkpt>
      <trkpt lat="50.792494984343648" lon="6.803403971716762">
        <ele>101.56</ele>
        <time>2023-09-04T13:41:16Z</time>
      </trkpt>
      <trkpt lat="50.789457969367504" lon="6.805520989000797">
        <ele>102.52</ele>
        <time>2023-09-04T13:41:28Z</time>
      </trkpt>
      <trkpt lat="50.785929020494223" lon="6.807956015691161">
        <ele>105.88</ele>
        <time>2023-09-04T13:41:41Z</time>
      </trkpt>
      <trkpt lat="50.781307993456721" lon="6.811142982915044">
        <ele>110.69</ele>
        <time>2023-09-04T13:41:58Z</time>
      </trkpt>
      <trkpt lat="50.778386984020472" lon="6.813414981588721">
        <ele>112.13</ele>
        <time>2023-09-04T13:42:09Z</time>
      </trkpt>
      <trkpt lat="50.775631014257669" lon="6.816170029342175">
        <ele>112.13</ele>
        <time>2023-09-04T13:42:20Z</time>
      </trkpt>
      <trkpt lat="50.772903962060809" lon="6.81974901817739">
        <ele>113.56999999999999</ele>
        <time>2023-09-04T13:42:32Z</time>
      </trkpt>
      <trkpt lat="50.770675968378782" lon="6.823519030585885">
        <ele>114.53</ele>
        <time>2023-09-04T13:42:43Z</time>
      </trkpt>
      <trkpt lat="50.769944982603192" lon="6.824967004358769">
        <ele>113.56999999999999</ele>
        <time>2023-09-04T13:42:47Z</time>
      </trkpt>
      <trkpt lat="50.768347978591919" lon="6.828733999282122">
        <ele>110.20999999999999</ele>
        <time>2023-09-04T13:42:57Z</time>
      </trkpt>
      <trkpt lat="50.767152970656753" lon="6.832335032522678">
        <ele>108.29000000000001</ele>
        <time>2023-09-04T13:43:08Z</time>
      </trkpt>
      <trkpt lat="50.766203971579671" lon="6.835826011374593">
        <ele>108.29000000000001</ele>
        <time>2023-09-04T13:43:19Z</time>
      </trkpt>
      <trkpt lat="50.764992032200098" lon="6.840671002864838">
        <ele>114.05</ele>
        <time>2023-09-04T13:43:35Z</time>
      </trkpt>
      <trkpt lat="50.763800963759422" lon="6.844083024188876">
        <ele>118.38</ele>
        <time>2023-09-04T13:43:47Z</time>
      </trkpt>
      <trkpt lat="50.762536972761154" lon="6.846794988960028">
        <ele>117.42</ele>
        <time>2023-09-04T13:43:57Z</time>
      </trkpt>
      <trkpt lat="50.760536966845393" lon="6.849713986739516">
        <ele>113.09</ele>
        <time>2023-09-04T13:44:09Z</time>
      </trkpt>
      <trkpt lat="50.758614996448159" lon="6.851724972948432">
        <ele>107.81</ele>
        <time>2023-09-04T13:44:19Z</time>
      </trkpt>
      <trkpt lat="50.757055040448904" lon="6.853230027481914">
        <ele>109.25</ele>
        <time>2023-09-04T13:44:27Z</time>
      </trkpt>
      <trkpt lat="50.754095977172256" lon="6.856005024164915">
        <ele>114.53</ele>
        <time>2023-09-04T13:44:42Z</time>
      </trkpt>
      <trkpt lat="50.750382961705327" lon="6.859588958323002">
        <ele>119.34</ele>
        <time>2023-09-04T13:45:01Z</time>
      </trkpt>
      <trkpt lat="50.746739013120532" lon="6.863334998488426">
        <ele>123.19</ele>
        <time>2023-09-04T13:45:20Z</time>
      </trkpt>
      <trkpt lat="50.744403982535005" lon="6.86587898992002">
        <ele>124.15000000000001</ele>
        <time>2023-09-04T13:45:32Z</time>
      </trkpt>
      <trkpt lat="50.742070041596889" lon="6.868502022698522">
        <ele>126.55</ele>
        <time>2023-09-04T13:45:42Z</time>
      </trkpt>
      <trkpt lat="50.738456016406417" lon="6.872563976794481">
        <ele>127.51000000000001</ele>
        <time>2023-09-04T13:45:57Z</time>
      </trkpt>
      <trkpt lat="50.734597994014621" lon="6.876935977488756">
        <ele>129.91999999999999</ele>
        <time>2023-09-04T13:46:13Z</time>
      </trkpt>
      <trkpt lat="50.731512028723955" lon="6.880399966612458">
        <ele>133.28</ele>
        <time>2023-09-04T13:46:26Z</time>
      </trkpt>
      <trkpt lat="50.729954000562429" lon="6.882139965891838">
        <ele>134.24000000000001</ele>
        <time>2023-09-04T13:46:33Z</time>
      </trkpt>
      <trkpt lat="50.726987980306149" lon="6.885468000546098">
        <ele>135.19999999999999</ele>
        <time>2023-09-04T13:46:47Z</time>
      </trkpt>
      <trkpt lat="50.724208960309625" lon="6.8886090349406">
        <ele>135.68000000000001</ele>
        <time>2023-09-04T13:47:00Z</time>
      </trkpt>
      <trkpt lat="50.721314018592238" lon="6.891846964135766">
        <ele>142.41</ele>
        <time>2023-09-04T13:47:13Z</time>
      </trkpt>
      <trkpt lat="50.718248002231121" lon="6.895301984623075">
        <ele>143.37</ele>
        <time>2023-09-04T13:47:27Z</time>
      </trkpt>
      <trkpt lat="50.715320035815239" lon="6.898044040426612">
        <ele>142.88999999999999</ele>
        <time>2023-09-04T13:47:40Z</time>
      </trkpt>
      <trkpt lat="50.712692979723215" lon="6.899637021124363">
        <ele>141.44999999999999</ele>
        <time>2023-09-04T13:47:50Z</time>
      </trkpt>
      <trkpt lat="50.709801977500319" lon="6.900647962465882">
        <ele>140.00999999999999</ele>
        <time>2023-09-04T13:48:00Z</time>
      </trkpt>
      <trkpt lat="50.70718196220696" lon="6.901364028453827">
        <ele>140.00999999999999</ele>
        <time>2023-09-04T13:48:09Z</time>
      </trkpt>
      <trkpt lat="50.702805016189814" lon="6.902562975883484">
        <ele>140.97</ele>
        <time>2023-09-04T13:48:24Z</time>
      </trkpt>
      <trkpt lat="50.700265970081091" lon="6.903258003294468">
        <ele>140.97</ele>
        <time>2023-09-04T13:48:34Z</time>
      </trkpt>
      <trkpt lat="50.697404975071549" lon="6.904075993224978">
        <ele>143.37</ele>
        <time>2023-09-04T13:48:46Z</time>
      </trkpt>
      <trkpt lat="50.694334013387561" lon="6.905206041410565">
        <ele>144.81999999999999</ele>
        <time>2023-09-04T13:48:59Z</time>
      </trkpt>
      <trkpt lat="50.692155975848436" lon="6.906186975538731">
        <ele>142.88999999999999</ele>
        <time>2023-09-04T13:49:09Z</time>
      </trkpt>
      <trkpt lat="50.689094988629222" lon="6.907759001478553">
        <ele>143.84999999999999</ele>
        <time>2023-09-04T13:49:22Z</time>
      </trkpt>
      <trkpt lat="50.686209015548229" lon="6.909544011577964">
        <ele>144.81999999999999</ele>
        <time>2023-09-04T13:49:34Z</time>
      </trkpt>
      <trkpt lat="50.68232299759984" lon="6.912296041846275">
        <ele>145.30000000000001</ele>
        <time>2023-09-04T13:49:50Z</time>
      </trkpt>
      <trkpt lat="50.679540960118175" lon="6.914570974186063">
        <ele>146.25999999999999</ele>
        <time>2023-09-04T13:50:01Z</time>
      </trkpt>
      <trkpt lat="50.675412034615874" lon="6.918290024623275">
        <ele>149.13999999999999</ele>
        <time>2023-09-04T13:50:17Z</time>
      </trkpt>
      <trkpt lat="50.672419024631381" lon="6.920329006388784">
        <ele>151.06</ele>
        <time>2023-09-04T13:50:28Z</time>
      </trkpt>
      <trkpt lat="50.669700019061565" lon="6.921528037637472">
        <ele>153.94999999999999</ele>
        <time>2023-09-04T13:50:38Z</time>
      </trkpt>
      <trkpt lat="50.667264992371202" lon="6.922207977622747">
        <ele>154.91</ele>
        <time>2023-09-04T13:50:49Z</time>
      </trkpt>
      <trkpt lat="50.664611030369997" lon="6.922852965071797">
        <ele>155.38999999999999</ele>
        <time>2023-09-04T13:51:01Z</time>
      </trkpt>
      <trkpt lat="50.662710014730692" lon="6.923317993059754">
        <ele>155.87</ele>
        <time>2023-09-04T13:51:08Z</time>
      </trkpt>
      <trkpt lat="50.659508965909481" lon="6.924353996291757">
        <ele>155.38999999999999</ele>
        <time>2023-09-04T13:51:19Z</time>
      </trkpt>
      <trkpt lat="50.656142961233854" lon="6.926164990290999">
        <ele>155.38999999999999</ele>
        <time>2023-09-04T13:51:31Z</time>
      </trkpt>
      <trkpt lat="50.652935039252043" lon="6.928606973960996">
        <ele>157.78999999999999</ele>
        <time>2023-09-04T13:51:43Z</time>
      </trkpt>
      <trkpt lat="50.64996600151062" lon="6.931709032505751">
        <ele>157.78999999999999</ele>
        <time>2023-09-04T13:51:55Z</time>
      </trkpt>
      <trkpt lat="50.647931965067983" lon="6.934411022812128">
        <ele>158.27000000000001</ele>
        <time>2023-09-04T13:52:04Z</time>
      </trkpt>
      <trkpt lat="50.645887032151222" lon="6.937782978639007">
        <ele>159.72</ele>
        <time>2023-09-04T13:52:14Z</time>
      </trkpt>
      <trkpt lat="50.643759034574032" lon="6.942264027893543">
        <ele>162.59999999999999</ele>
        <time>2023-09-04T13:52:26Z</time>
      </trkpt>
      <trkpt lat="50.642686989158392" lon="6.944770971313119">
        <ele>163.56</ele>
        <time>2023-09-04T13:52:33Z</time>
      </trkpt>
      <trkpt lat="50.641079004853964" lon="6.94870300590992">
        <ele>166.44999999999999</ele>
        <time>2023-09-04T13:52:43Z</time>
      </trkpt>
      <trkpt lat="50.638851011171937" lon="6.954217962920666">
        <ele>169.33000000000001</ele>
        <time>2023-09-04T13:52:57Z</time>
      </trkpt>
      <trkpt lat="50.636577000841498" lon="6.959692016243935">
        <ele>171.72999999999999</ele>
        <time>2023-09-04T13:53:11Z</time>
      </trkpt>
      <trkpt lat="50.635352991521358" lon="6.962318988516927">
        <ele>172.21000000000001</ele>
        <time>2023-09-04T13:53:18Z</time>
      </trkpt>
      <trkpt lat="50.633161040022969" lon="6.966116996482015">
        <ele>175.58000000000001</ele>
        <time>2023-09-04T13:53:29Z</time>
      </trkpt>
      <trkpt lat="50.630701035261154" lon="6.969494987279177">
        <ele>181.34999999999999</ele>
        <time>2023-09-04T13:53:40Z</time>
      </trkpt>
      <trkpt lat="50.628253016620874" lon="6.972142998129129">
        <ele>185.66999999999999</ele>
        <time>2023-09-04T13:53:50Z</time>
      </trkpt>
      <trkpt lat="50.625120028853416" lon="6.974782040342689">
        <ele>191.44</ele>
        <time>2023-09-04T13:54:02Z</time>
      </trkpt>
      <trkpt lat="50.622459026053548" lon="6.976852035149932">
        <ele>195.77000000000001</ele>
        <time>2023-09-04T13:54:12Z</time>
      </trkpt>
      <trkpt lat="50.619355039671063" lon="6.979601969942451">
        <ele>197.21000000000001</ele>
        <time>2023-09-04T13:54:24Z</time>
      </trkpt>
      <trkpt lat="50.616412991657853" lon="6.982760019600391">
        <ele>198.65000000000001</ele>
        <time>2023-09-04T13:54:36Z</time>
      </trkpt>
      <trkpt lat="50.613711001351476" lon="6.986390976235271">
        <ele>199.61000000000001</ele>
        <time>2023-09-04T13:54:48Z</time>
      </trkpt>
      <trkpt lat="50.611432967707515" lon="6.990027967840433">
        <ele>202.97999999999999</ele>
        <time>2023-09-04T13:54:59Z</time>
      </trkpt>
      <trkpt lat="50.608612960204482" lon="6.994860973209143">
        <ele>206.81999999999999</ele>
        <time>2023-09-04T13:55:13Z</time>
      </trkpt>
      <trkpt lat="50.605413001030684" lon="7.000380037352443">
        <ele>211.15000000000001</ele>
        <time>2023-09-04T13:55:29Z</time>
      </trkpt>
      <trkpt lat="50.603094985708594" lon="7.004614993929863">
        <ele>213.55000000000001</ele>
        <time>2023-09-04T13:55:41Z</time>
      </trkpt>
      <trkpt lat="50.600756015628576" lon="7.009437019005418">
        <ele>213.06999999999999</ele>
        <time>2023-09-04T13:55:54Z</time>
      </trkpt>
      <trkpt lat="50.598860029131174" lon="7.014210009947419">
        <ele>214.99000000000001</ele>
        <time>2023-09-04T13:56:06Z</time>
      </trkpt>
      <trkpt lat="50.59719898737967" lon="7.018613023683429">
        <ele>214.03</ele>
        <time>2023-09-04T13:56:17Z</time>
      </trkpt>
      <trkpt lat="50.595123041421175" lon="7.024254966527224">
        <ele>212.59</ele>
        <time>2023-09-04T13:56:32Z</time>
      </trkpt>
      <trkpt lat="50.59292103163898" lon="7.030177032575011">
        <ele>212.11000000000001</ele>
        <time>2023-09-04T13:56:46Z</time>
      </trkpt>
      <trkpt lat="50.592287024483085" lon="7.031904039904475">
        <ele>213.06999999999999</ele>
        <time>2023-09-04T13:56:52Z</time>
      </trkpt>
      <trkpt lat="50.591151025146246" lon="7.0349230337888">
        <ele>214.03</ele>
        <time>2023-09-04T13:57:03Z</time>
      </trkpt>
      <trkpt lat="50.590234966948628" lon="7.037391001358628">
        <ele>216.91</ele>
        <time>2023-09-04T13:57:12Z</time>
      </trkpt>
      <trkpt lat="50.588820017874241" lon="7.041286993771792">
        <ele>217.88</ele>
        <time>2023-09-04T13:57:26Z</time>
      </trkpt>
      <trkpt lat="50.587303983047605" lon="7.04540996812284">
        <ele>220.75999999999999</ele>
        <time>2023-09-04T13:57:41Z</time>
      </trkpt>
      <trkpt lat="50.586178964003921" lon="7.048461986705661">
        <ele>220.28</ele>
        <time>2023-09-04T13:57:52Z</time>
      </trkpt>
      <trkpt lat="50.585090992972255" lon="7.05140202306211">
        <ele>219.80000000000001</ele>
        <time>2023-09-04T13:58:01Z</time>
      </trkpt>
      <trkpt lat="50.58353497646749" lon="7.055562967434526">
        <ele>219.80000000000001</ele>
        <time>2023-09-04T13:58:13Z</time>
      </trkpt>
      <trkpt lat="50.581738986074924" lon="7.060389015823603">
        <ele>219.80000000000001</ele>
        <time>2023-09-04T13:58:27Z</time>
      </trkpt>
      <trkpt lat="50.580813959240913" lon="7.062894031405449">
        <ele>219.31999999999999</ele>
        <time>2023-09-04T13:58:35Z</time>
      </trkpt>
      <trkpt lat="50.580601980909705" lon="7.063480010256171">
        <ele>218.84</ele>
        <time>2023-09-04T13:58:40Z</time>
      </trkpt>
      <trkpt lat="50.580549007281661" lon="7.063625017181039">
        <ele>218.36000000000001</ele>
        <time>2023-09-04T13:58:42Z</time>
      </trkpt>
      <trkpt lat="50.580521011725068" lon="7.063703974708915">
        <ele>218.36000000000001</ele>
        <time>2023-09-04T13:58:43Z</time>
      </trkpt>
      <trkpt lat="50.580493016168475" lon="7.063782010227442">
        <ele>218.36000000000001</ele>
        <time>2023-09-04T13:58:44Z</time>
      </trkpt>
      <trkpt lat="50.58043903671205" lon="7.063930034637451">
        <ele>218.36000000000001</ele>
        <time>2023-09-04T13:58:46Z</time>
      </trkpt>
      <trkpt lat="50.580388996750116" lon="7.064069006592035">
        <ele>218.84</ele>
        <time>2023-09-04T13:58:48Z</time>
      </trkpt>
      <trkpt lat="50.580362007021904" lon="7.064142012968659">
        <ele>218.84</ele>
        <time>2023-09-04T13:58:49Z</time>
      </trkpt>
      <trkpt lat="50.579999992623925" lon="7.065140968188644">
        <ele>221.24000000000001</ele>
        <time>2023-09-04T13:59:00Z</time>
      </trkpt>
      <trkpt lat="50.579790025949478" lon="7.065717978402972">
        <ele>220.28</ele>
        <time>2023-09-04T13:59:06Z</time>
      </trkpt>
      <trkpt lat="50.579759012907743" lon="7.065805988386273">
        <ele>220.28</ele>
        <time>2023-09-04T13:59:07Z</time>
      </trkpt>
      <trkpt lat="50.579615011811256" lon="7.066201027482748">
        <ele>218.84</ele>
        <time>2023-09-04T13:59:12Z</time>
      </trkpt>
      <trkpt lat="50.579141015186906" lon="7.067508017644286">
        <ele>218.84</ele>
        <time>2023-09-04T13:59:25Z</time>
      </trkpt>
      <trkpt lat="50.578841026872396" lon="7.068337993696332">
        <ele>219.31999999999999</ele>
        <time>2023-09-04T13:59:32Z</time>
      </trkpt>
      <trkpt lat="50.578799033537507" lon="7.06846003420651">
        <ele>218.84</ele>
        <time>2023-09-04T13:59:33Z</time>
      </trkpt>
      <trkpt lat="50.578220011666417" lon="7.07013700157404">
        <ele>216.43000000000001</ele>
        <time>2023-09-04T13:59:44Z</time>
      </trkpt>
      <trkpt lat="50.577552979812026" lon="7.072224011644721">
        <ele>220.28</ele>
        <time>2023-09-04T13:59:54Z</time>
      </trkpt>
      <trkpt lat="50.576746976003051" lon="7.07518701441586">
        <ele>222.68000000000001</ele>
        <time>2023-09-04T14:00:07Z</time>
      </trkpt>
      <trkpt lat="50.576258981600404" lon="7.077247034758329">
        <ele>222.19999999999999</ele>
        <time>2023-09-04T14:00:15Z</time>
      </trkpt>
      <trkpt lat="50.575661016628146" lon="7.080477001145482">
        <ele>220.28</ele>
        <time>2023-09-04T14:00:26Z</time>
      </trkpt>
      <trkpt lat="50.575280981138349" lon="7.083433968946338">
        <ele>218.36000000000001</ele>
        <time>2023-09-04T14:00:35Z</time>
      </trkpt>
      <trkpt lat="50.574989961460233" lon="7.087216973304749">
        <ele>215.47</ele>
        <time>2023-09-04T14:00:46Z</time>
      </trkpt>
      <trkpt lat="50.574887031689286" lon="7.090977011248469">
        <ele>214.50999999999999</ele>
        <time>2023-09-04T14:00:57Z</time>
      </trkpt>
      <trkpt lat="50.574917960911989" lon="7.094314014539123">
        <ele>216.91</ele>
        <time>2023-09-04T14:01:08Z</time>
      </trkpt>
      <trkpt lat="50.57498199865222" lon="7.097117006778717">
        <ele>214.50999999999999</ele>
        <time>2023-09-04T14:01:18Z</time>
      </trkpt>
      <trkpt lat="50.575090041384101" lon="7.100544031709433">
        <ele>212.59</ele>
        <time>2023-09-04T14:01:29Z</time>
      </trkpt>
      <trkpt lat="50.57511200197041" lon="7.101374007761478">
        <ele>212.11000000000001</ele>
        <time>2023-09-04T14:01:34Z</time>
      </trkpt>
      <trkpt lat="50.575113007798791" lon="7.101431004703045">
        <ele>212.11000000000001</ele>
        <time>2023-09-04T14:01:35Z</time>
      </trkpt>
      <trkpt lat="50.575115019455552" lon="7.101517003029585">
        <ele>211.63</ele>
        <time>2023-09-04T14:01:36Z</time>
      </trkpt>
      <trkpt lat="50.575117031112313" lon="7.101589003577828">
        <ele>211.15000000000001</ele>
        <time>2023-09-04T14:01:37Z</time>
      </trkpt>
      <trkpt lat="50.575118036940694" lon="7.101648012176156">
        <ele>211.15000000000001</ele>
        <time>2023-09-04T14:01:38Z</time>
      </trkpt>
      <trkpt lat="50.575118958950043" lon="7.101693022996187">
        <ele>211.15000000000001</ele>
        <time>2023-09-04T14:01:39Z</time>
      </trkpt>
      <trkpt lat="50.575119964778423" lon="7.101736022159457">
        <ele>210.66999999999999</ele>
        <time>2023-09-04T14:01:40Z</time>
      </trkpt>
      <trkpt lat="50.575120970606804" lon="7.101788995787501">
        <ele>210.66999999999999</ele>
        <time>2023-09-04T14:01:41Z</time>
      </trkpt>
      <trkpt lat="50.575122982263565" lon="7.101842975243926">
        <ele>210.19</ele>
        <time>2023-09-04T14:01:42Z</time>
      </trkpt>
      <trkpt lat="50.57513102889061" lon="7.102191997691989">
        <ele>207.78</ele>
        <time>2023-09-04T14:01:50Z</time>
      </trkpt>
      <trkpt lat="50.57513102889061" lon="7.10221596993506">
        <ele>207.78</ele>
        <time>2023-09-04T14:01:51Z</time>
      </trkpt>
      <trkpt lat="50.57513102889061" lon="7.10221596993506">
        <ele>207.30000000000001</ele>
        <time>2023-09-04T14:01:58Z</time>
      </trkpt>
      <trkpt lat="50.57513102889061" lon="7.10221596993506">
        <ele>206.34</ele>
        <time>2023-09-04T14:01:59Z</time>
      </trkpt>
      <trkpt lat="50.57513396255672" lon="7.102304985746741">
        <ele>206.34</ele>
        <time>2023-09-04T14:02:00Z</time>
      </trkpt>
      <trkpt lat="50.5751349683851" lon="7.102353014051914">
        <ele>205.86000000000001</ele>
        <time>2023-09-04T14:02:01Z</time>
      </trkpt>
      <trkpt lat="50.575135974213481" lon="7.102425014600158">
        <ele>205.38</ele>
        <time>2023-09-04T14:02:02Z</time>
      </trkpt>
      <trkpt lat="50.575159024447203" lon="7.103393040597439">
        <ele>203.46000000000001</ele>
        <time>2023-09-04T14:02:09Z</time>
      </trkpt>
      <trkpt lat="50.57522096671164" lon="7.105527995154262">
        <ele>200.56999999999999</ele>
        <time>2023-09-04T14:02:21Z</time>
      </trkpt>
      <trkpt lat="50.575278969481587" lon="7.107807034626603">
        <ele>201.53</ele>
        <time>2023-09-04T14:02:31Z</time>
      </trkpt>
      <trkpt lat="50.575423976406455" lon="7.111889021471143">
        <ele>201.05000000000001</ele>
        <time>2023-09-04T14:02:47Z</time>
      </trkpt>
      <trkpt lat="50.575504023581743" lon="7.114498978480697">
        <ele>201.05000000000001</ele>
        <time>2023-09-04T14:02:57Z</time>
      </trkpt>
      <trkpt lat="50.57554098777473" lon="7.116935010999441">
        <ele>201.53</ele>
        <time>2023-09-04T14:03:06Z</time>
      </trkpt>
      <trkpt lat="50.575505029410124" lon="7.117630960419774">
        <ele>201.05000000000001</ele>
        <time>2023-09-04T14:03:09Z</time>
      </trkpt>
      <trkpt lat="50.575477033853531" lon="7.117830030620098">
        <ele>200.56999999999999</ele>
        <time>2023-09-04T14:03:11Z</time>
      </trkpt>
      <trkpt lat="50.575358010828495" lon="7.118186010047793">
        <ele>200.09</ele>
        <time>2023-09-04T14:03:13Z</time>
      </trkpt>
      <trkpt lat="50.575148966163397" lon="7.118436964228749">
        <ele>199.61000000000001</ele>
        <time>2023-09-04T14:03:14Z</time>
      </trkpt>
      <trkpt lat="50.575032038614154" lon="7.118488010019064">
        <ele>199.61000000000001</ele>
        <time>2023-09-04T14:03:15Z</time>
      </trkpt>
      <trkpt lat="50.574907986447215" lon="7.118497984483838">
        <ele>199.13</ele>
        <time>2023-09-04T14:03:16Z</time>
      </trkpt>
      <trkpt lat="50.574792986735702" lon="7.118424978107214">
        <ele>198.65000000000001</ele>
        <time>2023-09-04T14:03:17Z</time>
      </trkpt>
      <trkpt lat="50.574686033651233" lon="7.118305033072829">
        <ele>198.65000000000001</ele>
        <time>2023-09-04T14:03:18Z</time>
      </trkpt>
      <trkpt lat="50.57463901117444" lon="7.118140999227762">
        <ele>198.16999999999999</ele>
        <time>2023-09-04T14:03:19Z</time>
      </trkpt>
      <trkpt lat="50.57461797259748" lon="7.117961961776018">
        <ele>197.69</ele>
        <time>2023-09-04T14:03:20Z</time>
      </trkpt>
      <trkpt lat="50.574628030881286" lon="7.117774039506912">
        <ele>197.69</ele>
        <time>2023-09-04T14:03:21Z</time>
      </trkpt>
      <trkpt lat="50.57468201033771" lon="7.117573963478208">
        <ele>197.21000000000001</ele>
        <time>2023-09-04T14:03:22Z</time>
      </trkpt>
      <trkpt lat="50.574755016714334" lon="7.117447983473539">
        <ele>197.21000000000001</ele>
        <time>2023-09-04T14:03:23Z</time>
      </trkpt>
      <trkpt lat="50.574844032526016" lon="7.117295013740659">
        <ele>197.21000000000001</ele>
        <time>2023-09-04T14:03:24Z</time>
      </trkpt>
      <trkpt lat="50.574954003095627" lon="7.11712796241045">
        <ele>197.21000000000001</ele>
        <time>2023-09-04T14:03:25Z</time>
      </trkpt>
      <trkpt lat="50.575761012732983" lon="7.116201007738709">
        <ele>197.21000000000001</ele>
        <time>2023-09-04T14:03:31Z</time>
      </trkpt>
      <trkpt lat="50.576540026813745" lon="7.114409040659666">
        <ele>197.21000000000001</ele>
        <time>2023-09-04T14:03:38Z</time>
      </trkpt>
      <trkpt lat="50.576588977128267" lon="7.114101005718112">
        <ele>197.21000000000001</ele>
        <time>2023-09-04T14:03:39Z</time>
      </trkpt>
      <trkpt lat="50.576619990170002" lon="7.113805040717125">
        <ele>197.21000000000001</ele>
        <time>2023-09-04T14:03:40Z</time>
      </trkpt>
      <trkpt lat="50.576633987948298" lon="7.113507986068726">
        <ele>197.21000000000001</ele>
        <time>2023-09-04T14:03:41Z</time>
      </trkpt>
      <trkpt lat="50.576618984341621" lon="7.11323800496757">
        <ele>197.21000000000001</ele>
        <time>2023-09-04T14:03:42Z</time>
      </trkpt>
      <trkpt lat="50.576601969078183" lon="7.112966012209654">
        <ele>197.21000000000001</ele>
        <time>2023-09-04T14:03:43Z</time>
      </trkpt>
      <trkpt lat="50.576585959643126" lon="7.112706005573273">
        <ele>197.69</ele>
        <time>2023-09-04T14:03:44Z</time>
      </trkpt>
      <trkpt lat="50.576571961864829" lon="7.112466031685472">
        <ele>198.16999999999999</ele>
        <time>2023-09-04T14:03:45Z</time>
      </trkpt>
      <trkpt lat="50.576584031805396" lon="7.112223962321878">
        <ele>199.13</ele>
        <time>2023-09-04T14:03:46Z</time>
      </trkpt>
      <trkpt lat="50.576624013483524" lon="7.111977031454444">
        <ele>199.61000000000001</ele>
        <time>2023-09-04T14:03:47Z</time>
      </trkpt>
      <trkpt lat="50.576689979061484" lon="7.111759018152952">
        <ele>200.09</ele>
        <time>2023-09-04T14:03:48Z</time>
      </trkpt>
      <trkpt lat="50.57678603567183" lon="7.111541004851461">
        <ele>200.56999999999999</ele>
        <time>2023-09-04T14:03:49Z</time>
      </trkpt>
      <trkpt lat="50.57691503316164" lon="7.111403960734606">
        <ele>201.05000000000001</ele>
        <time>2023-09-04T14:03:50Z</time>
      </trkpt>
      <trkpt lat="50.577050987631083" lon="7.111259959638119">
        <ele>201.53</ele>
        <time>2023-09-04T14:03:51Z</time>
      </trkpt>
      <trkpt lat="50.577213009819388" lon="7.111149989068508">
        <ele>202.00999999999999</ele>
        <time>2023-09-04T14:03:52Z</time>
      </trkpt>
      <trkpt lat="50.57738701812923" lon="7.111066002398729">
        <ele>202.49000000000001</ele>
        <time>2023-09-04T14:03:53Z</time>
      </trkpt>
      <trkpt lat="50.578087996691465" lon="7.110626036301255">
        <ele>207.30000000000001</ele>
        <time>2023-09-04T14:03:57Z</time>
      </trkpt>
      <trkpt lat="50.57820500805974" lon="7.110431995242834">
        <ele>208.74000000000001</ele>
        <time>2023-09-04T14:03:58Z</time>
      </trkpt>
      <trkpt lat="50.57831103913486" lon="7.110235020518303">
        <ele>210.19</ele>
        <time>2023-09-04T14:03:59Z</time>
      </trkpt>
      <trkpt lat="50.578408017754555" lon="7.110052965581417">
        <ele>211.15000000000001</ele>
        <time>2023-09-04T14:04:00Z</time>
      </trkpt>
      <trkpt lat="50.578477000817657" lon="7.10986596532166">
        <ele>212.11000000000001</ele>
        <time>2023-09-04T14:04:01Z</time>
      </trkpt>
      <trkpt lat="50.578517988324165" lon="7.109663039445877">
        <ele>212.59</ele>
        <time>2023-09-04T14:04:02Z</time>
      </trkpt>
      <trkpt lat="50.578544978052378" lon="7.109467992559075">
        <ele>213.06999999999999</ele>
        <time>2023-09-04T14:04:03Z</time>
      </trkpt>
      <trkpt lat="50.578545983880758" lon="7.109260959550738">
        <ele>214.50999999999999</ele>
        <time>2023-09-04T14:04:04Z</time>
      </trkpt>
      <trkpt lat="50.578552018851042" lon="7.109059961512685">
        <ele>215.47</ele>
        <time>2023-09-04T14:04:05Z</time>
      </trkpt>
      <trkpt lat="50.578557970002294" lon="7.108867010101676">
        <ele>216.43000000000001</ele>
        <time>2023-09-04T14:04:06Z</time>
      </trkpt>
      <trkpt lat="50.578587977215648" lon="7.108355965465307">
        <ele>219.31999999999999</ele>
        <time>2023-09-04T14:04:09Z</time>
      </trkpt>
      <trkpt lat="50.578601974993944" lon="7.108212970197201">
        <ele>220.28</ele>
        <time>2023-09-04T14:04:10Z</time>
      </trkpt>
      <trkpt lat="50.578615972772241" lon="7.108067963272333">
        <ele>220.75999999999999</ele>
        <time>2023-09-04T14:04:11Z</time>
      </trkpt>
      <trkpt lat="50.578638017177582" lon="7.107897978276014">
        <ele>221.72</ele>
        <time>2023-09-04T14:04:12Z</time>
      </trkpt>
      <trkpt lat="50.578685039654374" lon="7.107763029634953">
        <ele>222.19999999999999</ele>
        <time>2023-09-04T14:04:13Z</time>
      </trkpt>
      <trkpt lat="50.579123999923468" lon="7.106824005022645">
        <ele>226.05000000000001</ele>
        <time>2023-09-04T14:04:21Z</time>
      </trkpt>
      <trkpt lat="50.579153001308441" lon="7.106775976717472">
        <ele>226.53</ele>
        <time>2023-09-04T14:04:22Z</time>
      </trkpt>
      <trkpt lat="50.579188037663698" lon="7.106716968119144">
        <ele>227.00999999999999</ele>
        <time>2023-09-04T14:04:23Z</time>
      </trkpt>
      <trkpt lat="50.579168004915118" lon="7.106603980064392">
        <ele>227.00999999999999</ele>
        <time>2023-09-04T14:04:24Z</time>
      </trkpt>
      <trkpt lat="50.579146966338158" lon="7.106485962867737">
        <ele>227.00999999999999</ele>
        <time>2023-09-04T14:04:25Z</time>
      </trkpt>
      <trkpt lat="50.579238999634981" lon="7.106183040887117">
        <ele>226.53</ele>
        <time>2023-09-04T14:04:27Z</time>
      </trkpt>
      <trkpt lat="50.579270012676716" lon="7.1060820389539">
        <ele>226.53</ele>
        <time>2023-09-04T14:04:28Z</time>
      </trkpt>
      <trkpt lat="50.579302031546831" lon="7.105979025363922">
        <ele>226.53</ele>
        <time>2023-09-04T14:04:29Z</time>
      </trkpt>
      <trkpt lat="50.580187998712063" lon="7.101236963644624">
        <ele>240.94999999999999</ele>
        <time>2023-09-04T14:05:01Z</time>
      </trkpt>
      <trkpt lat="50.58003201149404" lon="7.09923000074923">
        <ele>247.68000000000001</ele>
        <time>2023-09-04T14:05:12Z</time>
      </trkpt>
      <trkpt lat="50.57990301400423" lon="7.096954984590411">
        <ele>249.12</ele>
        <time>2023-09-04T14:05:26Z</time>
      </trkpt>
      <trkpt lat="50.579743003472686" lon="7.094315020367503">
        <ele>251.52000000000001</ele>
        <time>2023-09-04T14:05:42Z</time>
      </trkpt>
      <trkpt lat="50.579591039568186" lon="7.09241702221334">
        <ele>248.63999999999999</ele>
        <time>2023-09-04T14:05:54Z</time>
      </trkpt>
      <trkpt lat="50.579557009041309" lon="7.092036986723542">
        <ele>248.16</ele>
        <time>2023-09-04T14:05:58Z</time>
      </trkpt>
      <trkpt lat="50.579545022919774" lon="7.091906983405352">
        <ele>246.72</ele>
        <time>2023-09-04T14:06:06Z</time>
      </trkpt>
      <trkpt lat="50.579532030969858" lon="7.091760970652103">
        <ele>246.22999999999999</ele>
        <time>2023-09-04T14:06:08Z</time>
      </trkpt>
      <trkpt lat="50.579532030969858" lon="7.091760970652103">
        <ele>245.75</ele>
        <time>2023-09-04T14:06:09Z</time>
      </trkpt>
      <trkpt lat="50.579532030969858" lon="7.091760970652103">
        <ele>245.27000000000001</ele>
        <time>2023-09-04T14:06:10Z</time>
      </trkpt>
      <trkpt lat="50.579532030969858" lon="7.091760970652103">
        <ele>244.78999999999999</ele>
        <time>2023-09-04T14:06:11Z</time>
      </trkpt>
      <trkpt lat="50.579532030969858" lon="7.091760970652103">
        <ele>244.31</ele>
        <time>2023-09-04T14:06:25Z</time>
      </trkpt>
      <trkpt lat="50.579437986016273" lon="7.091829031705856">
        <ele>248.63999999999999</ele>
        <time>2023-09-04T14:14:32Z</time>
      </trkpt>
      <trkpt lat="50.579551979899406" lon="7.091826014220715">
        <ele>256.81</ele>
        <time>2023-09-04T14:15:12Z</time>
      </trkpt>
      <trkpt lat="50.579521972686052" lon="7.091811010614038">
        <ele>255.37</ele>
        <time>2023-09-04T14:15:57Z</time>
      </trkpt>
      <trkpt lat="50.579532030969858" lon="7.091812016442418">
        <ele>253.93000000000001</ele>
        <time>2023-09-04T14:16:26Z</time>
      </trkpt>
      <trkpt lat="50.579524990171194" lon="7.091807993128896">
        <ele>253.44</ele>
        <time>2023-09-04T14:16:53Z</time>
      </trkpt>
      <trkpt lat="50.579527001827955" lon="7.091847974807024">
        <ele>252.47999999999999</ele>
        <time>2023-09-04T14:17:10Z</time>
      </trkpt>
      <trkpt lat="50.579527001827955" lon="7.091958029195666">
        <ele>250.08000000000001</ele>
        <time>2023-09-04T14:17:22Z</time>
      </trkpt>
      <trkpt lat="50.579550974071026" lon="7.091974960640073">
        <ele>250.08000000000001</ele>
        <time>2023-09-04T14:17:25Z</time>
      </trkpt>
      <trkpt lat="50.579554997384548" lon="7.092021983116865">
        <ele>249.59999999999999</ele>
        <time>2023-09-04T14:17:26Z</time>
      </trkpt>
      <trkpt lat="50.579561032354832" lon="7.092088032513857">
        <ele>249.59999999999999</ele>
        <time>2023-09-04T14:17:27Z</time>
      </trkpt>
      <trkpt lat="50.579568995162845" lon="7.092173025012016">
        <ele>249.12</ele>
        <time>2023-09-04T14:17:28Z</time>
      </trkpt>
      <trkpt lat="50.579577963799238" lon="7.092276038601995">
        <ele>249.12</ele>
        <time>2023-09-04T14:17:29Z</time>
      </trkpt>
      <trkpt lat="50.579588022083044" lon="7.092391038313508">
        <ele>248.63999999999999</ele>
        <time>2023-09-04T14:17:30Z</time>
      </trkpt>
      <trkpt lat="50.579600008204579" lon="7.092515006661415">
        <ele>248.63999999999999</ele>
        <time>2023-09-04T14:17:31Z</time>
      </trkpt>
      <trkpt lat="50.579739985987544" lon="7.094280989840627">
        <ele>245.27000000000001</ele>
        <time>2023-09-04T14:17:43Z</time>
      </trkpt>
      <trkpt lat="50.579879963770509" lon="7.096519963815808">
        <ele>241.43000000000001</ele>
        <time>2023-09-04T14:17:56Z</time>
      </trkpt>
      <trkpt lat="50.580035028979182" lon="7.099256990477443">
        <ele>239.50999999999999</ele>
        <time>2023-09-04T14:18:10Z</time>
      </trkpt>
      <trkpt lat="50.580185987055302" lon="7.101211985573173">
        <ele>237.09999999999999</ele>
        <time>2023-09-04T14:18:20Z</time>
      </trkpt>
      <trkpt lat="50.58022697456181" lon="7.102787028998137">
        <ele>234.69999999999999</ele>
        <time>2023-09-04T14:18:28Z</time>
      </trkpt>
      <trkpt lat="50.580186992883682" lon="7.102970005944371">
        <ele>234.22</ele>
        <time>2023-09-04T14:18:29Z</time>
      </trkpt>
      <trkpt lat="50.579648036509752" lon="7.104738000780344">
        <ele>230.37</ele>
        <time>2023-09-04T14:18:39Z</time>
      </trkpt>
      <trkpt lat="50.579367997124791" lon="7.105765035375953">
        <ele>228.44999999999999</ele>
        <time>2023-09-04T14:18:47Z</time>
      </trkpt>
      <trkpt lat="50.579217039048672" lon="7.106252023950219">
        <ele>228.44999999999999</ele>
        <time>2023-09-04T14:18:53Z</time>
      </trkpt>
      <trkpt lat="50.579019980505109" lon="7.10649199783802">
        <ele>228.44999999999999</ele>
        <time>2023-09-04T14:19:00Z</time>
      </trkpt>
      <trkpt lat="50.578970024362206" lon="7.10655502974987">
        <ele>227.97</ele>
        <time>2023-09-04T14:19:01Z</time>
      </trkpt>
      <trkpt lat="50.578960971906781" lon="7.106628958135843">
        <ele>227.97</ele>
        <time>2023-09-04T14:19:02Z</time>
      </trkpt>
      <trkpt lat="50.578952003270388" lon="7.106695007532835">
        <ele>227.97</ele>
        <time>2023-09-04T14:19:03Z</time>
      </trkpt>
      <trkpt lat="50.578952003270388" lon="7.106695007532835">
        <ele>227.49000000000001</ele>
        <time>2023-09-04T14:19:04Z</time>
      </trkpt>
      <trkpt lat="50.578983016312122" lon="7.106918971985579">
        <ele>227.00999999999999</ele>
        <time>2023-09-04T14:19:05Z</time>
      </trkpt>
      <trkpt lat="50.578952003270388" lon="7.107008993625641">
        <ele>227.00999999999999</ele>
        <time>2023-09-04T14:19:06Z</time>
      </trkpt>
      <trkpt lat="50.578917972743511" lon="7.107102032750845">
        <ele>226.53</ele>
        <time>2023-09-04T14:19:07Z</time>
      </trkpt>
      <trkpt lat="50.578884026035666" lon="7.107201023027301">
        <ele>226.05000000000001</ele>
        <time>2023-09-04T14:19:08Z</time>
      </trkpt>
      <trkpt lat="50.578845972195268" lon="7.10730797611177">
        <ele>226.05000000000001</ele>
        <time>2023-09-04T14:19:09Z</time>
      </trkpt>
      <trkpt lat="50.578624019399285" lon="7.107990011572838">
        <ele>224.61000000000001</ele>
        <time>2023-09-04T14:19:14Z</time>
      </trkpt>
      <trkpt lat="50.578609015792608" lon="7.108140969648957">
        <ele>224.12</ele>
        <time>2023-09-04T14:19:15Z</time>
      </trkpt>
      <trkpt lat="50.578556964173913" lon="7.108873967081308">
        <ele>221.24000000000001</ele>
        <time>2023-09-04T14:19:22Z</time>
      </trkpt>
      <trkpt lat="50.578556964173913" lon="7.108873967081308">
        <ele>220.75999999999999</ele>
        <time>2023-09-04T14:19:35Z</time>
      </trkpt>
      <trkpt lat="50.578556964173913" lon="7.108873967081308">
        <ele>220.75999999999999</ele>
        <time>2023-09-04T14:20:16Z</time>
      </trkpt>
      <trkpt lat="50.578551013022661" lon="7.109099021181464">
        <ele>220.75999999999999</ele>
        <time>2023-09-04T14:20:39Z</time>
      </trkpt>
      <trkpt lat="50.578546989709139" lon="7.109225001186132">
        <ele>220.28</ele>
        <time>2023-09-04T14:20:40Z</time>
      </trkpt>
      <trkpt lat="50.578524023294449" lon="7.10936900228262">
        <ele>219.31999999999999</ele>
        <time>2023-09-04T14:20:41Z</time>
      </trkpt>
      <trkpt lat="50.578484963625669" lon="7.109519960358739">
        <ele>218.84</ele>
        <time>2023-09-04T14:20:42Z</time>
      </trkpt>
      <trkpt lat="50.578441964462399" lon="7.109680976718664">
        <ele>218.36000000000001</ele>
        <time>2023-09-04T14:20:43Z</time>
      </trkpt>
      <trkpt lat="50.578384967520833" lon="7.109833024442196">
        <ele>217.40000000000001</ele>
        <time>2023-09-04T14:20:44Z</time>
      </trkpt>
      <trkpt lat="50.578320007771254" lon="7.109998986124992">
        <ele>216.91</ele>
        <time>2023-09-04T14:20:45Z</time>
      </trkpt>
      <trkpt lat="50.578253958374262" lon="7.11016695946455">
        <ele>215.94999999999999</ele>
        <time>2023-09-04T14:20:46Z</time>
      </trkpt>
      <trkpt lat="50.578187992796302" lon="7.11031598970294">
        <ele>215.47</ele>
        <time>2023-09-04T14:20:47Z</time>
      </trkpt>
      <trkpt lat="50.578090008348227" lon="7.110433001071215">
        <ele>214.50999999999999</ele>
        <time>2023-09-04T14:20:48Z</time>
      </trkpt>
      <trkpt lat="50.577991018071771" lon="7.110552024096251">
        <ele>213.55000000000001</ele>
        <time>2023-09-04T14:20:49Z</time>
      </trkpt>
      <trkpt lat="50.577880041673779" lon="7.110685966908932">
        <ele>213.06999999999999</ele>
        <time>2023-09-04T14:20:50Z</time>
      </trkpt>
      <trkpt lat="50.577787002548575" lon="7.110731983557344">
        <ele>212.11000000000001</ele>
        <time>2023-09-04T14:20:51Z</time>
      </trkpt>
      <trkpt lat="50.577675020322204" lon="7.110786968842149">
        <ele>211.15000000000001</ele>
        <time>2023-09-04T14:20:52Z</time>
      </trkpt>
      <trkpt lat="50.577561026439071" lon="7.110842959955335">
        <ele>210.19</ele>
        <time>2023-09-04T14:20:53Z</time>
      </trkpt>
      <trkpt lat="50.577445020899177" lon="7.110900040715933">
        <ele>209.69999999999999</ele>
        <time>2023-09-04T14:20:54Z</time>
      </trkpt>
      <trkpt lat="50.576499039307237" lon="7.111096009612083">
        <ele>203.46000000000001</ele>
        <time>2023-09-04T14:21:02Z</time>
      </trkpt>
      <trkpt lat="50.576389990746975" lon="7.111066002398729">
        <ele>202.49000000000001</ele>
        <time>2023-09-04T14:21:03Z</time>
      </trkpt>
      <trkpt lat="50.576287982985377" lon="7.111017974093556">
        <ele>202.00999999999999</ele>
        <time>2023-09-04T14:21:04Z</time>
      </trkpt>
      <trkpt lat="50.576187986880541" lon="7.110946979373694">
        <ele>201.05000000000001</ele>
        <time>2023-09-04T14:21:05Z</time>
      </trkpt>
      <trkpt lat="50.576116992160678" lon="7.110816976055503">
        <ele>200.56999999999999</ele>
        <time>2023-09-04T14:21:06Z</time>
      </trkpt>
      <trkpt lat="50.576049014925957" lon="7.110688984394074">
        <ele>200.09</ele>
        <time>2023-09-04T14:21:07Z</time>
      </trkpt>
      <trkpt lat="50.576002998277545" lon="7.11055101826787">
        <ele>199.61000000000001</ele>
        <time>2023-09-04T14:21:08Z</time>
      </trkpt>
      <trkpt lat="50.575978020206094" lon="7.110381033271551">
        <ele>199.13</ele>
        <time>2023-09-04T14:21:09Z</time>
      </trkpt>
      <trkpt lat="50.57594801299274" lon="7.110170982778072">
        <ele>198.65000000000001</ele>
        <time>2023-09-04T14:21:10Z</time>
      </trkpt>
      <trkpt lat="50.575961004942656" lon="7.109990017488599">
        <ele>198.16999999999999</ele>
        <time>2023-09-04T14:21:11Z</time>
      </trkpt>
      <trkpt lat="50.575976008549333" lon="7.109780972823501">
        <ele>197.69</ele>
        <time>2023-09-04T14:21:12Z</time>
      </trkpt>
      <trkpt lat="50.576053038239479" lon="7.108691995963454">
        <ele>196.25</ele>
        <time>2023-09-04T14:21:17Z</time>
      </trkpt>
      <trkpt lat="50.576039962470531" lon="7.108511030673981">
        <ele>196.25</ele>
        <time>2023-09-04T14:21:18Z</time>
      </trkpt>
      <trkpt lat="50.576012972742319" lon="7.108282959088683">
        <ele>195.77000000000001</ele>
        <time>2023-09-04T14:21:19Z</time>
      </trkpt>
      <trkpt lat="50.57594801299274" lon="7.108194027096033">
        <ele>195.77000000000001</ele>
        <time>2023-09-04T14:21:20Z</time>
      </trkpt>
      <trkpt lat="50.575840976089239" lon="7.108047008514404">
        <ele>195.28</ele>
        <time>2023-09-04T14:21:21Z</time>
      </trkpt>
      <trkpt lat="50.575745003297925" lon="7.108038039878011">
        <ele>195.28</ele>
        <time>2023-09-04T14:21:22Z</time>
      </trkpt>
      <trkpt lat="50.575618017464876" lon="7.108025969937444">
        <ele>195.28</ele>
        <time>2023-09-04T14:21:23Z</time>
      </trkpt>
      <trkpt lat="50.57549899443984" lon="7.108014989644289">
        <ele>195.28</ele>
        <time>2023-09-04T14:21:24Z</time>
      </trkpt>
      <trkpt lat="50.57539002969861" lon="7.108004009351134">
        <ele>194.80000000000001</ele>
        <time>2023-09-04T14:21:25Z</time>
      </trkpt>
      <trkpt lat="50.575273018330336" lon="7.108027981594205">
        <ele>194.80000000000001</ele>
        <time>2023-09-04T14:21:26Z</time>
      </trkpt>
      <trkpt lat="50.575139997527003" lon="7.10805899463594">
        <ele>194.80000000000001</ele>
        <time>2023-09-04T14:21:27Z</time>
      </trkpt>
      <trkpt lat="50.575014017522335" lon="7.108089001849294">
        <ele>194.80000000000001</ele>
        <time>2023-09-04T14:21:28Z</time>
      </trkpt>
      <trkpt lat="50.57487697340548" lon="7.108169971033931">
        <ele>195.28</ele>
        <time>2023-09-04T14:21:29Z</time>
      </trkpt>
      <trkpt lat="50.574793992564082" lon="7.108288994058967">
        <ele>195.28</ele>
        <time>2023-09-04T14:21:30Z</time>
      </trkpt>
      <trkpt lat="50.574732972308993" lon="7.108454033732414">
        <ele>195.28</ele>
        <time>2023-09-04T14:21:31Z</time>
      </trkpt>
      <trkpt lat="50.574713023379445" lon="7.108622007071972">
        <ele>195.77000000000001</ele>
        <time>2023-09-04T14:21:32Z</time>
      </trkpt>
      <trkpt lat="50.574736995622516" lon="7.108779000118375">
        <ele>196.25</ele>
        <time>2023-09-04T14:21:33Z</time>
      </trkpt>
      <trkpt lat="50.57478804141283" lon="7.108917972072959">
        <ele>196.72999999999999</ele>
        <time>2023-09-04T14:21:34Z</time>
      </trkpt>
      <trkpt lat="50.574859036132693" lon="7.109053004533052">
        <ele>197.21000000000001</ele>
        <time>2023-09-04T14:21:35Z</time>
      </trkpt>
      <trkpt lat="50.574933970347047" lon="7.109192982316017">
        <ele>197.69</ele>
        <time>2023-09-04T14:21:36Z</time>
      </trkpt>
      <trkpt lat="50.57508903555572" lon="7.109484001994133">
        <ele>198.65000000000001</ele>
        <time>2023-09-04T14:21:38Z</time>
      </trkpt>
      <trkpt lat="50.575152989476919" lon="7.109660021960735">
        <ele>199.13</ele>
        <time>2023-09-04T14:21:39Z</time>
      </trkpt>
      <trkpt lat="50.575216021388769" lon="7.109854985028505">
        <ele>199.61000000000001</ele>
        <time>2023-09-04T14:21:40Z</time>
      </trkpt>
      <trkpt lat="50.575409978628159" lon="7.111578974872828">
        <ele>200.56999999999999</ele>
        <time>2023-09-04T14:21:48Z</time>
      </trkpt>
      <trkpt lat="50.575436968356371" lon="7.112223040312529">
        <ele>201.05000000000001</ele>
        <time>2023-09-04T14:21:53Z</time>
      </trkpt>
      <trkpt lat="50.575487008318305" lon="7.113879974931479">
        <ele>200.56999999999999</ele>
        <time>2023-09-04T14:22:00Z</time>
      </trkpt>
      <trkpt lat="50.57554098777473" lon="7.116330005228519">
        <ele>199.13</ele>
        <time>2023-09-04T14:22:08Z</time>
      </trkpt>
      <trkpt lat="50.575544005259871" lon="7.11940398439765">
        <ele>197.69</ele>
        <time>2023-09-04T14:22:17Z</time>
      </trkpt>
      <trkpt lat="50.575373014435172" lon="7.122579971328378">
        <ele>194.31999999999999</ele>
        <time>2023-09-04T14:22:25Z</time>
      </trkpt>
      <trkpt lat="50.574865993112326" lon="7.126691965386272">
        <ele>192.40000000000001</ele>
        <time>2023-09-04T14:22:35Z</time>
      </trkpt>
      <trkpt lat="50.574324019253254" lon="7.129360008984804">
        <ele>190</ele>
        <time>2023-09-04T14:22:43Z</time>
      </trkpt>
      <trkpt lat="50.57339102961123" lon="7.132601039484143">
        <ele>188.08000000000001</ele>
        <time>2023-09-04T14:22:54Z</time>
      </trkpt>
      <trkpt lat="50.572646968066692" lon="7.134494008496404">
        <ele>186.63</ele>
        <time>2023-09-04T14:23:02Z</time>
      </trkpt>
      <trkpt lat="50.571346012875438" lon="7.137272022664547">
        <ele>184.71000000000001</ele>
        <time>2023-09-04T14:23:14Z</time>
      </trkpt>
      <trkpt lat="50.570046985521913" lon="7.139483001083136">
        <ele>182.31</ele>
        <time>2023-09-04T14:23:23Z</time>
      </trkpt>
      <trkpt lat="50.568275973200798" lon="7.141881985589862">
        <ele>179.90000000000001</ele>
        <time>2023-09-04T14:23:34Z</time>
      </trkpt>
      <trkpt lat="50.566039010882378" lon="7.144096987321973">
        <ele>175.58000000000001</ele>
        <time>2023-09-04T14:23:46Z</time>
      </trkpt>
      <trkpt lat="50.563968010246754" lon="7.145557031035423">
        <ele>172.69</ele>
        <time>2023-09-04T14:23:57Z</time>
      </trkpt>
      <trkpt lat="50.56378997862339" lon="7.145663984119892">
        <ele>174.13999999999999</ele>
        <time>2023-09-04T14:23:58Z</time>
      </trkpt>
      <trkpt lat="50.56200304068625" lon="7.146692024543881">
        <ele>174.62</ele>
        <time>2023-09-04T14:24:09Z</time>
      </trkpt>
      <trkpt lat="50.560404025018215" lon="7.14754899032414">
        <ele>169.81</ele>
        <time>2023-09-04T14:24:19Z</time>
      </trkpt>
      <trkpt lat="50.558938030153513" lon="7.14836304076016">
        <ele>165.47999999999999</ele>
        <time>2023-09-04T14:24:29Z</time>
      </trkpt>
      <trkpt lat="50.557397017255425" lon="7.149456040933728">
        <ele>162.12</ele>
        <time>2023-09-04T14:24:41Z</time>
      </trkpt>
      <trkpt lat="50.556112993508577" lon="7.150517022237182">
        <ele>159.72</ele>
        <time>2023-09-04T14:24:51Z</time>
      </trkpt>
      <trkpt lat="50.55459201335907" lon="7.151962984353304">
        <ele>156.83000000000001</ele>
        <time>2023-09-04T14:25:03Z</time>
      </trkpt>
      <trkpt lat="50.553619964048266" lon="7.152967974543572">
        <ele>159.72</ele>
        <time>2023-09-04T14:25:11Z</time>
      </trkpt>
      <trkpt lat="50.552628971636295" lon="7.154031973332167">
        <ele>162.12</ele>
        <time>2023-09-04T14:25:19Z</time>
      </trkpt>
      <trkpt lat="50.552526963874698" lon="7.154142027720809">
        <ele>161.63999999999999</ele>
        <time>2023-09-04T14:25:20Z</time>
      </trkpt>
      <trkpt lat="50.552126979455352" lon="7.154582999646664">
        <ele>159.72</ele>
        <time>2023-09-04T14:25:24Z</time>
      </trkpt>
      <trkpt lat="50.552022038027644" lon="7.154699005186558">
        <ele>158.75</ele>
        <time>2023-09-04T14:25:25Z</time>
      </trkpt>
      <trkpt lat="50.551000032573938" lon="7.155802985653281">
        <ele>153.47</ele>
        <time>2023-09-04T14:25:34Z</time>
      </trkpt>
      <trkpt lat="50.550881009548903" lon="7.155927959829569">
        <ele>153.47</ele>
        <time>2023-09-04T14:25:35Z</time>
      </trkpt>
      <trkpt lat="50.549456002190709" lon="7.157441982999444">
        <ele>152.99000000000001</ele>
        <time>2023-09-04T14:25:47Z</time>
      </trkpt>
      <trkpt lat="50.548303993418813" lon="7.158660041168332">
        <ele>150.58000000000001</ele>
        <time>2023-09-04T14:25:57Z</time>
      </trkpt>
      <trkpt lat="50.548206008970737" lon="7.158763976767659">
        <ele>149.13999999999999</ele>
        <time>2023-09-04T14:25:58Z</time>
      </trkpt>
      <trkpt lat="50.548110036179423" lon="7.158865984529257">
        <ele>146.74000000000001</ele>
        <time>2023-09-04T14:25:59Z</time>
      </trkpt>
      <trkpt lat="50.546883009374142" lon="7.160167023539543">
        <ele>135.68000000000001</ele>
        <time>2023-09-04T14:26:11Z</time>
      </trkpt>
      <trkpt lat="50.546776978299022" lon="7.160284034907818">
        <ele>136.16</ele>
        <time>2023-09-04T14:26:12Z</time>
      </trkpt>
      <trkpt lat="50.545532014220953" lon="7.161616003140807">
        <ele>141.44999999999999</ele>
        <time>2023-09-04T14:26:24Z</time>
      </trkpt>
      <trkpt lat="50.544378999620676" lon="7.162855016067624">
        <ele>142.88999999999999</ele>
        <time>2023-09-04T14:26:36Z</time>
      </trkpt>
      <trkpt lat="50.543062034994364" lon="7.164291003718972">
        <ele>146.74000000000001</ele>
        <time>2023-09-04T14:26:50Z</time>
      </trkpt>
      <trkpt lat="50.541601991280913" lon="7.165828999131918">
        <ele>147.22</ele>
        <time>2023-09-04T14:27:04Z</time>
      </trkpt>
      <trkpt lat="50.539985038340092" lon="7.167528010904789">
        <ele>151.06</ele>
        <time>2023-09-04T14:27:18Z</time>
      </trkpt>
      <trkpt lat="50.538251996040344" lon="7.169443024322391">
        <ele>156.34999999999999</ele>
        <time>2023-09-04T14:27:30Z</time>
      </trkpt>
      <trkpt lat="50.536735039204359" lon="7.17133498750627">
        <ele>160.68000000000001</ele>
        <time>2023-09-04T14:27:38Z</time>
      </trkpt>
      <trkpt lat="50.534852966666222" lon="7.173938993364573">
        <ele>169.81</ele>
        <time>2023-09-04T14:27:48Z</time>
      </trkpt>
      <trkpt lat="50.532941976562142" lon="7.177067035809159">
        <ele>178.94</ele>
        <time>2023-09-04T14:27:59Z</time>
      </trkpt>
      <trkpt lat="50.531339021399617" lon="7.180100027471781">
        <ele>186.15000000000001</ele>
        <time>2023-09-04T14:28:09Z</time>
      </trkpt>
      <trkpt lat="50.529554011300206" lon="7.183430995792151">
        <ele>189.52000000000001</ele>
        <time>2023-09-04T14:28:20Z</time>
      </trkpt>
      <trkpt lat="50.527255022898316" lon="7.18706295825541">
        <ele>196.72999999999999</ele>
        <time>2023-09-04T14:28:33Z</time>
      </trkpt>
      <trkpt lat="50.525183016434312" lon="7.189947003498673">
        <ele>203.94</ele>
        <time>2023-09-04T14:28:44Z</time>
      </trkpt>
      <trkpt lat="50.523171024397016" lon="7.192308017984033">
        <ele>209.69999999999999</ele>
        <time>2023-09-04T14:28:54Z</time>
      </trkpt>
      <trkpt lat="50.521060964092612" lon="7.194675989449024">
        <ele>212.59</ele>
        <time>2023-09-04T14:29:04Z</time>
      </trkpt>
      <trkpt lat="50.519215017557144" lon="7.196845980361104">
        <ele>202.97999999999999</ele>
        <time>2023-09-04T14:29:13Z</time>
      </trkpt>
      <trkpt lat="50.518083963543177" lon="7.198299989104271">
        <ele>195.28</ele>
        <time>2023-09-04T14:29:19Z</time>
      </trkpt>
      <trkpt lat="50.516110025346279" lon="7.20121898688376">
        <ele>201.53</ele>
        <time>2023-09-04T14:29:30Z</time>
      </trkpt>
      <trkpt lat="50.514504974707961" lon="7.203952996060252">
        <ele>206.81999999999999</ele>
        <time>2023-09-04T14:29:40Z</time>
      </trkpt>
      <trkpt lat="50.512977037578821" lon="7.206865036860108">
        <ele>209.69999999999999</ele>
        <time>2023-09-04T14:29:50Z</time>
      </trkpt>
      <trkpt lat="50.511220023036003" lon="7.210625996813178">
        <ele>211.63</ele>
        <time>2023-09-04T14:30:03Z</time>
      </trkpt>
      <trkpt lat="50.509219011291862" lon="7.215101011097431">
        <ele>210.19</ele>
        <time>2023-09-04T14:30:17Z</time>
      </trkpt>
      <trkpt lat="50.507658971473575" lon="7.218211032450199">
        <ele>208.74000000000001</ele>
        <time>2023-09-04T14:30:27Z</time>
      </trkpt>
      <trkpt lat="50.505655026063323" lon="7.221193984150887">
        <ele>212.59</ele>
        <time>2023-09-04T14:30:38Z</time>
      </trkpt>
      <trkpt lat="50.503517976030707" lon="7.223272025585175">
        <ele>216.91</ele>
        <time>2023-09-04T14:30:48Z</time>
      </trkpt>
      <trkpt lat="50.501403976231813" lon="7.224464016035199">
        <ele>218.84</ele>
        <time>2023-09-04T14:30:57Z</time>
      </trkpt>
      <trkpt lat="50.499174976721406" lon="7.225001966580749">
        <ele>222.19999999999999</ele>
        <time>2023-09-04T14:31:06Z</time>
      </trkpt>
      <trkpt lat="50.496655041351914" lon="7.22478898242116">
        <ele>223.63999999999999</ele>
        <time>2023-09-04T14:31:16Z</time>
      </trkpt>
      <trkpt lat="50.494473986327648" lon="7.223832020536065">
        <ele>225.09</ele>
        <time>2023-09-04T14:31:25Z</time>
      </trkpt>
      <trkpt lat="50.493151992559433" lon="7.222933983430266">
        <ele>225.09</ele>
        <time>2023-09-04T14:31:32Z</time>
      </trkpt>
      <trkpt lat="50.491290036588907" lon="7.221256010234356">
        <ele>225.09</ele>
        <time>2023-09-04T14:31:43Z</time>
      </trkpt>
      <trkpt lat="50.489401007071137" lon="7.219703011214733">
        <ele>223.16</ele>
        <time>2023-09-04T14:31:54Z</time>
      </trkpt>
      <trkpt lat="50.487555982545018" lon="7.218799022957683">
        <ele>219.80000000000001</ele>
        <time>2023-09-04T14:32:04Z</time>
      </trkpt>
      <trkpt lat="50.485638035461307" lon="7.218375988304615">
        <ele>217.88</ele>
        <time>2023-09-04T14:32:14Z</time>
      </trkpt>
      <trkpt lat="50.483866017311811" lon="7.218482019379735">
        <ele>216.91</ele>
        <time>2023-09-04T14:32:23Z</time>
      </trkpt>
      <trkpt lat="50.481913033872843" lon="7.219130024313927">
        <ele>215.47</ele>
        <time>2023-09-04T14:32:33Z</time>
      </trkpt>
      <trkpt lat="50.480099022388458" lon="7.22034296952188">
        <ele>213.55000000000001</ele>
        <time>2023-09-04T14:32:43Z</time>
      </trkpt>
      <trkpt lat="50.47911498695612" lon="7.221183003857732">
        <ele>214.99000000000001</ele>
        <time>2023-09-04T14:32:50Z</time>
      </trkpt>
      <trkpt lat="50.477925008162856" lon="7.222364014014602">
        <ele>218.84</ele>
        <time>2023-09-04T14:33:01Z</time>
      </trkpt>
      <trkpt lat="50.476484997197986" lon="7.22386403940618">
        <ele>220.28</ele>
        <time>2023-09-04T14:33:12Z</time>
      </trkpt>
      <trkpt lat="50.475602969527245" lon="7.224784037098289">
        <ele>221.24000000000001</ele>
        <time>2023-09-04T14:33:20Z</time>
      </trkpt>
      <trkpt lat="50.475125033408403" lon="7.22528200596571">
        <ele>221.24000000000001</ele>
        <time>2023-09-04T14:33:27Z</time>
      </trkpt>
      <trkpt lat="50.474691018462181" lon="7.2257349640131">
        <ele>220.28</ele>
        <time>2023-09-04T14:33:38Z</time>
      </trkpt>
      <trkpt lat="50.4745829757303" lon="7.225847030058503">
        <ele>220.28</ele>
        <time>2023-09-04T14:33:40Z</time>
      </trkpt>
      <trkpt lat="50.474522039294243" lon="7.225910983979702">
        <ele>220.28</ele>
        <time>2023-09-04T14:33:41Z</time>
      </trkpt>
      <trkpt lat="50.474456995725632" lon="7.225979967042804">
        <ele>220.28</ele>
        <time>2023-09-04T14:33:42Z</time>
      </trkpt>
      <trkpt lat="50.473572034388781" lon="7.226921003311873">
        <ele>223.63999999999999</ele>
        <time>2023-09-04T14:33:53Z</time>
      </trkpt>
      <trkpt lat="50.473020002245903" lon="7.227498013526201">
        <ele>227.00999999999999</ele>
        <time>2023-09-04T14:34:00Z</time>
      </trkpt>
      <trkpt lat="50.472941966727376" lon="7.227575965225697">
        <ele>227.49000000000001</ele>
        <time>2023-09-04T14:34:01Z</time>
      </trkpt>
      <trkpt lat="50.471986010670662" lon="7.228542985394597">
        <ele>233.25999999999999</ele>
        <time>2023-09-04T14:34:11Z</time>
      </trkpt>
      <trkpt lat="50.471045980229974" lon="7.22947396337986">
        <ele>233.74000000000001</ele>
        <time>2023-09-04T14:34:19Z</time>
      </trkpt>
      <trkpt lat="50.470449021086097" lon="7.23000998608768">
        <ele>235.66</ele>
        <time>2023-09-04T14:34:25Z</time>
      </trkpt>
      <trkpt lat="50.470339972525835" lon="7.230107970535755">
        <ele>236.13999999999999</ele>
        <time>2023-09-04T14:34:26Z</time>
      </trkpt>
      <trkpt lat="50.469243032857776" lon="7.23095596767962">
        <ele>237.58000000000001</ele>
        <time>2023-09-04T14:34:35Z</time>
      </trkpt>
      <trkpt lat="50.468656970188022" lon="7.231380008161068">
        <ele>238.53999999999999</ele>
        <time>2023-09-04T14:34:43Z</time>
      </trkpt>
      <trkpt lat="50.468387994915247" lon="7.231567008420825">
        <ele>239.99000000000001</ele>
        <time>2023-09-04T14:34:51Z</time>
      </trkpt>
      <trkpt lat="50.468299984931946" lon="7.231626017019153">
        <ele>239.99000000000001</ele>
        <time>2023-09-04T14:34:53Z</time>
      </trkpt>
      <trkpt lat="50.468056993559003" lon="7.231777980923653">
        <ele>239.99000000000001</ele>
        <time>2023-09-04T14:35:02Z</time>
      </trkpt>
      <trkpt lat="50.468056993559003" lon="7.231777980923653">
        <ele>240.47</ele>
        <time>2023-09-04T14:35:15Z</time>
      </trkpt>
      <trkpt lat="50.467873010784388" lon="7.231887029483914">
        <ele>241.43000000000001</ele>
        <time>2023-09-04T14:35:29Z</time>
      </trkpt>
      <trkpt lat="50.467692967504263" lon="7.23198501393199">
        <ele>242.38999999999999</ele>
        <time>2023-09-04T14:35:32Z</time>
      </trkpt>
      <trkpt lat="50.467308992519975" lon="7.232211995869875">
        <ele>244.78999999999999</ele>
        <time>2023-09-04T14:35:41Z</time>
      </trkpt>
      <trkpt lat="50.467178989201784" lon="7.232277961447835">
        <ele>245.27000000000001</ele>
        <time>2023-09-04T14:35:44Z</time>
      </trkpt>
      <trkpt lat="50.46712601557374" lon="7.232305034995079">
        <ele>245.27000000000001</ele>
        <time>2023-09-04T14:35:45Z</time>
      </trkpt>
      <trkpt lat="50.466552022844553" lon="7.232597982510924">
        <ele>247.19999999999999</ele>
        <time>2023-09-04T14:35:56Z</time>
      </trkpt>
      <trkpt lat="50.465973000973463" lon="7.232869975268841">
        <ele>249.12</ele>
        <time>2023-09-04T14:36:06Z</time>
      </trkpt>
      <trkpt lat="50.465277973562479" lon="7.233136016875505">
        <ele>251.52000000000001</ele>
        <time>2023-09-04T14:36:15Z</time>
      </trkpt>
      <trkpt lat="50.464573977515101" lon="7.233349001035094">
        <ele>252.96000000000001</ele>
        <time>2023-09-04T14:36:26Z</time>
      </trkpt>
      <trkpt lat="50.46366898342967" lon="7.233602972701192">
        <ele>252</ele>
        <time>2023-09-04T14:36:38Z</time>
      </trkpt>
      <trkpt lat="50.462715039029717" lon="7.233781004324555">
        <ele>252</ele>
        <time>2023-09-04T14:36:47Z</time>
      </trkpt>
      <trkpt lat="50.461175031960011" lon="7.233896004036069">
        <ele>252.47999999999999</ele>
        <time>2023-09-04T14:36:57Z</time>
      </trkpt>
      <trkpt lat="50.459107970818877" lon="7.233802964910865">
        <ele>253.93000000000001</ele>
        <time>2023-09-04T14:37:09Z</time>
      </trkpt>
      <trkpt lat="50.456669004634023" lon="7.233239030465484">
        <ele>254.88999999999999</ele>
        <time>2023-09-04T14:37:22Z</time>
      </trkpt>
      <trkpt lat="50.455184988677502" lon="7.232695966959">
        <ele>256.81</ele>
        <time>2023-09-04T14:37:31Z</time>
      </trkpt>
      <trkpt lat="50.454163989052176" lon="7.232239991426468">
        <ele>260.17000000000002</ele>
        <time>2023-09-04T14:37:39Z</time>
      </trkpt>
      <trkpt lat="50.453008040785789" lon="7.231658035889268">
        <ele>260.64999999999998</ele>
        <time>2023-09-04T14:37:48Z</time>
      </trkpt>
      <trkpt lat="50.451527964323759" lon="7.230872986838222">
        <ele>264.98000000000002</ele>
        <time>2023-09-04T14:37:58Z</time>
      </trkpt>
      <trkpt lat="50.449890978634357" lon="7.229965981096029">
        <ele>271.70999999999998</ele>
        <time>2023-09-04T14:38:08Z</time>
      </trkpt>
      <trkpt lat="50.448258016258478" lon="7.228999966755509">
        <ele>280.36000000000001</ele>
        <time>2023-09-04T14:38:20Z</time>
      </trkpt>
      <trkpt lat="50.446407962590456" lon="7.227930016815662">
        <ele>287.56999999999999</ele>
        <time>2023-09-04T14:38:32Z</time>
      </trkpt>
      <trkpt lat="50.444025993347168" lon="7.226578015834093">
        <ele>295.74000000000001</ele>
        <time>2023-09-04T14:38:46Z</time>
      </trkpt>
      <trkpt lat="50.441692974418402" lon="7.225405974313617">
        <ele>304.38999999999999</ele>
        <time>2023-09-04T14:39:01Z</time>
      </trkpt>
      <trkpt lat="50.43975499458611" lon="7.224643975496292">
        <ele>311.12</ele>
        <time>2023-09-04T14:39:14Z</time>
      </trkpt>
      <trkpt lat="50.437832018360496" lon="7.224094038829207">
        <ele>316.41000000000003</ele>
        <time>2023-09-04T14:39:25Z</time>
      </trkpt>
      <trkpt lat="50.435943994671106" lon="7.223927993327379">
        <ele>318.81</ele>
        <time>2023-09-04T14:39:36Z</time>
      </trkpt>
      <trkpt lat="50.434096958488226" lon="7.224050033837557">
        <ele>319.77999999999997</ele>
        <time>2023-09-04T14:39:46Z</time>
      </trkpt>
      <trkpt lat="50.432280013337731" lon="7.224456975236535">
        <ele>320.25999999999999</ele>
        <time>2023-09-04T14:39:56Z</time>
      </trkpt>
      <trkpt lat="50.430865986272693" lon="7.225017976015806">
        <ele>321.69999999999999</ele>
        <time>2023-09-04T14:40:02Z</time>
      </trkpt>
      <trkpt lat="50.428905040025711" lon="7.226018020883203">
        <ele>323.62</ele>
        <time>2023-09-04T14:40:09Z</time>
      </trkpt>
      <trkpt lat="50.425598965957761" lon="7.228278033435345">
        <ele>326.99000000000001</ele>
        <time>2023-09-04T14:40:21Z</time>
      </trkpt>
      <trkpt lat="50.422307979315519" lon="7.230606023222208">
        <ele>331.31</ele>
        <time>2023-09-04T14:40:33Z</time>
      </trkpt>
      <trkpt lat="50.418980028480291" lon="7.232770984992385">
        <ele>339.48000000000002</ele>
        <time>2023-09-04T14:40:45Z</time>
      </trkpt>
      <trkpt lat="50.415541017428041" lon="7.23447896540165">
        <ele>348.13</ele>
        <time>2023-09-04T14:40:57Z</time>
      </trkpt>
      <trkpt lat="50.412323037162423" lon="7.235654024407268">
        <ele>357.26999999999998</ele>
        <time>2023-09-04T14:41:08Z</time>
      </trkpt>
      <trkpt lat="50.408541038632393" lon="7.236867975443602">
        <ele>369.75999999999999</ele>
        <time>2023-09-04T14:41:21Z</time>
      </trkpt>
      <trkpt lat="50.406455034390092" lon="7.237606002017856">
        <ele>377.94</ele>
        <time>2023-09-04T14:41:28Z</time>
      </trkpt>
      <trkpt lat="50.4026710242033" lon="7.239277018234134">
        <ele>376.49000000000001</ele>
        <time>2023-09-04T14:41:41Z</time>
      </trkpt>
      <trkpt lat="50.399625040590763" lon="7.241369979456067">
        <ele>364</ele>
        <time>2023-09-04T14:41:52Z</time>
      </trkpt>
      <trkpt lat="50.396778965368867" lon="7.244027964770794">
        <ele>350.06</ele>
        <time>2023-09-04T14:42:03Z</time>
      </trkpt>
      <trkpt lat="50.394653985276818" lon="7.246539015322924">
        <ele>340.44</ele>
        <time>2023-09-04T14:42:12Z</time>
      </trkpt>
      <trkpt lat="50.392919015139341" lon="7.249026009812951">
        <ele>329.87</ele>
        <time>2023-09-04T14:42:21Z</time>
      </trkpt>
      <trkpt lat="50.391312958672643" lon="7.251680977642536">
        <ele>321.69999999999999</ele>
        <time>2023-09-04T14:42:29Z</time>
      </trkpt>
      <trkpt lat="50.390142006799579" lon="7.254031011834741">
        <ele>314.00999999999999</ele>
        <time>2023-09-04T14:42:36Z</time>
      </trkpt>
      <trkpt lat="50.388694033026695" lon="7.257463987916708">
        <ele>302.94999999999999</ele>
        <time>2023-09-04T14:42:46Z</time>
      </trkpt>
      <trkpt lat="50.387171963229775" lon="7.262174030765891">
        <ele>289.49000000000001</ele>
        <time>2023-09-04T14:42:58Z</time>
      </trkpt>
      <trkpt lat="50.386089021340013" lon="7.266579978168011">
        <ele>277.95999999999998</ele>
        <time>2023-09-04T14:43:08Z</time>
      </trkpt>
      <trkpt lat="50.385266002267599" lon="7.272075992077589">
        <ele>264.5</ele>
        <time>2023-09-04T14:43:20Z</time>
      </trkpt>
      <trkpt lat="50.384948998689651" lon="7.276738006621599">
        <ele>253.44</ele>
        <time>2023-09-04T14:43:30Z</time>
      </trkpt>
      <trkpt lat="50.384961990639567" lon="7.281452994793654">
        <ele>243.83000000000001</ele>
        <time>2023-09-04T14:43:40Z</time>
      </trkpt>
      <trkpt lat="50.385316964238882" lon="7.28658196516335">
        <ele>236.13999999999999</ele>
        <time>2023-09-04T14:43:51Z</time>
      </trkpt>
      <trkpt lat="50.386188011616468" lon="7.292073033750057">
        <ele>231.33000000000001</ele>
        <time>2023-09-04T14:44:03Z</time>
      </trkpt>
      <trkpt lat="50.387194007635117" lon="7.296524997800589">
        <ele>232.30000000000001</ele>
        <time>2023-09-04T14:44:13Z</time>
      </trkpt>
      <trkpt lat="50.389044983312488" lon="7.302933968603611">
        <ele>227.97</ele>
        <time>2023-09-04T14:44:28Z</time>
      </trkpt>
      <trkpt lat="50.390973994508386" lon="7.308257985860109">
        <ele>221.72</ele>
        <time>2023-09-04T14:44:41Z</time>
      </trkpt>
      <trkpt lat="50.393158989027143" lon="7.313919961452484">
        <ele>212.59</ele>
        <time>2023-09-04T14:44:55Z</time>
      </trkpt>
      <trkpt lat="50.39441904053092" lon="7.317372970283032">
        <ele>206.34</ele>
        <time>2023-09-04T14:45:04Z</time>
      </trkpt>
      <trkpt lat="50.395560991019011" lon="7.321437019854784">
        <ele>199.61000000000001</ele>
        <time>2023-09-04T14:45:15Z</time>
      </trkpt>
      <trkpt lat="50.396124003455043" lon="7.324521979317069">
        <ele>193.84</ele>
        <time>2023-09-04T14:45:22Z</time>
      </trkpt>
      <trkpt lat="50.396362971514463" lon="7.32877504080534">
        <ele>185.19</ele>
        <time>2023-09-04T14:45:31Z</time>
      </trkpt>
      <trkpt lat="50.396081004291773" lon="7.332527032122016">
        <ele>176.53999999999999</ele>
        <time>2023-09-04T14:45:39Z</time>
      </trkpt>
      <trkpt lat="50.395411960780621" lon="7.336610024794936">
        <ele>171.72999999999999</ele>
        <time>2023-09-04T14:45:48Z</time>
      </trkpt>
      <trkpt lat="50.393931968137622" lon="7.34282998368144">
        <ele>156.34999999999999</ele>
        <time>2023-09-04T14:46:02Z</time>
      </trkpt>
      <trkpt lat="50.393011970445514" lon="7.346769981086254">
        <ele>143.84999999999999</ele>
        <time>2023-09-04T14:46:11Z</time>
      </trkpt>
      <trkpt lat="50.39222901687026" lon="7.350861020386219">
        <ele>133.28</ele>
        <time>2023-09-04T14:46:20Z</time>
      </trkpt>
      <trkpt lat="50.391609007492661" lon="7.355503002181649">
        <ele>128.94999999999999</ele>
        <time>2023-09-04T14:46:30Z</time>
      </trkpt>
      <trkpt lat="50.391183961182833" lon="7.361095994710922">
        <ele>129.91999999999999</ele>
        <time>2023-09-04T14:46:42Z</time>
      </trkpt>
      <trkpt lat="50.390693033114076" lon="7.366190012544394">
        <ele>133.75999999999999</ele>
        <time>2023-09-04T14:46:53Z</time>
      </trkpt>
      <trkpt lat="50.389934973791242" lon="7.369745029136539">
        <ele>135.19999999999999</ele>
        <time>2023-09-04T14:47:01Z</time>
      </trkpt>
      <trkpt lat="50.389242963865399" lon="7.371772024780512">
        <ele>136.63999999999999</ele>
        <time>2023-09-04T14:47:07Z</time>
      </trkpt>
      <trkpt lat="50.387962041422725" lon="7.374306963756681">
        <ele>136.16</ele>
        <time>2023-09-04T14:47:16Z</time>
      </trkpt>
      <trkpt lat="50.386407030746341" lon="7.376525988802314">
        <ele>136.63999999999999</ele>
        <time>2023-09-04T14:47:24Z</time>
      </trkpt>
      <trkpt lat="50.384194040670991" lon="7.378932014107704">
        <ele>138.56999999999999</ele>
        <time>2023-09-04T14:47:33Z</time>
      </trkpt>
      <trkpt lat="50.381055017933249" lon="7.382563976570964">
        <ele>141.44999999999999</ele>
        <time>2023-09-04T14:47:46Z</time>
      </trkpt>
      <trkpt lat="50.379666974768043" lon="7.385031022131443">
        <ele>141.93000000000001</ele>
        <time>2023-09-04T14:47:54Z</time>
      </trkpt>
      <trkpt lat="50.378446988761425" lon="7.388254031538963">
        <ele>141.93000000000001</ele>
        <time>2023-09-04T14:48:01Z</time>
      </trkpt>
      <trkpt lat="50.377663029357791" lon="7.391765965148807">
        <ele>143.84999999999999</ele>
        <time>2023-09-04T14:48:09Z</time>
      </trkpt>
      <trkpt lat="50.377260027453303" lon="7.395945014432073">
        <ele>147.22</ele>
        <time>2023-09-04T14:48:18Z</time>
      </trkpt>
      <trkpt lat="50.377001026645303" lon="7.401102986186743">
        <ele>152.50999999999999</ele>
        <time>2023-09-04T14:48:29Z</time>
      </trkpt>
      <trkpt lat="50.376553013920784" lon="7.405268037691712">
        <ele>157.78999999999999</ele>
        <time>2023-09-04T14:48:38Z</time>
      </trkpt>
      <trkpt lat="50.375567972660065" lon="7.409194959327579">
        <ele>163.08000000000001</ele>
        <time>2023-09-04T14:48:47Z</time>
      </trkpt>
      <trkpt lat="50.374121004715562" lon="7.412769002839923">
        <ele>170.77000000000001</ele>
        <time>2023-09-04T14:48:56Z</time>
      </trkpt>
      <trkpt lat="50.37224899046123" lon="7.415832001715899">
        <ele>176.53999999999999</ele>
        <time>2023-09-04T14:49:05Z</time>
      </trkpt>
      <trkpt lat="50.37035602144897" lon="7.418086985126138">
        <ele>184.22999999999999</ele>
        <time>2023-09-04T14:49:13Z</time>
      </trkpt>
      <trkpt lat="50.368052003905177" lon="7.420698031783104">
        <ele>191.91999999999999</ele>
        <time>2023-09-04T14:49:24Z</time>
      </trkpt>
      <trkpt lat="50.365970022976398" lon="7.423661034554243">
        <ele>198.16999999999999</ele>
        <time>2023-09-04T14:49:35Z</time>
      </trkpt>
      <trkpt lat="50.364732015877962" lon="7.426331005990505">
        <ele>202.49000000000001</ele>
        <time>2023-09-04T14:49:43Z</time>
      </trkpt>
      <trkpt lat="50.363725014030933" lon="7.429780997335911">
        <ele>207.78</ele>
        <time>2023-09-04T14:49:52Z</time>
      </trkpt>
      <trkpt lat="50.363274989649653" lon="7.432841984555125">
        <ele>212.11000000000001</ele>
        <time>2023-09-04T14:50:00Z</time>
      </trkpt>
      <trkpt lat="50.363179016858339" lon="7.436405969783664">
        <ele>217.40000000000001</ele>
        <time>2023-09-04T14:50:09Z</time>
      </trkpt>
      <trkpt lat="50.363501971587539" lon="7.439689999446273">
        <ele>221.72</ele>
        <time>2023-09-04T14:50:17Z</time>
      </trkpt>
      <trkpt lat="50.364431021735072" lon="7.44389402680099">
        <ele>227.00999999999999</ele>
        <time>2023-09-04T14:50:27Z</time>
      </trkpt>
      <trkpt lat="50.365795008838177" lon="7.449238998815417">
        <ele>228.44999999999999</ele>
        <time>2023-09-04T14:50:40Z</time>
      </trkpt>
      <trkpt lat="50.36642499268055" lon="7.452634004876018">
        <ele>225.09</ele>
        <time>2023-09-04T14:50:49Z</time>
      </trkpt>
      <trkpt lat="50.366805028170347" lon="7.45641902089119">
        <ele>218.36000000000001</ele>
        <time>2023-09-04T14:51:00Z</time>
      </trkpt>
      <trkpt lat="50.36679295822978" lon="7.460726983845234">
        <ele>212.11000000000001</ele>
        <time>2023-09-04T14:51:13Z</time>
      </trkpt>
      <trkpt lat="50.366479977965355" lon="7.464511999860406">
        <ele>206.81999999999999</ele>
        <time>2023-09-04T14:51:24Z</time>
      </trkpt>
      <trkpt lat="50.36580397747457" lon="7.468156032264233">
        <ele>203.46000000000001</ele>
        <time>2023-09-04T14:51:34Z</time>
      </trkpt>
      <trkpt lat="50.364697985351086" lon="7.472075996920466">
        <ele>202.49000000000001</ele>
        <time>2023-09-04T14:51:45Z</time>
      </trkpt>
      <trkpt lat="50.363695006817579" lon="7.474659970030189">
        <ele>202.97999999999999</ele>
        <time>2023-09-04T14:51:54Z</time>
      </trkpt>
      <trkpt lat="50.362638970836997" lon="7.47685301117599">
        <ele>203.94</ele>
        <time>2023-09-04T14:52:02Z</time>
      </trkpt>
      <trkpt lat="50.361555023118854" lon="7.479014033451676">
        <ele>208.74000000000001</ele>
        <time>2023-09-04T14:52:10Z</time>
      </trkpt>
      <trkpt lat="50.360433021560311" lon="7.480823015794158">
        <ele>210.19</ele>
        <time>2023-09-04T14:52:17Z</time>
      </trkpt>
      <trkpt lat="50.358817996457219" lon="7.483605975285173">
        <ele>213.55000000000001</ele>
        <time>2023-09-04T14:52:28Z</time>
      </trkpt>
      <trkpt lat="50.358215002343059" lon="7.484601996839047">
        <ele>216.43000000000001</ele>
        <time>2023-09-04T14:52:33Z</time>
      </trkpt>
      <trkpt lat="50.358053985983133" lon="7.484605014324188">
        <ele>216.43000000000001</ele>
        <time>2023-09-04T14:52:34Z</time>
      </trkpt>
      <trkpt lat="50.35776698961854" lon="7.48473702929914">
        <ele>215.47</ele>
        <time>2023-09-04T14:52:36Z</time>
      </trkpt>
      <trkpt lat="50.357645032927394" lon="7.484692018479109">
        <ele>215.47</ele>
        <time>2023-09-04T14:52:37Z</time>
      </trkpt>
      <trkpt lat="50.357531039044261" lon="7.4846510309726">
        <ele>215.47</ele>
        <time>2023-09-04T14:52:38Z</time>
      </trkpt>
      <trkpt lat="50.357402041554451" lon="7.48452203348279">
        <ele>215.47</ele>
        <time>2023-09-04T14:52:39Z</time>
      </trkpt>
      <trkpt lat="50.357340015470982" lon="7.484398987144232">
        <ele>215.47</ele>
        <time>2023-09-04T14:52:40Z</time>
      </trkpt>
      <trkpt lat="50.357302967458963" lon="7.484208969399333">
        <ele>214.99000000000001</ele>
        <time>2023-09-04T14:52:41Z</time>
      </trkpt>
      <trkpt lat="50.357280001044273" lon="7.484010988846421">
        <ele>214.99000000000001</ele>
        <time>2023-09-04T14:52:42Z</time>
      </trkpt>
      <trkpt lat="50.357311014086008" lon="7.483834968879819">
        <ele>215.47</ele>
        <time>2023-09-04T14:52:43Z</time>
      </trkpt>
      <trkpt lat="50.357348984107375" lon="7.483655009418726">
        <ele>215.94999999999999</ele>
        <time>2023-09-04T14:52:44Z</time>
      </trkpt>
      <trkpt lat="50.357426013797522" lon="7.48349198140204">
        <ele>216.43000000000001</ele>
        <time>2023-09-04T14:52:45Z</time>
      </trkpt>
      <trkpt lat="50.35753003321588" lon="7.483399026095867">
        <ele>217.88</ele>
        <time>2023-09-04T14:52:47Z</time>
      </trkpt>
      <trkpt lat="50.357756009325385" lon="7.483326019719243">
        <ele>218.36000000000001</ele>
        <time>2023-09-04T14:52:48Z</time>
      </trkpt>
      <trkpt lat="50.357866985723376" lon="7.483359966427088">
        <ele>218.84</ele>
        <time>2023-09-04T14:52:49Z</time>
      </trkpt>
      <trkpt lat="50.357983997091651" lon="7.483442025259137">
        <ele>218.84</ele>
        <time>2023-09-04T14:52:50Z</time>
      </trkpt>
      <trkpt lat="50.358106037601829" lon="7.483528023585677">
        <ele>219.31999999999999</ele>
        <time>2023-09-04T14:52:51Z</time>
      </trkpt>
      <trkpt lat="50.358238974586129" lon="7.48362097889185">
        <ele>219.31999999999999</ele>
        <time>2023-09-04T14:52:52Z</time>
      </trkpt>
      <trkpt lat="50.358336959034204" lon="7.483764979988337">
        <ele>219.31999999999999</ele>
        <time>2023-09-04T14:52:53Z</time>
      </trkpt>
      <trkpt lat="50.358445001766086" lon="7.48392297886312">
        <ele>218.84</ele>
        <time>2023-09-04T14:52:54Z</time>
      </trkpt>
      <trkpt lat="50.359611008316278" lon="7.485581003129482">
        <ele>217.88</ele>
        <time>2023-09-04T14:53:05Z</time>
      </trkpt>
      <trkpt lat="50.360802998766303" lon="7.487369030714035">
        <ele>213.55000000000001</ele>
        <time>2023-09-04T14:53:15Z</time>
      </trkpt>
      <trkpt lat="50.361933968961239" lon="7.489055972546339">
        <ele>212.59</ele>
        <time>2023-09-04T14:53:24Z</time>
      </trkpt>
      <trkpt lat="50.363425025716424" lon="7.490971991792321">
        <ele>214.03</ele>
        <time>2023-09-04T14:53:33Z</time>
      </trkpt>
      <trkpt lat="50.36466596648097" lon="7.492852974683046">
        <ele>210.66999999999999</ele>
        <time>2023-09-04T14:53:40Z</time>
      </trkpt>
      <trkpt lat="50.366443013772368" lon="7.495627971366048">
        <ele>207.30000000000001</ele>
        <time>2023-09-04T14:53:48Z</time>
      </trkpt>
      <trkpt lat="50.368246966972947" lon="7.499094977974892">
        <ele>204.41999999999999</ele>
        <time>2023-09-04T14:53:58Z</time>
      </trkpt>
      <trkpt lat="50.369839025661349" lon="7.503163972869515">
        <ele>202.49000000000001</ele>
        <time>2023-09-04T14:54:08Z</time>
      </trkpt>
      <trkpt lat="50.371799971908331" lon="7.509173965081573">
        <ele>194.80000000000001</ele>
        <time>2023-09-04T14:54:22Z</time>
      </trkpt>
      <trkpt lat="50.373698975890875" lon="7.515043979510665">
        <ele>182.78999999999999</ele>
        <time>2023-09-04T14:54:36Z</time>
      </trkpt>
      <trkpt lat="50.374797005206347" lon="7.518477039411664">
        <ele>175.09999999999999</ele>
        <time>2023-09-04T14:54:44Z</time>
      </trkpt>
      <trkpt lat="50.376043980941176" lon="7.522859014570713">
        <ele>164.03999999999999</ele>
        <time>2023-09-04T14:54:54Z</time>
      </trkpt>
      <trkpt lat="50.377465970814228" lon="7.528178002685309">
        <ele>151.06</ele>
        <time>2023-09-04T14:55:06Z</time>
      </trkpt>
      <trkpt lat="50.379049982875586" lon="7.532858038321137">
        <ele>142.41</ele>
        <time>2023-09-04T14:55:17Z</time>
      </trkpt>
      <trkpt lat="50.380493011325598" lon="7.535342015326023">
        <ele>136.16</ele>
        <time>2023-09-04T14:55:24Z</time>
      </trkpt>
      <trkpt lat="50.381444022059441" lon="7.536565018817782">
        <ele>131.84</ele>
        <time>2023-09-04T14:55:28Z</time>
      </trkpt>
      <trkpt lat="50.383374961093068" lon="7.538034031167626">
        <ele>124.63</ele>
        <time>2023-09-04T14:55:35Z</time>
      </trkpt>
      <trkpt lat="50.385748967528343" lon="7.539065005257726">
        <ele>114.53</ele>
        <time>2023-09-04T14:55:43Z</time>
      </trkpt>
      <trkpt lat="50.389001984149218" lon="7.540451036766172">
        <ele>100.11</ele>
        <time>2023-09-04T14:55:54Z</time>
      </trkpt>
      <trkpt lat="50.39089503698051" lon="7.542052986100316">
        <ele>93.390000000000001</ele>
        <time>2023-09-04T14:56:01Z</time>
      </trkpt>
      <trkpt lat="50.392500003799796" lon="7.544301012530923">
        <ele>86.180000000000007</ele>
        <time>2023-09-04T14:56:08Z</time>
      </trkpt>
      <trkpt lat="50.393885029479861" lon="7.547368034720421">
        <ele>79.930000000000007</ele>
        <time>2023-09-04T14:56:16Z</time>
      </trkpt>
      <trkpt lat="50.394515013322234" lon="7.548938971012831">
        <ele>76.079999999999998</ele>
        <time>2023-09-04T14:56:22Z</time>
      </trkpt>
      <trkpt lat="50.394956991076469" lon="7.550069019198418">
        <ele>73.680000000000007</ele>
        <time>2023-09-04T14:56:29Z</time>
      </trkpt>
      <trkpt lat="50.395439034327865" lon="7.551296968013048">
        <ele>70.790000000000006</ele>
        <time>2023-09-04T14:56:39Z</time>
      </trkpt>
      <trkpt lat="50.395583035424352" lon="7.551630986854434">
        <ele>69.829999999999998</ele>
        <time>2023-09-04T14:56:43Z</time>
      </trkpt>
      <trkpt lat="50.395649001002312" lon="7.551780017092824">
        <ele>69.349999999999994</ele>
        <time>2023-09-04T14:56:45Z</time>
      </trkpt>
      <trkpt lat="50.395921999588609" lon="7.552417041733861">
        <ele>65.989999999999995</ele>
        <time>2023-09-04T14:56:57Z</time>
      </trkpt>
      <trkpt lat="50.396151999011636" lon="7.552946023643017">
        <ele>66.469999999999999</ele>
        <time>2023-09-04T14:57:09Z</time>
      </trkpt>
      <trkpt lat="50.396358026191592" lon="7.55340501666069">
        <ele>66.950000000000003</ele>
        <time>2023-09-04T14:57:21Z</time>
      </trkpt>
      <trkpt lat="50.396553995087743" lon="7.55383400246501">
        <ele>67.909999999999997</ele>
        <time>2023-09-04T14:57:34Z</time>
      </trkpt>
      <trkpt lat="50.396788017824292" lon="7.554302969947457">
        <ele>68.870000000000005</ele>
        <time>2023-09-04T14:57:48Z</time>
      </trkpt>
      <trkpt lat="50.397064033895731" lon="7.554855002090335">
        <ele>69.349999999999994</ele>
        <time>2023-09-04T14:58:02Z</time>
      </trkpt>
      <trkpt lat="50.39749301970005" lon="7.555712973698974">
        <ele>69.349999999999994</ele>
        <time>2023-09-04T14:58:17Z</time>
      </trkpt>
      <trkpt lat="50.397710027173162" lon="7.556146988645196">
        <ele>69.349999999999994</ele>
        <time>2023-09-04T14:58:24Z</time>
      </trkpt>
      <trkpt lat="50.398060977458954" lon="7.556849978864193">
        <ele>69.349999999999994</ele>
        <time>2023-09-04T14:58:35Z</time>
      </trkpt>
      <trkpt lat="50.398642010986805" lon="7.557907020673156">
        <ele>71.269999999999996</ele>
        <time>2023-09-04T14:58:50Z</time>
      </trkpt>
      <trkpt lat="50.399119025096297" lon="7.558759041130543">
        <ele>72.239999999999995</ele>
        <time>2023-09-04T14:59:00Z</time>
      </trkpt>
      <trkpt lat="50.399972973391414" lon="7.560212966054678">
        <ele>72.719999999999999</ele>
        <time>2023-09-04T14:59:18Z</time>
      </trkpt>
      <trkpt lat="50.400773026049137" lon="7.561517022550106">
        <ele>73.680000000000007</ele>
        <time>2023-09-04T14:59:34Z</time>
      </trkpt>
      <trkpt lat="50.401566959917545" lon="7.56268797442317">
        <ele>75.120000000000005</ele>
        <time>2023-09-04T14:59:47Z</time>
      </trkpt>
      <trkpt lat="50.402243966236711" lon="7.563688019290566">
        <ele>74.640000000000001</ele>
        <time>2023-09-04T14:59:58Z</time>
      </trkpt>
      <trkpt lat="50.402760040014982" lon="7.564449012279511">
        <ele>73.200000000000003</ele>
        <time>2023-09-04T15:00:11Z</time>
      </trkpt>
      <trkpt lat="50.40301501750946" lon="7.564813038334251">
        <ele>73.200000000000003</ele>
        <time>2023-09-04T15:00:21Z</time>
      </trkpt>
      <trkpt lat="50.403438974171877" lon="7.56539499387145">
        <ele>74.159999999999997</ele>
        <time>2023-09-04T15:00:35Z</time>
      </trkpt>
      <trkpt lat="50.403700992465019" lon="7.565753990784288">
        <ele>75.120000000000005</ele>
        <time>2023-09-04T15:00:46Z</time>
      </trkpt>
      <trkpt lat="50.403969967737794" lon="7.566127991303802">
        <ele>77.519999999999996</ele>
        <time>2023-09-04T15:00:59Z</time>
      </trkpt>
      <trkpt lat="50.404379004612565" lon="7.566686980426312">
        <ele>78.969999999999999</ele>
        <time>2023-09-04T15:01:09Z</time>
      </trkpt>
      <trkpt lat="50.40503597818315" lon="7.567586023360491">
        <ele>80.890000000000001</ele>
        <time>2023-09-04T15:01:21Z</time>
      </trkpt>
      <trkpt lat="50.405735028907657" lon="7.56855295971036">
        <ele>82.810000000000002</ele>
        <time>2023-09-04T15:01:33Z</time>
      </trkpt>
      <trkpt lat="50.406591994687915" lon="7.569728018715978">
        <ele>86.659999999999997</ele>
        <time>2023-09-04T15:01:44Z</time>
      </trkpt>
      <trkpt lat="50.407581981271505" lon="7.571104997768998">
        <ele>88.579999999999998</ele>
        <time>2023-09-04T15:01:53Z</time>
      </trkpt>
      <trkpt lat="50.408920990303159" lon="7.572940969839692">
        <ele>89.060000000000002</ele>
        <time>2023-09-04T15:02:05Z</time>
      </trkpt>
      <trkpt lat="50.410152962431312" lon="7.574605029076338">
        <ele>88.099999999999994</ele>
        <time>2023-09-04T15:02:14Z</time>
      </trkpt>
      <trkpt lat="50.411305977031589" lon="7.576217958703637">
        <ele>86.659999999999997</ele>
        <time>2023-09-04T15:02:22Z</time>
      </trkpt>
      <trkpt lat="50.412613973021507" lon="7.578077986836433">
        <ele>87.620000000000005</ele>
        <time>2023-09-04T15:02:30Z</time>
      </trkpt>
      <trkpt lat="50.413733040913939" lon="7.580472026020289">
        <ele>89.540000000000006</ele>
        <time>2023-09-04T15:02:39Z</time>
      </trkpt>
      <trkpt lat="50.414203014224768" lon="7.583322040736675">
        <ele>95.310000000000002</ele>
        <time>2023-09-04T15:02:46Z</time>
      </trkpt>
      <trkpt lat="50.414193039759994" lon="7.584444964304566">
        <ele>99.629999999999995</ele>
        <time>2023-09-04T15:02:50Z</time>
      </trkpt>
      <trkpt lat="50.413608988747001" lon="7.586886025965214">
        <ele>107.31999999999999</ele>
        <time>2023-09-04T15:02:56Z</time>
      </trkpt>
      <trkpt lat="50.412519006058574" lon="7.588856024667621">
        <ele>113.09</ele>
        <time>2023-09-04T15:03:03Z</time>
      </trkpt>
      <trkpt lat="50.410422021523118" lon="7.591941989958286">
        <ele>124.15000000000001</ele>
        <time>2023-09-04T15:03:15Z</time>
      </trkpt>
      <trkpt lat="50.408586971461773" lon="7.595011023804545">
        <ele>136.16</ele>
        <time>2023-09-04T15:03:26Z</time>
      </trkpt>
      <trkpt lat="50.40759296156466" lon="7.598062958568335">
        <ele>145.30000000000001</ele>
        <time>2023-09-04T15:03:35Z</time>
      </trkpt>
      <trkpt lat="50.406951997429132" lon="7.601314969360828">
        <ele>151.53999999999999</ele>
        <time>2023-09-04T15:03:44Z</time>
      </trkpt>
      <trkpt lat="50.407156012952328" lon="7.603932972997427">
        <ele>157.31</ele>
        <time>2023-09-04T15:03:51Z</time>
      </trkpt>
      <trkpt lat="50.407836958765984" lon="7.605938008055091">
        <ele>162.12</ele>
        <time>2023-09-04T15:03:57Z</time>
      </trkpt>
      <trkpt lat="50.409054011106491" lon="7.607772974297404">
        <ele>169.81</ele>
        <time>2023-09-04T15:04:04Z</time>
      </trkpt>
      <trkpt lat="50.41062100790441" lon="7.608803026378155">
        <ele>177.5</ele>
        <time>2023-09-04T15:04:11Z</time>
      </trkpt>
      <trkpt lat="50.41279099881649" lon="7.609355980530381">
        <ele>188.56</ele>
        <time>2023-09-04T15:04:20Z</time>
      </trkpt>
      <trkpt lat="50.414753034710884" lon="7.609630990773439">
        <ele>198.65000000000001</ele>
        <time>2023-09-04T15:04:27Z</time>
      </trkpt>
      <trkpt lat="50.417373972013593" lon="7.610464990139008">
        <ele>209.22</ele>
        <time>2023-09-04T15:04:36Z</time>
      </trkpt>
      <trkpt lat="50.419576987624168" lon="7.611934002488852">
        <ele>215.94999999999999</ele>
        <time>2023-09-04T15:04:44Z</time>
      </trkpt>
      <trkpt lat="50.421819984912872" lon="7.614239025861025">
        <ele>221.24000000000001</ele>
        <time>2023-09-04T15:04:53Z</time>
      </trkpt>
      <trkpt lat="50.423523019999266" lon="7.616870021447539">
        <ele>225.56999999999999</ele>
        <time>2023-09-04T15:05:01Z</time>
      </trkpt>
      <trkpt lat="50.42525103315711" lon="7.620670963078737">
        <ele>230.84999999999999</ele>
        <time>2023-09-04T15:05:11Z</time>
      </trkpt>
      <trkpt lat="50.427353968843818" lon="7.625789036974311">
        <ele>235.66</ele>
        <time>2023-09-04T15:05:24Z</time>
      </trkpt>
      <trkpt lat="50.429739961400628" lon="7.631151024252176">
        <ele>244.31</ele>
        <time>2023-09-04T15:05:38Z</time>
      </trkpt>
      <trkpt lat="50.431780032813549" lon="7.634566985070705">
        <ele>254.88999999999999</ele>
        <time>2023-09-04T15:05:48Z</time>
      </trkpt>
      <trkpt lat="50.434977980330586" lon="7.639519013464451">
        <ele>272.67000000000002</ele>
        <time>2023-09-04T15:06:03Z</time>
      </trkpt>
      <trkpt lat="50.437930002808571" lon="7.644153032451868">
        <ele>290.45999999999998</ele>
        <time>2023-09-04T15:06:17Z</time>
      </trkpt>
      <trkpt lat="50.440074009820819" lon="7.647447036579251">
        <ele>298.63</ele>
        <time>2023-09-04T15:06:27Z</time>
      </trkpt>
      <trkpt lat="50.441845022141933" lon="7.650222033262253">
        <ele>301.99000000000001</ele>
        <time>2023-09-04T15:06:36Z</time>
      </trkpt>
      <trkpt lat="50.443452000617981" lon="7.653098031878471">
        <ele>300.55000000000001</ele>
        <time>2023-09-04T15:06:46Z</time>
      </trkpt>
      <trkpt lat="50.444053988903761" lon="7.655596006661654">
        <ele>298.63</ele>
        <time>2023-09-04T15:06:53Z</time>
      </trkpt>
      <trkpt lat="50.444120960310102" lon="7.658254997804761">
        <ele>298.14999999999998</ele>
        <time>2023-09-04T15:07:00Z</time>
      </trkpt>
      <trkpt lat="50.443804962560534" lon="7.662461036816239">
        <ele>301.02999999999997</ele>
        <time>2023-09-04T15:07:11Z</time>
      </trkpt>
      <trkpt lat="50.443968996405602" lon="7.665136037394404">
        <ele>300.06999999999999</ele>
        <time>2023-09-04T15:07:18Z</time>
      </trkpt>
      <trkpt lat="50.444626975804567" lon="7.667614985257387">
        <ele>298.14999999999998</ele>
        <time>2023-09-04T15:07:25Z</time>
      </trkpt>
      <trkpt lat="50.44611300341785" lon="7.671234039589763">
        <ele>291.89999999999998</ele>
        <time>2023-09-04T15:07:36Z</time>
      </trkpt>
      <trkpt lat="50.447121011093259" lon="7.674397034570575">
        <ele>286.13</ele>
        <time>2023-09-04T15:07:44Z</time>
      </trkpt>
      <trkpt lat="50.447380011901259" lon="7.677159961313009">
        <ele>282.76999999999998</ele>
        <time>2023-09-04T15:07:50Z</time>
      </trkpt>
      <trkpt lat="50.447006011381745" lon="7.679873015731573">
        <ele>282.27999999999997</ele>
        <time>2023-09-04T15:07:56Z</time>
      </trkpt>
      <trkpt lat="50.446084002032876" lon="7.684306036680937">
        <ele>286.13</ele>
        <time>2023-09-04T15:08:06Z</time>
      </trkpt>
      <trkpt lat="50.446095988154411" lon="7.687103999778628">
        <ele>292.38</ele>
        <time>2023-09-04T15:08:12Z</time>
      </trkpt>
      <trkpt lat="50.446696970611811" lon="7.689738012850285">
        <ele>298.14999999999998</ele>
        <time>2023-09-04T15:08:18Z</time>
      </trkpt>
      <trkpt lat="50.448149973526597" lon="7.693843971937895">
        <ele>308.72000000000003</ele>
        <time>2023-09-04T15:08:28Z</time>
      </trkpt>
      <trkpt lat="50.448803007602692" lon="7.697445005178452">
        <ele>315.44999999999999</ele>
        <time>2023-09-04T15:08:36Z</time>
      </trkpt>
      <trkpt lat="50.449372977018356" lon="7.703960007056594">
        <ele>335.16000000000003</ele>
        <time>2023-09-04T15:08:50Z</time>
      </trkpt>
      <trkpt lat="50.4495710413903" lon="7.709578983485699">
        <ele>351.5</ele>
        <time>2023-09-04T15:09:02Z</time>
      </trkpt>
      <trkpt lat="50.449601970613003" lon="7.716164980083704">
        <ele>371.20999999999998</ele>
        <time>2023-09-04T15:09:16Z</time>
      </trkpt>
      <trkpt lat="50.450036991387606" lon="7.719836002215743">
        <ele>381.30000000000001</ele>
        <time>2023-09-04T15:09:24Z</time>
      </trkpt>
      <trkpt lat="50.451065031811595" lon="7.723754961043596">
        <ele>390.43000000000001</ele>
        <time>2023-09-04T15:09:33Z</time>
      </trkpt>
      <trkpt lat="50.451790988445282" lon="7.727351970970631">
        <ele>391.38999999999999</ele>
        <time>2023-09-04T15:09:41Z</time>
      </trkpt>
      <trkpt lat="50.452034985646605" lon="7.730642035603523">
        <ele>389.94999999999999</ele>
        <time>2023-09-04T15:09:48Z</time>
      </trkpt>
      <trkpt lat="50.45217496342957" lon="7.734873974695802">
        <ele>382.74000000000001</ele>
        <time>2023-09-04T15:09:57Z</time>
      </trkpt>
      <trkpt lat="50.452657006680965" lon="7.737600021064282">
        <ele>374.56999999999999</ele>
        <time>2023-09-04T15:10:03Z</time>
      </trkpt>
      <trkpt lat="50.454059969633818" lon="7.74331103079021">
        <ele>355.82999999999998</ele>
        <time>2023-09-04T15:10:16Z</time>
      </trkpt>
      <trkpt lat="50.455766022205353" lon="7.750356020405889">
        <ele>334.68000000000001</ele>
        <time>2023-09-04T15:10:32Z</time>
      </trkpt>
      <trkpt lat="50.457753036171198" lon="7.758229980245233">
        <ele>320.25999999999999</ele>
        <time>2023-09-04T15:10:50Z</time>
      </trkpt>
      <trkpt lat="50.459338976070285" lon="7.764817988499999">
        <ele>320.25999999999999</ele>
        <time>2023-09-04T15:11:05Z</time>
      </trkpt>
      <trkpt lat="50.45943302102387" lon="7.767105996608734">
        <ele>322.18000000000001</ele>
        <time>2023-09-04T15:11:10Z</time>
      </trkpt>
      <trkpt lat="50.459408964961767" lon="7.767564989626408">
        <ele>322.66000000000003</ele>
        <time>2023-09-04T15:11:11Z</time>
      </trkpt>
      <trkpt lat="50.45883103273809" lon="7.770214006304741">
        <ele>326.5</ele>
        <time>2023-09-04T15:11:17Z</time>
      </trkpt>
      <trkpt lat="50.457784971222281" lon="7.772362036630511">
        <ele>331.79000000000002</ele>
        <time>2023-09-04T15:11:23Z</time>
      </trkpt>
      <trkpt lat="50.456500025466084" lon="7.774661025032401">
        <ele>333.70999999999998</ele>
        <time>2023-09-04T15:11:31Z</time>
      </trkpt>
      <trkpt lat="50.454733036458492" lon="7.7764000184834">
        <ele>331.31</ele>
        <time>2023-09-04T15:11:39Z</time>
      </trkpt>
      <trkpt lat="50.453045004978776" lon="7.777593014761806">
        <ele>327.47000000000003</ele>
        <time>2023-09-04T15:11:45Z</time>
      </trkpt>
      <trkpt lat="50.450322981923819" lon="7.779874987900257">
        <ele>315.44999999999999</ele>
        <time>2023-09-04T15:11:55Z</time>
      </trkpt>
      <trkpt lat="50.449025966227055" lon="7.781903995200992">
        <ele>308.24000000000001</ele>
        <time>2023-09-04T15:12:01Z</time>
      </trkpt>
      <trkpt lat="50.448110997676849" lon="7.784405993297696">
        <ele>304.38999999999999</ele>
        <time>2023-09-04T15:12:07Z</time>
      </trkpt>
      <trkpt lat="50.447528036311269" lon="7.787681976333261">
        <ele>299.11000000000001</ele>
        <time>2023-09-04T15:12:14Z</time>
      </trkpt>
      <trkpt lat="50.446526985615492" lon="7.795255025848746">
        <ele>282.27999999999997</ele>
        <time>2023-09-04T15:12:30Z</time>
      </trkpt>
      <trkpt lat="50.445661973208189" lon="7.801893996074796">
        <ele>265.94</ele>
        <time>2023-09-04T15:12:44Z</time>
      </trkpt>
      <trkpt lat="50.445186970755458" lon="7.806678973138332">
        <ele>254.41</ele>
        <time>2023-09-04T15:12:54Z</time>
      </trkpt>
      <trkpt lat="50.445161992684007" lon="7.810962963849306">
        <ele>252</ele>
        <time>2023-09-04T15:13:03Z</time>
      </trkpt>
      <trkpt lat="50.445398027077317" lon="7.814999017864466">
        <ele>248.63999999999999</ele>
        <time>2023-09-04T15:13:12Z</time>
      </trkpt>
      <trkpt lat="50.445858025923371" lon="7.820397969335318">
        <ele>245.75</ele>
        <time>2023-09-04T15:13:23Z</time>
      </trkpt>
      <trkpt lat="50.446193972602487" lon="7.825792981311679">
        <ele>238.06</ele>
        <time>2023-09-04T15:13:34Z</time>
      </trkpt>
      <trkpt lat="50.445965984836221" lon="7.831070981919766">
        <ele>237.58000000000001</ele>
        <time>2023-09-04T15:13:45Z</time>
      </trkpt>
      <trkpt lat="50.445915022864938" lon="7.835890995338559">
        <ele>249.12</ele>
        <time>2023-09-04T15:13:55Z</time>
      </trkpt>
      <trkpt lat="50.446150973439217" lon="7.842008024454117">
        <ele>266.89999999999998</ele>
        <time>2023-09-04T15:14:08Z</time>
      </trkpt>
      <trkpt lat="50.446512987837195" lon="7.848136033862829">
        <ele>275.56</ele>
        <time>2023-09-04T15:14:21Z</time>
      </trkpt>
      <trkpt lat="50.447278004139662" lon="7.851218981668353">
        <ele>274.58999999999997</ele>
        <time>2023-09-04T15:14:28Z</time>
      </trkpt>
      <trkpt lat="50.448567979037762" lon="7.853826005011797">
        <ele>270.75</ele>
        <time>2023-09-04T15:14:35Z</time>
      </trkpt>
      <trkpt lat="50.450596986338496" lon="7.856649029999971">
        <ele>266.89999999999998</ele>
        <time>2023-09-04T15:14:44Z</time>
      </trkpt>
      <trkpt lat="50.452791033312678" lon="7.859944039955735">
        <ele>261.62</ele>
        <time>2023-09-04T15:14:54Z</time>
      </trkpt>
      <trkpt lat="50.454010013490915" lon="7.863204013556242">
        <ele>252.96000000000001</ele>
        <time>2023-09-04T15:15:02Z</time>
      </trkpt>
      <trkpt lat="50.454589035362005" lon="7.866346975788474">
        <ele>246.72</ele>
        <time>2023-09-04T15:15:09Z</time>
      </trkpt>
      <trkpt lat="50.454796990379691" lon="7.870091004297137">
        <ele>242.87</ele>
        <time>2023-09-04T15:15:17Z</time>
      </trkpt>
      <trkpt lat="50.454943003132939" lon="7.875737976282835">
        <ele>246.72</ele>
        <time>2023-09-04T15:15:29Z</time>
      </trkpt>
      <trkpt lat="50.454747034236789" lon="7.88088203407824">
        <ele>259.20999999999998</ele>
        <time>2023-09-04T15:15:40Z</time>
      </trkpt>
      <trkpt lat="50.454432964324951" lon="7.885552011430264">
        <ele>275.06999999999999</ele>
        <time>2023-09-04T15:15:50Z</time>
      </trkpt>
      <trkpt lat="50.454028034582734" lon="7.890702020376921">
        <ele>291.89999999999998</ele>
        <time>2023-09-04T15:16:01Z</time>
      </trkpt>
      <trkpt lat="50.453562000766397" lon="7.893931986764073">
        <ele>297.18000000000001</ele>
        <time>2023-09-04T15:16:08Z</time>
      </trkpt>
      <trkpt lat="50.452314019203186" lon="7.898237016052008">
        <ele>295.74000000000001</ele>
        <time>2023-09-04T15:16:18Z</time>
      </trkpt>
      <trkpt lat="50.4511200170964" lon="7.900977982208133">
        <ele>289.00999999999999</ele>
        <time>2023-09-04T15:16:25Z</time>
      </trkpt>
      <trkpt lat="50.449105007573962" lon="7.905114032328129">
        <ele>277.48000000000002</ele>
        <time>2023-09-04T15:16:36Z</time>
      </trkpt>
      <trkpt lat="50.447474978864193" lon="7.90851297788322">
        <ele>267.86000000000001</ele>
        <time>2023-09-04T15:16:45Z</time>
      </trkpt>
      <trkpt lat="50.445458041504025" lon="7.91203698143363">
        <ele>252.47999999999999</ele>
        <time>2023-09-04T15:16:55Z</time>
      </trkpt>
      <trkpt lat="50.44327799230814" lon="7.914494974538684">
        <ele>249.12</ele>
        <time>2023-09-04T15:17:04Z</time>
      </trkpt>
      <trkpt lat="50.441100038588047" lon="7.916109999641776">
        <ele>256.32999999999998</ele>
        <time>2023-09-04T15:17:12Z</time>
      </trkpt>
      <trkpt lat="50.4387660138309" lon="7.917093029245734">
        <ele>265.45999999999998</ele>
        <time>2023-09-04T15:17:20Z</time>
      </trkpt>
      <trkpt lat="50.434944033622742" lon="7.918421979993582">
        <ele>273.63</ele>
        <time>2023-09-04T15:17:33Z</time>
      </trkpt>
      <trkpt lat="50.432971017435193" lon="7.919527972117066">
        <ele>283.73000000000002</ele>
        <time>2023-09-04T15:17:40Z</time>
      </trkpt>
      <trkpt lat="50.431197993457317" lon="7.921295966953039">
        <ele>295.74000000000001</ele>
        <time>2023-09-04T15:17:47Z</time>
      </trkpt>
      <trkpt lat="50.428900010883808" lon="7.92436801828444">
        <ele>306.80000000000001</ele>
        <time>2023-09-04T15:17:57Z</time>
      </trkpt>
      <trkpt lat="50.427141990512609" lon="7.92619401589036">
        <ele>309.19999999999999</ele>
        <time>2023-09-04T15:18:04Z</time>
      </trkpt>
      <trkpt lat="50.425443984568119" lon="7.927114013582468">
        <ele>308.72000000000003</ele>
        <time>2023-09-04T15:18:10Z</time>
      </trkpt>
      <trkpt lat="50.42304097674787" lon="7.92752698995173">
        <ele>313.05000000000001</ele>
        <time>2023-09-04T15:18:18Z</time>
      </trkpt>
      <trkpt lat="50.419716965407133" lon="7.927968967705965">
        <ele>315.93000000000001</ele>
        <time>2023-09-04T15:18:29Z</time>
      </trkpt>
      <trkpt lat="50.417327033355832" lon="7.928691990673542">
        <ele>309.19999999999999</ele>
        <time>2023-09-04T15:18:37Z</time>
      </trkpt>
      <trkpt lat="50.415471028536558" lon="7.930230991914868">
        <ele>302.94999999999999</ele>
        <time>2023-09-04T15:18:44Z</time>
      </trkpt>
      <trkpt lat="50.413977038115263" lon="7.932544983923435">
        <ele>301.02999999999997</ele>
        <time>2023-09-04T15:18:51Z</time>
      </trkpt>
      <trkpt lat="50.412980010733008" lon="7.935429029166699">
        <ele>305.83999999999997</ele>
        <time>2023-09-04T15:18:58Z</time>
      </trkpt>
      <trkpt lat="50.412529986351728" lon="7.938687996938825">
        <ele>312.08999999999997</ele>
        <time>2023-09-04T15:19:05Z</time>
      </trkpt>
      <trkpt lat="50.412628976628184" lon="7.941525019705296">
        <ele>311.60000000000002</ele>
        <time>2023-09-04T15:19:11Z</time>
      </trkpt>
      <trkpt lat="50.413270024582744" lon="7.945670960471034">
        <ele>304.88</ele>
        <time>2023-09-04T15:19:20Z</time>
      </trkpt>
      <trkpt lat="50.413417965173721" lon="7.948939986526966">
        <ele>298.63</ele>
        <time>2023-09-04T15:19:27Z</time>
      </trkpt>
      <trkpt lat="50.413190983235836" lon="7.9541049990803">
        <ele>292.86000000000001</ele>
        <time>2023-09-04T15:19:38Z</time>
      </trkpt>
      <trkpt lat="50.412809019908309" lon="7.96256803907454">
        <ele>301.02999999999997</ele>
        <time>2023-09-04T15:19:56Z</time>
      </trkpt>
      <trkpt lat="50.412556976079941" lon="7.968150973320007">
        <ele>301.02999999999997</ele>
        <time>2023-09-04T15:20:08Z</time>
      </trkpt>
      <trkpt lat="50.412413980811834" lon="7.971226964145899">
        <ele>299.11000000000001</ele>
        <time>2023-09-04T15:20:16Z</time>
      </trkpt>
      <trkpt lat="50.412223041057587" lon="7.97674996778369">
        <ele>295.74000000000001</ele>
        <time>2023-09-04T15:20:30Z</time>
      </trkpt>
      <trkpt lat="50.412321025505662" lon="7.981100007891655">
        <ele>286.13</ele>
        <time>2023-09-04T15:20:41Z</time>
      </trkpt>
      <trkpt lat="50.412327982485294" lon="7.98618296161294">
        <ele>268.35000000000002</ele>
        <time>2023-09-04T15:20:54Z</time>
      </trkpt>
      <trkpt lat="50.411874018609524" lon="7.989995973184705">
        <ele>256.81</ele>
        <time>2023-09-04T15:21:04Z</time>
      </trkpt>
      <trkpt lat="50.411201035603881" lon="7.99292896874249">
        <ele>250.08000000000001</ele>
        <time>2023-09-04T15:21:12Z</time>
      </trkpt>
      <trkpt lat="50.409965040162206" lon="7.996305031701922">
        <ele>244.78999999999999</ele>
        <time>2023-09-04T15:21:22Z</time>
      </trkpt>
      <trkpt lat="50.408175000920892" lon="8.000592961907387">
        <ele>235.18000000000001</ele>
        <time>2023-09-04T15:21:35Z</time>
      </trkpt>
      <trkpt lat="50.40627901442349" lon="8.005199991166592">
        <ele>217.40000000000001</ele>
        <time>2023-09-04T15:21:49Z</time>
      </trkpt>
      <trkpt lat="50.405108984559774" lon="8.009076034650207">
        <ele>202.97999999999999</ele>
        <time>2023-09-04T15:22:00Z</time>
      </trkpt>
      <trkpt lat="50.404305998235941" lon="8.01319096237421">
        <ele>191.44</ele>
        <time>2023-09-04T15:22:11Z</time>
      </trkpt>
      <trkpt lat="50.403920011594892" lon="8.017457015812397">
        <ele>179.41999999999999</ele>
        <time>2023-09-04T15:22:22Z</time>
      </trkpt>
      <trkpt lat="50.403859997168183" lon="8.022135961800814">
        <ele>163.56</ele>
        <time>2023-09-04T15:22:34Z</time>
      </trkpt>
      <trkpt lat="50.403847005218267" lon="8.028780966997147">
        <ele>140.49000000000001</ele>
        <time>2023-09-04T15:22:51Z</time>
      </trkpt>
      <trkpt lat="50.40383200161159" lon="8.035410968586803">
        <ele>126.06999999999999</ele>
        <time>2023-09-04T15:23:08Z</time>
      </trkpt>
      <trkpt lat="50.403801994398236" lon="8.041666969656944">
        <ele>123.67</ele>
        <time>2023-09-04T15:23:24Z</time>
      </trkpt>
      <trkpt lat="50.403730999678373" lon="8.047915007919073">
        <ele>118.38</ele>
        <time>2023-09-04T15:23:40Z</time>
      </trkpt>
      <trkpt lat="50.403452971950173" lon="8.053350001573563">
        <ele>125.59</ele>
        <time>2023-09-04T15:23:54Z</time>
      </trkpt>
      <trkpt lat="50.403111996129155" lon="8.05916603654623">
        <ele>146.74000000000001</ele>
        <time>2023-09-04T15:24:09Z</time>
      </trkpt>
      <trkpt lat="50.402552001178265" lon="8.06176601909101">
        <ele>156.83000000000001</ele>
        <time>2023-09-04T15:24:16Z</time>
      </trkpt>
      <trkpt lat="50.401462018489838" lon="8.064835974946618">
        <ele>161.63999999999999</ele>
        <time>2023-09-04T15:24:25Z</time>
      </trkpt>
      <trkpt lat="50.399984959512949" lon="8.068957021459937">
        <ele>157.31</ele>
        <time>2023-09-04T15:24:37Z</time>
      </trkpt>
      <trkpt lat="50.398671012371778" lon="8.072209032252431">
        <ele>155.38999999999999</ele>
        <time>2023-09-04T15:24:47Z</time>
      </trkpt>
      <trkpt lat="50.397454965859652" lon="8.07418498210609">
        <ele>158.75</ele>
        <time>2023-09-04T15:24:54Z</time>
      </trkpt>
      <trkpt lat="50.395787972956896" lon="8.075945014134049">
        <ele>164.52000000000001</ele>
        <time>2023-09-04T15:25:02Z</time>
      </trkpt>
      <trkpt lat="50.393458977341652" lon="8.077419977635145">
        <ele>166.93000000000001</ele>
        <time>2023-09-04T15:25:12Z</time>
      </trkpt>
      <trkpt lat="50.388799980282784" lon="8.080198997631669">
        <ele>173.66</ele>
        <time>2023-09-04T15:25:32Z</time>
      </trkpt>
      <trkpt lat="50.385316964238882" lon="8.082344010472298">
        <ele>182.31</ele>
        <time>2023-09-04T15:25:47Z</time>
      </trkpt>
      <trkpt lat="50.382306016981602" lon="8.084309985861182">
        <ele>190</ele>
        <time>2023-09-04T15:26:00Z</time>
      </trkpt>
      <trkpt lat="50.380673976615071" lon="8.08621603064239">
        <ele>190.47999999999999</ele>
        <time>2023-09-04T15:26:08Z</time>
      </trkpt>
      <trkpt lat="50.379236983135343" lon="8.088590037077665">
        <ele>189.03999999999999</ele>
        <time>2023-09-04T15:26:16Z</time>
      </trkpt>
      <trkpt lat="50.377995036542416" lon="8.091528983786702">
        <ele>190.47999999999999</ele>
        <time>2023-09-04T15:26:25Z</time>
      </trkpt>
      <trkpt lat="50.376792987808585" lon="8.094545966014266">
        <ele>190</ele>
        <time>2023-09-04T15:26:34Z</time>
      </trkpt>
      <trkpt lat="50.375323975458741" lon="8.098234003409743">
        <ele>190</ele>
        <time>2023-09-04T15:26:45Z</time>
      </trkpt>
      <trkpt lat="50.373724037781358" lon="8.102266034111381">
        <ele>190</ele>
        <time>2023-09-04T15:26:57Z</time>
      </trkpt>
      <trkpt lat="50.372258964926004" lon="8.10596102848649">
        <ele>187.59</ele>
        <time>2023-09-04T15:27:08Z</time>
      </trkpt>
      <trkpt lat="50.370531035587192" lon="8.110318025574088">
        <ele>183.75</ele>
        <time>2023-09-04T15:27:21Z</time>
      </trkpt>
      <trkpt lat="50.369126982986927" lon="8.113887961953878">
        <ele>181.34999999999999</ele>
        <time>2023-09-04T15:27:31Z</time>
      </trkpt>
      <trkpt lat="50.367334010079503" lon="8.118520975112915">
        <ele>178.94</ele>
        <time>2023-09-04T15:27:44Z</time>
      </trkpt>
      <trkpt lat="50.365359988063574" lon="8.123506028205156">
        <ele>175.58000000000001</ele>
        <time>2023-09-04T15:27:58Z</time>
      </trkpt>
      <trkpt lat="50.363963982090354" lon="8.127040006220341">
        <ele>177.02000000000001</ele>
        <time>2023-09-04T15:28:08Z</time>
      </trkpt>
      <trkpt lat="50.362278968095779" lon="8.131307987496257">
        <ele>181.83000000000001</ele>
        <time>2023-09-04T15:28:20Z</time>
      </trkpt>
      <trkpt lat="50.360929984599352" lon="8.134928969666362">
        <ele>184.22999999999999</ele>
        <time>2023-09-04T15:28:30Z</time>
      </trkpt>
      <trkpt lat="50.359988026320934" lon="8.138378039002419">
        <ele>186.63</ele>
        <time>2023-09-04T15:28:39Z</time>
      </trkpt>
      <trkpt lat="50.358952023088932" lon="8.142708968371153">
        <ele>184.22999999999999</ele>
        <time>2023-09-04T15:28:50Z</time>
      </trkpt>
      <trkpt lat="50.358011992648244" lon="8.146637985482812">
        <ele>175.09999999999999</ele>
        <time>2023-09-04T15:29:00Z</time>
      </trkpt>
      <trkpt lat="50.356812039390206" lon="8.15172404050827">
        <ele>153.47</ele>
        <time>2023-09-04T15:29:13Z</time>
      </trkpt>
      <trkpt lat="50.355814006179571" lon="8.155539985746145">
        <ele>148.66</ele>
        <time>2023-09-04T15:29:23Z</time>
      </trkpt>
      <trkpt lat="50.354632996022701" lon="8.158276006579399">
        <ele>157.31</ele>
        <time>2023-09-04T15:29:31Z</time>
      </trkpt>
      <trkpt lat="50.353693971410394" lon="8.159763040021062">
        <ele>163.56</ele>
        <time>2023-09-04T15:29:36Z</time>
      </trkpt>
      <trkpt lat="50.353498002514243" lon="8.160049030557275">
        <ele>164.52000000000001</ele>
        <time>2023-09-04T15:29:37Z</time>
      </trkpt>
      <trkpt lat="50.351125001907349" lon="8.163484018296003">
        <ele>172.69</ele>
        <time>2023-09-04T15:29:49Z</time>
      </trkpt>
      <trkpt lat="50.348404990509152" lon="8.167445976287127">
        <ele>180.87</ele>
        <time>2023-09-04T15:30:03Z</time>
      </trkpt>
      <trkpt lat="50.346461981534958" lon="8.170276964083314">
        <ele>193.36000000000001</ele>
        <time>2023-09-04T15:30:13Z</time>
      </trkpt>
      <trkpt lat="50.343964006751776" lon="8.173902975395322">
        <ele>203.94</ele>
        <time>2023-09-04T15:30:26Z</time>
      </trkpt>
      <trkpt lat="50.342011023312807" lon="8.176838988438249">
        <ele>205.86000000000001</ele>
        <time>2023-09-04T15:30:36Z</time>
      </trkpt>
      <trkpt lat="50.340174967423081" lon="8.180402973666787">
        <ele>208.25999999999999</ele>
        <time>2023-09-04T15:30:47Z</time>
      </trkpt>
      <trkpt lat="50.338514009490609" lon="8.184240963310003">
        <ele>205.86000000000001</ele>
        <time>2023-09-04T15:30:58Z</time>
      </trkpt>
      <trkpt lat="50.336606036871672" lon="8.188721006736159">
        <ele>200.56999999999999</ele>
        <time>2023-09-04T15:31:11Z</time>
      </trkpt>
      <trkpt lat="50.335002997890115" lon="8.192512979730964">
        <ele>211.63</ele>
        <time>2023-09-04T15:31:22Z</time>
      </trkpt>
      <trkpt lat="50.333528034389019" lon="8.195972023531795">
        <ele>225.09</ele>
        <time>2023-09-04T15:31:32Z</time>
      </trkpt>
      <trkpt lat="50.331420991569757" lon="8.201304003596306">
        <ele>242.38999999999999</ele>
        <time>2023-09-04T15:31:47Z</time>
      </trkpt>
      <trkpt lat="50.329977041110396" lon="8.205320024862886">
        <ele>250.56</ele>
        <time>2023-09-04T15:31:58Z</time>
      </trkpt>
      <trkpt lat="50.328660998493433" lon="8.208941007032991">
        <ele>256.32999999999998</ele>
        <time>2023-09-04T15:32:08Z</time>
      </trkpt>
      <trkpt lat="50.327202966436744" lon="8.212933978065848">
        <ele>261.62</ele>
        <time>2023-09-04T15:32:19Z</time>
      </trkpt>
      <trkpt lat="50.325665976852179" lon="8.216329989954829">
        <ele>265.94</ele>
        <time>2023-09-04T15:32:29Z</time>
      </trkpt>
      <trkpt lat="50.323973000049591" lon="8.218997027724981">
        <ele>268.35000000000002</ele>
        <time>2023-09-04T15:32:38Z</time>
      </trkpt>
      <trkpt lat="50.321971988305449" lon="8.221068028360605">
        <ele>273.63</ele>
        <time>2023-09-04T15:32:47Z</time>
      </trkpt>
      <trkpt lat="50.319376029074192" lon="8.223261991515756">
        <ele>277</ele>
        <time>2023-09-04T15:32:58Z</time>
      </trkpt>
      <trkpt lat="50.316300960257649" lon="8.225833978503943">
        <ele>276.04000000000002</ele>
        <time>2023-09-04T15:33:11Z</time>
      </trkpt>
      <trkpt lat="50.312298014760017" lon="8.229182967916131">
        <ele>273.14999999999998</ele>
        <time>2023-09-04T15:33:28Z</time>
      </trkpt>
      <trkpt lat="50.3093839623034" lon="8.231234019622207">
        <ele>272.67000000000002</ele>
        <time>2023-09-04T15:33:40Z</time>
      </trkpt>
      <trkpt lat="50.306613994762301" lon="8.232700014486909">
        <ele>279.88</ele>
        <time>2023-09-04T15:33:51Z</time>
      </trkpt>
      <trkpt lat="50.303035005927086" lon="8.234511008486152">
        <ele>287.56999999999999</ele>
        <time>2023-09-04T15:34:05Z</time>
      </trkpt>
      <trkpt lat="50.298720002174377" lon="8.236711006611586">
        <ele>288.52999999999997</ele>
        <time>2023-09-04T15:34:22Z</time>
      </trkpt>
      <trkpt lat="50.294457972049713" lon="8.238854007795453">
        <ele>290.45999999999998</ele>
        <time>2023-09-04T15:34:39Z</time>
      </trkpt>
      <trkpt lat="50.292066028341651" lon="8.239881964400411">
        <ele>296.22000000000003</ele>
        <time>2023-09-04T15:34:49Z</time>
      </trkpt>
      <trkpt lat="50.289321038872004" lon="8.240297958254814">
        <ele>299.11000000000001</ele>
        <time>2023-09-04T15:35:00Z</time>
      </trkpt>
      <trkpt lat="50.286065004765987" lon="8.240458974614739">
        <ele>294.77999999999997</ele>
        <time>2023-09-04T15:35:13Z</time>
      </trkpt>
      <trkpt lat="50.282554998993874" lon="8.240667013451457">
        <ele>297.67000000000002</ele>
        <time>2023-09-04T15:35:27Z</time>
      </trkpt>
      <trkpt lat="50.279550002887845" lon="8.241003965958953">
        <ele>302.47000000000003</ele>
        <time>2023-09-04T15:35:39Z</time>
      </trkpt>
      <trkpt lat="50.277663990855217" lon="8.241960005834699">
        <ele>298.14999999999998</ele>
        <time>2023-09-04T15:35:47Z</time>
      </trkpt>
      <trkpt lat="50.275218989700079" lon="8.243898991495371">
        <ele>284.69</ele>
        <time>2023-09-04T15:35:58Z</time>
      </trkpt>
      <trkpt lat="50.272131012752652" lon="8.246391015127301">
        <ele>275.56</ele>
        <time>2023-09-04T15:36:12Z</time>
      </trkpt>
      <trkpt lat="50.269028032198548" lon="8.248882032930851">
        <ele>273.63</ele>
        <time>2023-09-04T15:36:26Z</time>
      </trkpt>
      <trkpt lat="50.2667579613626" lon="8.250552965328097">
        <ele>272.67000000000002</ele>
        <time>2023-09-04T15:36:36Z</time>
      </trkpt>
      <trkpt lat="50.264791985973716" lon="8.251114971935749">
        <ele>270.26999999999998</ele>
        <time>2023-09-04T15:36:44Z</time>
      </trkpt>
      <trkpt lat="50.262802038341761" lon="8.250938029959798">
        <ele>265.94</ele>
        <time>2023-09-04T15:36:52Z</time>
      </trkpt>
      <trkpt lat="50.260907979682088" lon="8.250002022832632">
        <ele>260.17000000000002</ele>
        <time>2023-09-04T15:37:00Z</time>
      </trkpt>
      <trkpt lat="50.258660037070513" lon="8.248219024389982">
        <ele>250.08000000000001</ele>
        <time>2023-09-04T15:37:10Z</time>
      </trkpt>
      <trkpt lat="50.256811995059252" lon="8.247100962325931">
        <ele>241.43000000000001</ele>
        <time>2023-09-04T15:37:18Z</time>
      </trkpt>
      <trkpt lat="50.254848031327128" lon="8.246601987630129">
        <ele>237.09999999999999</ele>
        <time>2023-09-04T15:37:26Z</time>
      </trkpt>
      <trkpt lat="50.252631017938256" lon="8.246780019253492">
        <ele>243.83000000000001</ele>
        <time>2023-09-04T15:37:35Z</time>
      </trkpt>
      <trkpt lat="50.250659007579088" lon="8.246996020898223">
        <ele>255.84999999999999</ele>
        <time>2023-09-04T15:37:43Z</time>
      </trkpt>
      <trkpt lat="50.248570991680026" lon="8.246721010655165">
        <ele>267.86000000000001</ele>
        <time>2023-09-04T15:37:51Z</time>
      </trkpt>
      <trkpt lat="50.245139021426439" lon="8.245793972164393">
        <ele>288.05000000000001</ele>
        <time>2023-09-04T15:38:04Z</time>
      </trkpt>
      <trkpt lat="50.242465026676655" lon="8.245480991899967">
        <ele>300.55000000000001</ele>
        <time>2023-09-04T15:38:14Z</time>
      </trkpt>
      <trkpt lat="50.240807002410293" lon="8.245531031861901">
        <ele>308.24000000000001</ele>
        <time>2023-09-04T15:38:20Z</time>
      </trkpt>
      <trkpt lat="50.238030999898911" lon="8.245662041008472">
        <ele>317.37</ele>
        <time>2023-09-04T15:38:30Z</time>
      </trkpt>
      <trkpt lat="50.235852962359786" lon="8.246184987947345">
        <ele>322.66000000000003</ele>
        <time>2023-09-04T15:38:38Z</time>
      </trkpt>
      <trkpt lat="50.233790008351207" lon="8.247403968125582">
        <ele>326.99000000000001</ele>
        <time>2023-09-04T15:38:46Z</time>
      </trkpt>
      <trkpt lat="50.230379998683929" lon="8.249150002375245">
        <ele>330.35000000000002</ele>
        <time>2023-09-04T15:38:59Z</time>
      </trkpt>
      <trkpt lat="50.227366033941507" lon="8.249875036999583">
        <ele>330.82999999999998</ele>
        <time>2023-09-04T15:39:10Z</time>
      </trkpt>
      <trkpt lat="50.223277006298304" lon="8.250911962240934">
        <ele>332.26999999999998</ele>
        <time>2023-09-04T15:39:25Z</time>
      </trkpt>
      <trkpt lat="50.221082037314773" lon="8.251002989709377">
        <ele>338.51999999999998</ele>
        <time>2023-09-04T15:39:33Z</time>
      </trkpt>
      <trkpt lat="50.218344004824758" lon="8.25036202557385">
        <ele>352.94</ele>
        <time>2023-09-04T15:39:43Z</time>
      </trkpt>
      <trkpt lat="50.215570013970137" lon="8.249945025891066">
        <ele>364.95999999999998</ele>
        <time>2023-09-04T15:39:53Z</time>
      </trkpt>
      <trkpt lat="50.2130869589746" lon="8.25040502473712">
        <ele>365.92000000000002</ele>
        <time>2023-09-04T15:40:02Z</time>
      </trkpt>
      <trkpt lat="50.210084980353713" lon="8.251142967492342">
        <ele>366.39999999999998</ele>
        <time>2023-09-04T15:40:13Z</time>
      </trkpt>
      <trkpt lat="50.206545973196626" lon="8.252077968791127">
        <ele>374.56999999999999</ele>
        <time>2023-09-04T15:40:26Z</time>
      </trkpt>
      <trkpt lat="50.20356897264719" lon="8.253140039741993">
        <ele>376.49000000000001</ele>
        <time>2023-09-04T15:40:37Z</time>
      </trkpt>
      <trkpt lat="50.200089979916811" lon="8.254822036251426">
        <ele>367.36000000000001</ele>
        <time>2023-09-04T15:40:50Z</time>
      </trkpt>
      <trkpt lat="50.196519959717989" lon="8.25706603936851">
        <ele>358.23000000000002</ele>
        <time>2023-09-04T15:41:04Z</time>
      </trkpt>
      <trkpt lat="50.193802965804935" lon="8.259191019460559">
        <ele>356.79000000000002</ele>
        <time>2023-09-04T15:41:15Z</time>
      </trkpt>
      <trkpt lat="50.190191036090255" lon="8.262388966977596">
        <ele>355.82999999999998</ele>
        <time>2023-09-04T15:41:30Z</time>
      </trkpt>
      <trkpt lat="50.186803992837667" lon="8.265287009999156">
        <ele>356.79000000000002</ele>
        <time>2023-09-04T15:41:44Z</time>
      </trkpt>
      <trkpt lat="50.184357985854149" lon="8.266727020964027">
        <ele>359.67000000000002</ele>
        <time>2023-09-04T15:41:54Z</time>
      </trkpt>
      <trkpt lat="50.182637013494968" lon="8.267569988965988">
        <ele>362.06999999999999</ele>
        <time>2023-09-04T15:42:01Z</time>
      </trkpt>
      <trkpt lat="50.180519996210933" lon="8.269134974107146">
        <ele>364</ele>
        <time>2023-09-04T15:42:10Z</time>
      </trkpt>
      <trkpt lat="50.178861971944571" lon="8.271111007779837">
        <ele>361.11000000000001</ele>
        <time>2023-09-04T15:42:18Z</time>
      </trkpt>
      <trkpt lat="50.177440987899899" lon="8.273613005876541">
        <ele>354.86000000000001</ele>
        <time>2023-09-04T15:42:26Z</time>
      </trkpt>
      <trkpt lat="50.17619501799345" lon="8.276807013899088">
        <ele>356.79000000000002</ele>
        <time>2023-09-04T15:42:35Z</time>
      </trkpt>
      <trkpt lat="50.174848968163133" lon="8.280467977747321">
        <ele>365.44</ele>
        <time>2023-09-04T15:42:45Z</time>
      </trkpt>
      <trkpt lat="50.17325296998024" lon="8.284751968458295">
        <ele>368.31999999999999</ele>
        <time>2023-09-04T15:42:56Z</time>
      </trkpt>
      <trkpt lat="50.171917984262109" lon="8.288103975355625">
        <ele>367.36000000000001</ele>
        <time>2023-09-04T15:43:05Z</time>
      </trkpt>
      <trkpt lat="50.170387029647827" lon="8.290750980377197">
        <ele>365.44</ele>
        <time>2023-09-04T15:43:13Z</time>
      </trkpt>
      <trkpt lat="50.168345030397177" lon="8.29322699457407">
        <ele>360.14999999999998</ele>
        <time>2023-09-04T15:43:22Z</time>
      </trkpt>
      <trkpt lat="50.166321974247694" lon="8.294977974146605">
        <ele>354.38</ele>
        <time>2023-09-04T15:43:30Z</time>
      </trkpt>
      <trkpt lat="50.164218032732606" lon="8.297100020572543">
        <ele>345.73000000000002</ele>
        <time>2023-09-04T15:43:39Z</time>
      </trkpt>
      <trkpt lat="50.16237803734839" lon="8.29969497397542">
        <ele>336.60000000000002</ele>
        <time>2023-09-04T15:43:48Z</time>
      </trkpt>
      <trkpt lat="50.160105032846332" lon="8.302796026691794">
        <ele>329.38999999999999</ele>
        <time>2023-09-04T15:43:59Z</time>
      </trkpt>
      <trkpt lat="50.157541008666158" lon="8.305269023403525">
        <ele>327.94999999999999</ele>
        <time>2023-09-04T15:44:10Z</time>
      </trkpt>
      <trkpt lat="50.15423996374011" lon="8.30837401561439">
        <ele>329.38999999999999</ele>
        <time>2023-09-04T15:44:24Z</time>
      </trkpt>
      <trkpt lat="50.151714999228716" lon="8.310942985117436">
        <ele>332.26999999999998</ele>
        <time>2023-09-04T15:44:35Z</time>
      </trkpt>
      <trkpt lat="50.150448996573687" lon="8.313169972971082">
        <ele>335.63999999999999</ele>
        <time>2023-09-04T15:44:42Z</time>
      </trkpt>
      <trkpt lat="50.150165017694235" lon="8.313902970403433">
        <ele>336.60000000000002</ele>
        <time>2023-09-04T15:44:44Z</time>
      </trkpt>
      <trkpt lat="50.150054963305593" lon="8.314297003671527">
        <ele>337.07999999999998</ele>
        <time>2023-09-04T15:44:45Z</time>
      </trkpt>
      <trkpt lat="50.149624971672893" lon="8.316508987918496">
        <ele>339.48000000000002</ele>
        <time>2023-09-04T15:44:51Z</time>
      </trkpt>
      <trkpt lat="50.149219036102295" lon="8.319270992651582">
        <ele>340.92000000000002</ele>
        <time>2023-09-04T15:44:59Z</time>
      </trkpt>
      <trkpt lat="50.148658035323024" lon="8.321281978860498">
        <ele>341.41000000000003</ele>
        <time>2023-09-04T15:45:05Z</time>
      </trkpt>
      <trkpt lat="50.147570986300707" lon="8.323269998654723">
        <ele>338.04000000000002</ele>
        <time>2023-09-04T15:45:11Z</time>
      </trkpt>
      <trkpt lat="50.146127035841346" lon="8.324888041242957">
        <ele>331.79000000000002</ele>
        <time>2023-09-04T15:45:17Z</time>
      </trkpt>
      <trkpt lat="50.144987013190985" lon="8.32616301253438">
        <ele>323.62</ele>
        <time>2023-09-04T15:45:29Z</time>
      </trkpt>
      <trkpt lat="50.141497040167451" lon="8.329827999696136">
        <ele>310.63999999999999</ele>
        <time>2023-09-04T15:45:43Z</time>
      </trkpt>
      <trkpt lat="50.13694298453629" lon="8.333027036860585">
        <ele>290.94</ele>
        <time>2023-09-04T15:45:55Z</time>
      </trkpt>
      <trkpt lat="50.134287010878325" lon="8.334850016981363">
        <ele>277</ele>
        <time>2023-09-04T15:46:06Z</time>
      </trkpt>
      <trkpt lat="50.131881991401315" lon="8.336533019319177">
        <ele>275.56</ele>
        <time>2023-09-04T15:46:16Z</time>
      </trkpt>
      <trkpt lat="50.128367962315679" lon="8.338973997160792">
        <ele>275.56</ele>
        <time>2023-09-04T15:46:29Z</time>
      </trkpt>
      <trkpt lat="50.125527000054717" lon="8.340356005355716">
        <ele>271.70999999999998</ele>
        <time>2023-09-04T15:46:39Z</time>
      </trkpt>
      <trkpt lat="50.123229017481208" lon="8.340950030833483">
        <ele>263.06</ele>
        <time>2023-09-04T15:46:47Z</time>
      </trkpt>
      <trkpt lat="50.120774041861296" lon="8.341103000566363">
        <ele>259.20999999999998</ele>
        <time>2023-09-04T15:46:56Z</time>
      </trkpt>
      <trkpt lat="50.117198992520571" lon="8.341450011357665">
        <ele>258.25</ele>
        <time>2023-09-04T15:47:09Z</time>
      </trkpt>
      <trkpt lat="50.114474035799503" lon="8.342309994623065">
        <ele>251.52000000000001</ele>
        <time>2023-09-04T15:47:19Z</time>
      </trkpt>
      <trkpt lat="50.111587978899479" lon="8.343812031671405">
        <ele>235.18000000000001</ele>
        <time>2023-09-04T15:47:30Z</time>
      </trkpt>
      <trkpt lat="50.108508970588446" lon="8.345540966838598">
        <ele>229.41</ele>
        <time>2023-09-04T15:47:42Z</time>
      </trkpt>
      <trkpt lat="50.105909993872046" lon="8.347009979188442">
        <ele>228.93000000000001</ele>
        <time>2023-09-04T15:47:52Z</time>
      </trkpt>
      <trkpt lat="50.103039024397731" lon="8.348600026220083">
        <ele>221.72</ele>
        <time>2023-09-04T15:48:03Z</time>
      </trkpt>
      <trkpt lat="50.099676037207246" lon="8.350472962483764">
        <ele>221.24000000000001</ele>
        <time>2023-09-04T15:48:22Z</time>
      </trkpt>
      <trkpt lat="50.092905974015594" lon="8.3542459923774">
        <ele>212.59</ele>
        <time>2023-09-04T15:48:42Z</time>
      </trkpt>
      <trkpt lat="50.089277029037476" lon="8.356365021318197">
        <ele>195.28</ele>
        <time>2023-09-04T15:48:56Z</time>
      </trkpt>
      <trkpt lat="50.086023006588221" lon="8.358679013326764">
        <ele>174.62</ele>
        <time>2023-09-04T15:49:09Z</time>
      </trkpt>
      <trkpt lat="50.08230697363615" lon="8.361465996131301">
        <ele>165.96000000000001</ele>
        <time>2023-09-04T15:49:24Z</time>
      </trkpt>
      <trkpt lat="50.080075962468982" lon="8.363153021782637">
        <ele>163.56</ele>
        <time>2023-09-04T15:49:33Z</time>
      </trkpt>
      <trkpt lat="50.077196024358273" lon="8.365632975474">
        <ele>164.03999999999999</ele>
        <time>2023-09-04T15:49:45Z</time>
      </trkpt>
      <trkpt lat="50.075010024011135" lon="8.368245027959347">
        <ele>165</ele>
        <time>2023-09-04T15:49:55Z</time>
      </trkpt>
      <trkpt lat="50.072240978479385" lon="8.371817981824279">
        <ele>160.19999999999999</ele>
        <time>2023-09-04T15:50:08Z</time>
      </trkpt>
      <trkpt lat="50.06949900649488" lon="8.375355983152986">
        <ele>155.87</ele>
        <time>2023-09-04T15:50:21Z</time>
      </trkpt>
      <trkpt lat="50.067529007792473" lon="8.377650026232004">
        <ele>166.44999999999999</ele>
        <time>2023-09-04T15:50:30Z</time>
      </trkpt>
      <trkpt lat="50.066388985142112" lon="8.378687035292387">
        <ele>170.77000000000001</ele>
        <time>2023-09-04T15:50:36Z</time>
      </trkpt>
      <trkpt lat="50.064654015004635" lon="8.380195023491979">
        <ele>171.72999999999999</ele>
        <time>2023-09-04T15:50:46Z</time>
      </trkpt>
      <trkpt lat="50.062275985255837" lon="8.382225958630443">
        <ele>169.81</ele>
        <time>2023-09-04T15:50:59Z</time>
      </trkpt>
      <trkpt lat="50.059655969962478" lon="8.384423023089767">
        <ele>167.41</ele>
        <time>2023-09-04T15:51:14Z</time>
      </trkpt>
      <trkpt lat="50.057995012030005" lon="8.385708974674344">
        <ele>165.96000000000001</ele>
        <time>2023-09-04T15:51:24Z</time>
      </trkpt>
      <trkpt lat="50.055998023599386" lon="8.387426007539034">
        <ele>162.59999999999999</ele>
        <time>2023-09-04T15:51:43Z</time>
      </trkpt>
      <trkpt lat="50.055167963728309" lon="8.388095973059535">
        <ele>162.59999999999999</ele>
        <time>2023-09-04T15:51:44Z</time>
      </trkpt>
      <trkpt lat="50.054835034534335" lon="8.387881983071566">
        <ele>162.12</ele>
        <time>2023-09-04T15:51:46Z</time>
      </trkpt>
      <trkpt lat="50.054729003459215" lon="8.387789027765393">
        <ele>161.63999999999999</ele>
        <time>2023-09-04T15:51:47Z</time>
      </trkpt>
      <trkpt lat="50.054665971547365" lon="8.387661958113313">
        <ele>161.16</ele>
        <time>2023-09-04T15:51:48Z</time>
      </trkpt>
      <trkpt lat="50.054606962949038" lon="8.387487027794123">
        <ele>160.19999999999999</ele>
        <time>2023-09-04T15:51:49Z</time>
      </trkpt>
      <trkpt lat="50.054591037333012" lon="8.387307990342379">
        <ele>159.72</ele>
        <time>2023-09-04T15:51:50Z</time>
      </trkpt>
      <trkpt lat="50.054620960727334" lon="8.387128030881286">
        <ele>159.24000000000001</ele>
        <time>2023-09-04T15:51:51Z</time>
      </trkpt>
      <trkpt lat="50.054661026224494" lon="8.386958967894316">
        <ele>158.27000000000001</ele>
        <time>2023-09-04T15:51:52Z</time>
      </trkpt>
      <trkpt lat="50.054751969873905" lon="8.386834999546409">
        <ele>157.78999999999999</ele>
        <time>2023-09-04T15:51:53Z</time>
      </trkpt>
      <trkpt lat="50.054853977635503" lon="8.386728968471289">
        <ele>156.83000000000001</ele>
        <time>2023-09-04T15:51:54Z</time>
      </trkpt>
      <trkpt lat="50.054979035630822" lon="8.386715976521373">
        <ele>156.34999999999999</ele>
        <time>2023-09-04T15:51:55Z</time>
      </trkpt>
      <trkpt lat="50.055095963180065" lon="8.386755958199501">
        <ele>155.38999999999999</ele>
        <time>2023-09-04T15:51:56Z</time>
      </trkpt>
      <trkpt lat="50.055203000083566" lon="8.386847991496325">
        <ele>154.91</ele>
        <time>2023-09-04T15:51:57Z</time>
      </trkpt>
      <trkpt lat="50.05534197203815" lon="8.38696701452136">
        <ele>154.91</ele>
        <time>2023-09-04T15:51:58Z</time>
      </trkpt>
      <trkpt lat="50.055393017828465" lon="8.387112021446228">
        <ele>154.43000000000001</ele>
        <time>2023-09-04T15:51:59Z</time>
      </trkpt>
      <trkpt lat="50.055460995063186" lon="8.387303967028856">
        <ele>153.94999999999999</ele>
        <time>2023-09-04T15:52:00Z</time>
      </trkpt>
      <trkpt lat="50.055484967306256" lon="8.387536983937025">
        <ele>153.94999999999999</ele>
        <time>2023-09-04T15:52:01Z</time>
      </trkpt>
      <trkpt lat="50.055493013933301" lon="8.387776035815477">
        <ele>153.47</ele>
        <time>2023-09-04T15:52:02Z</time>
      </trkpt>
      <trkpt lat="50.055493013933301" lon="8.387996982783079">
        <ele>152.99000000000001</ele>
        <time>2023-09-04T15:52:03Z</time>
      </trkpt>
      <trkpt lat="50.05551396869123" lon="8.390322960913181">
        <ele>152.03</ele>
        <time>2023-09-04T15:52:11Z</time>
      </trkpt>
      <trkpt lat="50.0555569678545" lon="8.393811006098986">
        <ele>153.47</ele>
        <time>2023-09-04T15:52:21Z</time>
      </trkpt>
      <trkpt lat="50.055506005883217" lon="8.398781977593899">
        <ele>149.62</ele>
        <time>2023-09-04T15:52:33Z</time>
      </trkpt>
      <trkpt lat="50.05547096952796" lon="8.405212992802262">
        <ele>155.38999999999999</ele>
        <time>2023-09-04T15:52:48Z</time>
      </trkpt>
      <trkpt lat="50.055466024205089" lon="8.412504997104406">
        <ele>157.31</ele>
        <time>2023-09-04T15:53:05Z</time>
      </trkpt>
      <trkpt lat="50.055442973971367" lon="8.418078040704131">
        <ele>156.34999999999999</ele>
        <time>2023-09-04T15:53:18Z</time>
      </trkpt>
      <trkpt lat="50.055409027263522" lon="8.42583398334682">
        <ele>147.22</ele>
        <time>2023-09-04T15:53:36Z</time>
      </trkpt>
      <trkpt lat="50.055364016443491" lon="8.433512980118394">
        <ele>138.56999999999999</ele>
        <time>2023-09-04T15:53:54Z</time>
      </trkpt>
      <trkpt lat="50.055324034765363" lon="8.439094992354512">
        <ele>134.24000000000001</ele>
        <time>2023-09-04T15:54:07Z</time>
      </trkpt>
      <trkpt lat="50.055007031187415" lon="8.443332966417074">
        <ele>131.84</ele>
        <time>2023-09-04T15:54:17Z</time>
      </trkpt>
      <trkpt lat="50.055247005075216" lon="8.445860026404262">
        <ele>129.91999999999999</ele>
        <time>2023-09-04T15:54:23Z</time>
      </trkpt>
      <trkpt lat="50.055929962545633" lon="8.448187010362744">
        <ele>127.51000000000001</ele>
        <time>2023-09-04T15:54:29Z</time>
      </trkpt>
      <trkpt lat="50.056982981041074" lon="8.450128007680178">
        <ele>125.11</ele>
        <time>2023-09-04T15:54:35Z</time>
      </trkpt>
      <trkpt lat="50.059386994689703" lon="8.453684030100703">
        <ele>125.11</ele>
        <time>2023-09-04T15:54:47Z</time>
      </trkpt>
      <trkpt lat="50.06225997582078" lon="8.457677001133561">
        <ele>127.98999999999999</ele>
        <time>2023-09-04T15:55:01Z</time>
      </trkpt>
      <trkpt lat="50.064230980351567" lon="8.460765983909369">
        <ele>130.88</ele>
        <time>2023-09-04T15:55:11Z</time>
      </trkpt>
      <trkpt lat="50.066741025075316" lon="8.465287014842033">
        <ele>130.88</ele>
        <time>2023-09-04T15:55:25Z</time>
      </trkpt>
      <trkpt lat="50.068169971928" lon="8.467780966311693">
        <ele>129.43000000000001</ele>
        <time>2023-09-04T15:55:33Z</time>
      </trkpt>
      <trkpt lat="50.069001959636807" lon="8.469346035271883">
        <ele>125.59</ele>
        <time>2023-09-04T15:55:39Z</time>
      </trkpt>
      <trkpt lat="50.069031966850162" lon="8.469558013603091">
        <ele>125.11</ele>
        <time>2023-09-04T15:55:40Z</time>
      </trkpt>
      <trkpt lat="50.069054011255503" lon="8.4697509650141">
        <ele>124.63</ele>
        <time>2023-09-04T15:55:41Z</time>
      </trkpt>
      <trkpt lat="50.069013023748994" lon="8.469883985817432">
        <ele>124.15000000000001</ele>
        <time>2023-09-04T15:55:42Z</time>
      </trkpt>
      <trkpt lat="50.068968012928963" lon="8.470029998570681">
        <ele>124.15000000000001</ele>
        <time>2023-09-04T15:55:43Z</time>
      </trkpt>
      <trkpt lat="50.068878997117281" lon="8.470140974968672">
        <ele>124.15000000000001</ele>
        <time>2023-09-04T15:55:44Z</time>
      </trkpt>
      <trkpt lat="50.068796016275883" lon="8.470244994387031">
        <ele>124.15000000000001</ele>
        <time>2023-09-04T15:55:45Z</time>
      </trkpt>
      <trkpt lat="50.068698031827807" lon="8.470261003822088">
        <ele>124.15000000000001</ele>
        <time>2023-09-04T15:55:46Z</time>
      </trkpt>
      <trkpt lat="50.068585965782404" lon="8.470279024913907">
        <ele>123.67</ele>
        <time>2023-09-04T15:55:47Z</time>
      </trkpt>
      <trkpt lat="50.068487981334329" lon="8.470240971073508">
        <ele>123.67</ele>
        <time>2023-09-04T15:55:48Z</time>
      </trkpt>
      <trkpt lat="50.068385973572731" lon="8.470149021595717">
        <ele>123.67</ele>
        <time>2023-09-04T15:55:49Z</time>
      </trkpt>
      <trkpt lat="50.068288994953036" lon="8.470038967207074">
        <ele>124.15000000000001</ele>
        <time>2023-09-04T15:55:50Z</time>
      </trkpt>
      <trkpt lat="50.068222023546696" lon="8.46987996250391">
        <ele>124.15000000000001</ele>
        <time>2023-09-04T15:55:51Z</time>
      </trkpt>
      <trkpt lat="50.068156979978085" lon="8.469725986942649">
        <ele>124.63</ele>
        <time>2023-09-04T15:55:52Z</time>
      </trkpt>
      <trkpt lat="50.068035023286939" lon="8.469294989481568">
        <ele>125.59</ele>
        <time>2023-09-04T15:55:55Z</time>
      </trkpt>
      <trkpt lat="50.068009039387107" lon="8.469192981719971">
        <ele>126.06999999999999</ele>
        <time>2023-09-04T15:55:56Z</time>
      </trkpt>
      <trkpt lat="50.068030999973416" lon="8.468955019488931">
        <ele>126.55</ele>
        <time>2023-09-04T15:55:57Z</time>
      </trkpt>
      <trkpt lat="50.068098977208138" lon="8.468913026154041">
        <ele>127.51000000000001</ele>
        <time>2023-09-04T15:55:58Z</time>
      </trkpt>
      <trkpt lat="50.0681889988482" lon="8.468869021162391">
        <ele>127.51000000000001</ele>
        <time>2023-09-04T15:55:59Z</time>
      </trkpt>
      <trkpt lat="50.068271979689598" lon="8.468829961493611">
        <ele>127.51000000000001</ele>
        <time>2023-09-04T15:56:00Z</time>
      </trkpt>
      <trkpt lat="50.068351021036506" lon="8.46878201700747">
        <ele>127.51000000000001</ele>
        <time>2023-09-04T15:56:01Z</time>
      </trkpt>
      <trkpt lat="50.068440036848187" lon="8.468728959560394">
        <ele>127.98999999999999</ele>
        <time>2023-09-04T15:56:02Z</time>
      </trkpt>
      <trkpt lat="50.068547995761037" lon="8.468688977882266">
        <ele>127.98999999999999</ele>
        <time>2023-09-04T15:56:03Z</time>
      </trkpt>
      <trkpt lat="50.068668024614453" lon="8.468634998425841">
        <ele>128.47</ele>
        <time>2023-09-04T15:56:04Z</time>
      </trkpt>
      <trkpt lat="50.068784030154347" lon="8.468613037839532">
        <ele>128.94999999999999</ele>
        <time>2023-09-04T15:56:05Z</time>
      </trkpt>
      <trkpt lat="50.068909004330635" lon="8.468597028404474">
        <ele>129.43000000000001</ele>
        <time>2023-09-04T15:56:06Z</time>
      </trkpt>
      <trkpt lat="50.069035990163684" lon="8.468602979555726">
        <ele>129.91999999999999</ele>
        <time>2023-09-04T15:56:07Z</time>
      </trkpt>
      <trkpt lat="50.069159958511591" lon="8.468629969283938">
        <ele>129.91999999999999</ele>
        <time>2023-09-04T15:56:08Z</time>
      </trkpt>
      <trkpt lat="50.069277975708246" lon="8.46867498010397">
        <ele>130.40000000000001</ele>
        <time>2023-09-04T15:56:09Z</time>
      </trkpt>
      <trkpt lat="50.06939297541976" lon="8.46871898509562">
        <ele>130.40000000000001</ele>
        <time>2023-09-04T15:56:10Z</time>
      </trkpt>
      <trkpt lat="50.069505963474512" lon="8.468780005350709">
        <ele>130.40000000000001</ele>
        <time>2023-09-04T15:56:11Z</time>
      </trkpt>
      <trkpt lat="50.069622974842787" lon="8.468843037262559">
        <ele>130.40000000000001</ele>
        <time>2023-09-04T15:56:12Z</time>
      </trkpt>
      <trkpt lat="50.070074005052447" lon="8.469252996146679">
        <ele>128.47</ele>
        <time>2023-09-04T15:56:16Z</time>
      </trkpt>
      <trkpt lat="50.070261005312204" lon="8.469544015824795">
        <ele>127.03</ele>
        <time>2023-09-04T15:56:18Z</time>
      </trkpt>
      <trkpt lat="50.070426966995001" lon="8.469885997474194">
        <ele>125.59</ele>
        <time>2023-09-04T15:56:20Z</time>
      </trkpt>
      <trkpt lat="50.070498967543244" lon="8.470079032704234">
        <ele>124.63</ele>
        <time>2023-09-04T15:56:21Z</time>
      </trkpt>
      <trkpt lat="50.071157030761242" lon="8.47174703143537">
        <ele>118.38</ele>
        <time>2023-09-04T15:56:29Z</time>
      </trkpt>
      <trkpt lat="50.07203402929008" lon="8.472999958321452">
        <ele>114.53</ele>
        <time>2023-09-04T15:56:37Z</time>
      </trkpt>
      <trkpt lat="50.072143999859691" lon="8.473141025751829">
        <ele>114.53</ele>
        <time>2023-09-04T15:56:38Z</time>
      </trkpt>
      <trkpt lat="50.072274003177881" lon="8.473213026300073">
        <ele>114.53</ele>
        <time>2023-09-04T15:56:39Z</time>
      </trkpt>
      <trkpt lat="50.072396965697408" lon="8.473279997706413">
        <ele>115.01000000000001</ele>
        <time>2023-09-04T15:56:40Z</time>
      </trkpt>
      <trkpt lat="50.072512971237302" lon="8.473344035446644">
        <ele>115.01000000000001</ele>
        <time>2023-09-04T15:56:41Z</time>
      </trkpt>
      <trkpt lat="50.072627970948815" lon="8.473390974104404">
        <ele>115.01000000000001</ele>
        <time>2023-09-04T15:56:42Z</time>
      </trkpt>
      <trkpt lat="50.073203975334764" lon="8.473579986020923">
        <ele>114.53</ele>
        <time>2023-09-04T15:56:47Z</time>
      </trkpt>
      <trkpt lat="50.073373960331082" lon="8.473762962967157">
        <ele>115.01000000000001</ele>
        <time>2023-09-04T15:56:49Z</time>
      </trkpt>
      <trkpt lat="50.073879975825548" lon="8.474338967353106">
        <ele>118.38</ele>
        <time>2023-09-04T15:56:57Z</time>
      </trkpt>
      <trkpt lat="50.073914006352425" lon="8.474381966516376">
        <ele>118.86</ele>
        <time>2023-09-04T15:56:58Z</time>
      </trkpt>
      <trkpt lat="50.073964968323708" lon="8.474447010084987">
        <ele>120.78</ele>
        <time>2023-09-04T15:57:07Z</time>
      </trkpt>
      <trkpt lat="50.073985001072288" lon="8.47447500564158">
        <ele>120.78</ele>
        <time>2023-09-04T15:57:20Z</time>
      </trkpt>
      <trkpt lat="50.074041998013854" lon="8.474553963169456">
        <ele>121.73999999999999</ele>
        <time>2023-09-04T15:57:22Z</time>
      </trkpt>
      <trkpt lat="50.07407502271235" lon="8.474599979817867">
        <ele>122.22</ele>
        <time>2023-09-04T15:57:23Z</time>
      </trkpt>
      <trkpt lat="50.074061024934053" lon="8.474846994504333">
        <ele>122.22</ele>
        <time>2023-09-04T15:57:24Z</time>
      </trkpt>
      <trkpt lat="50.074007967486978" lon="8.474920000880957">
        <ele>122.70999999999999</ele>
        <time>2023-09-04T15:57:25Z</time>
      </trkpt>
      <trkpt lat="50.073943007737398" lon="8.475010022521019">
        <ele>122.70999999999999</ele>
        <time>2023-09-04T15:57:26Z</time>
      </trkpt>
      <trkpt lat="50.073867989704013" lon="8.475122004747391">
        <ele>122.70999999999999</ele>
        <time>2023-09-04T15:57:27Z</time>
      </trkpt>
      <trkpt lat="50.073802024126053" lon="8.475260976701975">
        <ele>122.70999999999999</ele>
        <time>2023-09-04T15:57:28Z</time>
      </trkpt>
      <trkpt lat="50.073220990598202" lon="8.476398987695575">
        <ele>122.22</ele>
        <time>2023-09-04T15:57:38Z</time>
      </trkpt>
      <trkpt lat="50.073185032233596" lon="8.476484986022115">
        <ele>122.22</ele>
        <time>2023-09-04T15:57:39Z</time>
      </trkpt>
      <trkpt lat="50.073061985895038" lon="8.476776005700231">
        <ele>121.73999999999999</ele>
        <time>2023-09-04T15:57:42Z</time>
      </trkpt>
      <trkpt lat="50.072612967342138" lon="8.477832963690162">
        <ele>118.86</ele>
        <time>2023-09-04T15:57:52Z</time>
      </trkpt>
      <trkpt lat="50.072471983730793" lon="8.478153990581632">
        <ele>117.42</ele>
        <time>2023-09-04T15:57:56Z</time>
      </trkpt>
      <trkpt lat="50.072439964860678" lon="8.478228002786636">
        <ele>116.94</ele>
        <time>2023-09-04T15:57:57Z</time>
      </trkpt>
      <trkpt lat="50.072232009842992" lon="8.478251975029707">
        <ele>116.94</ele>
        <time>2023-09-04T15:57:58Z</time>
      </trkpt>
      <trkpt lat="50.072165038436651" lon="8.478162037208676">
        <ele>116.45999999999999</ele>
        <time>2023-09-04T15:57:59Z</time>
      </trkpt>
      <trkpt lat="50.072097983211279" lon="8.478086013346911">
        <ele>115.5</ele>
        <time>2023-09-04T15:58:00Z</time>
      </trkpt>
      <trkpt lat="50.072021959349513" lon="8.477998003363609">
        <ele>115.5</ele>
        <time>2023-09-04T15:58:01Z</time>
      </trkpt>
      <trkpt lat="50.071552991867065" lon="8.477243967354298">
        <ele>112.13</ele>
        <time>2023-09-04T15:58:08Z</time>
      </trkpt>
      <trkpt lat="50.071515021845698" lon="8.477178001776338">
        <ele>111.65000000000001</ele>
        <time>2023-09-04T15:58:09Z</time>
      </trkpt>
      <trkpt lat="50.071392981335521" lon="8.476960994303227">
        <ele>111.65000000000001</ele>
        <time>2023-09-04T15:58:10Z</time>
      </trkpt>
      <trkpt lat="50.071392981335521" lon="8.476960994303227">
        <ele>111.17</ele>
        <time>2023-09-04T15:58:11Z</time>
      </trkpt>
      <trkpt lat="50.071392981335521" lon="8.476960994303227">
        <ele>110.69</ele>
        <time>2023-09-04T15:58:12Z</time>
      </trkpt>
      <trkpt lat="50.07164896465838" lon="8.477044980973005">
        <ele>109.73</ele>
        <time>2023-09-04T15:58:16Z</time>
      </trkpt>
      <trkpt lat="50.071673020720482" lon="8.477175990119577">
        <ele>108.77</ele>
        <time>2023-09-04T15:58:19Z</time>
      </trkpt>
      <trkpt lat="50.071722976863384" lon="8.477256037294865">
        <ele>108.29000000000001</ele>
        <time>2023-09-04T15:58:28Z</time>
      </trkpt>
      <trkpt lat="50.071657011285424" lon="8.477429039776325">
        <ele>107.31999999999999</ele>
        <time>2023-09-04T15:58:30Z</time>
      </trkpt>
      <trkpt lat="50.07166899740696" lon="8.477451000362635">
        <ele>107.31999999999999</ele>
        <time>2023-09-04T15:58:31Z</time>
      </trkpt>
      <trkpt lat="50.071679977700114" lon="8.477471033111215">
        <ele>103.95999999999999</ele>
        <time>2023-09-04T15:58:45Z</time>
      </trkpt>
      <trkpt lat="50.071679977700114" lon="8.477471033111215">
        <ele>103.95999999999999</ele>
        <time>2023-09-04T15:59:19Z</time>
      </trkpt>
    </trkseg>
  </trk>

</gpx>